<?xml version="1.0" encoding="UTF-8" standalone="yes"?>
<gpx
 xmlns="http://www.topografix.com/GPX/1/1"
 creator="OziExplorer Version 3956f - http://www.oziexplorer.com"
 version="1.1"
 xmlns:xsi="http://www.w3.org/2001/XMLSchema-instance"
 xsi:schemaLocation="http://www.topografix.com/GPX/1/1 http://www.topografix.com/GPX/1/1/gpx.xsd">
<metadata>
 <time>2024-06-30T16:31:41Z</time>
 <bounds minlat="42.290927" minlon="1.153745" maxlat="42.371112" maxlon="1.345114"/>
</metadata>
<trk>
 <name>Noves Segre-Guils-Port Canto-Les Piques</name>
 <desc>Noves Segre-Port Canto-Les Piques</desc>
<trkseg>
<trkpt lat="42.2944870" lon="1.3435750">
<ele>648.309570</ele>
<time>2024-06-13T06:38:43.996Z</time>
</trkpt>
<trkpt lat="42.2944600" lon="1.3435640">
<ele>648.248657</ele>
<time>2024-06-13T06:44:31.004Z</time>
</trkpt>
<trkpt lat="42.2944760" lon="1.3435280">
<ele>648.248657</ele>
<time>2024-06-13T06:44:34.002Z</time>
</trkpt>
<trkpt lat="42.2945070" lon="1.3434510">
<ele>648.340088</ele>
<time>2024-06-13T06:44:39.998Z</time>
</trkpt>
<trkpt lat="42.2945940" lon="1.3434980">
<ele>648.583862</ele>
<time>2024-06-13T06:44:45.001Z</time>
</trkpt>
<trkpt lat="42.2946230" lon="1.3435050">
<ele>648.583862</ele>
<time>2024-06-13T06:44:46.003Z</time>
</trkpt>
<trkpt lat="42.2946510" lon="1.3435090">
<ele>648.583862</ele>
<time>2024-06-13T06:44:46.997Z</time>
</trkpt>
<trkpt lat="42.2949240" lon="1.3433670">
<ele>646.998962</ele>
<time>2024-06-13T06:44:58.998Z</time>
</trkpt>
<trkpt lat="42.2952830" lon="1.3430000">
<ele>648.858276</ele>
<time>2024-06-13T06:45:18.999Z</time>
</trkpt>
<trkpt lat="42.2956240" lon="1.3425430">
<ele>650.778503</ele>
<time>2024-06-13T06:45:36.996Z</time>
</trkpt>
<trkpt lat="42.2960180" lon="1.3421240">
<ele>652.363464</ele>
<time>2024-06-13T06:45:55.002Z</time>
</trkpt>
<trkpt lat="42.2963260" lon="1.3418410">
<ele>654.100830</ele>
<time>2024-06-13T06:46:10.001Z</time>
</trkpt>
<trkpt lat="42.2965940" lon="1.3415870">
<ele>655.746704</ele>
<time>2024-06-13T06:46:22.996Z</time>
</trkpt>
<trkpt lat="42.2969440" lon="1.3413340">
<ele>658.855713</ele>
<time>2024-06-13T06:46:38.997Z</time>
</trkpt>
<trkpt lat="42.2972940" lon="1.3412400">
<ele>660.013916</ele>
<time>2024-06-13T06:46:49.996Z</time>
</trkpt>
<trkpt lat="42.2973320" lon="1.3412390">
<ele>660.013916</ele>
<time>2024-06-13T06:46:50.998Z</time>
</trkpt>
<trkpt lat="42.2973670" lon="1.3412300">
<ele>660.013916</ele>
<time>2024-06-13T06:46:52.000Z</time>
</trkpt>
<trkpt lat="42.2976230" lon="1.3411950">
<ele>659.861511</ele>
<time>2024-06-13T06:46:58.999Z</time>
</trkpt>
<trkpt lat="42.2978890" lon="1.3412380">
<ele>659.739624</ele>
<time>2024-06-13T06:47:05.004Z</time>
</trkpt>
<trkpt lat="42.2979220" lon="1.3412370">
<ele>659.739624</ele>
<time>2024-06-13T06:47:05.997Z</time>
</trkpt>
<trkpt lat="42.2980730" lon="1.3412160">
<ele>659.404297</ele>
<time>2024-06-13T06:47:09.004Z</time>
</trkpt>
<trkpt lat="42.2981220" lon="1.3411970">
<ele>659.282410</ele>
<time>2024-06-13T06:47:09.997Z</time>
</trkpt>
<trkpt lat="42.2981700" lon="1.3411700">
<ele>659.160522</ele>
<time>2024-06-13T06:47:11.000Z</time>
</trkpt>
<trkpt lat="42.2982160" lon="1.3411370">
<ele>659.008118</ele>
<time>2024-06-13T06:47:12.002Z</time>
</trkpt>
<trkpt lat="42.2982600" lon="1.3410980">
<ele>658.916626</ele>
<time>2024-06-13T06:47:13.004Z</time>
</trkpt>
<trkpt lat="42.2983040" lon="1.3410550">
<ele>658.703308</ele>
<time>2024-06-13T06:47:13.998Z</time>
</trkpt>
<trkpt lat="42.2983480" lon="1.3410110">
<ele>658.428955</ele>
<time>2024-06-13T06:47:15.000Z</time>
</trkpt>
<trkpt lat="42.2983860" lon="1.3409620">
<ele>658.185120</ele>
<time>2024-06-13T06:47:16.002Z</time>
</trkpt>
<trkpt lat="42.2984220" lon="1.3409100">
<ele>657.910828</ele>
<time>2024-06-13T06:47:16.996Z</time>
</trkpt>
<trkpt lat="42.2984630" lon="1.3408690">
<ele>657.301208</ele>
<time>2024-06-13T06:47:17.998Z</time>
</trkpt>
<trkpt lat="42.2985100" lon="1.3408390">
<ele>656.935425</ele>
<time>2024-06-13T06:47:19.000Z</time>
</trkpt>
<trkpt lat="42.2985620" lon="1.3408320">
<ele>656.600159</ele>
<time>2024-06-13T06:47:20.003Z</time>
</trkpt>
<trkpt lat="42.2986110" lon="1.3408400">
<ele>656.264893</ele>
<time>2024-06-13T06:47:20.996Z</time>
</trkpt>
<trkpt lat="42.2986580" lon="1.3408420">
<ele>655.868652</ele>
<time>2024-06-13T06:47:21.998Z</time>
</trkpt>
<trkpt lat="42.2987050" lon="1.3408370">
<ele>655.472412</ele>
<time>2024-06-13T06:47:23.001Z</time>
</trkpt>
<trkpt lat="42.2987450" lon="1.3408270">
<ele>655.015198</ele>
<time>2024-06-13T06:47:24.003Z</time>
</trkpt>
<trkpt lat="42.2987840" lon="1.3408150">
<ele>654.588501</ele>
<time>2024-06-13T06:47:24.996Z</time>
</trkpt>
<trkpt lat="42.2990620" lon="1.3407930">
<ele>652.820679</ele>
<time>2024-06-13T06:47:32.004Z</time>
</trkpt>
<trkpt lat="42.2992490" lon="1.3407900">
<ele>652.759705</ele>
<time>2024-06-13T06:47:36.997Z</time>
</trkpt>
<trkpt lat="42.2992880" lon="1.3407920">
<ele>652.759705</ele>
<time>2024-06-13T06:47:38.000Z</time>
</trkpt>
<trkpt lat="42.2995970" lon="1.3408580">
<ele>652.912109</ele>
<time>2024-06-13T06:47:47.003Z</time>
</trkpt>
<trkpt lat="42.2996950" lon="1.3408610">
<ele>653.003479</ele>
<time>2024-06-13T06:47:50.001Z</time>
</trkpt>
<trkpt lat="42.3000850" lon="1.3407140">
<ele>654.161743</ele>
<time>2024-06-13T06:48:03.004Z</time>
</trkpt>
<trkpt lat="42.3004860" lon="1.3405510">
<ele>656.021057</ele>
<time>2024-06-13T06:48:15.998Z</time>
</trkpt>
<trkpt lat="42.3005610" lon="1.3405030">
<ele>656.417297</ele>
<time>2024-06-13T06:48:18.003Z</time>
</trkpt>
<trkpt lat="42.3007890" lon="1.3403780">
<ele>657.575500</ele>
<time>2024-06-13T06:48:26.997Z</time>
</trkpt>
<trkpt lat="42.3011510" lon="1.3402310">
<ele>659.251892</ele>
<time>2024-06-13T06:48:38.998Z</time>
</trkpt>
<trkpt lat="42.3013430" lon="1.3401290">
<ele>659.739624</ele>
<time>2024-06-13T06:48:45.996Z</time>
</trkpt>
<trkpt lat="42.3013720" lon="1.3401250">
<ele>659.800537</ele>
<time>2024-06-13T06:48:46.999Z</time>
</trkpt>
<trkpt lat="42.3014030" lon="1.3401130">
<ele>659.861511</ele>
<time>2024-06-13T06:48:48.001Z</time>
</trkpt>
<trkpt lat="42.3014320" lon="1.3401100">
<ele>659.952942</ele>
<time>2024-06-13T06:48:49.003Z</time>
</trkpt>
<trkpt lat="42.3014690" lon="1.3400850">
<ele>660.105347</ele>
<time>2024-06-13T06:48:49.997Z</time>
</trkpt>
<trkpt lat="42.3015030" lon="1.3400880">
<ele>660.257751</ele>
<time>2024-06-13T06:48:50.999Z</time>
</trkpt>
<trkpt lat="42.3015360" lon="1.3400840">
<ele>660.349182</ele>
<time>2024-06-13T06:48:52.001Z</time>
</trkpt>
<trkpt lat="42.3015690" lon="1.3400800">
<ele>660.471069</ele>
<time>2024-06-13T06:48:53.004Z</time>
</trkpt>
<trkpt lat="42.3020280" lon="1.3400380">
<ele>662.635193</ele>
<time>2024-06-13T06:49:07.000Z</time>
</trkpt>
<trkpt lat="42.3024310" lon="1.3400050">
<ele>663.183838</ele>
<time>2024-06-13T06:49:20.004Z</time>
</trkpt>
<trkpt lat="42.3027780" lon="1.3398270">
<ele>665.957520</ele>
<time>2024-06-13T06:49:34.000Z</time>
</trkpt>
<trkpt lat="42.3029440" lon="1.3399230">
<ele>666.536682</ele>
<time>2024-06-13T06:49:38.001Z</time>
</trkpt>
<trkpt lat="42.3029640" lon="1.3399400">
<ele>666.658569</ele>
<time>2024-06-13T06:49:39.003Z</time>
</trkpt>
<trkpt lat="42.3029920" lon="1.3399480">
<ele>666.780518</ele>
<time>2024-06-13T06:49:39.996Z</time>
</trkpt>
<trkpt lat="42.3030230" lon="1.3399480">
<ele>666.963318</ele>
<time>2024-06-13T06:49:40.999Z</time>
</trkpt>
<trkpt lat="42.3030520" lon="1.3399460">
<ele>667.115723</ele>
<time>2024-06-13T06:49:42.001Z</time>
</trkpt>
<trkpt lat="42.3032900" lon="1.3396990">
<ele>668.792175</ele>
<time>2024-06-13T06:49:51.004Z</time>
</trkpt>
<trkpt lat="42.3033340" lon="1.3396140">
<ele>669.036011</ele>
<time>2024-06-13T06:49:53.000Z</time>
</trkpt>
<trkpt lat="42.3033570" lon="1.3395680">
<ele>669.157898</ele>
<time>2024-06-13T06:49:54.002Z</time>
</trkpt>
<trkpt lat="42.3036750" lon="1.3392250">
<ele>669.279846</ele>
<time>2024-06-13T06:50:06.003Z</time>
</trkpt>
<trkpt lat="42.3040470" lon="1.3388700">
<ele>669.462708</ele>
<time>2024-06-13T06:50:18.997Z</time>
</trkpt>
<trkpt lat="42.3044680" lon="1.3386040">
<ele>670.803833</ele>
<time>2024-06-13T06:50:32.001Z</time>
</trkpt>
<trkpt lat="42.3048860" lon="1.3383910">
<ele>672.967896</ele>
<time>2024-06-13T06:50:47.000Z</time>
</trkpt>
<trkpt lat="42.3051100" lon="1.3381610">
<ele>675.314880</ele>
<time>2024-06-13T06:51:00.003Z</time>
</trkpt>
<trkpt lat="42.3051430" lon="1.3381030">
<ele>676.198792</ele>
<time>2024-06-13T06:52:44.996Z</time>
</trkpt>
<trkpt lat="42.3051540" lon="1.3380900">
<ele>676.351196</ele>
<time>2024-06-13T06:53:50.004Z</time>
</trkpt>
<trkpt lat="42.3053000" lon="1.3377920">
<ele>676.838928</ele>
<time>2024-06-13T06:54:05.996Z</time>
</trkpt>
<trkpt lat="42.3055630" lon="1.3374020">
<ele>678.911499</ele>
<time>2024-06-13T06:54:23.000Z</time>
</trkpt>
<trkpt lat="42.3057980" lon="1.3369690">
<ele>681.959473</ele>
<time>2024-06-13T06:54:40.003Z</time>
</trkpt>
<trkpt lat="42.3059820" lon="1.3366420">
<ele>684.946533</ele>
<time>2024-06-13T06:54:54.000Z</time>
</trkpt>
<trkpt lat="42.3062000" lon="1.3364470">
<ele>688.116516</ele>
<time>2024-06-13T06:55:04.999Z</time>
</trkpt>
<trkpt lat="42.3066630" lon="1.3360370">
<ele>691.225464</ele>
<time>2024-06-13T06:55:25.000Z</time>
</trkpt>
<trkpt lat="42.3068210" lon="1.3356000">
<ele>693.785767</ele>
<time>2024-06-13T06:55:38.004Z</time>
</trkpt>
<trkpt lat="42.3071210" lon="1.3353750">
<ele>694.364929</ele>
<time>2024-06-13T06:55:49.996Z</time>
</trkpt>
<trkpt lat="42.3074980" lon="1.3350890">
<ele>693.724792</ele>
<time>2024-06-13T06:56:02.999Z</time>
</trkpt>
<trkpt lat="42.3077020" lon="1.3347850">
<ele>693.816284</ele>
<time>2024-06-13T06:56:13.004Z</time>
</trkpt>
<trkpt lat="42.3078790" lon="1.3344700">
<ele>696.925171</ele>
<time>2024-06-13T06:56:25.999Z</time>
</trkpt>
<trkpt lat="42.3080400" lon="1.3342070">
<ele>699.607483</ele>
<time>2024-06-13T06:56:38.000Z</time>
</trkpt>
<trkpt lat="42.3082390" lon="1.3339600">
<ele>702.594482</ele>
<time>2024-06-13T06:56:50.001Z</time>
</trkpt>
<trkpt lat="42.3086160" lon="1.3335950">
<ele>703.356506</ele>
<time>2024-06-13T06:57:06.002Z</time>
</trkpt>
<trkpt lat="42.3089110" lon="1.3333060">
<ele>704.392822</ele>
<time>2024-06-13T06:57:18.996Z</time>
</trkpt>
<trkpt lat="42.3091680" lon="1.3330270">
<ele>707.440796</ele>
<time>2024-06-13T06:57:33.002Z</time>
</trkpt>
<trkpt lat="42.3092490" lon="1.3329090">
<ele>708.507629</ele>
<time>2024-06-13T06:57:37.996Z</time>
</trkpt>
<trkpt lat="42.3092630" lon="1.3328820">
<ele>708.720947</ele>
<time>2024-06-13T06:57:38.998Z</time>
</trkpt>
<trkpt lat="42.3092790" lon="1.3328580">
<ele>708.873352</ele>
<time>2024-06-13T06:57:40.000Z</time>
</trkpt>
<trkpt lat="42.3092940" lon="1.3328320">
<ele>708.995300</ele>
<time>2024-06-13T06:57:41.003Z</time>
</trkpt>
<trkpt lat="42.3093050" lon="1.3328040">
<ele>709.178162</ele>
<time>2024-06-13T06:57:41.996Z</time>
</trkpt>
<trkpt lat="42.3093170" lon="1.3327770">
<ele>709.361084</ele>
<time>2024-06-13T06:57:42.998Z</time>
</trkpt>
<trkpt lat="42.3093320" lon="1.3327520">
<ele>709.574402</ele>
<time>2024-06-13T06:57:44.001Z</time>
</trkpt>
<trkpt lat="42.3093420" lon="1.3327240">
<ele>709.726807</ele>
<time>2024-06-13T06:57:45.003Z</time>
</trkpt>
<trkpt lat="42.3093500" lon="1.3326930">
<ele>709.909729</ele>
<time>2024-06-13T06:57:45.996Z</time>
</trkpt>
<trkpt lat="42.3093580" lon="1.3326640">
<ele>710.153503</ele>
<time>2024-06-13T06:57:46.999Z</time>
</trkpt>
<trkpt lat="42.3094310" lon="1.3324740">
<ele>711.738525</ele>
<time>2024-06-13T06:57:53.997Z</time>
</trkpt>
<trkpt lat="42.3094490" lon="1.3324490">
<ele>711.921326</ele>
<time>2024-06-13T06:57:54.999Z</time>
</trkpt>
<trkpt lat="42.3094630" lon="1.3324220">
<ele>712.073730</ele>
<time>2024-06-13T06:57:56.002Z</time>
</trkpt>
<trkpt lat="42.3094750" lon="1.3323900">
<ele>712.226135</ele>
<time>2024-06-13T06:57:57.004Z</time>
</trkpt>
<trkpt lat="42.3094860" lon="1.3323590">
<ele>712.409058</ele>
<time>2024-06-13T06:57:57.997Z</time>
</trkpt>
<trkpt lat="42.3094980" lon="1.3323300">
<ele>712.591919</ele>
<time>2024-06-13T06:57:59.000Z</time>
</trkpt>
<trkpt lat="42.3095510" lon="1.3321020">
<ele>714.268311</ele>
<time>2024-06-13T06:58:08.996Z</time>
</trkpt>
<trkpt lat="42.3095710" lon="1.3320270">
<ele>714.451172</ele>
<time>2024-06-13T06:58:09.998Z</time>
</trkpt>
<trkpt lat="42.3095630" lon="1.3320020">
<ele>714.695068</ele>
<time>2024-06-13T06:58:11.001Z</time>
</trkpt>
<trkpt lat="42.3095000" lon="1.3318880">
<ele>715.975220</ele>
<time>2024-06-13T06:58:16.003Z</time>
</trkpt>
<trkpt lat="42.3094880" lon="1.3317380">
<ele>717.438232</ele>
<time>2024-06-13T06:58:20.997Z</time>
</trkpt>
<trkpt lat="42.3095080" lon="1.3316410">
<ele>717.590637</ele>
<time>2024-06-13T06:58:21.999Z</time>
</trkpt>
<trkpt lat="42.3095830" lon="1.3316460">
<ele>717.743042</ele>
<time>2024-06-13T06:58:24.004Z</time>
</trkpt>
<trkpt lat="42.3097460" lon="1.3316730">
<ele>717.804016</ele>
<time>2024-06-13T06:58:24.997Z</time>
</trkpt>
<trkpt lat="42.3097820" lon="1.3317320">
<ele>717.834534</ele>
<time>2024-06-13T06:58:26.000Z</time>
</trkpt>
<trkpt lat="42.3099440" lon="1.3319570">
<ele>718.535461</ele>
<time>2024-06-13T06:58:35.996Z</time>
</trkpt>
<trkpt lat="42.3102320" lon="1.3320380">
<ele>719.388916</ele>
<time>2024-06-13T06:58:47.004Z</time>
</trkpt>
<trkpt lat="42.3104770" lon="1.3319040">
<ele>719.388916</ele>
<time>2024-06-13T06:58:53.000Z</time>
</trkpt>
<trkpt lat="42.3108870" lon="1.3318190">
<ele>718.992676</ele>
<time>2024-06-13T06:59:05.001Z</time>
</trkpt>
<trkpt lat="42.3111980" lon="1.3314770">
<ele>721.278687</ele>
<time>2024-06-13T06:59:21.002Z</time>
</trkpt>
<trkpt lat="42.3114720" lon="1.3313460">
<ele>724.357178</ele>
<time>2024-06-13T06:59:33.003Z</time>
</trkpt>
<trkpt lat="42.3118390" lon="1.3313120">
<ele>724.692505</ele>
<time>2024-06-13T06:59:41.004Z</time>
</trkpt>
<trkpt lat="42.3118960" lon="1.3313100">
<ele>724.692505</ele>
<time>2024-06-13T06:59:41.997Z</time>
</trkpt>
<trkpt lat="42.3119560" lon="1.3313110">
<ele>724.692505</ele>
<time>2024-06-13T06:59:42.999Z</time>
</trkpt>
<trkpt lat="42.3124370" lon="1.3312650">
<ele>722.955078</ele>
<time>2024-06-13T06:59:52.996Z</time>
</trkpt>
<trkpt lat="42.3126410" lon="1.3311930">
<ele>723.808533</ele>
<time>2024-06-13T07:00:04.997Z</time>
</trkpt>
<trkpt lat="42.3129190" lon="1.3309160">
<ele>727.008972</ele>
<time>2024-06-13T07:00:19.002Z</time>
</trkpt>
<trkpt lat="42.3132420" lon="1.3306880">
<ele>729.112122</ele>
<time>2024-06-13T07:00:34.001Z</time>
</trkpt>
<trkpt lat="42.3134780" lon="1.3304880">
<ele>730.361755</ele>
<time>2024-06-13T07:00:47.998Z</time>
</trkpt>
<trkpt lat="42.3136180" lon="1.3301940">
<ele>731.062805</ele>
<time>2024-06-13T07:00:53.001Z</time>
</trkpt>
<trkpt lat="42.3136330" lon="1.3301630">
<ele>731.154236</ele>
<time>2024-06-13T07:00:54.003Z</time>
</trkpt>
<trkpt lat="42.3136430" lon="1.3301320">
<ele>731.276123</ele>
<time>2024-06-13T07:00:54.996Z</time>
</trkpt>
<trkpt lat="42.3136600" lon="1.3301070">
<ele>731.459045</ele>
<time>2024-06-13T07:00:55.999Z</time>
</trkpt>
<trkpt lat="42.3136750" lon="1.3300810">
<ele>731.611450</ele>
<time>2024-06-13T07:00:57.001Z</time>
</trkpt>
<trkpt lat="42.3136860" lon="1.3300510">
<ele>731.733337</ele>
<time>2024-06-13T07:00:58.003Z</time>
</trkpt>
<trkpt lat="42.3136980" lon="1.3300230">
<ele>731.916260</ele>
<time>2024-06-13T07:00:58.997Z</time>
</trkpt>
<trkpt lat="42.3137170" lon="1.3300010">
<ele>732.099060</ele>
<time>2024-06-13T07:00:59.999Z</time>
</trkpt>
<trkpt lat="42.3137370" lon="1.3299800">
<ele>732.251465</ele>
<time>2024-06-13T07:01:01.001Z</time>
</trkpt>
<trkpt lat="42.3137550" lon="1.3299590">
<ele>732.403870</ele>
<time>2024-06-13T07:01:02.004Z</time>
</trkpt>
<trkpt lat="42.3138450" lon="1.3298520">
<ele>733.287842</ele>
<time>2024-06-13T07:01:06.997Z</time>
</trkpt>
<trkpt lat="42.3138560" lon="1.3298250">
<ele>733.287842</ele>
<time>2024-06-13T07:01:08.000Z</time>
</trkpt>
<trkpt lat="42.3138650" lon="1.3297970">
<ele>733.531738</ele>
<time>2024-06-13T07:01:09.002Z</time>
</trkpt>
<trkpt lat="42.3139470" lon="1.3295650">
<ele>735.390930</ele>
<time>2024-06-13T07:01:17.996Z</time>
</trkpt>
<trkpt lat="42.3139520" lon="1.3295330">
<ele>735.634827</ele>
<time>2024-06-13T07:01:18.998Z</time>
</trkpt>
<trkpt lat="42.3139540" lon="1.3295030">
<ele>735.970093</ele>
<time>2024-06-13T07:01:20.001Z</time>
</trkpt>
<trkpt lat="42.3139580" lon="1.3294660">
<ele>736.213867</ele>
<time>2024-06-13T07:01:21.003Z</time>
</trkpt>
<trkpt lat="42.3139670" lon="1.3294310">
<ele>736.427307</ele>
<time>2024-06-13T07:01:21.996Z</time>
</trkpt>
<trkpt lat="42.3139820" lon="1.3294030">
<ele>736.671082</ele>
<time>2024-06-13T07:01:22.999Z</time>
</trkpt>
<trkpt lat="42.3139960" lon="1.3293770">
<ele>736.914917</ele>
<time>2024-06-13T07:01:24.001Z</time>
</trkpt>
<trkpt lat="42.3140080" lon="1.3293500">
<ele>737.067322</ele>
<time>2024-06-13T07:01:25.003Z</time>
</trkpt>
<trkpt lat="42.3140230" lon="1.3293250">
<ele>737.280701</ele>
<time>2024-06-13T07:01:25.997Z</time>
</trkpt>
<trkpt lat="42.3140390" lon="1.3293010">
<ele>737.494080</ele>
<time>2024-06-13T07:01:26.999Z</time>
</trkpt>
<trkpt lat="42.3139810" lon="1.3287550">
<ele>740.084900</ele>
<time>2024-06-13T07:01:39.000Z</time>
</trkpt>
<trkpt lat="42.3140720" lon="1.3285070">
<ele>742.279480</ele>
<time>2024-06-13T07:01:52.003Z</time>
</trkpt>
<trkpt lat="42.3141870" lon="1.3284540">
<ele>743.041443</ele>
<time>2024-06-13T07:01:56.997Z</time>
</trkpt>
<trkpt lat="42.3142150" lon="1.3284820">
<ele>743.102417</ele>
<time>2024-06-13T07:01:57.999Z</time>
</trkpt>
<trkpt lat="42.3142360" lon="1.3285140">
<ele>743.163330</ele>
<time>2024-06-13T07:01:59.002Z</time>
</trkpt>
<trkpt lat="42.3142450" lon="1.3285520">
<ele>743.193848</ele>
<time>2024-06-13T07:02:00.004Z</time>
</trkpt>
<trkpt lat="42.3142530" lon="1.3285840">
<ele>743.193848</ele>
<time>2024-06-13T07:02:00.997Z</time>
</trkpt>
<trkpt lat="42.3142680" lon="1.3286100">
<ele>743.224304</ele>
<time>2024-06-13T07:02:02.000Z</time>
</trkpt>
<trkpt lat="42.3144820" lon="1.3289590">
<ele>744.992126</ele>
<time>2024-06-13T07:02:15.996Z</time>
</trkpt>
<trkpt lat="42.3144940" lon="1.3292810">
<ele>748.009705</ele>
<time>2024-06-13T07:02:27.004Z</time>
</trkpt>
<trkpt lat="42.3144950" lon="1.3295810">
<ele>750.387085</ele>
<time>2024-06-13T07:02:38.003Z</time>
</trkpt>
<trkpt lat="42.3144270" lon="1.3298630">
<ele>752.673096</ele>
<time>2024-06-13T07:02:50.004Z</time>
</trkpt>
<trkpt lat="42.3144250" lon="1.3298970">
<ele>752.886536</ele>
<time>2024-06-13T07:02:50.997Z</time>
</trkpt>
<trkpt lat="42.3144220" lon="1.3299300">
<ele>753.191284</ele>
<time>2024-06-13T07:02:51.999Z</time>
</trkpt>
<trkpt lat="42.3144160" lon="1.3299620">
<ele>753.374146</ele>
<time>2024-06-13T07:02:53.002Z</time>
</trkpt>
<trkpt lat="42.3144070" lon="1.3299910">
<ele>753.648499</ele>
<time>2024-06-13T07:02:54.004Z</time>
</trkpt>
<trkpt lat="42.3143970" lon="1.3300210">
<ele>753.800903</ele>
<time>2024-06-13T07:02:54.997Z</time>
</trkpt>
<trkpt lat="42.3143950" lon="1.3300560">
<ele>754.014282</ele>
<time>2024-06-13T07:02:56.000Z</time>
</trkpt>
<trkpt lat="42.3143920" lon="1.3300870">
<ele>754.258118</ele>
<time>2024-06-13T07:02:57.002Z</time>
</trkpt>
<trkpt lat="42.3143840" lon="1.3301140">
<ele>754.471436</ele>
<time>2024-06-13T07:02:58.004Z</time>
</trkpt>
<trkpt lat="42.3143780" lon="1.3301440">
<ele>754.623840</ele>
<time>2024-06-13T07:02:58.998Z</time>
</trkpt>
<trkpt lat="42.3143710" lon="1.3301720">
<ele>754.776245</ele>
<time>2024-06-13T07:03:00.000Z</time>
</trkpt>
<trkpt lat="42.3143620" lon="1.3301990">
<ele>755.020081</ele>
<time>2024-06-13T07:03:01.002Z</time>
</trkpt>
<trkpt lat="42.3143160" lon="1.3305890">
<ele>758.068115</ele>
<time>2024-06-13T07:03:13.997Z</time>
</trkpt>
<trkpt lat="42.3145020" lon="1.3307760">
<ele>760.963684</ele>
<time>2024-06-13T07:03:25.998Z</time>
</trkpt>
<trkpt lat="42.3148420" lon="1.3305760">
<ele>764.072632</ele>
<time>2024-06-13T07:03:43.001Z</time>
</trkpt>
<trkpt lat="42.3151110" lon="1.3303300">
<ele>767.212097</ele>
<time>2024-06-13T07:03:59.003Z</time>
</trkpt>
<trkpt lat="42.3153190" lon="1.3300430">
<ele>770.503906</ele>
<time>2024-06-13T07:04:11.997Z</time>
</trkpt>
<trkpt lat="42.3154290" lon="1.3298700">
<ele>772.424133</ele>
<time>2024-06-13T07:04:19.998Z</time>
</trkpt>
<trkpt lat="42.3154390" lon="1.3298420">
<ele>772.698486</ele>
<time>2024-06-13T07:04:21.000Z</time>
</trkpt>
<trkpt lat="42.3154460" lon="1.3298130">
<ele>772.881348</ele>
<time>2024-06-13T07:04:22.002Z</time>
</trkpt>
<trkpt lat="42.3155230" lon="1.3294150">
<ele>775.990295</ele>
<time>2024-06-13T07:04:35.999Z</time>
</trkpt>
<trkpt lat="42.3156240" lon="1.3289100">
<ele>779.038269</ele>
<time>2024-06-13T07:04:49.996Z</time>
</trkpt>
<trkpt lat="42.3157680" lon="1.3286960">
<ele>782.177734</ele>
<time>2024-06-13T07:05:04.001Z</time>
</trkpt>
<trkpt lat="42.3160830" lon="1.3285550">
<ele>785.286682</ele>
<time>2024-06-13T07:05:19.000Z</time>
</trkpt>
<trkpt lat="42.3163020" lon="1.3283020">
<ele>787.511719</ele>
<time>2024-06-13T07:05:32.997Z</time>
</trkpt>
<trkpt lat="42.3165470" lon="1.3281300">
<ele>790.620667</ele>
<time>2024-06-13T07:05:47.003Z</time>
</trkpt>
<trkpt lat="42.3167170" lon="1.3278000">
<ele>793.638245</ele>
<time>2024-06-13T07:05:59.997Z</time>
</trkpt>
<trkpt lat="42.3168950" lon="1.3275750">
<ele>796.320496</ele>
<time>2024-06-13T07:06:10.996Z</time>
</trkpt>
<trkpt lat="42.3169080" lon="1.3275510">
<ele>796.503357</ele>
<time>2024-06-13T07:06:11.998Z</time>
</trkpt>
<trkpt lat="42.3169190" lon="1.3275260">
<ele>796.716675</ele>
<time>2024-06-13T07:06:13.000Z</time>
</trkpt>
<trkpt lat="42.3169340" lon="1.3275040">
<ele>796.899597</ele>
<time>2024-06-13T07:06:14.003Z</time>
</trkpt>
<trkpt lat="42.3169490" lon="1.3274830">
<ele>797.204407</ele>
<time>2024-06-13T07:06:14.996Z</time>
</trkpt>
<trkpt lat="42.3170770" lon="1.3272100">
<ele>799.246521</ele>
<time>2024-06-13T07:06:26.004Z</time>
</trkpt>
<trkpt lat="42.3170920" lon="1.3271920">
<ele>799.642822</ele>
<time>2024-06-13T07:06:26.997Z</time>
</trkpt>
<trkpt lat="42.3171080" lon="1.3271740">
<ele>799.825684</ele>
<time>2024-06-13T07:06:27.999Z</time>
</trkpt>
<trkpt lat="42.3171180" lon="1.3271500">
<ele>800.008545</ele>
<time>2024-06-13T07:06:29.002Z</time>
</trkpt>
<trkpt lat="42.3171270" lon="1.3271260">
<ele>800.221863</ele>
<time>2024-06-13T07:06:30.004Z</time>
</trkpt>
<trkpt lat="42.3171400" lon="1.3271050">
<ele>800.404785</ele>
<time>2024-06-13T07:06:30.997Z</time>
</trkpt>
<trkpt lat="42.3171530" lon="1.3270820">
<ele>800.618164</ele>
<time>2024-06-13T07:06:32.000Z</time>
</trkpt>
<trkpt lat="42.3173960" lon="1.3269950">
<ele>803.818542</ele>
<time>2024-06-13T07:06:45.996Z</time>
</trkpt>
<trkpt lat="42.3175950" lon="1.3270050">
<ele>806.836121</ele>
<time>2024-06-13T07:06:56.002Z</time>
</trkpt>
<trkpt lat="42.3178670" lon="1.3269740">
<ele>809.884094</ele>
<time>2024-06-13T07:07:08.996Z</time>
</trkpt>
<trkpt lat="42.3181810" lon="1.3270040">
<ele>813.054016</ele>
<time>2024-06-13T07:07:24.004Z</time>
</trkpt>
<trkpt lat="42.3183450" lon="1.3266500">
<ele>816.223877</ele>
<time>2024-06-13T07:07:38.001Z</time>
</trkpt>
<trkpt lat="42.3185010" lon="1.3263860">
<ele>819.210938</ele>
<time>2024-06-13T07:07:50.002Z</time>
</trkpt>
<trkpt lat="42.3186330" lon="1.3260920">
<ele>821.984680</ele>
<time>2024-06-13T07:08:02.003Z</time>
</trkpt>
<trkpt lat="42.3186380" lon="1.3260630">
<ele>822.137085</ele>
<time>2024-06-13T07:08:02.996Z</time>
</trkpt>
<trkpt lat="42.3186450" lon="1.3260350">
<ele>822.624695</ele>
<time>2024-06-13T07:08:03.998Z</time>
</trkpt>
<trkpt lat="42.3186550" lon="1.3260080">
<ele>822.899048</ele>
<time>2024-06-13T07:08:05.001Z</time>
</trkpt>
<trkpt lat="42.3186590" lon="1.3259780">
<ele>823.142883</ele>
<time>2024-06-13T07:08:06.003Z</time>
</trkpt>
<trkpt lat="42.3186670" lon="1.3259450">
<ele>823.386719</ele>
<time>2024-06-13T07:08:06.996Z</time>
</trkpt>
<trkpt lat="42.3186730" lon="1.3259140">
<ele>823.569580</ele>
<time>2024-06-13T07:08:07.999Z</time>
</trkpt>
<trkpt lat="42.3186790" lon="1.3258900">
<ele>823.752502</ele>
<time>2024-06-13T07:08:09.001Z</time>
</trkpt>
<trkpt lat="42.3186830" lon="1.3258630">
<ele>823.904907</ele>
<time>2024-06-13T07:08:10.003Z</time>
</trkpt>
<trkpt lat="42.3186890" lon="1.3258330">
<ele>824.118225</ele>
<time>2024-06-13T07:08:10.997Z</time>
</trkpt>
<trkpt lat="42.3187830" lon="1.3255380">
<ele>827.105286</ele>
<time>2024-06-13T07:08:22.004Z</time>
</trkpt>
<trkpt lat="42.3188330" lon="1.3253540">
<ele>828.812134</ele>
<time>2024-06-13T07:08:29.003Z</time>
</trkpt>
<trkpt lat="42.3188890" lon="1.3251930">
<ele>829.757080</ele>
<time>2024-06-13T07:08:33.003Z</time>
</trkpt>
<trkpt lat="42.3190140" lon="1.3249050">
<ele>832.774536</ele>
<time>2024-06-13T07:08:45.997Z</time>
</trkpt>
<trkpt lat="42.3192100" lon="1.3245890">
<ele>835.944519</ele>
<time>2024-06-13T07:09:00.996Z</time>
</trkpt>
<trkpt lat="42.3193130" lon="1.3242860">
<ele>839.083862</ele>
<time>2024-06-13T07:09:12.997Z</time>
</trkpt>
<trkpt lat="42.3193250" lon="1.3242370">
<ele>839.602112</ele>
<time>2024-06-13T07:09:15.002Z</time>
</trkpt>
<trkpt lat="42.3193930" lon="1.3238770">
<ele>842.619629</ele>
<time>2024-06-13T07:09:28.999Z</time>
</trkpt>
<trkpt lat="42.3194540" lon="1.3238170">
<ele>843.320679</ele>
<time>2024-06-13T07:09:32.999Z</time>
</trkpt>
<trkpt lat="42.3194720" lon="1.3238230">
<ele>843.473083</ele>
<time>2024-06-13T07:09:34.001Z</time>
</trkpt>
<trkpt lat="42.3194890" lon="1.3238370">
<ele>843.655884</ele>
<time>2024-06-13T07:09:35.004Z</time>
</trkpt>
<trkpt lat="42.3195050" lon="1.3238550">
<ele>843.808289</ele>
<time>2024-06-13T07:09:35.997Z</time>
</trkpt>
<trkpt lat="42.3195190" lon="1.3238760">
<ele>843.991211</ele>
<time>2024-06-13T07:09:36.999Z</time>
</trkpt>
<trkpt lat="42.3195380" lon="1.3238970">
<ele>844.235046</ele>
<time>2024-06-13T07:09:38.002Z</time>
</trkpt>
<trkpt lat="42.3195470" lon="1.3239280">
<ele>844.448425</ele>
<time>2024-06-13T07:09:39.004Z</time>
</trkpt>
<trkpt lat="42.3197010" lon="1.3241930">
<ele>847.526917</ele>
<time>2024-06-13T07:09:50.996Z</time>
</trkpt>
<trkpt lat="42.3200070" lon="1.3243280">
<ele>850.757751</ele>
<time>2024-06-13T07:10:06.004Z</time>
</trkpt>
<trkpt lat="42.3202890" lon="1.3242540">
<ele>854.019104</ele>
<time>2024-06-13T07:10:20.001Z</time>
</trkpt>
<trkpt lat="42.3204390" lon="1.3240150">
<ele>857.067078</ele>
<time>2024-06-13T07:10:30.999Z</time>
</trkpt>
<trkpt lat="42.3205030" lon="1.3238280">
<ele>858.743469</ele>
<time>2024-06-13T07:10:37.998Z</time>
</trkpt>
<trkpt lat="42.3205110" lon="1.3238020">
<ele>859.048279</ele>
<time>2024-06-13T07:10:39.000Z</time>
</trkpt>
<trkpt lat="42.3205860" lon="1.3233740">
<ele>862.157288</ele>
<time>2024-06-13T07:10:53.999Z</time>
</trkpt>
<trkpt lat="42.3205980" lon="1.3230280">
<ele>865.266235</ele>
<time>2024-06-13T07:11:06.000Z</time>
</trkpt>
<trkpt lat="42.3205150" lon="1.3227100">
<ele>867.338928</ele>
<time>2024-06-13T07:11:18.001Z</time>
</trkpt>
<trkpt lat="42.3205130" lon="1.3223330">
<ele>869.442017</ele>
<time>2024-06-13T07:11:31.998Z</time>
</trkpt>
<trkpt lat="42.3208070" lon="1.3222330">
<ele>872.398560</ele>
<time>2024-06-13T07:11:46.997Z</time>
</trkpt>
<trkpt lat="42.3208990" lon="1.3219400">
<ele>874.562683</ele>
<time>2024-06-13T07:11:58.004Z</time>
</trkpt>
<trkpt lat="42.3211220" lon="1.3217480">
<ele>876.970520</ele>
<time>2024-06-13T07:12:10.999Z</time>
</trkpt>
<trkpt lat="42.3211020" lon="1.3214080">
<ele>879.073730</ele>
<time>2024-06-13T07:12:21.997Z</time>
</trkpt>
<trkpt lat="42.3210740" lon="1.3212640">
<ele>879.805176</ele>
<time>2024-06-13T07:12:27.000Z</time>
</trkpt>
<trkpt lat="42.3210750" lon="1.3212410">
<ele>879.957581</ele>
<time>2024-06-13T07:12:28.002Z</time>
</trkpt>
<trkpt lat="42.3210710" lon="1.3212130">
<ele>880.079468</ele>
<time>2024-06-13T07:12:28.996Z</time>
</trkpt>
<trkpt lat="42.3210700" lon="1.3211880">
<ele>880.323364</ele>
<time>2024-06-13T07:12:29.998Z</time>
</trkpt>
<trkpt lat="42.3210650" lon="1.3211610">
<ele>880.689087</ele>
<time>2024-06-13T07:12:31.000Z</time>
</trkpt>
<trkpt lat="42.3210630" lon="1.3211140">
<ele>881.176819</ele>
<time>2024-06-13T07:12:32.996Z</time>
</trkpt>
<trkpt lat="42.3210590" lon="1.3210880">
<ele>881.390137</ele>
<time>2024-06-13T07:12:33.998Z</time>
</trkpt>
<trkpt lat="42.3210550" lon="1.3210610">
<ele>881.542542</ele>
<time>2024-06-13T07:12:35.001Z</time>
</trkpt>
<trkpt lat="42.3210530" lon="1.3210370">
<ele>881.694946</ele>
<time>2024-06-13T07:12:36.003Z</time>
</trkpt>
<trkpt lat="42.3210570" lon="1.3210160">
<ele>881.786377</ele>
<time>2024-06-13T07:12:36.996Z</time>
</trkpt>
<trkpt lat="42.3210530" lon="1.3209880">
<ele>881.908264</ele>
<time>2024-06-13T07:12:37.999Z</time>
</trkpt>
<trkpt lat="42.3210480" lon="1.3209590">
<ele>881.999756</ele>
<time>2024-06-13T07:12:39.001Z</time>
</trkpt>
<trkpt lat="42.3210460" lon="1.3209320">
<ele>882.152161</ele>
<time>2024-06-13T07:12:40.003Z</time>
</trkpt>
<trkpt lat="42.3210430" lon="1.3209060">
<ele>882.274109</ele>
<time>2024-06-13T07:12:40.997Z</time>
</trkpt>
<trkpt lat="42.3210380" lon="1.3208770">
<ele>882.335083</ele>
<time>2024-06-13T07:12:41.999Z</time>
</trkpt>
<trkpt lat="42.3210310" lon="1.3208470">
<ele>882.456970</ele>
<time>2024-06-13T07:12:43.001Z</time>
</trkpt>
<trkpt lat="42.3210240" lon="1.3208190">
<ele>882.578918</ele>
<time>2024-06-13T07:12:44.004Z</time>
</trkpt>
<trkpt lat="42.3208920" lon="1.3204670">
<ele>885.596375</ele>
<time>2024-06-13T07:12:56.998Z</time>
</trkpt>
<trkpt lat="42.3206460" lon="1.3201620">
<ele>888.766296</ele>
<time>2024-06-13T07:13:11.997Z</time>
</trkpt>
<trkpt lat="42.3205420" lon="1.3197850">
<ele>891.844788</ele>
<time>2024-06-13T07:13:26.003Z</time>
</trkpt>
<trkpt lat="42.3204320" lon="1.3194900">
<ele>894.283203</ele>
<time>2024-06-13T07:13:38.997Z</time>
</trkpt>
<trkpt lat="42.3202040" lon="1.3193210">
<ele>897.209290</ele>
<time>2024-06-13T07:13:52.000Z</time>
</trkpt>
<trkpt lat="42.3201440" lon="1.3191900">
<ele>898.398010</ele>
<time>2024-06-13T07:13:57.996Z</time>
</trkpt>
<trkpt lat="42.3202710" lon="1.3189410">
<ele>901.019287</ele>
<time>2024-06-13T07:14:11.000Z</time>
</trkpt>
<trkpt lat="42.3205400" lon="1.3189050">
<ele>903.823425</ele>
<time>2024-06-13T07:14:23.001Z</time>
</trkpt>
<trkpt lat="42.3208160" lon="1.3188350">
<ele>907.176270</ele>
<time>2024-06-13T07:14:36.004Z</time>
</trkpt>
<trkpt lat="42.3211050" lon="1.3187530">
<ele>910.224243</ele>
<time>2024-06-13T07:14:50.001Z</time>
</trkpt>
<trkpt lat="42.3212450" lon="1.3184130">
<ele>913.363708</ele>
<time>2024-06-13T07:15:03.004Z</time>
</trkpt>
<trkpt lat="42.3213440" lon="1.3181840">
<ele>915.314392</ele>
<time>2024-06-13T07:15:11.998Z</time>
</trkpt>
<trkpt lat="42.3213480" lon="1.3181550">
<ele>915.527771</ele>
<time>2024-06-13T07:15:13.000Z</time>
</trkpt>
<trkpt lat="42.3213550" lon="1.3181290">
<ele>915.741089</ele>
<time>2024-06-13T07:15:14.003Z</time>
</trkpt>
<trkpt lat="42.3214620" lon="1.3177850">
<ele>918.758667</ele>
<time>2024-06-13T07:15:26.997Z</time>
</trkpt>
<trkpt lat="42.3215390" lon="1.3173890">
<ele>921.837097</ele>
<time>2024-06-13T07:15:41.003Z</time>
</trkpt>
<trkpt lat="42.3216250" lon="1.3170400">
<ele>924.946106</ele>
<time>2024-06-13T07:15:53.997Z</time>
</trkpt>
<trkpt lat="42.3218000" lon="1.3166570">
<ele>928.085510</ele>
<time>2024-06-13T07:16:08.996Z</time>
</trkpt>
<trkpt lat="42.3218410" lon="1.3163560">
<ele>930.310547</ele>
<time>2024-06-13T07:16:20.004Z</time>
</trkpt>
<trkpt lat="42.3218400" lon="1.3163300">
<ele>930.432495</ele>
<time>2024-06-13T07:16:20.997Z</time>
</trkpt>
<trkpt lat="42.3218330" lon="1.3163000">
<ele>930.706787</ele>
<time>2024-06-13T07:16:21.999Z</time>
</trkpt>
<trkpt lat="42.3218290" lon="1.3162700">
<ele>930.920166</ele>
<time>2024-06-13T07:16:23.002Z</time>
</trkpt>
<trkpt lat="42.3218300" lon="1.3162390">
<ele>931.133484</ele>
<time>2024-06-13T07:16:24.004Z</time>
</trkpt>
<trkpt lat="42.3218350" lon="1.3162120">
<ele>931.316406</ele>
<time>2024-06-13T07:16:24.997Z</time>
</trkpt>
<trkpt lat="42.3218440" lon="1.3161860">
<ele>931.499329</ele>
<time>2024-06-13T07:16:26.000Z</time>
</trkpt>
<trkpt lat="42.3218490" lon="1.3161630">
<ele>931.651733</ele>
<time>2024-06-13T07:16:27.002Z</time>
</trkpt>
<trkpt lat="42.3218540" lon="1.3161370">
<ele>931.834534</ele>
<time>2024-06-13T07:16:28.004Z</time>
</trkpt>
<trkpt lat="42.3218580" lon="1.3161080">
<ele>932.108887</ele>
<time>2024-06-13T07:16:28.998Z</time>
</trkpt>
<trkpt lat="42.3218660" lon="1.3160810">
<ele>932.322266</ele>
<time>2024-06-13T07:16:30.000Z</time>
</trkpt>
<trkpt lat="42.3218690" lon="1.3160540">
<ele>932.566101</ele>
<time>2024-06-13T07:16:31.002Z</time>
</trkpt>
<trkpt lat="42.3218750" lon="1.3160190">
<ele>932.779480</ele>
<time>2024-06-13T07:16:31.996Z</time>
</trkpt>
<trkpt lat="42.3218800" lon="1.3159910">
<ele>932.901367</ele>
<time>2024-06-13T07:16:32.998Z</time>
</trkpt>
<trkpt lat="42.3218870" lon="1.3159640">
<ele>933.023315</ele>
<time>2024-06-13T07:16:34.000Z</time>
</trkpt>
<trkpt lat="42.3218900" lon="1.3159380">
<ele>933.175720</ele>
<time>2024-06-13T07:16:35.003Z</time>
</trkpt>
<trkpt lat="42.3218960" lon="1.3159160">
<ele>933.419495</ele>
<time>2024-06-13T07:16:35.996Z</time>
</trkpt>
<trkpt lat="42.3219060" lon="1.3158930">
<ele>933.785339</ele>
<time>2024-06-13T07:16:36.998Z</time>
</trkpt>
<trkpt lat="42.3219120" lon="1.3158690">
<ele>934.029114</ele>
<time>2024-06-13T07:16:38.001Z</time>
</trkpt>
<trkpt lat="42.3220510" lon="1.3155310">
<ele>937.168518</ele>
<time>2024-06-13T07:16:51.997Z</time>
</trkpt>
<trkpt lat="42.3220940" lon="1.3153120">
<ele>940.307983</ele>
<time>2024-06-13T07:17:02.003Z</time>
</trkpt>
<trkpt lat="42.3220740" lon="1.3150490">
<ele>942.533081</ele>
<time>2024-06-13T07:17:13.001Z</time>
</trkpt>
<trkpt lat="42.3219870" lon="1.3146520">
<ele>945.093323</ele>
<time>2024-06-13T07:17:25.996Z</time>
</trkpt>
<trkpt lat="42.3220390" lon="1.3142440">
<ele>948.171875</ele>
<time>2024-06-13T07:17:41.004Z</time>
</trkpt>
<trkpt lat="42.3222210" lon="1.3141570">
<ele>951.280823</ele>
<time>2024-06-13T07:17:52.996Z</time>
</trkpt>
<trkpt lat="42.3224750" lon="1.3139920">
<ele>953.841064</ele>
<time>2024-06-13T07:18:08.004Z</time>
</trkpt>
<trkpt lat="42.3227710" lon="1.3136530">
<ele>956.249084</ele>
<time>2024-06-13T07:18:20.998Z</time>
</trkpt>
<trkpt lat="42.3229520" lon="1.3134300">
<ele>959.388489</ele>
<time>2024-06-13T07:18:32.999Z</time>
</trkpt>
<trkpt lat="42.3231390" lon="1.3132490">
<ele>962.588928</ele>
<time>2024-06-13T07:18:43.998Z</time>
</trkpt>
<trkpt lat="42.3231510" lon="1.3132300">
<ele>962.863220</ele>
<time>2024-06-13T07:18:45.000Z</time>
</trkpt>
<trkpt lat="42.3231650" lon="1.3132080">
<ele>963.046082</ele>
<time>2024-06-13T07:18:46.002Z</time>
</trkpt>
<trkpt lat="42.3231800" lon="1.3131880">
<ele>963.289917</ele>
<time>2024-06-13T07:18:46.996Z</time>
</trkpt>
<trkpt lat="42.3231950" lon="1.3131680">
<ele>963.594666</ele>
<time>2024-06-13T07:18:47.998Z</time>
</trkpt>
<trkpt lat="42.3232140" lon="1.3131500">
<ele>963.899475</ele>
<time>2024-06-13T07:18:49.000Z</time>
</trkpt>
<trkpt lat="42.3233630" lon="1.3128090">
<ele>966.917053</ele>
<time>2024-06-13T07:19:02.997Z</time>
</trkpt>
<trkpt lat="42.3236530" lon="1.3126070">
<ele>969.995483</ele>
<time>2024-06-13T07:19:18.998Z</time>
</trkpt>
<trkpt lat="42.3238550" lon="1.3123490">
<ele>973.195862</ele>
<time>2024-06-13T07:19:33.004Z</time>
</trkpt>
<trkpt lat="42.3240490" lon="1.3121400">
<ele>976.274414</ele>
<time>2024-06-13T07:19:45.998Z</time>
</trkpt>
<trkpt lat="42.3242680" lon="1.3120250">
<ele>979.322388</ele>
<time>2024-06-13T07:19:57.999Z</time>
</trkpt>
<trkpt lat="42.3245110" lon="1.3119130">
<ele>982.492310</ele>
<time>2024-06-13T07:20:11.003Z</time>
</trkpt>
<trkpt lat="42.3247840" lon="1.3120290">
<ele>985.083069</ele>
<time>2024-06-13T07:20:24.999Z</time>
</trkpt>
<trkpt lat="42.3250770" lon="1.3120540">
<ele>988.131104</ele>
<time>2024-06-13T07:20:38.996Z</time>
</trkpt>
<trkpt lat="42.3253260" lon="1.3119470">
<ele>991.240112</ele>
<time>2024-06-13T07:20:50.997Z</time>
</trkpt>
<trkpt lat="42.3256180" lon="1.3117880">
<ele>994.470947</ele>
<time>2024-06-13T07:21:05.996Z</time>
</trkpt>
<trkpt lat="42.3258800" lon="1.3115180">
<ele>997.610413</ele>
<time>2024-06-13T07:21:21.997Z</time>
</trkpt>
<trkpt lat="42.3260570" lon="1.3113470">
<ele>1000.810791</ele>
<time>2024-06-13T07:21:36.003Z</time>
</trkpt>
<trkpt lat="42.3264900" lon="1.3114260">
<ele>1003.889282</ele>
<time>2024-06-13T07:21:52.998Z</time>
</trkpt>
<trkpt lat="42.3268210" lon="1.3115600">
<ele>1006.967773</ele>
<time>2024-06-13T07:22:07.997Z</time>
</trkpt>
<trkpt lat="42.3272540" lon="1.3114910">
<ele>1009.771912</ele>
<time>2024-06-13T07:22:26.996Z</time>
</trkpt>
<trkpt lat="42.3274420" lon="1.3114970">
<ele>1012.789429</ele>
<time>2024-06-13T07:22:38.997Z</time>
</trkpt>
<trkpt lat="42.3274520" lon="1.3114330">
<ele>1013.368530</ele>
<time>2024-06-13T07:23:35.002Z</time>
</trkpt>
<trkpt lat="42.3274310" lon="1.3113720">
<ele>1014.100098</ele>
<time>2024-06-13T07:23:54.001Z</time>
</trkpt>
<trkpt lat="42.3274060" lon="1.3113590">
<ele>1014.404907</ele>
<time>2024-06-13T07:24:17.001Z</time>
</trkpt>
<trkpt lat="42.3273980" lon="1.3113570">
<ele>1014.404907</ele>
<time>2024-06-13T07:24:18.003Z</time>
</trkpt>
<trkpt lat="42.3273860" lon="1.3113570">
<ele>1014.435364</ele>
<time>2024-06-13T07:24:18.996Z</time>
</trkpt>
<trkpt lat="42.3273700" lon="1.3113570">
<ele>1014.465881</ele>
<time>2024-06-13T07:24:19.999Z</time>
</trkpt>
<trkpt lat="42.3273560" lon="1.3113600">
<ele>1014.465881</ele>
<time>2024-06-13T07:24:21.001Z</time>
</trkpt>
<trkpt lat="42.3273430" lon="1.3113640">
<ele>1014.526794</ele>
<time>2024-06-13T07:24:22.003Z</time>
</trkpt>
<trkpt lat="42.3273320" lon="1.3113660">
<ele>1014.618225</ele>
<time>2024-06-13T07:24:22.997Z</time>
</trkpt>
<trkpt lat="42.3273230" lon="1.3113620">
<ele>1014.709717</ele>
<time>2024-06-13T07:24:23.999Z</time>
</trkpt>
<trkpt lat="42.3273090" lon="1.3113580">
<ele>1014.770630</ele>
<time>2024-06-13T07:24:25.001Z</time>
</trkpt>
<trkpt lat="42.3272950" lon="1.3113520">
<ele>1014.923035</ele>
<time>2024-06-13T07:24:26.004Z</time>
</trkpt>
<trkpt lat="42.3272820" lon="1.3113420">
<ele>1015.136414</ele>
<time>2024-06-13T07:24:26.997Z</time>
</trkpt>
<trkpt lat="42.3272670" lon="1.3113340">
<ele>1015.258301</ele>
<time>2024-06-13T07:24:27.999Z</time>
</trkpt>
<trkpt lat="42.3270280" lon="1.3112300">
<ele>1018.306274</ele>
<time>2024-06-13T07:24:45.996Z</time>
</trkpt>
<trkpt lat="42.3270180" lon="1.3112150">
<ele>1018.489197</ele>
<time>2024-06-13T07:24:46.999Z</time>
</trkpt>
<trkpt lat="42.3270130" lon="1.3111960">
<ele>1018.641602</ele>
<time>2024-06-13T07:24:48.001Z</time>
</trkpt>
<trkpt lat="42.3270110" lon="1.3111760">
<ele>1018.824524</ele>
<time>2024-06-13T07:24:49.003Z</time>
</trkpt>
<trkpt lat="42.3270130" lon="1.3111550">
<ele>1019.037842</ele>
<time>2024-06-13T07:24:49.997Z</time>
</trkpt>
<trkpt lat="42.3270190" lon="1.3111370">
<ele>1019.159729</ele>
<time>2024-06-13T07:24:50.999Z</time>
</trkpt>
<trkpt lat="42.3270270" lon="1.3111210">
<ele>1019.281738</ele>
<time>2024-06-13T07:24:52.001Z</time>
</trkpt>
<trkpt lat="42.3270390" lon="1.3111080">
<ele>1019.434082</ele>
<time>2024-06-13T07:24:53.004Z</time>
</trkpt>
<trkpt lat="42.3270510" lon="1.3111010">
<ele>1019.647461</ele>
<time>2024-06-13T07:24:53.997Z</time>
</trkpt>
<trkpt lat="42.3270640" lon="1.3110960">
<ele>1019.830261</ele>
<time>2024-06-13T07:24:54.999Z</time>
</trkpt>
<trkpt lat="42.3272300" lon="1.3110850">
<ele>1022.817322</ele>
<time>2024-06-13T07:25:07.000Z</time>
</trkpt>
<trkpt lat="42.3274320" lon="1.3111310">
<ele>1026.139771</ele>
<time>2024-06-13T07:25:20.004Z</time>
</trkpt>
<trkpt lat="42.3275930" lon="1.3110610">
<ele>1029.370605</ele>
<time>2024-06-13T07:25:31.002Z</time>
</trkpt>
<trkpt lat="42.3277460" lon="1.3108920">
<ele>1032.449097</ele>
<time>2024-06-13T07:25:43.003Z</time>
</trkpt>
<trkpt lat="42.3279430" lon="1.3107320">
<ele>1035.527466</ele>
<time>2024-06-13T07:25:58.002Z</time>
</trkpt>
<trkpt lat="42.3282240" lon="1.3105330">
<ele>1037.904907</ele>
<time>2024-06-13T07:26:18.004Z</time>
</trkpt>
<trkpt lat="42.3281340" lon="1.3103210">
<ele>1040.709106</ele>
<time>2024-06-13T07:26:30.998Z</time>
</trkpt>
<trkpt lat="42.3279800" lon="1.3104380">
<ele>1043.787598</ele>
<time>2024-06-13T07:26:41.004Z</time>
</trkpt>
<trkpt lat="42.3276550" lon="1.3104620">
<ele>1046.622314</ele>
<time>2024-06-13T07:26:59.001Z</time>
</trkpt>
<trkpt lat="42.3275710" lon="1.3102020">
<ele>1049.334961</ele>
<time>2024-06-13T07:27:12.997Z</time>
</trkpt>
<trkpt lat="42.3276310" lon="1.3100320">
<ele>1052.382935</ele>
<time>2024-06-13T07:27:22.000Z</time>
</trkpt>
<trkpt lat="42.3277910" lon="1.3098370">
<ele>1055.735718</ele>
<time>2024-06-13T07:27:32.999Z</time>
</trkpt>
<trkpt lat="42.3278610" lon="1.3097880">
<ele>1059.058105</ele>
<time>2024-06-13T07:27:38.002Z</time>
</trkpt>
<trkpt lat="42.3278930" lon="1.3097820">
<ele>1062.288940</ele>
<time>2024-06-13T07:27:46.002Z</time>
</trkpt>
<trkpt lat="42.3278960" lon="1.3097750">
<ele>1062.715698</ele>
<time>2024-06-13T07:29:33.000Z</time>
</trkpt>
<trkpt lat="42.3278990" lon="1.3097680">
<ele>1063.294800</ele>
<time>2024-06-13T07:30:09.003Z</time>
</trkpt>
<trkpt lat="42.3280340" lon="1.3096540">
<ele>1063.873901</ele>
<time>2024-06-13T07:30:21.004Z</time>
</trkpt>
<trkpt lat="42.3280360" lon="1.3096330">
<ele>1063.995850</ele>
<time>2024-06-13T07:30:21.997Z</time>
</trkpt>
<trkpt lat="42.3280360" lon="1.3096120">
<ele>1064.148315</ele>
<time>2024-06-13T07:30:23.000Z</time>
</trkpt>
<trkpt lat="42.3280340" lon="1.3095910">
<ele>1064.361572</ele>
<time>2024-06-13T07:30:24.002Z</time>
</trkpt>
<trkpt lat="42.3280290" lon="1.3095710">
<ele>1064.544556</ele>
<time>2024-06-13T07:30:25.004Z</time>
</trkpt>
<trkpt lat="42.3280210" lon="1.3095520">
<ele>1064.757813</ele>
<time>2024-06-13T07:30:25.998Z</time>
</trkpt>
<trkpt lat="42.3280110" lon="1.3095340">
<ele>1064.940674</ele>
<time>2024-06-13T07:30:27.000Z</time>
</trkpt>
<trkpt lat="42.3278830" lon="1.3093950">
<ele>1068.019165</ele>
<time>2024-06-13T07:30:37.999Z</time>
</trkpt>
<trkpt lat="42.3277090" lon="1.3092860">
<ele>1069.939453</ele>
<time>2024-06-13T07:30:51.002Z</time>
</trkpt>
<trkpt lat="42.3275910" lon="1.3092400">
<ele>1073.170288</ele>
<time>2024-06-13T07:30:59.996Z</time>
</trkpt>
<trkpt lat="42.3274070" lon="1.3091540">
<ele>1076.279297</ele>
<time>2024-06-13T07:31:11.997Z</time>
</trkpt>
<trkpt lat="42.3273250" lon="1.3090680">
<ele>1079.479736</ele>
<time>2024-06-13T07:31:19.004Z</time>
</trkpt>
<trkpt lat="42.3271640" lon="1.3090010">
<ele>1082.497192</ele>
<time>2024-06-13T07:31:29.001Z</time>
</trkpt>
<trkpt lat="42.3270630" lon="1.3088900">
<ele>1085.697632</ele>
<time>2024-06-13T07:31:39.999Z</time>
</trkpt>
<trkpt lat="42.3272160" lon="1.3087840">
<ele>1088.806519</ele>
<time>2024-06-13T07:31:49.996Z</time>
</trkpt>
<trkpt lat="42.3273880" lon="1.3085960">
<ele>1091.885010</ele>
<time>2024-06-13T07:32:05.004Z</time>
</trkpt>
<trkpt lat="42.3275410" lon="1.3084720">
<ele>1094.963501</ele>
<time>2024-06-13T07:32:16.996Z</time>
</trkpt>
<trkpt lat="42.3277200" lon="1.3087400">
<ele>1098.041992</ele>
<time>2024-06-13T07:32:33.999Z</time>
</trkpt>
<trkpt lat="42.3279380" lon="1.3088490">
<ele>1101.120483</ele>
<time>2024-06-13T07:32:47.996Z</time>
</trkpt>
<trkpt lat="42.3283000" lon="1.3089030">
<ele>1103.619873</ele>
<time>2024-06-13T07:33:07.998Z</time>
</trkpt>
<trkpt lat="42.3285560" lon="1.3088520">
<ele>1103.345459</ele>
<time>2024-06-13T07:33:22.997Z</time>
</trkpt>
<trkpt lat="42.3286910" lon="1.3086430">
<ele>1105.783936</ele>
<time>2024-06-13T07:33:37.002Z</time>
</trkpt>
<trkpt lat="42.3287350" lon="1.3083940">
<ele>1108.862427</ele>
<time>2024-06-13T07:33:49.997Z</time>
</trkpt>
<trkpt lat="42.3287290" lon="1.3081990">
<ele>1111.910400</ele>
<time>2024-06-13T07:34:00.002Z</time>
</trkpt>
<trkpt lat="42.3287330" lon="1.3079610">
<ele>1115.141357</ele>
<time>2024-06-13T07:34:12.003Z</time>
</trkpt>
<trkpt lat="42.3287350" lon="1.3079400">
<ele>1115.385132</ele>
<time>2024-06-13T07:34:12.996Z</time>
</trkpt>
<trkpt lat="42.3287180" lon="1.3077200">
<ele>1118.402710</ele>
<time>2024-06-13T07:34:23.002Z</time>
</trkpt>
<trkpt lat="42.3287150" lon="1.3076780">
<ele>1118.951294</ele>
<time>2024-06-13T07:34:24.997Z</time>
</trkpt>
<trkpt lat="42.3287180" lon="1.3076030">
<ele>1120.079102</ele>
<time>2024-06-13T07:34:28.998Z</time>
</trkpt>
<trkpt lat="42.3287190" lon="1.3075840">
<ele>1120.383911</ele>
<time>2024-06-13T07:34:30.000Z</time>
</trkpt>
<trkpt lat="42.3287200" lon="1.3075610">
<ele>1120.780151</ele>
<time>2024-06-13T07:34:31.002Z</time>
</trkpt>
<trkpt lat="42.3287190" lon="1.3075390">
<ele>1120.780151</ele>
<time>2024-06-13T07:34:31.996Z</time>
</trkpt>
<trkpt lat="42.3287190" lon="1.3075210">
<ele>1121.359253</ele>
<time>2024-06-13T07:34:32.998Z</time>
</trkpt>
<trkpt lat="42.3287100" lon="1.3074830">
<ele>1121.846924</ele>
<time>2024-06-13T07:34:35.003Z</time>
</trkpt>
<trkpt lat="42.3286990" lon="1.3074630">
<ele>1122.243042</ele>
<time>2024-06-13T07:34:35.996Z</time>
</trkpt>
<trkpt lat="42.3286920" lon="1.3074380">
<ele>1122.547852</ele>
<time>2024-06-13T07:34:36.998Z</time>
</trkpt>
<trkpt lat="42.3286920" lon="1.3074170">
<ele>1122.913696</ele>
<time>2024-06-13T07:34:38.001Z</time>
</trkpt>
<trkpt lat="42.3286940" lon="1.3073980">
<ele>1123.127075</ele>
<time>2024-06-13T07:34:39.003Z</time>
</trkpt>
<trkpt lat="42.3286930" lon="1.3073780">
<ele>1123.492798</ele>
<time>2024-06-13T07:34:39.996Z</time>
</trkpt>
<trkpt lat="42.3286910" lon="1.3073590">
<ele>1123.858521</ele>
<time>2024-06-13T07:34:40.999Z</time>
</trkpt>
<trkpt lat="42.3286910" lon="1.3073360">
<ele>1124.102417</ele>
<time>2024-06-13T07:34:42.001Z</time>
</trkpt>
<trkpt lat="42.3286850" lon="1.3073150">
<ele>1124.346313</ele>
<time>2024-06-13T07:34:43.003Z</time>
</trkpt>
<trkpt lat="42.3286320" lon="1.3070560">
<ele>1127.455200</ele>
<time>2024-06-13T07:34:55.998Z</time>
</trkpt>
<trkpt lat="42.3285730" lon="1.3069080">
<ele>1130.046021</ele>
<time>2024-06-13T07:35:03.998Z</time>
</trkpt>
<trkpt lat="42.3284030" lon="1.3067770">
<ele>1133.215942</ele>
<time>2024-06-13T07:35:15.999Z</time>
</trkpt>
<trkpt lat="42.3280780" lon="1.3066430">
<ele>1134.221802</ele>
<time>2024-06-13T07:35:33.996Z</time>
</trkpt>
<trkpt lat="42.3278550" lon="1.3064960">
<ele>1135.075195</ele>
<time>2024-06-13T07:35:49.004Z</time>
</trkpt>
<trkpt lat="42.3276140" lon="1.3065720">
<ele>1137.757446</ele>
<time>2024-06-13T07:36:07.001Z</time>
</trkpt>
<trkpt lat="42.3274060" lon="1.3065830">
<ele>1140.317749</ele>
<time>2024-06-13T07:36:23.003Z</time>
</trkpt>
<trkpt lat="42.3271650" lon="1.3065360">
<ele>1141.689331</ele>
<time>2024-06-13T07:36:39.004Z</time>
</trkpt>
<trkpt lat="42.3269290" lon="1.3065900">
<ele>1143.060913</ele>
<time>2024-06-13T07:36:53.001Z</time>
</trkpt>
<trkpt lat="42.3266000" lon="1.3065840">
<ele>1145.682251</ele>
<time>2024-06-13T07:37:13.002Z</time>
</trkpt>
<trkpt lat="42.3263760" lon="1.3066000">
<ele>1148.821655</ele>
<time>2024-06-13T07:37:26.999Z</time>
</trkpt>
<trkpt lat="42.3261950" lon="1.3066100">
<ele>1151.656250</ele>
<time>2024-06-13T07:37:39.000Z</time>
</trkpt>
<trkpt lat="42.3261820" lon="1.3066060">
<ele>1151.930664</ele>
<time>2024-06-13T07:37:40.002Z</time>
</trkpt>
<trkpt lat="42.3261700" lon="1.3066060">
<ele>1152.113525</ele>
<time>2024-06-13T07:37:40.996Z</time>
</trkpt>
<trkpt lat="42.3261560" lon="1.3066050">
<ele>1152.357300</ele>
<time>2024-06-13T07:37:41.998Z</time>
</trkpt>
<trkpt lat="42.3261440" lon="1.3066020">
<ele>1152.570679</ele>
<time>2024-06-13T07:37:43.000Z</time>
</trkpt>
<trkpt lat="42.3261330" lon="1.3065950">
<ele>1152.723145</ele>
<time>2024-06-13T07:37:44.003Z</time>
</trkpt>
<trkpt lat="42.3261210" lon="1.3065860">
<ele>1152.966919</ele>
<time>2024-06-13T07:37:44.996Z</time>
</trkpt>
<trkpt lat="42.3261090" lon="1.3065770">
<ele>1153.210815</ele>
<time>2024-06-13T07:37:45.998Z</time>
</trkpt>
<trkpt lat="42.3259590" lon="1.3064810">
<ele>1156.258789</ele>
<time>2024-06-13T07:37:56.997Z</time>
</trkpt>
<trkpt lat="42.3258270" lon="1.3063770">
<ele>1159.245850</ele>
<time>2024-06-13T07:38:07.002Z</time>
</trkpt>
<trkpt lat="42.3257340" lon="1.3063150">
<ele>1161.684204</ele>
<time>2024-06-13T07:38:14.001Z</time>
</trkpt>
<trkpt lat="42.3256460" lon="1.3062560">
<ele>1163.330200</ele>
<time>2024-06-13T07:38:19.997Z</time>
</trkpt>
<trkpt lat="42.3255100" lon="1.3062140">
<ele>1166.743896</ele>
<time>2024-06-13T07:38:31.004Z</time>
</trkpt>
<trkpt lat="42.3253710" lon="1.3061650">
<ele>1169.883301</ele>
<time>2024-06-13T07:38:38.003Z</time>
</trkpt>
<trkpt lat="42.3252130" lon="1.3061390">
<ele>1173.297119</ele>
<time>2024-06-13T07:38:47.999Z</time>
</trkpt>
<trkpt lat="42.3250580" lon="1.3061170">
<ele>1176.619507</ele>
<time>2024-06-13T07:38:58.004Z</time>
</trkpt>
<trkpt lat="42.3249510" lon="1.3060850">
<ele>1179.972290</ele>
<time>2024-06-13T07:39:08.001Z</time>
</trkpt>
<trkpt lat="42.3247930" lon="1.3059240">
<ele>1184.391846</ele>
<time>2024-06-13T07:39:23.000Z</time>
</trkpt>
<trkpt lat="42.3246860" lon="1.3058810">
<ele>1186.494995</ele>
<time>2024-06-13T07:39:32.003Z</time>
</trkpt>
<trkpt lat="42.3246140" lon="1.3058430">
<ele>1187.805542</ele>
<time>2024-06-13T07:39:37.999Z</time>
</trkpt>
<trkpt lat="42.3245280" lon="1.3058270">
<ele>1189.451538</ele>
<time>2024-06-13T07:39:47.002Z</time>
</trkpt>
<trkpt lat="42.3243340" lon="1.3059350">
<ele>1192.011841</ele>
<time>2024-06-13T07:40:00.998Z</time>
</trkpt>
<trkpt lat="42.3241670" lon="1.3061220">
<ele>1194.663574</ele>
<time>2024-06-13T07:40:14.002Z</time>
</trkpt>
<trkpt lat="42.3239710" lon="1.3063420">
<ele>1196.980103</ele>
<time>2024-06-13T07:40:29.001Z</time>
</trkpt>
<trkpt lat="42.3237310" lon="1.3063900">
<ele>1200.089111</ele>
<time>2024-06-13T07:40:42.004Z</time>
</trkpt>
<trkpt lat="42.3235940" lon="1.3065950">
<ele>1203.167480</ele>
<time>2024-06-13T07:40:54.998Z</time>
</trkpt>
<trkpt lat="42.3234490" lon="1.3067140">
<ele>1206.245972</ele>
<time>2024-06-13T07:41:09.004Z</time>
</trkpt>
<trkpt lat="42.3233550" lon="1.3067580">
<ele>1207.465210</ele>
<time>2024-06-13T07:41:16.002Z</time>
</trkpt>
<trkpt lat="42.3231650" lon="1.3069410">
<ele>1210.513184</ele>
<time>2024-06-13T07:41:29.999Z</time>
</trkpt>
<trkpt lat="42.3231520" lon="1.3069510">
<ele>1210.787476</ele>
<time>2024-06-13T07:41:31.001Z</time>
</trkpt>
<trkpt lat="42.3229940" lon="1.3069980">
<ele>1214.048950</ele>
<time>2024-06-13T07:41:43.002Z</time>
</trkpt>
<trkpt lat="42.3229480" lon="1.3070020">
<ele>1214.688965</ele>
<time>2024-06-13T07:41:46.000Z</time>
</trkpt>
<trkpt lat="42.3229200" lon="1.3070100">
<ele>1214.932739</ele>
<time>2024-06-13T07:41:47.003Z</time>
</trkpt>
<trkpt lat="42.3229030" lon="1.3070000">
<ele>1215.176636</ele>
<time>2024-06-13T07:41:47.996Z</time>
</trkpt>
<trkpt lat="42.3228940" lon="1.3068580">
<ele>1218.498901</ele>
<time>2024-06-13T07:41:59.004Z</time>
</trkpt>
<trkpt lat="42.3228980" lon="1.3068170">
<ele>1219.108521</ele>
<time>2024-06-13T07:42:00.999Z</time>
</trkpt>
<trkpt lat="42.3229550" lon="1.3066210">
<ele>1222.187012</ele>
<time>2024-06-13T07:42:14.003Z</time>
</trkpt>
<trkpt lat="42.3229850" lon="1.3065340">
<ele>1222.949097</ele>
<time>2024-06-13T07:42:18.003Z</time>
</trkpt>
<trkpt lat="42.3230010" lon="1.3065110">
<ele>1223.162354</ele>
<time>2024-06-13T07:42:18.996Z</time>
</trkpt>
<trkpt lat="42.3230110" lon="1.3064900">
<ele>1223.345337</ele>
<time>2024-06-13T07:42:19.999Z</time>
</trkpt>
<trkpt lat="42.3230250" lon="1.3064740">
<ele>1223.589111</ele>
<time>2024-06-13T07:42:21.001Z</time>
</trkpt>
<trkpt lat="42.3230400" lon="1.3064530">
<ele>1223.863403</ele>
<time>2024-06-13T07:42:22.003Z</time>
</trkpt>
<trkpt lat="42.3230540" lon="1.3064330">
<ele>1224.198730</ele>
<time>2024-06-13T07:42:22.997Z</time>
</trkpt>
<trkpt lat="42.3230680" lon="1.3064190">
<ele>1224.442505</ele>
<time>2024-06-13T07:42:23.999Z</time>
</trkpt>
<trkpt lat="42.3231570" lon="1.3062350">
<ele>1226.972412</ele>
<time>2024-06-13T07:42:37.002Z</time>
</trkpt>
<trkpt lat="42.3232570" lon="1.3060850">
<ele>1230.142334</ele>
<time>2024-06-13T07:42:49.997Z</time>
</trkpt>
<trkpt lat="42.3233410" lon="1.3059640">
<ele>1231.910156</ele>
<time>2024-06-13T07:42:59.000Z</time>
</trkpt>
<trkpt lat="42.3233730" lon="1.3059290">
<ele>1232.641724</ele>
<time>2024-06-13T07:43:03.000Z</time>
</trkpt>
<trkpt lat="42.3233970" lon="1.3059250">
<ele>1235.720093</ele>
<time>2024-06-13T07:43:16.997Z</time>
</trkpt>
<trkpt lat="42.3233920" lon="1.3059150">
<ele>1236.177368</ele>
<time>2024-06-13T07:43:51.004Z</time>
</trkpt>
<trkpt lat="42.3234010" lon="1.3058900">
<ele>1235.781128</ele>
<time>2024-06-13T07:47:51.999Z</time>
</trkpt>
<trkpt lat="42.3234400" lon="1.3058610">
<ele>1236.451660</ele>
<time>2024-06-13T07:48:18.999Z</time>
</trkpt>
<trkpt lat="42.3234480" lon="1.3058510">
<ele>1236.482178</ele>
<time>2024-06-13T07:48:20.002Z</time>
</trkpt>
<trkpt lat="42.3235510" lon="1.3056890">
<ele>1237.396484</ele>
<time>2024-06-13T07:48:31.000Z</time>
</trkpt>
<trkpt lat="42.3236060" lon="1.3055480">
<ele>1239.194946</ele>
<time>2024-06-13T07:48:40.003Z</time>
</trkpt>
<trkpt lat="42.3236150" lon="1.3055300">
<ele>1239.408203</ele>
<time>2024-06-13T07:48:40.997Z</time>
</trkpt>
<trkpt lat="42.3237530" lon="1.3052770">
<ele>1242.669556</ele>
<time>2024-06-13T07:48:55.002Z</time>
</trkpt>
<trkpt lat="42.3238580" lon="1.3050530">
<ele>1245.809082</ele>
<time>2024-06-13T07:49:07.997Z</time>
</trkpt>
<trkpt lat="42.3239830" lon="1.3048970">
<ele>1248.826660</ele>
<time>2024-06-13T07:49:19.004Z</time>
</trkpt>
<trkpt lat="42.3240810" lon="1.3046970">
<ele>1251.905029</ele>
<time>2024-06-13T07:49:30.003Z</time>
</trkpt>
<trkpt lat="42.3241520" lon="1.3044960">
<ele>1255.044556</ele>
<time>2024-06-13T07:49:42.004Z</time>
</trkpt>
<trkpt lat="42.3242320" lon="1.3042260">
<ele>1258.153320</ele>
<time>2024-06-13T07:49:56.001Z</time>
</trkpt>
<trkpt lat="42.3243570" lon="1.3040090">
<ele>1261.353760</ele>
<time>2024-06-13T07:50:09.004Z</time>
</trkpt>
<trkpt lat="42.3245550" lon="1.3038480">
<ele>1264.462769</ele>
<time>2024-06-13T07:50:23.001Z</time>
</trkpt>
<trkpt lat="42.3247420" lon="1.3038430">
<ele>1266.870728</ele>
<time>2024-06-13T07:50:36.004Z</time>
</trkpt>
<trkpt lat="42.3248530" lon="1.3039280">
<ele>1267.510742</ele>
<time>2024-06-13T07:50:40.998Z</time>
</trkpt>
<trkpt lat="42.3250790" lon="1.3039820">
<ele>1269.370117</ele>
<time>2024-06-13T07:50:54.001Z</time>
</trkpt>
<trkpt lat="42.3252410" lon="1.3040680">
<ele>1271.107422</ele>
<time>2024-06-13T07:51:06.002Z</time>
</trkpt>
<trkpt lat="42.3253920" lon="1.3042070">
<ele>1273.637329</ele>
<time>2024-06-13T07:51:22.003Z</time>
</trkpt>
<trkpt lat="42.3255570" lon="1.3040610">
<ele>1275.709839</ele>
<time>2024-06-13T07:51:32.000Z</time>
</trkpt>
<trkpt lat="42.3256630" lon="1.3039970">
<ele>1277.904541</ele>
<time>2024-06-13T07:51:38.998Z</time>
</trkpt>
<trkpt lat="42.3256760" lon="1.3039870">
<ele>1278.117798</ele>
<time>2024-06-13T07:51:40.000Z</time>
</trkpt>
<trkpt lat="42.3256920" lon="1.3039790">
<ele>1278.300659</ele>
<time>2024-06-13T07:51:41.003Z</time>
</trkpt>
<trkpt lat="42.3256980" lon="1.3039550">
<ele>1278.574951</ele>
<time>2024-06-13T07:51:41.996Z</time>
</trkpt>
<trkpt lat="42.3257050" lon="1.3039370">
<ele>1278.879761</ele>
<time>2024-06-13T07:51:42.998Z</time>
</trkpt>
<trkpt lat="42.3257170" lon="1.3039220">
<ele>1279.184570</ele>
<time>2024-06-13T07:51:44.001Z</time>
</trkpt>
<trkpt lat="42.3257310" lon="1.3039110">
<ele>1279.397949</ele>
<time>2024-06-13T07:51:45.003Z</time>
</trkpt>
<trkpt lat="42.3257410" lon="1.3039020">
<ele>1279.611450</ele>
<time>2024-06-13T07:51:45.996Z</time>
</trkpt>
<trkpt lat="42.3258990" lon="1.3038220">
<ele>1282.720337</ele>
<time>2024-06-13T07:51:57.004Z</time>
</trkpt>
<trkpt lat="42.3260280" lon="1.3036640">
<ele>1285.920654</ele>
<time>2024-06-13T07:52:08.996Z</time>
</trkpt>
<trkpt lat="42.3260450" lon="1.3034620">
<ele>1288.755371</ele>
<time>2024-06-13T07:52:19.001Z</time>
</trkpt>
<trkpt lat="42.3260360" lon="1.3034420">
<ele>1288.846802</ele>
<time>2024-06-13T07:52:20.004Z</time>
</trkpt>
<trkpt lat="42.3260240" lon="1.3034230">
<ele>1289.090576</ele>
<time>2024-06-13T07:52:20.997Z</time>
</trkpt>
<trkpt lat="42.3260130" lon="1.3034060">
<ele>1289.273438</ele>
<time>2024-06-13T07:52:21.999Z</time>
</trkpt>
<trkpt lat="42.3260010" lon="1.3033920">
<ele>1289.486938</ele>
<time>2024-06-13T07:52:23.002Z</time>
</trkpt>
<trkpt lat="42.3259690" lon="1.3033750">
<ele>1289.852539</ele>
<time>2024-06-13T07:52:24.997Z</time>
</trkpt>
<trkpt lat="42.3259530" lon="1.3033740">
<ele>1290.066040</ele>
<time>2024-06-13T07:52:26.000Z</time>
</trkpt>
<trkpt lat="42.3259370" lon="1.3033740">
<ele>1290.462158</ele>
<time>2024-06-13T07:52:27.002Z</time>
</trkpt>
<trkpt lat="42.3259210" lon="1.3033780">
<ele>1290.462158</ele>
<time>2024-06-13T07:52:28.004Z</time>
</trkpt>
<trkpt lat="42.3259090" lon="1.3033830">
<ele>1291.010864</ele>
<time>2024-06-13T07:52:28.998Z</time>
</trkpt>
<trkpt lat="42.3257880" lon="1.3034560">
<ele>1293.418823</ele>
<time>2024-06-13T07:52:40.999Z</time>
</trkpt>
<trkpt lat="42.3256930" lon="1.3034990">
<ele>1294.363770</ele>
<time>2024-06-13T07:52:48.999Z</time>
</trkpt>
<trkpt lat="42.3255660" lon="1.3035690">
<ele>1295.521851</ele>
<time>2024-06-13T07:52:58.002Z</time>
</trkpt>
<trkpt lat="42.3254830" lon="1.3035690">
<ele>1296.100952</ele>
<time>2024-06-13T07:53:02.996Z</time>
</trkpt>
<trkpt lat="42.3253840" lon="1.3034560">
<ele>1297.045898</ele>
<time>2024-06-13T07:53:10.003Z</time>
</trkpt>
<trkpt lat="42.3251540" lon="1.3033280">
<ele>1299.667236</ele>
<time>2024-06-13T07:53:25.002Z</time>
</trkpt>
<trkpt lat="42.3249200" lon="1.3031240">
<ele>1301.160645</ele>
<time>2024-06-13T07:53:37.003Z</time>
</trkpt>
<trkpt lat="42.3247930" lon="1.3030430">
<ele>1302.136108</ele>
<time>2024-06-13T07:53:48.002Z</time>
</trkpt>
<trkpt lat="42.3246970" lon="1.3030060">
<ele>1302.471436</ele>
<time>2024-06-13T07:53:52.996Z</time>
</trkpt>
<trkpt lat="42.3245500" lon="1.3030000">
<ele>1304.330566</ele>
<time>2024-06-13T07:54:04.997Z</time>
</trkpt>
<trkpt lat="42.3245070" lon="1.3028770">
<ele>1304.787720</ele>
<time>2024-06-13T07:54:05.999Z</time>
</trkpt>
<trkpt lat="42.3246250" lon="1.3028500">
<ele>1305.976563</ele>
<time>2024-06-13T07:54:12.004Z</time>
</trkpt>
<trkpt lat="42.3246970" lon="1.3028560">
<ele>1307.531006</ele>
<time>2024-06-13T07:54:19.002Z</time>
</trkpt>
<trkpt lat="42.3248950" lon="1.3028390">
<ele>1310.274170</ele>
<time>2024-06-13T07:54:34.001Z</time>
</trkpt>
<trkpt lat="42.3250620" lon="1.3028450">
<ele>1312.438232</ele>
<time>2024-06-13T07:54:45.000Z</time>
</trkpt>
<trkpt lat="42.3252640" lon="1.3028660">
<ele>1315.364380</ele>
<time>2024-06-13T07:54:58.003Z</time>
</trkpt>
<trkpt lat="42.3254780" lon="1.3028160">
<ele>1318.168579</ele>
<time>2024-06-13T07:55:12.000Z</time>
</trkpt>
<trkpt lat="42.3256790" lon="1.3026700">
<ele>1321.216675</ele>
<time>2024-06-13T07:55:26.999Z</time>
</trkpt>
<trkpt lat="42.3257990" lon="1.3024200">
<ele>1324.386475</ele>
<time>2024-06-13T07:55:40.002Z</time>
</trkpt>
<trkpt lat="42.3258700" lon="1.3023140">
<ele>1325.636230</ele>
<time>2024-06-13T07:55:45.998Z</time>
</trkpt>
<trkpt lat="42.3258750" lon="1.3022980">
<ele>1325.758057</ele>
<time>2024-06-13T07:55:47.001Z</time>
</trkpt>
<trkpt lat="42.3260560" lon="1.3020720">
<ele>1327.983032</ele>
<time>2024-06-13T07:56:00.004Z</time>
</trkpt>
<trkpt lat="42.3262150" lon="1.3017180">
<ele>1330.726318</ele>
<time>2024-06-13T07:56:15.996Z</time>
</trkpt>
<trkpt lat="42.3262220" lon="1.3016900">
<ele>1330.909180</ele>
<time>2024-06-13T07:56:16.999Z</time>
</trkpt>
<trkpt lat="42.3262610" lon="1.3014990">
<ele>1332.158936</ele>
<time>2024-06-13T07:56:24.999Z</time>
</trkpt>
<trkpt lat="42.3262740" lon="1.3014730">
<ele>1332.250244</ele>
<time>2024-06-13T07:56:26.002Z</time>
</trkpt>
<trkpt lat="42.3262830" lon="1.3014460">
<ele>1332.341797</ele>
<time>2024-06-13T07:56:27.004Z</time>
</trkpt>
<trkpt lat="42.3262940" lon="1.3014190">
<ele>1332.494263</ele>
<time>2024-06-13T07:56:27.997Z</time>
</trkpt>
<trkpt lat="42.3262990" lon="1.3013970">
<ele>1332.677002</ele>
<time>2024-06-13T07:56:29.000Z</time>
</trkpt>
<trkpt lat="42.3263120" lon="1.3013770">
<ele>1332.920898</ele>
<time>2024-06-13T07:56:30.002Z</time>
</trkpt>
<trkpt lat="42.3263250" lon="1.3013570">
<ele>1333.195190</ele>
<time>2024-06-13T07:56:31.004Z</time>
</trkpt>
<trkpt lat="42.3263990" lon="1.3012490">
<ele>1334.231445</ele>
<time>2024-06-13T07:56:42.996Z</time>
</trkpt>
<trkpt lat="42.3264730" lon="1.3011010">
<ele>1334.140137</ele>
<time>2024-06-13T07:57:01.996Z</time>
</trkpt>
<trkpt lat="42.3264520" lon="1.3010560">
<ele>1334.292480</ele>
<time>2024-06-13T07:57:08.001Z</time>
</trkpt>
<trkpt lat="42.3265990" lon="1.3008720">
<ele>1334.383911</ele>
<time>2024-06-13T07:57:28.996Z</time>
</trkpt>
<trkpt lat="42.3267380" lon="1.3006400">
<ele>1336.304199</ele>
<time>2024-06-13T07:57:40.997Z</time>
</trkpt>
<trkpt lat="42.3268060" lon="1.3004900">
<ele>1338.651123</ele>
<time>2024-06-13T07:57:51.002Z</time>
</trkpt>
<trkpt lat="42.3268810" lon="1.3002590">
<ele>1340.449341</ele>
<time>2024-06-13T07:58:00.998Z</time>
</trkpt>
<trkpt lat="42.3270000" lon="1.2999750">
<ele>1343.924194</ele>
<time>2024-06-13T07:58:15.997Z</time>
</trkpt>
<trkpt lat="42.3270990" lon="1.2997760">
<ele>1346.027344</ele>
<time>2024-06-13T07:58:26.996Z</time>
</trkpt>
<trkpt lat="42.3271430" lon="1.2995940">
<ele>1348.465698</ele>
<time>2024-06-13T07:58:37.001Z</time>
</trkpt>
<trkpt lat="42.3272630" lon="1.2993310">
<ele>1351.605103</ele>
<time>2024-06-13T07:58:49.996Z</time>
</trkpt>
<trkpt lat="42.3273980" lon="1.2990410">
<ele>1355.018921</ele>
<time>2024-06-13T07:59:05.997Z</time>
</trkpt>
<trkpt lat="42.3274970" lon="1.2988430">
<ele>1358.676514</ele>
<time>2024-06-13T07:59:19.000Z</time>
</trkpt>
<trkpt lat="42.3275850" lon="1.2985690">
<ele>1361.755005</ele>
<time>2024-06-13T07:59:32.004Z</time>
</trkpt>
<trkpt lat="42.3276560" lon="1.2985050">
<ele>1363.004639</ele>
<time>2024-06-13T07:59:36.997Z</time>
</trkpt>
<trkpt lat="42.3278160" lon="1.2983600">
<ele>1366.113647</ele>
<time>2024-06-13T07:59:51.003Z</time>
</trkpt>
<trkpt lat="42.3279080" lon="1.2982800">
<ele>1369.100586</ele>
<time>2024-06-13T08:00:03.004Z</time>
</trkpt>
<trkpt lat="42.3279870" lon="1.2981990">
<ele>1370.776978</ele>
<time>2024-06-13T08:00:07.998Z</time>
</trkpt>
<trkpt lat="42.3280980" lon="1.2981130">
<ele>1374.282227</ele>
<time>2024-06-13T08:00:17.001Z</time>
</trkpt>
<trkpt lat="42.3281930" lon="1.2979950">
<ele>1377.330200</ele>
<time>2024-06-13T08:00:26.004Z</time>
</trkpt>
<trkpt lat="42.3283000" lon="1.2979280">
<ele>1379.281006</ele>
<time>2024-06-13T08:00:34.004Z</time>
</trkpt>
<trkpt lat="42.3283100" lon="1.2979170">
<ele>1379.433472</ele>
<time>2024-06-13T08:00:34.998Z</time>
</trkpt>
<trkpt lat="42.3283210" lon="1.2979050">
<ele>1379.768555</ele>
<time>2024-06-13T08:00:36.000Z</time>
</trkpt>
<trkpt lat="42.3284400" lon="1.2977490">
<ele>1382.816528</ele>
<time>2024-06-13T08:00:46.999Z</time>
</trkpt>
<trkpt lat="42.3285140" lon="1.2975960">
<ele>1385.864624</ele>
<time>2024-06-13T08:00:57.997Z</time>
</trkpt>
<trkpt lat="42.3285290" lon="1.2974830">
<ele>1387.815430</ele>
<time>2024-06-13T08:01:03.000Z</time>
</trkpt>
<trkpt lat="42.3285580" lon="1.2972500">
<ele>1391.198608</ele>
<time>2024-06-13T08:01:12.996Z</time>
</trkpt>
<trkpt lat="42.3285980" lon="1.2970300">
<ele>1393.118896</ele>
<time>2024-06-13T08:01:19.001Z</time>
</trkpt>
<trkpt lat="42.3287000" lon="1.2969620">
<ele>1396.227783</ele>
<time>2024-06-13T08:01:30.000Z</time>
</trkpt>
<trkpt lat="42.3288910" lon="1.2969480">
<ele>1398.208984</ele>
<time>2024-06-13T08:01:43.003Z</time>
</trkpt>
<trkpt lat="42.3290800" lon="1.2970150">
<ele>1401.287476</ele>
<time>2024-06-13T08:01:55.998Z</time>
</trkpt>
<trkpt lat="42.3293100" lon="1.2970410">
<ele>1404.365967</ele>
<time>2024-06-13T08:02:10.997Z</time>
</trkpt>
<trkpt lat="42.3294910" lon="1.2969870">
<ele>1406.926270</ele>
<time>2024-06-13T08:02:22.998Z</time>
</trkpt>
<trkpt lat="42.3296390" lon="1.2971490">
<ele>1409.974243</ele>
<time>2024-06-13T08:02:34.999Z</time>
</trkpt>
<trkpt lat="42.3299250" lon="1.2971430">
<ele>1412.199463</ele>
<time>2024-06-13T08:02:51.000Z</time>
</trkpt>
<trkpt lat="42.3301270" lon="1.2973050">
<ele>1414.363403</ele>
<time>2024-06-13T08:03:04.997Z</time>
</trkpt>
<trkpt lat="42.3303720" lon="1.2973830">
<ele>1416.039795</ele>
<time>2024-06-13T08:03:19.996Z</time>
</trkpt>
<trkpt lat="42.3306000" lon="1.2975460">
<ele>1418.051514</ele>
<time>2024-06-13T08:03:35.997Z</time>
</trkpt>
<trkpt lat="42.3308110" lon="1.2974560">
<ele>1420.550903</ele>
<time>2024-06-13T08:03:50.996Z</time>
</trkpt>
<trkpt lat="42.3309860" lon="1.2973390">
<ele>1423.507324</ele>
<time>2024-06-13T08:04:05.002Z</time>
</trkpt>
<trkpt lat="42.3311900" lon="1.2971780">
<ele>1426.555420</ele>
<time>2024-06-13T08:04:21.003Z</time>
</trkpt>
<trkpt lat="42.3312770" lon="1.2971210">
<ele>1428.018555</ele>
<time>2024-06-13T08:04:29.004Z</time>
</trkpt>
<trkpt lat="42.3312910" lon="1.2971150">
<ele>1428.201416</ele>
<time>2024-06-13T08:04:29.997Z</time>
</trkpt>
<trkpt lat="42.3313040" lon="1.2971050">
<ele>1428.353760</ele>
<time>2024-06-13T08:04:30.999Z</time>
</trkpt>
<trkpt lat="42.3314730" lon="1.2970020">
<ele>1431.371338</ele>
<time>2024-06-13T08:04:44.003Z</time>
</trkpt>
<trkpt lat="42.3316650" lon="1.2969520">
<ele>1434.236450</ele>
<time>2024-06-13T08:04:56.997Z</time>
</trkpt>
<trkpt lat="42.3318450" lon="1.2969040">
<ele>1436.095703</ele>
<time>2024-06-13T08:05:08.998Z</time>
</trkpt>
<trkpt lat="42.3320840" lon="1.2968130">
<ele>1438.777832</ele>
<time>2024-06-13T08:05:23.997Z</time>
</trkpt>
<trkpt lat="42.3323490" lon="1.2967450">
<ele>1440.210449</ele>
<time>2024-06-13T08:05:38.996Z</time>
</trkpt>
<trkpt lat="42.3326230" lon="1.2967360">
<ele>1441.429688</ele>
<time>2024-06-13T08:05:53.002Z</time>
</trkpt>
<trkpt lat="42.3328380" lon="1.2970900">
<ele>1442.222168</ele>
<time>2024-06-13T08:06:05.003Z</time>
</trkpt>
<trkpt lat="42.3331040" lon="1.2972130">
<ele>1443.593872</ele>
<time>2024-06-13T08:06:21.004Z</time>
</trkpt>
<trkpt lat="42.3333230" lon="1.2971790">
<ele>1446.794189</ele>
<time>2024-06-13T08:06:35.001Z</time>
</trkpt>
<trkpt lat="42.3335050" lon="1.2970740">
<ele>1449.994629</ele>
<time>2024-06-13T08:06:45.999Z</time>
</trkpt>
<trkpt lat="42.3336890" lon="1.2969280">
<ele>1453.164551</ele>
<time>2024-06-13T08:06:59.003Z</time>
</trkpt>
<trkpt lat="42.3337460" lon="1.2968700">
<ele>1453.621704</ele>
<time>2024-06-13T08:07:03.003Z</time>
</trkpt>
<trkpt lat="42.3337630" lon="1.2968640">
<ele>1453.682617</ele>
<time>2024-06-13T08:07:03.996Z</time>
</trkpt>
<trkpt lat="42.3340500" lon="1.2969940">
<ele>1454.170288</ele>
<time>2024-06-13T08:07:18.002Z</time>
</trkpt>
<trkpt lat="42.3342970" lon="1.2970700">
<ele>1456.182007</ele>
<time>2024-06-13T08:07:34.003Z</time>
</trkpt>
<trkpt lat="42.3344780" lon="1.2970160">
<ele>1458.468018</ele>
<time>2024-06-13T08:07:46.004Z</time>
</trkpt>
<trkpt lat="42.3346340" lon="1.2969260">
<ele>1461.851318</ele>
<time>2024-06-13T08:07:57.003Z</time>
</trkpt>
<trkpt lat="42.3347770" lon="1.2967870">
<ele>1465.051758</ele>
<time>2024-06-13T08:08:09.004Z</time>
</trkpt>
<trkpt lat="42.3349390" lon="1.2966110">
<ele>1468.099731</ele>
<time>2024-06-13T08:08:23.001Z</time>
</trkpt>
<trkpt lat="42.3350120" lon="1.2963700">
<ele>1470.294189</ele>
<time>2024-06-13T08:08:36.004Z</time>
</trkpt>
<trkpt lat="42.3351770" lon="1.2960290">
<ele>1473.403198</ele>
<time>2024-06-13T08:08:51.996Z</time>
</trkpt>
<trkpt lat="42.3353380" lon="1.2956720">
<ele>1476.420654</ele>
<time>2024-06-13T08:09:09.000Z</time>
</trkpt>
<trkpt lat="42.3355320" lon="1.2953300">
<ele>1479.163940</ele>
<time>2024-06-13T08:09:26.004Z</time>
</trkpt>
<trkpt lat="42.3356040" lon="1.2952200">
<ele>1479.986938</ele>
<time>2024-06-13T08:09:32.000Z</time>
</trkpt>
<trkpt lat="42.3356530" lon="1.2949860">
<ele>1482.821533</ele>
<time>2024-06-13T08:09:45.996Z</time>
</trkpt>
<trkpt lat="42.3358340" lon="1.2949560">
<ele>1483.370239</ele>
<time>2024-06-13T08:09:50.999Z</time>
</trkpt>
<trkpt lat="42.3358490" lon="1.2949420">
<ele>1483.431030</ele>
<time>2024-06-13T08:09:52.001Z</time>
</trkpt>
<trkpt lat="42.3358640" lon="1.2949280">
<ele>1483.522583</ele>
<time>2024-06-13T08:09:53.004Z</time>
</trkpt>
<trkpt lat="42.3358810" lon="1.2949140">
<ele>1483.735840</ele>
<time>2024-06-13T08:09:53.997Z</time>
</trkpt>
<trkpt lat="42.3358960" lon="1.2949010">
<ele>1484.254150</ele>
<time>2024-06-13T08:09:54.999Z</time>
</trkpt>
<trkpt lat="42.3359100" lon="1.2948840">
<ele>1484.254150</ele>
<time>2024-06-13T08:09:56.002Z</time>
</trkpt>
<trkpt lat="42.3359200" lon="1.2948710">
<ele>1484.619751</ele>
<time>2024-06-13T08:09:57.004Z</time>
</trkpt>
<trkpt lat="42.3361190" lon="1.2946730">
<ele>1487.515381</ele>
<time>2024-06-13T08:10:12.003Z</time>
</trkpt>
<trkpt lat="42.3361850" lon="1.2946090">
<ele>1488.399414</ele>
<time>2024-06-13T08:10:16.997Z</time>
</trkpt>
<trkpt lat="42.3362150" lon="1.2945740">
<ele>1488.704224</ele>
<time>2024-06-13T08:10:19.001Z</time>
</trkpt>
<trkpt lat="42.3364350" lon="1.2944400">
<ele>1491.508301</ele>
<time>2024-06-13T08:10:32.998Z</time>
</trkpt>
<trkpt lat="42.3366380" lon="1.2943510">
<ele>1493.611328</ele>
<time>2024-06-13T08:10:44.999Z</time>
</trkpt>
<trkpt lat="42.3368350" lon="1.2941250">
<ele>1496.567993</ele>
<time>2024-06-13T08:10:58.996Z</time>
</trkpt>
<trkpt lat="42.3370270" lon="1.2939150">
<ele>1499.341675</ele>
<time>2024-06-13T08:11:11.999Z</time>
</trkpt>
<trkpt lat="42.3370450" lon="1.2939220">
<ele>1499.554932</ele>
<time>2024-06-13T08:11:13.001Z</time>
</trkpt>
<trkpt lat="42.3371940" lon="1.2940770">
<ele>1500.896240</ele>
<time>2024-06-13T08:11:24.000Z</time>
</trkpt>
<trkpt lat="42.3373780" lon="1.2942060">
<ele>1503.212524</ele>
<time>2024-06-13T08:11:36.001Z</time>
</trkpt>
<trkpt lat="42.3376160" lon="1.2943610">
<ele>1506.382568</ele>
<time>2024-06-13T08:11:51.000Z</time>
</trkpt>
<trkpt lat="42.3378570" lon="1.2944190">
<ele>1509.521973</ele>
<time>2024-06-13T08:12:04.003Z</time>
</trkpt>
<trkpt lat="42.3381050" lon="1.2944070">
<ele>1512.813721</ele>
<time>2024-06-13T08:12:19.002Z</time>
</trkpt>
<trkpt lat="42.3382820" lon="1.2944900">
<ele>1515.892334</ele>
<time>2024-06-13T08:12:28.999Z</time>
</trkpt>
<trkpt lat="42.3385180" lon="1.2945620">
<ele>1518.239258</ele>
<time>2024-06-13T08:12:43.004Z</time>
</trkpt>
<trkpt lat="42.3387570" lon="1.2944920">
<ele>1520.464233</ele>
<time>2024-06-13T08:12:57.001Z</time>
</trkpt>
<trkpt lat="42.3387710" lon="1.2944850">
<ele>1520.586182</ele>
<time>2024-06-13T08:12:58.003Z</time>
</trkpt>
<trkpt lat="42.3387860" lon="1.2944810">
<ele>1520.769043</ele>
<time>2024-06-13T08:12:58.997Z</time>
</trkpt>
<trkpt lat="42.3388000" lon="1.2944740">
<ele>1520.890991</ele>
<time>2024-06-13T08:12:59.999Z</time>
</trkpt>
<trkpt lat="42.3388150" lon="1.2944640">
<ele>1521.043335</ele>
<time>2024-06-13T08:13:01.001Z</time>
</trkpt>
<trkpt lat="42.3388310" lon="1.2944530">
<ele>1521.256836</ele>
<time>2024-06-13T08:13:02.004Z</time>
</trkpt>
<trkpt lat="42.3388490" lon="1.2944460">
<ele>1521.470215</ele>
<time>2024-06-13T08:13:02.997Z</time>
</trkpt>
<trkpt lat="42.3390140" lon="1.2942690">
<ele>1524.396240</ele>
<time>2024-06-13T08:13:16.000Z</time>
</trkpt>
<trkpt lat="42.3392100" lon="1.2940650">
<ele>1527.444214</ele>
<time>2024-06-13T08:13:29.997Z</time>
</trkpt>
<trkpt lat="42.3393860" lon="1.2939100">
<ele>1530.431274</ele>
<time>2024-06-13T08:13:40.996Z</time>
</trkpt>
<trkpt lat="42.3395550" lon="1.2937490">
<ele>1533.631714</ele>
<time>2024-06-13T08:13:52.003Z</time>
</trkpt>
<trkpt lat="42.3397800" lon="1.2935470">
<ele>1536.649170</ele>
<time>2024-06-13T08:14:04.998Z</time>
</trkpt>
<trkpt lat="42.3400380" lon="1.2933500">
<ele>1539.758179</ele>
<time>2024-06-13T08:14:22.001Z</time>
</trkpt>
<trkpt lat="42.3400910" lon="1.2933760">
<ele>1541.647949</ele>
<time>2024-06-13T08:14:34.996Z</time>
</trkpt>
<trkpt lat="42.3401040" lon="1.2933870">
<ele>1541.769775</ele>
<time>2024-06-13T08:16:23.998Z</time>
</trkpt>
<trkpt lat="42.3402900" lon="1.2934710">
<ele>1542.166138</ele>
<time>2024-06-13T08:16:38.997Z</time>
</trkpt>
<trkpt lat="42.3404040" lon="1.2935550">
<ele>1543.050049</ele>
<time>2024-06-13T08:16:53.996Z</time>
</trkpt>
<trkpt lat="42.3403990" lon="1.2935260">
<ele>1542.989014</ele>
<time>2024-06-13T08:20:37.997Z</time>
</trkpt>
<trkpt lat="42.3403910" lon="1.2935420">
<ele>1542.044189</ele>
<time>2024-06-13T08:24:18.999Z</time>
</trkpt>
<trkpt lat="42.3403880" lon="1.2935420">
<ele>1542.623291</ele>
<time>2024-06-13T08:31:08.000Z</time>
</trkpt>
<trkpt lat="42.3403790" lon="1.2935520">
<ele>1542.501465</ele>
<time>2024-06-13T08:35:48.998Z</time>
</trkpt>
<trkpt lat="42.3403840" lon="1.2935580">
<ele>1543.202393</ele>
<time>2024-06-13T08:36:18.003Z</time>
</trkpt>
<trkpt lat="42.3404650" lon="1.2935620">
<ele>1543.385254</ele>
<time>2024-06-13T08:36:40.000Z</time>
</trkpt>
<trkpt lat="42.3405550" lon="1.2935770">
<ele>1544.177856</ele>
<time>2024-06-13T08:36:57.004Z</time>
</trkpt>
<trkpt lat="42.3406180" lon="1.2935940">
<ele>1543.659546</ele>
<time>2024-06-13T08:37:11.001Z</time>
</trkpt>
<trkpt lat="42.3406480" lon="1.2935720">
<ele>1543.446167</ele>
<time>2024-06-13T08:37:50.002Z</time>
</trkpt>
<trkpt lat="42.3406840" lon="1.2934910">
<ele>1541.800293</ele>
<time>2024-06-13T08:38:06.996Z</time>
</trkpt>
<trkpt lat="42.3406970" lon="1.2934920">
<ele>1540.581055</ele>
<time>2024-06-13T08:38:55.000Z</time>
</trkpt>
<trkpt lat="42.3407200" lon="1.2934680">
<ele>1541.038330</ele>
<time>2024-06-13T08:39:41.000Z</time>
</trkpt>
<trkpt lat="42.3407570" lon="1.2933430">
<ele>1540.885864</ele>
<time>2024-06-13T08:39:54.003Z</time>
</trkpt>
<trkpt lat="42.3407900" lon="1.2933110">
<ele>1540.703003</ele>
<time>2024-06-13T08:39:58.997Z</time>
</trkpt>
<trkpt lat="42.3408240" lon="1.2932790">
<ele>1540.215454</ele>
<time>2024-06-13T08:40:03.999Z</time>
</trkpt>
<trkpt lat="42.3409700" lon="1.2931220">
<ele>1537.746460</ele>
<time>2024-06-13T08:40:24.001Z</time>
</trkpt>
<trkpt lat="42.3409860" lon="1.2931090">
<ele>1535.765259</ele>
<time>2024-06-13T08:40:32.002Z</time>
</trkpt>
<trkpt lat="42.3409940" lon="1.2930980">
<ele>1535.551880</ele>
<time>2024-06-13T08:40:33.004Z</time>
</trkpt>
<trkpt lat="42.3410030" lon="1.2930890">
<ele>1535.399536</ele>
<time>2024-06-13T08:40:33.997Z</time>
</trkpt>
<trkpt lat="42.3410750" lon="1.2930140">
<ele>1533.144043</ele>
<time>2024-06-13T08:40:52.003Z</time>
</trkpt>
<trkpt lat="42.3411150" lon="1.2929580">
<ele>1532.686768</ele>
<time>2024-06-13T08:41:02.000Z</time>
</trkpt>
<trkpt lat="42.3411240" lon="1.2929250">
<ele>1531.681030</ele>
<time>2024-06-13T08:41:19.003Z</time>
</trkpt>
<trkpt lat="42.3411260" lon="1.2928510">
<ele>1531.132324</ele>
<time>2024-06-13T08:41:39.998Z</time>
</trkpt>
<trkpt lat="42.3411330" lon="1.2928390">
<ele>1530.766602</ele>
<time>2024-06-13T08:41:46.003Z</time>
</trkpt>
<trkpt lat="42.3411520" lon="1.2928600">
<ele>1530.156982</ele>
<time>2024-06-13T08:42:08.001Z</time>
</trkpt>
<trkpt lat="42.3411580" lon="1.2928850">
<ele>1530.644531</ele>
<time>2024-06-13T08:42:28.996Z</time>
</trkpt>
<trkpt lat="42.3411610" lon="1.2928400">
<ele>1531.193359</ele>
<time>2024-06-13T08:42:43.001Z</time>
</trkpt>
<trkpt lat="42.3412010" lon="1.2928080">
<ele>1531.254150</ele>
<time>2024-06-13T08:43:03.003Z</time>
</trkpt>
<trkpt lat="42.3412090" lon="1.2928130">
<ele>1530.309448</ele>
<time>2024-06-13T08:43:27.998Z</time>
</trkpt>
<trkpt lat="42.3412450" lon="1.2927440">
<ele>1531.010376</ele>
<time>2024-06-13T08:44:02.999Z</time>
</trkpt>
<trkpt lat="42.3414030" lon="1.2925740">
<ele>1531.254150</ele>
<time>2024-06-13T08:44:24.996Z</time>
</trkpt>
<trkpt lat="42.3416620" lon="1.2921940">
<ele>1529.852173</ele>
<time>2024-06-13T08:44:32.997Z</time>
</trkpt>
<trkpt lat="42.3416800" lon="1.2921370">
<ele>1529.638794</ele>
<time>2024-06-13T08:44:33.999Z</time>
</trkpt>
<trkpt lat="42.3416920" lon="1.2920740">
<ele>1529.425415</ele>
<time>2024-06-13T08:44:35.002Z</time>
</trkpt>
<trkpt lat="42.3417450" lon="1.2917480">
<ele>1527.291748</ele>
<time>2024-06-13T08:44:40.004Z</time>
</trkpt>
<trkpt lat="42.3418480" lon="1.2911700">
<ele>1524.152344</ele>
<time>2024-06-13T08:44:48.998Z</time>
</trkpt>
<trkpt lat="42.3421000" lon="1.2905600">
<ele>1520.921509</ele>
<time>2024-06-13T08:44:59.997Z</time>
</trkpt>
<trkpt lat="42.3424170" lon="1.2900430">
<ele>1517.843018</ele>
<time>2024-06-13T08:45:10.002Z</time>
</trkpt>
<trkpt lat="42.3427100" lon="1.2895460">
<ele>1514.551147</ele>
<time>2024-06-13T08:45:18.996Z</time>
</trkpt>
<trkpt lat="42.3430100" lon="1.2891970">
<ele>1511.533691</ele>
<time>2024-06-13T08:45:26.004Z</time>
</trkpt>
<trkpt lat="42.3431060" lon="1.2890740">
<ele>1510.497437</ele>
<time>2024-06-13T08:45:27.999Z</time>
</trkpt>
<trkpt lat="42.3434500" lon="1.2884330">
<ele>1507.114136</ele>
<time>2024-06-13T08:45:36.000Z</time>
</trkpt>
<trkpt lat="42.3436540" lon="1.2881620">
<ele>1503.517334</ele>
<time>2024-06-13T08:45:41.003Z</time>
</trkpt>
<trkpt lat="42.3438260" lon="1.2879210">
<ele>1500.408569</ele>
<time>2024-06-13T08:45:45.996Z</time>
</trkpt>
<trkpt lat="42.3441310" lon="1.2874820">
<ele>1497.238647</ele>
<time>2024-06-13T08:45:53.004Z</time>
</trkpt>
<trkpt lat="42.3446000" lon="1.2870560">
<ele>1494.068604</ele>
<time>2024-06-13T08:46:01.004Z</time>
</trkpt>
<trkpt lat="42.3451870" lon="1.2866830">
<ele>1490.929199</ele>
<time>2024-06-13T08:46:09.998Z</time>
</trkpt>
<trkpt lat="42.3454880" lon="1.2864710">
<ele>1489.039429</ele>
<time>2024-06-13T08:46:15.001Z</time>
</trkpt>
<trkpt lat="42.3455480" lon="1.2864430">
<ele>1488.368896</ele>
<time>2024-06-13T08:46:16.003Z</time>
</trkpt>
<trkpt lat="42.3456120" lon="1.2864250">
<ele>1486.844971</ele>
<time>2024-06-13T08:46:16.997Z</time>
</trkpt>
<trkpt lat="42.3458240" lon="1.2863900">
<ele>1484.223633</ele>
<time>2024-06-13T08:46:20.004Z</time>
</trkpt>
<trkpt lat="42.3458960" lon="1.2863680">
<ele>1483.492065</ele>
<time>2024-06-13T08:46:20.997Z</time>
</trkpt>
<trkpt lat="42.3459680" lon="1.2863400">
<ele>1482.943359</ele>
<time>2024-06-13T08:46:21.999Z</time>
</trkpt>
<trkpt lat="42.3460350" lon="1.2863020">
<ele>1482.455811</ele>
<time>2024-06-13T08:46:23.002Z</time>
</trkpt>
<trkpt lat="42.3461000" lon="1.2862560">
<ele>1481.846191</ele>
<time>2024-06-13T08:46:24.004Z</time>
</trkpt>
<trkpt lat="42.3461630" lon="1.2862050">
<ele>1481.206055</ele>
<time>2024-06-13T08:46:24.997Z</time>
</trkpt>
<trkpt lat="42.3462220" lon="1.2861510">
<ele>1480.627075</ele>
<time>2024-06-13T08:46:26.000Z</time>
</trkpt>
<trkpt lat="42.3462740" lon="1.2860920">
<ele>1479.864990</ele>
<time>2024-06-13T08:46:27.002Z</time>
</trkpt>
<trkpt lat="42.3463200" lon="1.2860300">
<ele>1479.103027</ele>
<time>2024-06-13T08:46:28.004Z</time>
</trkpt>
<trkpt lat="42.3463610" lon="1.2859610">
<ele>1478.280029</ele>
<time>2024-06-13T08:46:28.998Z</time>
</trkpt>
<trkpt lat="42.3465200" lon="1.2856880">
<ele>1475.201538</ele>
<time>2024-06-13T08:46:32.998Z</time>
</trkpt>
<trkpt lat="42.3466930" lon="1.2853270">
<ele>1471.848633</ele>
<time>2024-06-13T08:46:38.001Z</time>
</trkpt>
<trkpt lat="42.3467150" lon="1.2852430">
<ele>1471.208618</ele>
<time>2024-06-13T08:46:39.003Z</time>
</trkpt>
<trkpt lat="42.3467330" lon="1.2851540">
<ele>1470.477051</ele>
<time>2024-06-13T08:46:39.996Z</time>
</trkpt>
<trkpt lat="42.3467860" lon="1.2846900">
<ele>1467.032959</ele>
<time>2024-06-13T08:46:44.999Z</time>
</trkpt>
<trkpt lat="42.3468240" lon="1.2842540">
<ele>1463.588623</ele>
<time>2024-06-13T08:46:50.002Z</time>
</trkpt>
<trkpt lat="42.3468410" lon="1.2839210">
<ele>1460.388184</ele>
<time>2024-06-13T08:46:55.004Z</time>
</trkpt>
<trkpt lat="42.3468390" lon="1.2839130">
<ele>1457.157471</ele>
<time>2024-06-13T08:46:59.998Z</time>
</trkpt>
<trkpt lat="42.3468740" lon="1.2838060">
<ele>1453.743652</ele>
<time>2024-06-13T08:47:47.000Z</time>
</trkpt>
<trkpt lat="42.3468760" lon="1.2837820">
<ele>1453.865479</ele>
<time>2024-06-13T08:47:56.996Z</time>
</trkpt>
<trkpt lat="42.3468880" lon="1.2837640">
<ele>1453.895996</ele>
<time>2024-06-13T08:47:57.998Z</time>
</trkpt>
<trkpt lat="42.3469000" lon="1.2837400">
<ele>1453.926514</ele>
<time>2024-06-13T08:47:59.001Z</time>
</trkpt>
<trkpt lat="42.3470900" lon="1.2832490">
<ele>1453.438843</ele>
<time>2024-06-13T08:48:12.997Z</time>
</trkpt>
<trkpt lat="42.3471990" lon="1.2832230">
<ele>1451.305176</ele>
<time>2024-06-13T08:48:27.003Z</time>
</trkpt>
<trkpt lat="42.3472920" lon="1.2831450">
<ele>1451.792969</ele>
<time>2024-06-13T08:48:45.000Z</time>
</trkpt>
<trkpt lat="42.3474610" lon="1.2829900">
<ele>1451.914795</ele>
<time>2024-06-13T08:49:06.004Z</time>
</trkpt>
<trkpt lat="42.3475280" lon="1.2829040">
<ele>1451.884277</ele>
<time>2024-06-13T08:49:24.001Z</time>
</trkpt>
<trkpt lat="42.3477920" lon="1.2826270">
<ele>1451.853760</ele>
<time>2024-06-13T08:49:39.000Z</time>
</trkpt>
<trkpt lat="42.3481350" lon="1.2823630">
<ele>1451.244141</ele>
<time>2024-06-13T08:49:52.997Z</time>
</trkpt>
<trkpt lat="42.3485790" lon="1.2820310">
<ele>1449.598267</ele>
<time>2024-06-13T08:50:07.996Z</time>
</trkpt>
<trkpt lat="42.3489120" lon="1.2815750">
<ele>1449.750732</ele>
<time>2024-06-13T08:50:27.004Z</time>
</trkpt>
<trkpt lat="42.3491480" lon="1.2812030">
<ele>1451.945313</ele>
<time>2024-06-13T08:50:43.999Z</time>
</trkpt>
<trkpt lat="42.3494460" lon="1.2807470">
<ele>1453.652222</ele>
<time>2024-06-13T08:51:05.003Z</time>
</trkpt>
<trkpt lat="42.3496950" lon="1.2801970">
<ele>1454.627441</ele>
<time>2024-06-13T08:51:25.998Z</time>
</trkpt>
<trkpt lat="42.3499370" lon="1.2797060">
<ele>1455.816162</ele>
<time>2024-06-13T08:51:45.999Z</time>
</trkpt>
<trkpt lat="42.3501980" lon="1.2792280">
<ele>1457.766968</ele>
<time>2024-06-13T08:52:07.997Z</time>
</trkpt>
<trkpt lat="42.3502850" lon="1.2790450">
<ele>1458.894653</ele>
<time>2024-06-13T08:52:23.998Z</time>
</trkpt>
<trkpt lat="42.3503320" lon="1.2789930">
<ele>1459.321411</ele>
<time>2024-06-13T08:52:46.998Z</time>
</trkpt>
<trkpt lat="42.3503480" lon="1.2789350">
<ele>1459.382446</ele>
<time>2024-06-13T08:53:20.003Z</time>
</trkpt>
<trkpt lat="42.3505220" lon="1.2786010">
<ele>1459.870117</ele>
<time>2024-06-13T08:53:36.004Z</time>
</trkpt>
<trkpt lat="42.3506680" lon="1.2783370">
<ele>1461.272217</ele>
<time>2024-06-13T08:53:50.001Z</time>
</trkpt>
<trkpt lat="42.3507900" lon="1.2780870">
<ele>1463.405762</ele>
<time>2024-06-13T08:54:10.996Z</time>
</trkpt>
<trkpt lat="42.3509340" lon="1.2778240">
<ele>1465.326050</ele>
<time>2024-06-13T08:54:26.997Z</time>
</trkpt>
<trkpt lat="42.3510650" lon="1.2775880">
<ele>1466.911011</ele>
<time>2024-06-13T08:54:41.996Z</time>
</trkpt>
<trkpt lat="42.3512200" lon="1.2772980">
<ele>1468.709351</ele>
<time>2024-06-13T08:54:57.997Z</time>
</trkpt>
<trkpt lat="42.3514440" lon="1.2769680">
<ele>1470.416260</ele>
<time>2024-06-13T08:55:17.999Z</time>
</trkpt>
<trkpt lat="42.3517380" lon="1.2766810">
<ele>1471.574341</ele>
<time>2024-06-13T08:55:38.001Z</time>
</trkpt>
<trkpt lat="42.3520090" lon="1.2764150">
<ele>1472.854614</ele>
<time>2024-06-13T08:55:57.000Z</time>
</trkpt>
<trkpt lat="42.3521870" lon="1.2761960">
<ele>1474.012817</ele>
<time>2024-06-13T08:56:10.997Z</time>
</trkpt>
<trkpt lat="42.3523790" lon="1.2759800">
<ele>1475.049072</ele>
<time>2024-06-13T08:56:25.996Z</time>
</trkpt>
<trkpt lat="42.3525580" lon="1.2757710">
<ele>1476.055054</ele>
<time>2024-06-13T08:56:40.001Z</time>
</trkpt>
<trkpt lat="42.3527430" lon="1.2755440">
<ele>1477.030273</ele>
<time>2024-06-13T08:56:56.996Z</time>
</trkpt>
<trkpt lat="42.3527330" lon="1.2755400">
<ele>1477.578979</ele>
<time>2024-06-13T08:57:27.003Z</time>
</trkpt>
<trkpt lat="42.3528580" lon="1.2754010">
<ele>1477.853271</ele>
<time>2024-06-13T08:58:16.000Z</time>
</trkpt>
<trkpt lat="42.3531070" lon="1.2751090">
<ele>1478.645874</ele>
<time>2024-06-13T08:58:35.000Z</time>
</trkpt>
<trkpt lat="42.3533350" lon="1.2748310">
<ele>1479.895386</ele>
<time>2024-06-13T08:58:51.001Z</time>
</trkpt>
<trkpt lat="42.3534880" lon="1.2746120">
<ele>1482.272949</ele>
<time>2024-06-13T08:59:03.002Z</time>
</trkpt>
<trkpt lat="42.3537020" lon="1.2744170">
<ele>1484.010132</ele>
<time>2024-06-13T08:59:16.999Z</time>
</trkpt>
<trkpt lat="42.3537320" lon="1.2743770">
<ele>1484.375977</ele>
<time>2024-06-13T08:59:19.003Z</time>
</trkpt>
<trkpt lat="42.3539440" lon="1.2739420">
<ele>1484.924561</ele>
<time>2024-06-13T08:59:37.000Z</time>
</trkpt>
<trkpt lat="42.3541040" lon="1.2735580">
<ele>1485.412231</ele>
<time>2024-06-13T08:59:53.002Z</time>
</trkpt>
<trkpt lat="42.3543120" lon="1.2730840">
<ele>1485.717041</ele>
<time>2024-06-13T09:00:14.999Z</time>
</trkpt>
<trkpt lat="42.3544950" lon="1.2729120">
<ele>1486.875366</ele>
<time>2024-06-13T09:00:31.000Z</time>
</trkpt>
<trkpt lat="42.3546740" lon="1.2726680">
<ele>1489.069946</ele>
<time>2024-06-13T09:00:47.002Z</time>
</trkpt>
<trkpt lat="42.3547710" lon="1.2722840">
<ele>1492.239746</ele>
<time>2024-06-13T09:01:03.003Z</time>
</trkpt>
<trkpt lat="42.3548530" lon="1.2721500">
<ele>1494.769653</ele>
<time>2024-06-13T09:01:18.002Z</time>
</trkpt>
<trkpt lat="42.3548480" lon="1.2721500">
<ele>1495.501221</ele>
<time>2024-06-13T09:02:43.002Z</time>
</trkpt>
<trkpt lat="42.3549010" lon="1.2720690">
<ele>1495.653564</ele>
<time>2024-06-13T09:04:08.003Z</time>
</trkpt>
<trkpt lat="42.3550770" lon="1.2718250">
<ele>1496.171875</ele>
<time>2024-06-13T09:04:24.997Z</time>
</trkpt>
<trkpt lat="42.3552680" lon="1.2715560">
<ele>1496.994751</ele>
<time>2024-06-13T09:04:43.003Z</time>
</trkpt>
<trkpt lat="42.3555380" lon="1.2712380">
<ele>1498.366333</ele>
<time>2024-06-13T09:04:58.996Z</time>
</trkpt>
<trkpt lat="42.3559340" lon="1.2710540">
<ele>1500.499878</ele>
<time>2024-06-13T09:05:21.002Z</time>
</trkpt>
<trkpt lat="42.3561800" lon="1.2709670">
<ele>1501.901978</ele>
<time>2024-06-13T09:05:37.003Z</time>
</trkpt>
<trkpt lat="42.3562730" lon="1.2709330">
<ele>1502.542114</ele>
<time>2024-06-13T09:05:49.998Z</time>
</trkpt>
<trkpt lat="42.3563620" lon="1.2708700">
<ele>1502.724976</ele>
<time>2024-06-13T09:06:04.003Z</time>
</trkpt>
<trkpt lat="42.3563770" lon="1.2708550">
<ele>1503.212524</ele>
<time>2024-06-13T09:06:32.999Z</time>
</trkpt>
<trkpt lat="42.3564100" lon="1.2708440">
<ele>1502.450562</ele>
<time>2024-06-13T09:06:49.000Z</time>
</trkpt>
<trkpt lat="42.3564300" lon="1.2708560">
<ele>1501.353394</ele>
<time>2024-06-13T09:12:26.004Z</time>
</trkpt>
<trkpt lat="42.3564430" lon="1.2708500">
<ele>1501.414307</ele>
<time>2024-06-13T09:12:26.997Z</time>
</trkpt>
<trkpt lat="42.3564570" lon="1.2708430">
<ele>1501.414307</ele>
<time>2024-06-13T09:12:27.999Z</time>
</trkpt>
<trkpt lat="42.3564710" lon="1.2708340">
<ele>1501.444824</ele>
<time>2024-06-13T09:12:29.002Z</time>
</trkpt>
<trkpt lat="42.3564860" lon="1.2708240">
<ele>1501.444824</ele>
<time>2024-06-13T09:12:30.004Z</time>
</trkpt>
<trkpt lat="42.3565010" lon="1.2708150">
<ele>1501.475342</ele>
<time>2024-06-13T09:12:30.997Z</time>
</trkpt>
<trkpt lat="42.3565150" lon="1.2708070">
<ele>1501.475342</ele>
<time>2024-06-13T09:12:32.000Z</time>
</trkpt>
<trkpt lat="42.3567770" lon="1.2705820">
<ele>1502.298218</ele>
<time>2024-06-13T09:12:45.996Z</time>
</trkpt>
<trkpt lat="42.3571000" lon="1.2701690">
<ele>1504.340454</ele>
<time>2024-06-13T09:13:04.996Z</time>
</trkpt>
<trkpt lat="42.3573850" lon="1.2697800">
<ele>1505.712036</ele>
<time>2024-06-13T09:13:23.002Z</time>
</trkpt>
<trkpt lat="42.3576950" lon="1.2693900">
<ele>1507.510254</ele>
<time>2024-06-13T09:13:43.003Z</time>
</trkpt>
<trkpt lat="42.3579540" lon="1.2690300">
<ele>1508.638062</ele>
<time>2024-06-13T09:14:02.996Z</time>
</trkpt>
<trkpt lat="42.3581990" lon="1.2686780">
<ele>1511.167847</ele>
<time>2024-06-13T09:14:24.000Z</time>
</trkpt>
<trkpt lat="42.3584000" lon="1.2683970">
<ele>1513.301514</ele>
<time>2024-06-13T09:14:41.004Z</time>
</trkpt>
<trkpt lat="42.3585440" lon="1.2682070">
<ele>1514.673096</ele>
<time>2024-06-13T09:14:52.996Z</time>
</trkpt>
<trkpt lat="42.3585570" lon="1.2681870">
<ele>1514.855957</ele>
<time>2024-06-13T09:14:53.998Z</time>
</trkpt>
<trkpt lat="42.3585700" lon="1.2681680">
<ele>1514.977905</ele>
<time>2024-06-13T09:14:55.000Z</time>
</trkpt>
<trkpt lat="42.3585820" lon="1.2681540">
<ele>1515.069458</ele>
<time>2024-06-13T09:14:56.003Z</time>
</trkpt>
<trkpt lat="42.3585940" lon="1.2681380">
<ele>1515.191284</ele>
<time>2024-06-13T09:14:56.996Z</time>
</trkpt>
<trkpt lat="42.3586050" lon="1.2681210">
<ele>1515.313232</ele>
<time>2024-06-13T09:14:57.998Z</time>
</trkpt>
<trkpt lat="42.3586170" lon="1.2681040">
<ele>1515.435059</ele>
<time>2024-06-13T09:14:59.001Z</time>
</trkpt>
<trkpt lat="42.3586300" lon="1.2680880">
<ele>1515.496094</ele>
<time>2024-06-13T09:15:00.003Z</time>
</trkpt>
<trkpt lat="42.3589350" lon="1.2676300">
<ele>1517.568726</ele>
<time>2024-06-13T09:15:26.001Z</time>
</trkpt>
<trkpt lat="42.3591250" lon="1.2673120">
<ele>1519.427979</ele>
<time>2024-06-13T09:15:43.998Z</time>
</trkpt>
<trkpt lat="42.3593380" lon="1.2669970">
<ele>1522.323608</ele>
<time>2024-06-13T09:16:02.997Z</time>
</trkpt>
<trkpt lat="42.3593570" lon="1.2669670">
<ele>1522.658936</ele>
<time>2024-06-13T09:16:05.002Z</time>
</trkpt>
<trkpt lat="42.3593700" lon="1.2669570">
<ele>1522.811279</ele>
<time>2024-06-13T09:16:06.004Z</time>
</trkpt>
<trkpt lat="42.3594290" lon="1.2669000">
<ele>1523.847656</ele>
<time>2024-06-13T09:16:12.000Z</time>
</trkpt>
<trkpt lat="42.3595380" lon="1.2667860">
<ele>1525.127808</ele>
<time>2024-06-13T09:16:20.001Z</time>
</trkpt>
<trkpt lat="42.3595490" lon="1.2667690">
<ele>1525.188721</ele>
<time>2024-06-13T09:16:21.003Z</time>
</trkpt>
<trkpt lat="42.3595700" lon="1.2667400">
<ele>1525.341064</ele>
<time>2024-06-13T09:16:22.999Z</time>
</trkpt>
<trkpt lat="42.3595810" lon="1.2667280">
<ele>1525.432617</ele>
<time>2024-06-13T09:16:24.001Z</time>
</trkpt>
<trkpt lat="42.3596980" lon="1.2665650">
<ele>1527.291748</ele>
<time>2024-06-13T09:16:35.000Z</time>
</trkpt>
<trkpt lat="42.3597110" lon="1.2665410">
<ele>1527.657593</ele>
<time>2024-06-13T09:16:37.004Z</time>
</trkpt>
<trkpt lat="42.3597420" lon="1.2665100">
<ele>1530.126465</ele>
<time>2024-06-13T09:16:49.999Z</time>
</trkpt>
<trkpt lat="42.3597680" lon="1.2664330">
<ele>1530.187378</ele>
<time>2024-06-13T09:16:53.999Z</time>
</trkpt>
<trkpt lat="42.3597800" lon="1.2664120">
<ele>1530.187378</ele>
<time>2024-06-13T09:16:55.001Z</time>
</trkpt>
<trkpt lat="42.3597920" lon="1.2663870">
<ele>1530.217896</ele>
<time>2024-06-13T09:16:56.004Z</time>
</trkpt>
<trkpt lat="42.3599640" lon="1.2661190">
<ele>1532.077148</ele>
<time>2024-06-13T09:17:10.000Z</time>
</trkpt>
<trkpt lat="42.3601340" lon="1.2659660">
<ele>1534.637451</ele>
<time>2024-06-13T09:17:22.001Z</time>
</trkpt>
<trkpt lat="42.3601420" lon="1.2659550">
<ele>1534.881470</ele>
<time>2024-06-13T09:17:23.004Z</time>
</trkpt>
<trkpt lat="42.3602420" lon="1.2658350">
<ele>1536.679688</ele>
<time>2024-06-13T09:17:31.998Z</time>
</trkpt>
<trkpt lat="42.3604020" lon="1.2656470">
<ele>1539.483765</ele>
<time>2024-06-13T09:17:43.999Z</time>
</trkpt>
<trkpt lat="42.3605420" lon="1.2654660">
<ele>1542.592773</ele>
<time>2024-06-13T09:18:00.000Z</time>
</trkpt>
<trkpt lat="42.3606010" lon="1.2653860">
<ele>1543.507202</ele>
<time>2024-06-13T09:18:04.000Z</time>
</trkpt>
<trkpt lat="42.3606100" lon="1.2653630">
<ele>1543.720581</ele>
<time>2024-06-13T09:18:05.003Z</time>
</trkpt>
<trkpt lat="42.3606310" lon="1.2653170">
<ele>1544.208130</ele>
<time>2024-06-13T09:18:08.001Z</time>
</trkpt>
<trkpt lat="42.3606420" lon="1.2652990">
<ele>1544.360596</ele>
<time>2024-06-13T09:18:09.003Z</time>
</trkpt>
<trkpt lat="42.3608160" lon="1.2651230">
<ele>1546.768677</ele>
<time>2024-06-13T09:18:21.997Z</time>
</trkpt>
<trkpt lat="42.3609990" lon="1.2649570">
<ele>1549.237427</ele>
<time>2024-06-13T09:18:33.998Z</time>
</trkpt>
<trkpt lat="42.3611810" lon="1.2648060">
<ele>1551.553833</ele>
<time>2024-06-13T09:18:47.002Z</time>
</trkpt>
<trkpt lat="42.3613850" lon="1.2647040">
<ele>1554.754272</ele>
<time>2024-06-13T09:19:00.998Z</time>
</trkpt>
<trkpt lat="42.3615370" lon="1.2646770">
<ele>1557.162231</ele>
<time>2024-06-13T09:19:11.004Z</time>
</trkpt>
<trkpt lat="42.3615500" lon="1.2646700">
<ele>1557.345093</ele>
<time>2024-06-13T09:19:11.997Z</time>
</trkpt>
<trkpt lat="42.3617560" lon="1.2646270">
<ele>1560.515015</ele>
<time>2024-06-13T09:19:26.003Z</time>
</trkpt>
<trkpt lat="42.3619520" lon="1.2645340">
<ele>1563.685059</ele>
<time>2024-06-13T09:19:39.999Z</time>
</trkpt>
<trkpt lat="42.3622200" lon="1.2643060">
<ele>1566.793945</ele>
<time>2024-06-13T09:20:00.001Z</time>
</trkpt>
<trkpt lat="42.3625880" lon="1.2640470">
<ele>1569.719971</ele>
<time>2024-06-13T09:20:21.998Z</time>
</trkpt>
<trkpt lat="42.3629400" lon="1.2637430">
<ele>1572.371826</ele>
<time>2024-06-13T09:20:44.998Z</time>
</trkpt>
<trkpt lat="42.3631590" lon="1.2635380">
<ele>1574.566284</ele>
<time>2024-06-13T09:20:59.997Z</time>
</trkpt>
<trkpt lat="42.3634710" lon="1.2632730">
<ele>1575.846558</ele>
<time>2024-06-13T09:21:19.999Z</time>
</trkpt>
<trkpt lat="42.3637770" lon="1.2631050">
<ele>1576.120850</ele>
<time>2024-06-13T09:21:37.996Z</time>
</trkpt>
<trkpt lat="42.3640100" lon="1.2629550">
<ele>1576.730347</ele>
<time>2024-06-13T09:21:53.004Z</time>
</trkpt>
<trkpt lat="42.3641010" lon="1.2628050">
<ele>1577.401001</ele>
<time>2024-06-13T09:22:04.996Z</time>
</trkpt>
<trkpt lat="42.3641580" lon="1.2627030">
<ele>1578.041016</ele>
<time>2024-06-13T09:22:09.998Z</time>
</trkpt>
<trkpt lat="42.3641580" lon="1.2626790">
<ele>1578.193359</ele>
<time>2024-06-13T09:22:11.001Z</time>
</trkpt>
<trkpt lat="42.3641570" lon="1.2626530">
<ele>1578.284912</ele>
<time>2024-06-13T09:22:12.003Z</time>
</trkpt>
<trkpt lat="42.3641340" lon="1.2622020">
<ele>1581.302368</ele>
<time>2024-06-13T09:22:30.000Z</time>
</trkpt>
<trkpt lat="42.3641100" lon="1.2617620">
<ele>1583.771362</ele>
<time>2024-06-13T09:22:47.004Z</time>
</trkpt>
<trkpt lat="42.3640970" lon="1.2613030">
<ele>1586.545044</ele>
<time>2024-06-13T09:23:06.003Z</time>
</trkpt>
<trkpt lat="42.3640950" lon="1.2608960">
<ele>1589.257690</ele>
<time>2024-06-13T09:23:24.000Z</time>
</trkpt>
<trkpt lat="42.3640600" lon="1.2605500">
<ele>1591.665649</ele>
<time>2024-06-13T09:23:44.002Z</time>
</trkpt>
<trkpt lat="42.3640490" lon="1.2604430">
<ele>1593.006714</ele>
<time>2024-06-13T09:23:59.001Z</time>
</trkpt>
<trkpt lat="42.3640390" lon="1.2603260">
<ele>1593.707764</ele>
<time>2024-06-13T09:24:16.004Z</time>
</trkpt>
<trkpt lat="42.3640750" lon="1.2601420">
<ele>1593.951660</ele>
<time>2024-06-13T09:24:34.001Z</time>
</trkpt>
<trkpt lat="42.3640750" lon="1.2601370">
<ele>1593.921143</ele>
<time>2024-06-13T09:24:35.004Z</time>
</trkpt>
<trkpt lat="42.3640730" lon="1.2601200">
<ele>1593.921143</ele>
<time>2024-06-13T09:24:35.997Z</time>
</trkpt>
<trkpt lat="42.3640750" lon="1.2601000">
<ele>1593.890625</ele>
<time>2024-06-13T09:24:36.999Z</time>
</trkpt>
<trkpt lat="42.3640780" lon="1.2600800">
<ele>1593.860229</ele>
<time>2024-06-13T09:24:38.002Z</time>
</trkpt>
<trkpt lat="42.3640820" lon="1.2600610">
<ele>1593.799194</ele>
<time>2024-06-13T09:24:39.004Z</time>
</trkpt>
<trkpt lat="42.3640820" lon="1.2600400">
<ele>1593.768677</ele>
<time>2024-06-13T09:24:39.997Z</time>
</trkpt>
<trkpt lat="42.3640810" lon="1.2600170">
<ele>1593.738159</ele>
<time>2024-06-13T09:24:41.000Z</time>
</trkpt>
<trkpt lat="42.3640810" lon="1.2599920">
<ele>1593.707764</ele>
<time>2024-06-13T09:24:42.002Z</time>
</trkpt>
<trkpt lat="42.3640840" lon="1.2599690">
<ele>1593.677368</ele>
<time>2024-06-13T09:24:43.004Z</time>
</trkpt>
<trkpt lat="42.3640890" lon="1.2599440">
<ele>1593.707764</ele>
<time>2024-06-13T09:24:43.998Z</time>
</trkpt>
<trkpt lat="42.3640950" lon="1.2599200">
<ele>1593.707764</ele>
<time>2024-06-13T09:24:45.000Z</time>
</trkpt>
<trkpt lat="42.3643130" lon="1.2592620">
<ele>1594.896484</ele>
<time>2024-06-13T09:25:10.998Z</time>
</trkpt>
<trkpt lat="42.3645090" lon="1.2587800">
<ele>1596.969116</ele>
<time>2024-06-13T09:25:30.999Z</time>
</trkpt>
<trkpt lat="42.3646850" lon="1.2584250">
<ele>1598.340698</ele>
<time>2024-06-13T09:25:49.999Z</time>
</trkpt>
<trkpt lat="42.3648540" lon="1.2580570">
<ele>1598.858887</ele>
<time>2024-06-13T09:26:07.996Z</time>
</trkpt>
<trkpt lat="42.3650820" lon="1.2575880">
<ele>1601.023071</ele>
<time>2024-06-13T09:26:29.000Z</time>
</trkpt>
<trkpt lat="42.3652150" lon="1.2572510">
<ele>1602.059326</ele>
<time>2024-06-13T09:26:42.996Z</time>
</trkpt>
<trkpt lat="42.3653780" lon="1.2568860">
<ele>1603.430908</ele>
<time>2024-06-13T09:26:58.004Z</time>
</trkpt>
<trkpt lat="42.3656450" lon="1.2563350">
<ele>1605.290161</ele>
<time>2024-06-13T09:27:21.004Z</time>
</trkpt>
<trkpt lat="42.3658250" lon="1.2558090">
<ele>1607.880981</ele>
<time>2024-06-13T09:27:41.999Z</time>
</trkpt>
<trkpt lat="42.3660630" lon="1.2552820">
<ele>1609.161133</ele>
<time>2024-06-13T09:28:03.996Z</time>
</trkpt>
<trkpt lat="42.3664010" lon="1.2549230">
<ele>1610.502197</ele>
<time>2024-06-13T09:28:25.000Z</time>
</trkpt>
<trkpt lat="42.3667580" lon="1.2545870">
<ele>1611.751831</ele>
<time>2024-06-13T09:28:48.000Z</time>
</trkpt>
<trkpt lat="42.3670470" lon="1.2542830">
<ele>1614.007324</ele>
<time>2024-06-13T09:29:06.999Z</time>
</trkpt>
<trkpt lat="42.3672260" lon="1.2541040">
<ele>1614.739014</ele>
<time>2024-06-13T09:29:19.000Z</time>
</trkpt>
<trkpt lat="42.3672390" lon="1.2540880">
<ele>1614.769409</ele>
<time>2024-06-13T09:29:20.003Z</time>
</trkpt>
<trkpt lat="42.3672560" lon="1.2540720">
<ele>1614.830444</ele>
<time>2024-06-13T09:29:20.996Z</time>
</trkpt>
<trkpt lat="42.3672730" lon="1.2540580">
<ele>1614.891479</ele>
<time>2024-06-13T09:29:21.998Z</time>
</trkpt>
<trkpt lat="42.3672880" lon="1.2540440">
<ele>1614.982788</ele>
<time>2024-06-13T09:29:23.001Z</time>
</trkpt>
<trkpt lat="42.3673030" lon="1.2540210">
<ele>1615.074219</ele>
<time>2024-06-13T09:29:24.003Z</time>
</trkpt>
<trkpt lat="42.3673140" lon="1.2540020">
<ele>1615.226563</ele>
<time>2024-06-13T09:29:24.996Z</time>
</trkpt>
<trkpt lat="42.3673310" lon="1.2539870">
<ele>1615.226563</ele>
<time>2024-06-13T09:29:25.999Z</time>
</trkpt>
<trkpt lat="42.3673490" lon="1.2539730">
<ele>1615.409546</ele>
<time>2024-06-13T09:29:27.001Z</time>
</trkpt>
<trkpt lat="42.3673640" lon="1.2539560">
<ele>1615.470459</ele>
<time>2024-06-13T09:29:28.003Z</time>
</trkpt>
<trkpt lat="42.3673750" lon="1.2539350">
<ele>1615.500977</ele>
<time>2024-06-13T09:29:28.997Z</time>
</trkpt>
<trkpt lat="42.3675010" lon="1.2536670">
<ele>1617.146851</ele>
<time>2024-06-13T09:29:43.002Z</time>
</trkpt>
<trkpt lat="42.3675480" lon="1.2534560">
<ele>1619.524292</ele>
<time>2024-06-13T09:29:55.003Z</time>
</trkpt>
<trkpt lat="42.3675480" lon="1.2534350">
<ele>1619.737671</ele>
<time>2024-06-13T09:29:55.997Z</time>
</trkpt>
<trkpt lat="42.3676040" lon="1.2531390">
<ele>1621.261719</ele>
<time>2024-06-13T09:30:10.002Z</time>
</trkpt>
<trkpt lat="42.3676330" lon="1.2528170">
<ele>1623.181885</ele>
<time>2024-06-13T09:30:25.001Z</time>
</trkpt>
<trkpt lat="42.3676830" lon="1.2524490">
<ele>1626.046997</ele>
<time>2024-06-13T09:30:41.996Z</time>
</trkpt>
<trkpt lat="42.3677170" lon="1.2521530">
<ele>1629.094971</ele>
<time>2024-06-13T09:30:56.002Z</time>
</trkpt>
<trkpt lat="42.3676580" lon="1.2517150">
<ele>1630.984741</ele>
<time>2024-06-13T09:31:16.003Z</time>
</trkpt>
<trkpt lat="42.3677730" lon="1.2513940">
<ele>1631.442017</ele>
<time>2024-06-13T09:31:34.000Z</time>
</trkpt>
<trkpt lat="42.3679700" lon="1.2511090">
<ele>1634.551025</ele>
<time>2024-06-13T09:31:53.000Z</time>
</trkpt>
<trkpt lat="42.3681740" lon="1.2508870">
<ele>1637.385620</ele>
<time>2024-06-13T09:32:10.003Z</time>
</trkpt>
<trkpt lat="42.3684270" lon="1.2505640">
<ele>1640.555542</ele>
<time>2024-06-13T09:32:29.003Z</time>
</trkpt>
<trkpt lat="42.3686100" lon="1.2503070">
<ele>1643.481567</ele>
<time>2024-06-13T09:32:49.004Z</time>
</trkpt>
<trkpt lat="42.3687740" lon="1.2500890">
<ele>1645.036133</ele>
<time>2024-06-13T09:33:07.001Z</time>
</trkpt>
<trkpt lat="42.3689600" lon="1.2498880">
<ele>1645.676270</ele>
<time>2024-06-13T09:33:20.998Z</time>
</trkpt>
<trkpt lat="42.3689710" lon="1.2498680">
<ele>1645.706543</ele>
<time>2024-06-13T09:33:22.000Z</time>
</trkpt>
<trkpt lat="42.3689820" lon="1.2498480">
<ele>1645.706543</ele>
<time>2024-06-13T09:33:23.003Z</time>
</trkpt>
<trkpt lat="42.3690780" lon="1.2497100">
<ele>1645.859009</ele>
<time>2024-06-13T09:33:31.003Z</time>
</trkpt>
<trkpt lat="42.3690920" lon="1.2496970">
<ele>1645.889526</ele>
<time>2024-06-13T09:33:31.997Z</time>
</trkpt>
<trkpt lat="42.3691100" lon="1.2496830">
<ele>1645.889526</ele>
<time>2024-06-13T09:33:32.999Z</time>
</trkpt>
<trkpt lat="42.3691230" lon="1.2496720">
<ele>1645.920044</ele>
<time>2024-06-13T09:33:34.001Z</time>
</trkpt>
<trkpt lat="42.3691350" lon="1.2496560">
<ele>1645.950562</ele>
<time>2024-06-13T09:33:35.004Z</time>
</trkpt>
<trkpt lat="42.3692660" lon="1.2495500">
<ele>1645.981079</ele>
<time>2024-06-13T09:33:43.004Z</time>
</trkpt>
<trkpt lat="42.3693630" lon="1.2493560">
<ele>1646.072388</ele>
<time>2024-06-13T09:33:53.001Z</time>
</trkpt>
<trkpt lat="42.3695170" lon="1.2491040">
<ele>1646.194336</ele>
<time>2024-06-13T09:34:06.004Z</time>
</trkpt>
<trkpt lat="42.3696720" lon="1.2489320">
<ele>1646.529541</ele>
<time>2024-06-13T09:34:18.998Z</time>
</trkpt>
<trkpt lat="42.3697510" lon="1.2488090">
<ele>1646.651489</ele>
<time>2024-06-13T09:34:25.003Z</time>
</trkpt>
<trkpt lat="42.3698300" lon="1.2487070">
<ele>1646.803833</ele>
<time>2024-06-13T09:34:32.002Z</time>
</trkpt>
<trkpt lat="42.3699610" lon="1.2484760">
<ele>1646.834351</ele>
<time>2024-06-13T09:34:45.998Z</time>
</trkpt>
<trkpt lat="42.3700720" lon="1.2483150">
<ele>1646.864868</ele>
<time>2024-06-13T09:34:56.004Z</time>
</trkpt>
<trkpt lat="42.3702110" lon="1.2480740">
<ele>1647.901245</ele>
<time>2024-06-13T09:35:08.998Z</time>
</trkpt>
<trkpt lat="42.3702860" lon="1.2479610">
<ele>1648.358398</ele>
<time>2024-06-13T09:35:15.003Z</time>
</trkpt>
<trkpt lat="42.3704210" lon="1.2477360">
<ele>1649.333862</ele>
<time>2024-06-13T09:35:29.000Z</time>
</trkpt>
<trkpt lat="42.3704560" lon="1.2473390">
<ele>1651.924561</ele>
<time>2024-06-13T09:35:46.997Z</time>
</trkpt>
<trkpt lat="42.3705330" lon="1.2470710">
<ele>1653.936157</ele>
<time>2024-06-13T09:36:00.000Z</time>
</trkpt>
<trkpt lat="42.3705400" lon="1.2470490">
<ele>1654.058228</ele>
<time>2024-06-13T09:36:01.002Z</time>
</trkpt>
<trkpt lat="42.3705670" lon="1.2468780">
<ele>1654.820190</ele>
<time>2024-06-13T09:36:16.001Z</time>
</trkpt>
<trkpt lat="42.3706280" lon="1.2467420">
<ele>1654.911621</ele>
<time>2024-06-13T09:36:17.004Z</time>
</trkpt>
<trkpt lat="42.3706350" lon="1.2467180">
<ele>1654.942139</ele>
<time>2024-06-13T09:36:17.997Z</time>
</trkpt>
<trkpt lat="42.3706380" lon="1.2466940">
<ele>1655.155396</ele>
<time>2024-06-13T09:36:18.999Z</time>
</trkpt>
<trkpt lat="42.3706410" lon="1.2466740">
<ele>1655.307739</ele>
<time>2024-06-13T09:36:20.002Z</time>
</trkpt>
<trkpt lat="42.3706470" lon="1.2466530">
<ele>1655.399292</ele>
<time>2024-06-13T09:36:21.004Z</time>
</trkpt>
<trkpt lat="42.3706550" lon="1.2466340">
<ele>1655.399292</ele>
<time>2024-06-13T09:36:21.997Z</time>
</trkpt>
<trkpt lat="42.3706940" lon="1.2464660">
<ele>1655.826050</ele>
<time>2024-06-13T09:36:28.996Z</time>
</trkpt>
<trkpt lat="42.3706990" lon="1.2464410">
<ele>1655.917358</ele>
<time>2024-06-13T09:36:29.998Z</time>
</trkpt>
<trkpt lat="42.3707030" lon="1.2464190">
<ele>1655.978394</ele>
<time>2024-06-13T09:36:31.000Z</time>
</trkpt>
<trkpt lat="42.3707820" lon="1.2461980">
<ele>1656.953857</ele>
<time>2024-06-13T09:36:40.997Z</time>
</trkpt>
<trkpt lat="42.3708390" lon="1.2458890">
<ele>1657.898560</ele>
<time>2024-06-13T09:36:54.000Z</time>
</trkpt>
<trkpt lat="42.3709160" lon="1.2454980">
<ele>1658.874023</ele>
<time>2024-06-13T09:37:07.997Z</time>
</trkpt>
<trkpt lat="42.3709990" lon="1.2452820">
<ele>1659.331177</ele>
<time>2024-06-13T09:37:19.004Z</time>
</trkpt>
<trkpt lat="42.3711120" lon="1.2450390">
<ele>1661.221069</ele>
<time>2024-06-13T09:37:30.996Z</time>
</trkpt>
<trkpt lat="42.3710820" lon="1.2448100">
<ele>1662.775391</ele>
<time>2024-06-13T09:37:41.002Z</time>
</trkpt>
<trkpt lat="42.3710190" lon="1.2443930">
<ele>1664.543335</ele>
<time>2024-06-13T09:37:56.001Z</time>
</trkpt>
<trkpt lat="42.3709560" lon="1.2440580">
<ele>1665.671021</ele>
<time>2024-06-13T09:38:09.997Z</time>
</trkpt>
<trkpt lat="42.3707950" lon="1.2438620">
<ele>1667.194946</ele>
<time>2024-06-13T09:38:24.996Z</time>
</trkpt>
<trkpt lat="42.3704580" lon="1.2438270">
<ele>1669.511475</ele>
<time>2024-06-13T09:38:46.000Z</time>
</trkpt>
<trkpt lat="42.3703870" lon="1.2435030">
<ele>1670.913574</ele>
<time>2024-06-13T09:39:00.999Z</time>
</trkpt>
<trkpt lat="42.3703930" lon="1.2431190">
<ele>1671.645142</ele>
<time>2024-06-13T09:39:17.001Z</time>
</trkpt>
<trkpt lat="42.3703710" lon="1.2427650">
<ele>1672.772949</ele>
<time>2024-06-13T09:39:34.004Z</time>
</trkpt>
<trkpt lat="42.3703820" lon="1.2426370">
<ele>1673.717773</ele>
<time>2024-06-13T09:39:40.000Z</time>
</trkpt>
<trkpt lat="42.3703840" lon="1.2426200">
<ele>1673.778687</ele>
<time>2024-06-13T09:39:41.003Z</time>
</trkpt>
<trkpt lat="42.3703860" lon="1.2426020">
<ele>1673.839722</ele>
<time>2024-06-13T09:39:41.996Z</time>
</trkpt>
<trkpt lat="42.3703890" lon="1.2425820">
<ele>1673.870239</ele>
<time>2024-06-13T09:39:42.998Z</time>
</trkpt>
<trkpt lat="42.3703930" lon="1.2425640">
<ele>1673.900635</ele>
<time>2024-06-13T09:39:44.001Z</time>
</trkpt>
<trkpt lat="42.3703970" lon="1.2425450">
<ele>1673.931030</ele>
<time>2024-06-13T09:39:45.003Z</time>
</trkpt>
<trkpt lat="42.3703990" lon="1.2425270">
<ele>1673.961548</ele>
<time>2024-06-13T09:39:45.996Z</time>
</trkpt>
<trkpt lat="42.3703860" lon="1.2424690">
<ele>1674.052979</ele>
<time>2024-06-13T09:39:48.001Z</time>
</trkpt>
<trkpt lat="42.3703920" lon="1.2424430">
<ele>1674.175049</ele>
<time>2024-06-13T09:39:49.003Z</time>
</trkpt>
<trkpt lat="42.3703960" lon="1.2424210">
<ele>1674.327393</ele>
<time>2024-06-13T09:39:49.997Z</time>
</trkpt>
<trkpt lat="42.3704020" lon="1.2424010">
<ele>1674.418823</ele>
<time>2024-06-13T09:39:50.999Z</time>
</trkpt>
<trkpt lat="42.3704070" lon="1.2423830">
<ele>1674.479858</ele>
<time>2024-06-13T09:39:52.001Z</time>
</trkpt>
<trkpt lat="42.3704410" lon="1.2420990">
<ele>1676.156250</ele>
<time>2024-06-13T09:40:08.003Z</time>
</trkpt>
<trkpt lat="42.3704680" lon="1.2419920">
<ele>1676.704834</ele>
<time>2024-06-13T09:40:16.997Z</time>
</trkpt>
<trkpt lat="42.3704750" lon="1.2419770">
<ele>1676.765869</ele>
<time>2024-06-13T09:40:17.999Z</time>
</trkpt>
<trkpt lat="42.3704820" lon="1.2419580">
<ele>1676.857178</ele>
<time>2024-06-13T09:40:19.001Z</time>
</trkpt>
<trkpt lat="42.3704840" lon="1.2419360">
<ele>1676.948608</ele>
<time>2024-06-13T09:40:20.004Z</time>
</trkpt>
<trkpt lat="42.3704850" lon="1.2419140">
<ele>1677.100952</ele>
<time>2024-06-13T09:40:20.997Z</time>
</trkpt>
<trkpt lat="42.3704900" lon="1.2418930">
<ele>1677.253418</ele>
<time>2024-06-13T09:40:21.999Z</time>
</trkpt>
<trkpt lat="42.3704910" lon="1.2418700">
<ele>1677.344971</ele>
<time>2024-06-13T09:40:23.002Z</time>
</trkpt>
<trkpt lat="42.3704930" lon="1.2418490">
<ele>1677.466797</ele>
<time>2024-06-13T09:40:24.004Z</time>
</trkpt>
<trkpt lat="42.3704960" lon="1.2418280">
<ele>1677.741089</ele>
<time>2024-06-13T09:40:24.997Z</time>
</trkpt>
<trkpt lat="42.3705010" lon="1.2418100">
<ele>1677.832642</ele>
<time>2024-06-13T09:40:26.000Z</time>
</trkpt>
<trkpt lat="42.3705070" lon="1.2417910">
<ele>1678.015381</ele>
<time>2024-06-13T09:40:27.002Z</time>
</trkpt>
<trkpt lat="42.3705140" lon="1.2417710">
<ele>1678.167725</ele>
<time>2024-06-13T09:40:28.004Z</time>
</trkpt>
<trkpt lat="42.3705310" lon="1.2412370">
<ele>1681.612061</ele>
<time>2024-06-13T09:40:50.002Z</time>
</trkpt>
<trkpt lat="42.3704390" lon="1.2407630">
<ele>1683.989502</ele>
<time>2024-06-13T09:41:09.001Z</time>
</trkpt>
<trkpt lat="42.3703150" lon="1.2402800">
<ele>1685.452637</ele>
<time>2024-06-13T09:41:30.998Z</time>
</trkpt>
<trkpt lat="42.3702340" lon="1.2399150">
<ele>1687.768921</ele>
<time>2024-06-13T09:41:48.002Z</time>
</trkpt>
<trkpt lat="42.3701770" lon="1.2396310">
<ele>1689.841675</ele>
<time>2024-06-13T09:42:00.003Z</time>
</trkpt>
<trkpt lat="42.3700980" lon="1.2393320">
<ele>1692.005859</ele>
<time>2024-06-13T09:42:12.997Z</time>
</trkpt>
<trkpt lat="42.3700030" lon="1.2389580">
<ele>1695.145142</ele>
<time>2024-06-13T09:42:30.001Z</time>
</trkpt>
<trkpt lat="42.3699380" lon="1.2386120">
<ele>1698.284546</ele>
<time>2024-06-13T09:42:45.000Z</time>
</trkpt>
<trkpt lat="42.3698680" lon="1.2383640">
<ele>1701.393555</ele>
<time>2024-06-13T09:42:55.999Z</time>
</trkpt>
<trkpt lat="42.3698060" lon="1.2380290">
<ele>1704.472168</ele>
<time>2024-06-13T09:43:10.998Z</time>
</trkpt>
<trkpt lat="42.3696730" lon="1.2375830">
<ele>1707.428589</ele>
<time>2024-06-13T09:43:30.999Z</time>
</trkpt>
<trkpt lat="42.3696500" lon="1.2371950">
<ele>1709.348877</ele>
<time>2024-06-13T09:43:48.003Z</time>
</trkpt>
<trkpt lat="42.3696350" lon="1.2367720">
<ele>1712.031128</ele>
<time>2024-06-13T09:44:06.000Z</time>
</trkpt>
<trkpt lat="42.3697000" lon="1.2366500">
<ele>1713.006470</ele>
<time>2024-06-13T09:44:19.003Z</time>
</trkpt>
<trkpt lat="42.3697360" lon="1.2366340">
<ele>1713.890381</ele>
<time>2024-06-13T09:44:34.002Z</time>
</trkpt>
<trkpt lat="42.3697500" lon="1.2366200">
<ele>1713.920898</ele>
<time>2024-06-13T09:44:51.999Z</time>
</trkpt>
<trkpt lat="42.3697640" lon="1.2365090">
<ele>1714.561035</ele>
<time>2024-06-13T09:45:05.996Z</time>
</trkpt>
<trkpt lat="42.3697580" lon="1.2365010">
<ele>1715.353394</ele>
<time>2024-06-13T09:45:16.001Z</time>
</trkpt>
<trkpt lat="42.3697440" lon="1.2364940">
<ele>1715.383911</ele>
<time>2024-06-13T09:45:17.004Z</time>
</trkpt>
<trkpt lat="42.3697290" lon="1.2364880">
<ele>1715.383911</ele>
<time>2024-06-13T09:45:17.997Z</time>
</trkpt>
<trkpt lat="42.3694850" lon="1.2364240">
<ele>1715.414429</ele>
<time>2024-06-13T09:45:32.996Z</time>
</trkpt>
<trkpt lat="42.3694360" lon="1.2363730">
<ele>1717.761475</ele>
<time>2024-06-13T09:45:44.997Z</time>
</trkpt>
<trkpt lat="42.3694440" lon="1.2363820">
<ele>1717.578491</ele>
<time>2024-06-13T09:46:15.004Z</time>
</trkpt>
<trkpt lat="42.3694890" lon="1.2364260">
<ele>1718.066162</ele>
<time>2024-06-13T09:48:07.004Z</time>
</trkpt>
<trkpt lat="42.3695150" lon="1.2364440">
<ele>1716.298340</ele>
<time>2024-06-13T09:48:25.001Z</time>
</trkpt>
<trkpt lat="42.3695410" lon="1.2364060">
<ele>1715.566772</ele>
<time>2024-06-13T09:51:00.003Z</time>
</trkpt>
<trkpt lat="42.3695490" lon="1.2363960">
<ele>1715.536255</ele>
<time>2024-06-13T09:51:00.996Z</time>
</trkpt>
<trkpt lat="42.3695770" lon="1.2363080">
<ele>1715.536255</ele>
<time>2024-06-13T09:51:11.002Z</time>
</trkpt>
<trkpt lat="42.3695840" lon="1.2362950">
<ele>1715.505737</ele>
<time>2024-06-13T09:51:12.004Z</time>
</trkpt>
<trkpt lat="42.3695790" lon="1.2362770">
<ele>1715.200928</ele>
<time>2024-06-13T09:51:27.996Z</time>
</trkpt>
<trkpt lat="42.3695700" lon="1.2362470">
<ele>1715.505737</ele>
<time>2024-06-13T09:52:33.997Z</time>
</trkpt>
<trkpt lat="42.3695700" lon="1.2362310">
<ele>1715.505737</ele>
<time>2024-06-13T09:52:35.000Z</time>
</trkpt>
<trkpt lat="42.3695670" lon="1.2362140">
<ele>1715.505737</ele>
<time>2024-06-13T09:52:36.002Z</time>
</trkpt>
<trkpt lat="42.3695620" lon="1.2361970">
<ele>1715.536255</ele>
<time>2024-06-13T09:52:37.004Z</time>
</trkpt>
<trkpt lat="42.3695600" lon="1.2361770">
<ele>1715.536255</ele>
<time>2024-06-13T09:52:37.998Z</time>
</trkpt>
<trkpt lat="42.3695590" lon="1.2361570">
<ele>1715.597290</ele>
<time>2024-06-13T09:52:39.000Z</time>
</trkpt>
<trkpt lat="42.3695570" lon="1.2361380">
<ele>1715.627808</ele>
<time>2024-06-13T09:52:40.002Z</time>
</trkpt>
<trkpt lat="42.3694540" lon="1.2357930">
<ele>1716.420166</ele>
<time>2024-06-13T09:52:57.999Z</time>
</trkpt>
<trkpt lat="42.3693120" lon="1.2353750">
<ele>1717.639404</ele>
<time>2024-06-13T09:53:16.999Z</time>
</trkpt>
<trkpt lat="42.3691510" lon="1.2348610">
<ele>1719.468140</ele>
<time>2024-06-13T09:53:38.996Z</time>
</trkpt>
<trkpt lat="42.3689680" lon="1.2342340">
<ele>1721.693359</ele>
<time>2024-06-13T09:54:02.998Z</time>
</trkpt>
<trkpt lat="42.3687450" lon="1.2336160">
<ele>1722.028564</ele>
<time>2024-06-13T09:54:25.998Z</time>
</trkpt>
<trkpt lat="42.3684040" lon="1.2330510">
<ele>1722.699097</ele>
<time>2024-06-13T09:54:50.000Z</time>
</trkpt>
<trkpt lat="42.3680530" lon="1.2327910">
<ele>1723.796387</ele>
<time>2024-06-13T09:55:08.999Z</time>
</trkpt>
<trkpt lat="42.3678790" lon="1.2324030">
<ele>1724.009766</ele>
<time>2024-06-13T09:55:25.000Z</time>
</trkpt>
<trkpt lat="42.3676530" lon="1.2320130">
<ele>1724.040161</ele>
<time>2024-06-13T09:55:42.004Z</time>
</trkpt>
<trkpt lat="42.3675640" lon="1.2317670">
<ele>1723.461060</ele>
<time>2024-06-13T09:55:52.000Z</time>
</trkpt>
<trkpt lat="42.3673830" lon="1.2309780">
<ele>1720.961792</ele>
<time>2024-06-13T09:56:12.002Z</time>
</trkpt>
<trkpt lat="42.3670650" lon="1.2302950">
<ele>1721.266602</ele>
<time>2024-06-13T09:56:32.004Z</time>
</trkpt>
<trkpt lat="42.3667160" lon="1.2295890">
<ele>1721.053223</ele>
<time>2024-06-13T09:56:50.001Z</time>
</trkpt>
<trkpt lat="42.3665320" lon="1.2293200">
<ele>1719.955933</ele>
<time>2024-06-13T09:56:56.999Z</time>
</trkpt>
<trkpt lat="42.3665080" lon="1.2292810">
<ele>1719.895020</ele>
<time>2024-06-13T09:56:58.001Z</time>
</trkpt>
<trkpt lat="42.3660220" lon="1.2284780">
<ele>1719.529175</ele>
<time>2024-06-13T09:57:17.001Z</time>
</trkpt>
<trkpt lat="42.3658940" lon="1.2278500">
<ele>1718.340454</ele>
<time>2024-06-13T09:57:38.998Z</time>
</trkpt>
<trkpt lat="42.3655170" lon="1.2273300">
<ele>1718.645264</ele>
<time>2024-06-13T09:57:52.001Z</time>
</trkpt>
<trkpt lat="42.3651160" lon="1.2269420">
<ele>1719.925415</ele>
<time>2024-06-13T09:58:08.996Z</time>
</trkpt>
<trkpt lat="42.3648810" lon="1.2265440">
<ele>1722.942993</ele>
<time>2024-06-13T09:58:26.000Z</time>
</trkpt>
<trkpt lat="42.3647120" lon="1.2263380">
<ele>1725.960449</ele>
<time>2024-06-13T09:58:36.998Z</time>
</trkpt>
<trkpt lat="42.3644680" lon="1.2262050">
<ele>1729.160889</ele>
<time>2024-06-13T09:58:50.002Z</time>
</trkpt>
<trkpt lat="42.3641770" lon="1.2259680">
<ele>1732.208862</ele>
<time>2024-06-13T09:59:03.998Z</time>
</trkpt>
<trkpt lat="42.3638500" lon="1.2254810">
<ele>1734.921631</ele>
<time>2024-06-13T09:59:22.998Z</time>
</trkpt>
<trkpt lat="42.3635040" lon="1.2249930">
<ele>1737.359985</ele>
<time>2024-06-13T09:59:41.997Z</time>
</trkpt>
<trkpt lat="42.3631100" lon="1.2245070">
<ele>1738.701050</ele>
<time>2024-06-13T10:00:00.996Z</time>
</trkpt>
<trkpt lat="42.3627300" lon="1.2241420">
<ele>1739.950806</ele>
<time>2024-06-13T10:00:18.000Z</time>
</trkpt>
<trkpt lat="42.3624470" lon="1.2237450">
<ele>1740.743286</ele>
<time>2024-06-13T10:00:31.997Z</time>
</trkpt>
<trkpt lat="42.3622070" lon="1.2232640">
<ele>1743.852173</ele>
<time>2024-06-13T10:00:50.996Z</time>
</trkpt>
<trkpt lat="42.3619590" lon="1.2229030">
<ele>1746.808838</ele>
<time>2024-06-13T10:01:08.000Z</time>
</trkpt>
<trkpt lat="42.3616540" lon="1.2225040">
<ele>1749.399658</ele>
<time>2024-06-13T10:01:25.997Z</time>
</trkpt>
<trkpt lat="42.3616230" lon="1.2224270">
<ele>1750.283447</ele>
<time>2024-06-13T10:01:41.998Z</time>
</trkpt>
<trkpt lat="42.3615880" lon="1.2223870">
<ele>1750.679810</ele>
<time>2024-06-13T10:02:04.998Z</time>
</trkpt>
<trkpt lat="42.3613110" lon="1.2221110">
<ele>1751.899048</ele>
<time>2024-06-13T10:02:19.997Z</time>
</trkpt>
<trkpt lat="42.3609960" lon="1.2217100">
<ele>1754.885986</ele>
<time>2024-06-13T10:02:34.002Z</time>
</trkpt>
<trkpt lat="42.3607520" lon="1.2213630">
<ele>1756.958618</ele>
<time>2024-06-13T10:02:47.999Z</time>
</trkpt>
<trkpt lat="42.3604490" lon="1.2209680">
<ele>1758.177734</ele>
<time>2024-06-13T10:03:04.000Z</time>
</trkpt>
<trkpt lat="42.3601920" lon="1.2204470">
<ele>1761.286743</ele>
<time>2024-06-13T10:03:23.000Z</time>
</trkpt>
<trkpt lat="42.3600610" lon="1.2200290">
<ele>1762.292603</ele>
<time>2024-06-13T10:03:36.003Z</time>
</trkpt>
<trkpt lat="42.3595720" lon="1.2197140">
<ele>1764.304321</ele>
<time>2024-06-13T10:03:55.996Z</time>
</trkpt>
<trkpt lat="42.3593390" lon="1.2194760">
<ele>1767.535156</ele>
<time>2024-06-13T10:04:11.997Z</time>
</trkpt>
<trkpt lat="42.3591200" lon="1.2192810">
<ele>1769.577393</ele>
<time>2024-06-13T10:04:26.996Z</time>
</trkpt>
<trkpt lat="42.3589460" lon="1.2190260">
<ele>1772.076660</ele>
<time>2024-06-13T10:04:42.997Z</time>
</trkpt>
<trkpt lat="42.3588040" lon="1.2188970">
<ele>1772.442505</ele>
<time>2024-06-13T10:05:19.000Z</time>
</trkpt>
<trkpt lat="42.3587800" lon="1.2184520">
<ele>1772.777832</ele>
<time>2024-06-13T10:05:36.004Z</time>
</trkpt>
<trkpt lat="42.3591050" lon="1.2177250">
<ele>1775.856201</ele>
<time>2024-06-13T10:05:59.004Z</time>
</trkpt>
<trkpt lat="42.3590950" lon="1.2172810">
<ele>1776.191528</ele>
<time>2024-06-13T10:06:14.003Z</time>
</trkpt>
<trkpt lat="42.3590850" lon="1.2171840">
<ele>1775.459961</ele>
<time>2024-06-13T10:06:29.002Z</time>
</trkpt>
<trkpt lat="42.3590710" lon="1.2171760">
<ele>1775.429443</ele>
<time>2024-06-13T10:07:38.001Z</time>
</trkpt>
<trkpt lat="42.3590780" lon="1.2171800">
<ele>1775.856201</ele>
<time>2024-06-13T10:08:51.000Z</time>
</trkpt>
<trkpt lat="42.3590780" lon="1.2171620">
<ele>1775.734253</ele>
<time>2024-06-13T10:09:16.004Z</time>
</trkpt>
<trkpt lat="42.3590770" lon="1.2171440">
<ele>1775.734253</ele>
<time>2024-06-13T10:09:16.998Z</time>
</trkpt>
<trkpt lat="42.3590760" lon="1.2171220">
<ele>1775.734253</ele>
<time>2024-06-13T10:09:18.000Z</time>
</trkpt>
<trkpt lat="42.3590740" lon="1.2170960">
<ele>1775.703735</ele>
<time>2024-06-13T10:09:19.002Z</time>
</trkpt>
<trkpt lat="42.3590700" lon="1.2170670">
<ele>1775.703735</ele>
<time>2024-06-13T10:09:19.996Z</time>
</trkpt>
<trkpt lat="42.3590670" lon="1.2170370">
<ele>1775.673462</ele>
<time>2024-06-13T10:09:20.998Z</time>
</trkpt>
<trkpt lat="42.3591200" lon="1.2163940">
<ele>1773.600708</ele>
<time>2024-06-13T10:09:35.997Z</time>
</trkpt>
<trkpt lat="42.3592860" lon="1.2158640">
<ele>1770.339478</ele>
<time>2024-06-13T10:09:46.002Z</time>
</trkpt>
<trkpt lat="42.3595080" lon="1.2153700">
<ele>1767.291382</ele>
<time>2024-06-13T10:09:54.996Z</time>
</trkpt>
<trkpt lat="42.3598620" lon="1.2146260">
<ele>1764.365356</ele>
<time>2024-06-13T10:10:10.998Z</time>
</trkpt>
<trkpt lat="42.3599140" lon="1.2144910">
<ele>1764.182373</ele>
<time>2024-06-13T10:10:13.996Z</time>
</trkpt>
<trkpt lat="42.3599240" lon="1.2144350">
<ele>1764.151855</ele>
<time>2024-06-13T10:10:14.998Z</time>
</trkpt>
<trkpt lat="42.3599350" lon="1.2143760">
<ele>1764.091064</ele>
<time>2024-06-13T10:10:16.000Z</time>
</trkpt>
<trkpt lat="42.3599470" lon="1.2143170">
<ele>1764.091064</ele>
<time>2024-06-13T10:10:17.003Z</time>
</trkpt>
<trkpt lat="42.3599530" lon="1.2142570">
<ele>1764.060547</ele>
<time>2024-06-13T10:10:17.996Z</time>
</trkpt>
<trkpt lat="42.3599570" lon="1.2141950">
<ele>1764.060547</ele>
<time>2024-06-13T10:10:18.998Z</time>
</trkpt>
<trkpt lat="42.3600090" lon="1.2134360">
<ele>1760.585815</ele>
<time>2024-06-13T10:10:30.999Z</time>
</trkpt>
<trkpt lat="42.3600020" lon="1.2133710">
<ele>1760.585815</ele>
<time>2024-06-13T10:10:32.002Z</time>
</trkpt>
<trkpt lat="42.3599900" lon="1.2133030">
<ele>1760.037109</ele>
<time>2024-06-13T10:10:33.004Z</time>
</trkpt>
<trkpt lat="42.3599330" lon="1.2125630">
<ele>1756.745361</ele>
<time>2024-06-13T10:10:44.003Z</time>
</trkpt>
<trkpt lat="42.3599310" lon="1.2124940">
<ele>1756.348999</ele>
<time>2024-06-13T10:10:44.996Z</time>
</trkpt>
<trkpt lat="42.3599270" lon="1.2124280">
<ele>1755.800415</ele>
<time>2024-06-13T10:10:45.998Z</time>
</trkpt>
<trkpt lat="42.3599290" lon="1.2123650">
<ele>1755.190796</ele>
<time>2024-06-13T10:10:47.001Z</time>
</trkpt>
<trkpt lat="42.3599250" lon="1.2122950">
<ele>1754.520142</ele>
<time>2024-06-13T10:10:48.003Z</time>
</trkpt>
<trkpt lat="42.3599230" lon="1.2122280">
<ele>1754.002075</ele>
<time>2024-06-13T10:10:48.996Z</time>
</trkpt>
<trkpt lat="42.3599110" lon="1.2118690">
<ele>1750.893066</ele>
<time>2024-06-13T10:10:55.001Z</time>
</trkpt>
<trkpt lat="42.3599110" lon="1.2118030">
<ele>1750.893066</ele>
<time>2024-06-13T10:10:56.004Z</time>
</trkpt>
<trkpt lat="42.3599350" lon="1.2114860">
<ele>1747.570801</ele>
<time>2024-06-13T10:11:00.997Z</time>
</trkpt>
<trkpt lat="42.3599450" lon="1.2113670">
<ele>1746.016235</ele>
<time>2024-06-13T10:11:03.002Z</time>
</trkpt>
<trkpt lat="42.3599660" lon="1.2111610">
<ele>1742.907471</ele>
<time>2024-06-13T10:11:07.002Z</time>
</trkpt>
<trkpt lat="42.3599960" lon="1.2108240">
<ele>1739.889771</ele>
<time>2024-06-13T10:11:12.998Z</time>
</trkpt>
<trkpt lat="42.3599970" lon="1.2107680">
<ele>1739.310669</ele>
<time>2024-06-13T10:11:14.001Z</time>
</trkpt>
<trkpt lat="42.3599940" lon="1.2107150">
<ele>1738.822998</ele>
<time>2024-06-13T10:11:15.003Z</time>
</trkpt>
<trkpt lat="42.3599950" lon="1.2106700">
<ele>1738.365723</ele>
<time>2024-06-13T10:11:15.996Z</time>
</trkpt>
<trkpt lat="42.3599950" lon="1.2106260">
<ele>1737.786743</ele>
<time>2024-06-13T10:11:16.999Z</time>
</trkpt>
<trkpt lat="42.3599920" lon="1.2105840">
<ele>1737.238159</ele>
<time>2024-06-13T10:11:18.001Z</time>
</trkpt>
<trkpt lat="42.3599840" lon="1.2105380">
<ele>1736.689331</ele>
<time>2024-06-13T10:11:19.003Z</time>
</trkpt>
<trkpt lat="42.3599760" lon="1.2104870">
<ele>1736.171265</ele>
<time>2024-06-13T10:11:19.997Z</time>
</trkpt>
<trkpt lat="42.3599680" lon="1.2104350">
<ele>1735.287476</ele>
<time>2024-06-13T10:11:20.999Z</time>
</trkpt>
<trkpt lat="42.3599450" lon="1.2103090">
<ele>1733.489014</ele>
<time>2024-06-13T10:11:23.997Z</time>
</trkpt>
<trkpt lat="42.3598630" lon="1.2101380">
<ele>1730.380127</ele>
<time>2024-06-13T10:11:29.000Z</time>
</trkpt>
<trkpt lat="42.3598090" lon="1.2100510">
<ele>1728.916992</ele>
<time>2024-06-13T10:11:31.998Z</time>
</trkpt>
<trkpt lat="42.3595670" lon="1.2096860">
<ele>1728.307373</ele>
<time>2024-06-13T10:11:50.004Z</time>
</trkpt>
<trkpt lat="42.3592680" lon="1.2091830">
<ele>1728.795044</ele>
<time>2024-06-13T10:12:12.001Z</time>
</trkpt>
<trkpt lat="42.3589420" lon="1.2087010">
<ele>1730.745728</ele>
<time>2024-06-13T10:12:35.001Z</time>
</trkpt>
<trkpt lat="42.3586290" lon="1.2084890">
<ele>1733.610962</ele>
<time>2024-06-13T10:12:52.998Z</time>
</trkpt>
<trkpt lat="42.3584780" lon="1.2082810">
<ele>1736.780884</ele>
<time>2024-06-13T10:13:03.003Z</time>
</trkpt>
<trkpt lat="42.3582080" lon="1.2078230">
<ele>1738.000122</ele>
<time>2024-06-13T10:13:21.000Z</time>
</trkpt>
<trkpt lat="42.3581190" lon="1.2070620">
<ele>1737.603760</ele>
<time>2024-06-13T10:13:37.001Z</time>
</trkpt>
<trkpt lat="42.3580810" lon="1.2066050">
<ele>1736.201782</ele>
<time>2024-06-13T10:13:44.000Z</time>
</trkpt>
<trkpt lat="42.3578250" lon="1.2059380">
<ele>1733.245239</ele>
<time>2024-06-13T10:13:57.996Z</time>
</trkpt>
<trkpt lat="42.3574380" lon="1.2052500">
<ele>1735.165405</ele>
<time>2024-06-13T10:14:17.998Z</time>
</trkpt>
<trkpt lat="42.3573310" lon="1.2046910">
<ele>1733.854858</ele>
<time>2024-06-13T10:14:28.003Z</time>
</trkpt>
<trkpt lat="42.3573290" lon="1.2046290">
<ele>1733.732910</ele>
<time>2024-06-13T10:14:28.997Z</time>
</trkpt>
<trkpt lat="42.3573650" lon="1.2040480">
<ele>1730.349609</ele>
<time>2024-06-13T10:14:38.000Z</time>
</trkpt>
<trkpt lat="42.3573700" lon="1.2039790">
<ele>1730.136230</ele>
<time>2024-06-13T10:14:39.002Z</time>
</trkpt>
<trkpt lat="42.3574100" lon="1.2035100">
<ele>1726.935791</ele>
<time>2024-06-13T10:14:46.000Z</time>
</trkpt>
<trkpt lat="42.3574160" lon="1.2034380">
<ele>1726.204346</ele>
<time>2024-06-13T10:14:47.003Z</time>
</trkpt>
<trkpt lat="42.3574230" lon="1.2032390">
<ele>1724.070679</ele>
<time>2024-06-13T10:14:50.001Z</time>
</trkpt>
<trkpt lat="42.3574280" lon="1.2031790">
<ele>1723.034424</ele>
<time>2024-06-13T10:14:51.003Z</time>
</trkpt>
<trkpt lat="42.3574340" lon="1.2030510">
<ele>1721.053223</ele>
<time>2024-06-13T10:14:52.999Z</time>
</trkpt>
<trkpt lat="42.3574360" lon="1.2027900">
<ele>1717.852783</ele>
<time>2024-06-13T10:14:56.999Z</time>
</trkpt>
<trkpt lat="42.3574500" lon="1.2025020">
<ele>1714.286621</ele>
<time>2024-06-13T10:15:00.999Z</time>
</trkpt>
<trkpt lat="42.3574760" lon="1.2022310">
<ele>1711.177734</ele>
<time>2024-06-13T10:15:05.000Z</time>
</trkpt>
<trkpt lat="42.3575180" lon="1.2019270">
<ele>1707.946777</ele>
<time>2024-06-13T10:15:10.002Z</time>
</trkpt>
<trkpt lat="42.3575220" lon="1.2018730">
<ele>1707.184814</ele>
<time>2024-06-13T10:15:10.996Z</time>
</trkpt>
<trkpt lat="42.3575240" lon="1.2018190">
<ele>1706.331421</ele>
<time>2024-06-13T10:15:11.998Z</time>
</trkpt>
<trkpt lat="42.3575220" lon="1.2017690">
<ele>1705.386475</ele>
<time>2024-06-13T10:15:13.000Z</time>
</trkpt>
<trkpt lat="42.3575180" lon="1.2017250">
<ele>1704.532959</ele>
<time>2024-06-13T10:15:14.003Z</time>
</trkpt>
<trkpt lat="42.3575090" lon="1.2016790">
<ele>1703.740601</ele>
<time>2024-06-13T10:15:14.996Z</time>
</trkpt>
<trkpt lat="42.3574950" lon="1.2016320">
<ele>1703.069946</ele>
<time>2024-06-13T10:15:15.998Z</time>
</trkpt>
<trkpt lat="42.3574820" lon="1.2015890">
<ele>1702.460449</ele>
<time>2024-06-13T10:15:17.001Z</time>
</trkpt>
<trkpt lat="42.3574260" lon="1.2013640">
<ele>1699.290527</ele>
<time>2024-06-13T10:15:23.999Z</time>
</trkpt>
<trkpt lat="42.3573280" lon="1.2012330">
<ele>1697.035034</ele>
<time>2024-06-13T10:16:01.004Z</time>
</trkpt>
<trkpt lat="42.3570750" lon="1.2008920">
<ele>1696.547363</ele>
<time>2024-06-13T10:16:16.003Z</time>
</trkpt>
<trkpt lat="42.3570070" lon="1.2004980">
<ele>1697.796997</ele>
<time>2024-06-13T10:16:31.002Z</time>
</trkpt>
<trkpt lat="42.3569720" lon="1.2001020">
<ele>1700.814453</ele>
<time>2024-06-13T10:16:44.999Z</time>
</trkpt>
<trkpt lat="42.3569090" lon="1.1997890">
<ele>1703.832031</ele>
<time>2024-06-13T10:16:55.998Z</time>
</trkpt>
<trkpt lat="42.3568570" lon="1.1995790">
<ele>1707.154297</ele>
<time>2024-06-13T10:17:03.998Z</time>
</trkpt>
<trkpt lat="42.3567640" lon="1.1993440">
<ele>1710.476563</ele>
<time>2024-06-13T10:17:10.003Z</time>
</trkpt>
<trkpt lat="42.3567090" lon="1.1989390">
<ele>1712.884644</ele>
<time>2024-06-13T10:17:26.998Z</time>
</trkpt>
<trkpt lat="42.3566960" lon="1.1984730">
<ele>1711.726318</ele>
<time>2024-06-13T10:17:41.004Z</time>
</trkpt>
<trkpt lat="42.3567310" lon="1.1980490">
<ele>1711.665405</ele>
<time>2024-06-13T10:17:56.003Z</time>
</trkpt>
<trkpt lat="42.3567480" lon="1.1975390">
<ele>1713.616089</ele>
<time>2024-06-13T10:18:14.000Z</time>
</trkpt>
<trkpt lat="42.3569210" lon="1.1971170">
<ele>1715.627808</ele>
<time>2024-06-13T10:18:31.997Z</time>
</trkpt>
<trkpt lat="42.3570120" lon="1.1969160">
<ele>1718.645264</ele>
<time>2024-06-13T10:18:42.002Z</time>
</trkpt>
<trkpt lat="42.3570720" lon="1.1968230">
<ele>1720.077759</ele>
<time>2024-06-13T10:18:59.999Z</time>
</trkpt>
<trkpt lat="42.3570770" lon="1.1968090">
<ele>1720.565430</ele>
<time>2024-06-13T10:19:25.003Z</time>
</trkpt>
<trkpt lat="42.3570840" lon="1.1967920">
<ele>1720.687378</ele>
<time>2024-06-13T10:20:04.998Z</time>
</trkpt>
<trkpt lat="42.3571750" lon="1.1965960">
<ele>1720.778931</ele>
<time>2024-06-13T10:20:23.004Z</time>
</trkpt>
<trkpt lat="42.3571770" lon="1.1965940">
<ele>1720.900757</ele>
<time>2024-06-13T10:20:45.001Z</time>
</trkpt>
<trkpt lat="42.3571730" lon="1.1965930">
<ele>1720.778931</ele>
<time>2024-06-13T10:21:25.004Z</time>
</trkpt>
<trkpt lat="42.3571890" lon="1.1965810">
<ele>1720.961792</ele>
<time>2024-06-13T10:21:51.002Z</time>
</trkpt>
<trkpt lat="42.3572030" lon="1.1965280">
<ele>1721.022705</ele>
<time>2024-06-13T10:22:15.004Z</time>
</trkpt>
<trkpt lat="42.3572200" lon="1.1964840">
<ele>1720.870239</ele>
<time>2024-06-13T10:22:35.999Z</time>
</trkpt>
<trkpt lat="42.3571970" lon="1.1962800">
<ele>1720.565430</ele>
<time>2024-06-13T10:23:16.996Z</time>
</trkpt>
<trkpt lat="42.3572810" lon="1.1959380">
<ele>1717.395630</ele>
<time>2024-06-13T10:23:28.997Z</time>
</trkpt>
<trkpt lat="42.3573990" lon="1.1957000">
<ele>1714.195190</ele>
<time>2024-06-13T10:23:36.004Z</time>
</trkpt>
<trkpt lat="42.3574800" lon="1.1954530">
<ele>1711.147217</ele>
<time>2024-06-13T10:23:44.998Z</time>
</trkpt>
<trkpt lat="42.3575020" lon="1.1954190">
<ele>1710.842407</ele>
<time>2024-06-13T10:23:47.003Z</time>
</trkpt>
<trkpt lat="42.3575050" lon="1.1953950">
<ele>1710.720459</ele>
<time>2024-06-13T10:23:47.996Z</time>
</trkpt>
<trkpt lat="42.3575110" lon="1.1953710">
<ele>1710.629028</ele>
<time>2024-06-13T10:23:48.998Z</time>
</trkpt>
<trkpt lat="42.3575180" lon="1.1953480">
<ele>1710.507080</ele>
<time>2024-06-13T10:23:50.001Z</time>
</trkpt>
<trkpt lat="42.3575200" lon="1.1953250">
<ele>1710.446167</ele>
<time>2024-06-13T10:23:51.003Z</time>
</trkpt>
<trkpt lat="42.3575210" lon="1.1952900">
<ele>1710.385254</ele>
<time>2024-06-13T10:23:51.996Z</time>
</trkpt>
<trkpt lat="42.3575250" lon="1.1952630">
<ele>1710.354736</ele>
<time>2024-06-13T10:23:52.999Z</time>
</trkpt>
<trkpt lat="42.3575280" lon="1.1952330">
<ele>1710.263306</ele>
<time>2024-06-13T10:23:54.001Z</time>
</trkpt>
<trkpt lat="42.3575330" lon="1.1952020">
<ele>1710.232788</ele>
<time>2024-06-13T10:23:55.003Z</time>
</trkpt>
<trkpt lat="42.3575380" lon="1.1951730">
<ele>1710.080444</ele>
<time>2024-06-13T10:23:55.997Z</time>
</trkpt>
<trkpt lat="42.3577310" lon="1.1948360">
<ele>1706.941040</ele>
<time>2024-06-13T10:24:10.002Z</time>
</trkpt>
<trkpt lat="42.3579930" lon="1.1947170">
<ele>1703.862549</ele>
<time>2024-06-13T10:24:19.999Z</time>
</trkpt>
<trkpt lat="42.3581220" lon="1.1943410">
<ele>1703.405273</ele>
<time>2024-06-13T10:24:34.004Z</time>
</trkpt>
<trkpt lat="42.3580570" lon="1.1937940">
<ele>1701.942139</ele>
<time>2024-06-13T10:24:46.999Z</time>
</trkpt>
<trkpt lat="42.3581490" lon="1.1934130">
<ele>1703.649048</ele>
<time>2024-06-13T10:25:01.004Z</time>
</trkpt>
<trkpt lat="42.3581200" lon="1.1930650">
<ele>1705.935059</ele>
<time>2024-06-13T10:25:16.997Z</time>
</trkpt>
<trkpt lat="42.3581120" lon="1.1930000">
<ele>1706.910522</ele>
<time>2024-06-13T10:25:46.001Z</time>
</trkpt>
<trkpt lat="42.3580730" lon="1.1928780">
<ele>1706.118042</ele>
<time>2024-06-13T10:26:06.003Z</time>
</trkpt>
<trkpt lat="42.3580310" lon="1.1928330">
<ele>1706.026611</ele>
<time>2024-06-13T10:26:10.003Z</time>
</trkpt>
<trkpt lat="42.3579720" lon="1.1927210">
<ele>1703.557739</ele>
<time>2024-06-13T10:26:29.003Z</time>
</trkpt>
<trkpt lat="42.3579490" lon="1.1926110">
<ele>1703.618530</ele>
<time>2024-06-13T10:26:49.004Z</time>
</trkpt>
<trkpt lat="42.3578660" lon="1.1925830">
<ele>1701.332520</ele>
<time>2024-06-13T10:27:23.003Z</time>
</trkpt>
<trkpt lat="42.3578320" lon="1.1924990">
<ele>1698.315063</ele>
<time>2024-06-13T10:27:42.002Z</time>
</trkpt>
<trkpt lat="42.3578130" lon="1.1924580">
<ele>1696.547363</ele>
<time>2024-06-13T10:27:59.999Z</time>
</trkpt>
<trkpt lat="42.3577710" lon="1.1923770">
<ele>1693.438232</ele>
<time>2024-06-13T10:28:22.999Z</time>
</trkpt>
<trkpt lat="42.3578200" lon="1.1923280">
<ele>1691.883789</ele>
<time>2024-06-13T10:28:39.000Z</time>
</trkpt>
<trkpt lat="42.3578100" lon="1.1921390">
<ele>1691.792358</ele>
<time>2024-06-13T10:28:47.001Z</time>
</trkpt>
<trkpt lat="42.3578260" lon="1.1920480">
<ele>1690.847534</ele>
<time>2024-06-13T10:28:52.003Z</time>
</trkpt>
<trkpt lat="42.3577520" lon="1.1918650">
<ele>1688.957764</ele>
<time>2024-06-13T10:29:00.004Z</time>
</trkpt>
<trkpt lat="42.3576950" lon="1.1916700">
<ele>1686.427856</ele>
<time>2024-06-13T10:29:06.000Z</time>
</trkpt>
<trkpt lat="42.3575670" lon="1.1913840">
<ele>1682.557007</ele>
<time>2024-06-13T10:29:15.996Z</time>
</trkpt>
<trkpt lat="42.3575170" lon="1.1912930">
<ele>1680.545288</ele>
<time>2024-06-13T10:29:19.997Z</time>
</trkpt>
<trkpt lat="42.3574830" lon="1.1911150">
<ele>1678.807861</ele>
<time>2024-06-13T10:29:24.999Z</time>
</trkpt>
<trkpt lat="42.3574870" lon="1.1906430">
<ele>1675.973267</ele>
<time>2024-06-13T10:29:38.003Z</time>
</trkpt>
<trkpt lat="42.3575110" lon="1.1901490">
<ele>1672.925293</ele>
<time>2024-06-13T10:29:50.004Z</time>
</trkpt>
<trkpt lat="42.3575460" lon="1.1897290">
<ele>1671.736572</ele>
<time>2024-06-13T10:30:02.998Z</time>
</trkpt>
<trkpt lat="42.3576030" lon="1.1893700">
<ele>1668.566528</ele>
<time>2024-06-13T10:30:12.001Z</time>
</trkpt>
<trkpt lat="42.3576090" lon="1.1893410">
<ele>1668.261841</ele>
<time>2024-06-13T10:30:13.003Z</time>
</trkpt>
<trkpt lat="42.3576570" lon="1.1888700">
<ele>1665.335815</ele>
<time>2024-06-13T10:30:24.002Z</time>
</trkpt>
<trkpt lat="42.3577390" lon="1.1885290">
<ele>1662.104858</ele>
<time>2024-06-13T10:30:31.000Z</time>
</trkpt>
<trkpt lat="42.3577370" lon="1.1881960">
<ele>1658.904541</ele>
<time>2024-06-13T10:30:41.999Z</time>
</trkpt>
<trkpt lat="42.3577410" lon="1.1878690">
<ele>1657.411011</ele>
<time>2024-06-13T10:30:52.998Z</time>
</trkpt>
<trkpt lat="42.3576750" lon="1.1873240">
<ele>1657.106201</ele>
<time>2024-06-13T10:31:06.001Z</time>
</trkpt>
<trkpt lat="42.3576120" lon="1.1868630">
<ele>1653.753418</ele>
<time>2024-06-13T10:31:15.997Z</time>
</trkpt>
<trkpt lat="42.3575220" lon="1.1864320">
<ele>1651.863647</ele>
<time>2024-06-13T10:31:31.999Z</time>
</trkpt>
<trkpt lat="42.3574820" lon="1.1861770">
<ele>1652.381836</ele>
<time>2024-06-13T10:32:29.999Z</time>
</trkpt>
<trkpt lat="42.3573940" lon="1.1857660">
<ele>1654.911621</ele>
<time>2024-06-13T10:32:47.996Z</time>
</trkpt>
<trkpt lat="42.3572760" lon="1.1856050">
<ele>1657.014648</ele>
<time>2024-06-13T10:32:59.997Z</time>
</trkpt>
<trkpt lat="42.3571730" lon="1.1854740">
<ele>1658.051025</ele>
<time>2024-06-13T10:33:07.998Z</time>
</trkpt>
<trkpt lat="42.3571470" lon="1.1850660">
<ele>1658.112061</ele>
<time>2024-06-13T10:33:21.001Z</time>
</trkpt>
<trkpt lat="42.3572400" lon="1.1847040">
<ele>1656.618530</ele>
<time>2024-06-13T10:33:32.000Z</time>
</trkpt>
<trkpt lat="42.3572760" lon="1.1843260">
<ele>1655.704102</ele>
<time>2024-06-13T10:33:40.000Z</time>
</trkpt>
<trkpt lat="42.3573010" lon="1.1841990">
<ele>1655.307739</ele>
<time>2024-06-13T10:33:42.998Z</time>
</trkpt>
<trkpt lat="42.3573360" lon="1.1835140">
<ele>1653.509521</ele>
<time>2024-06-13T10:33:59.000Z</time>
</trkpt>
<trkpt lat="42.3572910" lon="1.1829500">
<ele>1654.423950</ele>
<time>2024-06-13T10:34:16.003Z</time>
</trkpt>
<trkpt lat="42.3571930" lon="1.1823730">
<ele>1655.551758</ele>
<time>2024-06-13T10:34:36.998Z</time>
</trkpt>
<trkpt lat="42.3570900" lon="1.1821160">
<ele>1656.984131</ele>
<time>2024-06-13T10:34:48.999Z</time>
</trkpt>
<trkpt lat="42.3569360" lon="1.1818020">
<ele>1659.209351</ele>
<time>2024-06-13T10:35:02.996Z</time>
</trkpt>
<trkpt lat="42.3568200" lon="1.1816030">
<ele>1661.038086</ele>
<time>2024-06-13T10:35:14.997Z</time>
</trkpt>
<trkpt lat="42.3567450" lon="1.1814960">
<ele>1660.977051</ele>
<time>2024-06-13T10:35:22.004Z</time>
</trkpt>
<trkpt lat="42.3566530" lon="1.1811130">
<ele>1661.983032</ele>
<time>2024-06-13T10:35:36.001Z</time>
</trkpt>
<trkpt lat="42.3566560" lon="1.1807350">
<ele>1663.385010</ele>
<time>2024-06-13T10:35:51.000Z</time>
</trkpt>
<trkpt lat="42.3565540" lon="1.1803830">
<ele>1662.562134</ele>
<time>2024-06-13T10:36:03.001Z</time>
</trkpt>
<trkpt lat="42.3565030" lon="1.1800360">
<ele>1659.940796</ele>
<time>2024-06-13T10:36:15.002Z</time>
</trkpt>
<trkpt lat="42.3564720" lon="1.1798490">
<ele>1658.752075</ele>
<time>2024-06-13T10:36:23.003Z</time>
</trkpt>
<trkpt lat="42.3564290" lon="1.1797230">
<ele>1658.630249</ele>
<time>2024-06-13T10:36:27.996Z</time>
</trkpt>
<trkpt lat="42.3563350" lon="1.1793670">
<ele>1659.331177</ele>
<time>2024-06-13T10:36:42.002Z</time>
</trkpt>
<trkpt lat="42.3562190" lon="1.1790630">
<ele>1659.422607</ele>
<time>2024-06-13T10:36:54.003Z</time>
</trkpt>
<trkpt lat="42.3562310" lon="1.1789810">
<ele>1659.300659</ele>
<time>2024-06-13T10:36:58.003Z</time>
</trkpt>
<trkpt lat="42.3561780" lon="1.1788140">
<ele>1659.087402</ele>
<time>2024-06-13T10:37:14.998Z</time>
</trkpt>
<trkpt lat="42.3561110" lon="1.1787030">
<ele>1659.422607</ele>
<time>2024-06-13T10:37:37.998Z</time>
</trkpt>
<trkpt lat="42.3560690" lon="1.1786440">
<ele>1659.392212</ele>
<time>2024-06-13T10:37:43.000Z</time>
</trkpt>
<trkpt lat="42.3560390" lon="1.1785540">
<ele>1659.361694</ele>
<time>2024-06-13T10:37:48.996Z</time>
</trkpt>
<trkpt lat="42.3558910" lon="1.1783700">
<ele>1658.935059</ele>
<time>2024-06-13T10:38:07.996Z</time>
</trkpt>
<trkpt lat="42.3557850" lon="1.1782210">
<ele>1658.386230</ele>
<time>2024-06-13T10:38:23.004Z</time>
</trkpt>
<trkpt lat="42.3557620" lon="1.1781750">
<ele>1658.325439</ele>
<time>2024-06-13T10:41:38.000Z</time>
</trkpt>
<trkpt lat="42.3556170" lon="1.1780020">
<ele>1657.258667</ele>
<time>2024-06-13T10:41:51.003Z</time>
</trkpt>
<trkpt lat="42.3555290" lon="1.1778990">
<ele>1655.490723</ele>
<time>2024-06-13T10:41:59.004Z</time>
</trkpt>
<trkpt lat="42.3554600" lon="1.1778530">
<ele>1652.534180</ele>
<time>2024-06-13T10:42:10.996Z</time>
</trkpt>
<trkpt lat="42.3553930" lon="1.1778240">
<ele>1652.229370</ele>
<time>2024-06-13T10:42:19.999Z</time>
</trkpt>
<trkpt lat="42.3553340" lon="1.1778200">
<ele>1652.229370</ele>
<time>2024-06-13T10:42:22.003Z</time>
</trkpt>
<trkpt lat="42.3551610" lon="1.1778200">
<ele>1652.077026</ele>
<time>2024-06-13T10:42:34.004Z</time>
</trkpt>
<trkpt lat="42.3551190" lon="1.1778170">
<ele>1651.985474</ele>
<time>2024-06-13T10:42:46.999Z</time>
</trkpt>
<trkpt lat="42.3550280" lon="1.1777660">
<ele>1651.132080</ele>
<time>2024-06-13T10:43:01.004Z</time>
</trkpt>
<trkpt lat="42.3549060" lon="1.1777140">
<ele>1651.589355</ele>
<time>2024-06-13T10:43:13.999Z</time>
</trkpt>
<trkpt lat="42.3548550" lon="1.1776810">
<ele>1652.869385</ele>
<time>2024-06-13T10:43:38.001Z</time>
</trkpt>
<trkpt lat="42.3547910" lon="1.1776260">
<ele>1653.326538</ele>
<time>2024-06-13T10:43:47.004Z</time>
</trkpt>
<trkpt lat="42.3547290" lon="1.1775920">
<ele>1652.991455</ele>
<time>2024-06-13T10:44:02.003Z</time>
</trkpt>
<trkpt lat="42.3546780" lon="1.1775490">
<ele>1652.747437</ele>
<time>2024-06-13T10:44:07.999Z</time>
</trkpt>
<trkpt lat="42.3545900" lon="1.1774750">
<ele>1652.686646</ele>
<time>2024-06-13T10:44:10.997Z</time>
</trkpt>
<trkpt lat="42.3545280" lon="1.1774270">
<ele>1653.021729</ele>
<time>2024-06-13T10:44:30.998Z</time>
</trkpt>
<trkpt lat="42.3544720" lon="1.1773570">
<ele>1654.210571</ele>
<time>2024-06-13T10:44:49.998Z</time>
</trkpt>
<trkpt lat="42.3543500" lon="1.1771840">
<ele>1655.002930</ele>
<time>2024-06-13T10:45:11.002Z</time>
</trkpt>
</trkseg>
<trkseg>
<trkpt lat="42.3541970" lon="1.1770930">
<ele>1659.940796</ele>
<time>2024-06-13T10:45:58.003Z</time>
</trkpt>
<trkpt lat="42.3540050" lon="1.1769400">
<ele>1662.074341</ele>
<time>2024-06-13T10:46:30.999Z</time>
</trkpt>
<trkpt lat="42.3538430" lon="1.1768910">
<ele>1663.049805</ele>
<time>2024-06-13T10:46:59.002Z</time>
</trkpt>
<trkpt lat="42.3537700" lon="1.1768510">
<ele>1664.086060</ele>
<time>2024-06-13T10:47:16.999Z</time>
</trkpt>
<trkpt lat="42.3536500" lon="1.1768230">
<ele>1664.665161</ele>
<time>2024-06-13T10:48:10.999Z</time>
</trkpt>
<trkpt lat="42.3535690" lon="1.1767990">
<ele>1666.463501</ele>
<time>2024-06-13T10:48:28.002Z</time>
</trkpt>
<trkpt lat="42.3535050" lon="1.1767960">
<ele>1667.469360</ele>
<time>2024-06-13T10:48:40.997Z</time>
</trkpt>
<trkpt lat="42.3534040" lon="1.1767600">
<ele>1668.261841</ele>
<time>2024-06-13T10:49:07.997Z</time>
</trkpt>
<trkpt lat="42.3533200" lon="1.1766780">
<ele>1668.475220</ele>
<time>2024-06-13T10:49:27.998Z</time>
</trkpt>
<trkpt lat="42.3532260" lon="1.1766310">
<ele>1669.328613</ele>
<time>2024-06-13T10:49:49.996Z</time>
</trkpt>
<trkpt lat="42.3531610" lon="1.1765680">
<ele>1672.193848</ele>
<time>2024-06-13T10:50:38.000Z</time>
</trkpt>
<trkpt lat="42.3530850" lon="1.1765170">
<ele>1673.077759</ele>
<time>2024-06-13T10:50:56.999Z</time>
</trkpt>
<trkpt lat="42.3530040" lon="1.1763360">
<ele>1676.156250</ele>
<time>2024-06-13T10:51:30.997Z</time>
</trkpt>
<trkpt lat="42.3528960" lon="1.1761700">
<ele>1679.722290</ele>
<time>2024-06-13T10:52:38.001Z</time>
</trkpt>
<trkpt lat="42.3528340" lon="1.1760650">
<ele>1682.587402</ele>
<time>2024-06-13T10:53:09.001Z</time>
</trkpt>
<trkpt lat="42.3527590" lon="1.1759740">
<ele>1683.349365</ele>
<time>2024-06-13T10:53:18.997Z</time>
</trkpt>
<trkpt lat="42.3526820" lon="1.1758790">
<ele>1684.020020</ele>
<time>2024-06-13T10:53:26.998Z</time>
</trkpt>
<trkpt lat="42.3525750" lon="1.1757890">
<ele>1685.665894</ele>
<time>2024-06-13T10:53:41.997Z</time>
</trkpt>
<trkpt lat="42.3525590" lon="1.1757840">
<ele>1685.665894</ele>
<time>2024-06-13T10:54:04.997Z</time>
</trkpt>
<trkpt lat="42.3525530" lon="1.1758020">
<ele>1685.787720</ele>
<time>2024-06-13T10:54:20.998Z</time>
</trkpt>
<trkpt lat="42.3525510" lon="1.1758020">
<ele>1685.848755</ele>
<time>2024-06-13T10:54:23.996Z</time>
</trkpt>
<trkpt lat="42.3525230" lon="1.1757960">
<ele>1685.940186</ele>
<time>2024-06-13T10:54:27.003Z</time>
</trkpt>
<trkpt lat="42.3522730" lon="1.1757410">
<ele>1685.452637</ele>
<time>2024-06-13T10:54:46.002Z</time>
</trkpt>
<trkpt lat="42.3521870" lon="1.1757260">
<ele>1684.751465</ele>
<time>2024-06-13T10:54:53.001Z</time>
</trkpt>
<trkpt lat="42.3521350" lon="1.1756520">
<ele>1683.989502</ele>
<time>2024-06-13T10:55:05.002Z</time>
</trkpt>
<trkpt lat="42.3520990" lon="1.1755480">
<ele>1683.593262</ele>
<time>2024-06-13T10:55:10.998Z</time>
</trkpt>
<trkpt lat="42.3520860" lon="1.1752290">
<ele>1681.124390</ele>
<time>2024-06-13T10:55:29.004Z</time>
</trkpt>
<trkpt lat="42.3520830" lon="1.1752190">
<ele>1679.447998</ele>
<time>2024-06-13T10:55:59.002Z</time>
</trkpt>
<trkpt lat="42.3520770" lon="1.1751700">
<ele>1679.447998</ele>
<time>2024-06-13T10:56:07.996Z</time>
</trkpt>
<trkpt lat="42.3520890" lon="1.1751290">
<ele>1678.442261</ele>
<time>2024-06-13T10:56:29.000Z</time>
</trkpt>
<trkpt lat="42.3521090" lon="1.1750490">
<ele>1678.381226</ele>
<time>2024-06-13T10:56:33.000Z</time>
</trkpt>
<trkpt lat="42.3521430" lon="1.1749280">
<ele>1677.619141</ele>
<time>2024-06-13T10:56:39.998Z</time>
</trkpt>
<trkpt lat="42.3521920" lon="1.1748180">
<ele>1676.613403</ele>
<time>2024-06-13T10:56:43.999Z</time>
</trkpt>
<trkpt lat="42.3522160" lon="1.1747240">
<ele>1673.473877</ele>
<time>2024-06-13T10:57:13.997Z</time>
</trkpt>
<trkpt lat="42.3521960" lon="1.1745390">
<ele>1673.138550</ele>
<time>2024-06-13T10:57:29.998Z</time>
</trkpt>
<trkpt lat="42.3521780" lon="1.1743620">
<ele>1672.193848</ele>
<time>2024-06-13T10:58:15.997Z</time>
</trkpt>
<trkpt lat="42.3521240" lon="1.1741740">
<ele>1670.395386</ele>
<time>2024-06-13T10:58:56.001Z</time>
</trkpt>
<trkpt lat="42.3520880" lon="1.1740110">
<ele>1669.054321</ele>
<time>2024-06-13T10:59:15.000Z</time>
</trkpt>
<trkpt lat="42.3520690" lon="1.1738690">
<ele>1667.042603</ele>
<time>2024-06-13T10:59:44.998Z</time>
</trkpt>
<trkpt lat="42.3520410" lon="1.1736410">
<ele>1666.463501</ele>
<time>2024-06-13T11:00:27.999Z</time>
</trkpt>
<trkpt lat="42.3520190" lon="1.1733810">
<ele>1666.676880</ele>
<time>2024-06-13T11:00:41.003Z</time>
</trkpt>
<trkpt lat="42.3520190" lon="1.1731850">
<ele>1666.798828</ele>
<time>2024-06-13T11:01:01.004Z</time>
</trkpt>
<trkpt lat="42.3520230" lon="1.1731150">
<ele>1666.707397</ele>
<time>2024-06-13T11:01:19.001Z</time>
</trkpt>
<trkpt lat="42.3520940" lon="1.1730160">
<ele>1666.341553</ele>
<time>2024-06-13T11:01:42.001Z</time>
</trkpt>
<trkpt lat="42.3521680" lon="1.1729150">
<ele>1666.372070</ele>
<time>2024-06-13T11:01:51.997Z</time>
</trkpt>
<trkpt lat="42.3521140" lon="1.1726990">
<ele>1667.073120</ele>
<time>2024-06-13T11:02:10.997Z</time>
</trkpt>
<trkpt lat="42.3520480" lon="1.1724500">
<ele>1666.250244</ele>
<time>2024-06-13T11:02:22.004Z</time>
</trkpt>
<trkpt lat="42.3518910" lon="1.1721150">
<ele>1666.128174</ele>
<time>2024-06-13T11:02:28.000Z</time>
</trkpt>
<trkpt lat="42.3517980" lon="1.1719830">
<ele>1665.792969</ele>
<time>2024-06-13T11:02:36.001Z</time>
</trkpt>
<trkpt lat="42.3517040" lon="1.1718190">
<ele>1664.329834</ele>
<time>2024-06-13T11:02:49.004Z</time>
</trkpt>
<trkpt lat="42.3515700" lon="1.1716080">
<ele>1664.269043</ele>
<time>2024-06-13T11:03:04.997Z</time>
</trkpt>
<trkpt lat="42.3514770" lon="1.1714310">
<ele>1664.055542</ele>
<time>2024-06-13T11:03:20.998Z</time>
</trkpt>
<trkpt lat="42.3514360" lon="1.1713390">
<ele>1662.226807</ele>
<time>2024-06-13T11:03:34.001Z</time>
</trkpt>
<trkpt lat="42.3513920" lon="1.1711810">
<ele>1658.691040</ele>
<time>2024-06-13T11:04:06.997Z</time>
</trkpt>
<trkpt lat="42.3513020" lon="1.1709320">
<ele>1657.593750</ele>
<time>2024-06-13T11:04:25.003Z</time>
</trkpt>
<trkpt lat="42.3511270" lon="1.1707250">
<ele>1657.471924</ele>
<time>2024-06-13T11:04:52.003Z</time>
</trkpt>
<trkpt lat="42.3509890" lon="1.1705880">
<ele>1661.038086</ele>
<time>2024-06-13T11:06:20.002Z</time>
</trkpt>
<trkpt lat="42.3505850" lon="1.1702340">
<ele>1668.170410</ele>
<time>2024-06-13T11:06:51.002Z</time>
</trkpt>
<trkpt lat="42.3504810" lon="1.1701560">
<ele>1668.261841</ele>
<time>2024-06-13T11:06:52.004Z</time>
</trkpt>
<trkpt lat="42.3502530" lon="1.1700920">
<ele>1668.383789</ele>
<time>2024-06-13T11:06:52.998Z</time>
</trkpt>
<trkpt lat="42.3501460" lon="1.1702800">
<ele>1668.688599</ele>
<time>2024-06-13T11:06:54.000Z</time>
</trkpt>
<trkpt lat="42.3500270" lon="1.1705960">
<ele>1668.993408</ele>
<time>2024-06-13T11:06:55.002Z</time>
</trkpt>
<trkpt lat="42.3499260" lon="1.1704350">
<ele>1672.010864</ele>
<time>2024-06-13T11:07:06.001Z</time>
</trkpt>
<trkpt lat="42.3499000" lon="1.1703590">
<ele>1673.169067</ele>
<time>2024-06-13T11:07:10.001Z</time>
</trkpt>
<trkpt lat="42.3498600" lon="1.1702660">
<ele>1674.662598</ele>
<time>2024-06-13T11:07:15.997Z</time>
</trkpt>
<trkpt lat="42.3498460" lon="1.1702540">
<ele>1674.967407</ele>
<time>2024-06-13T11:07:17.000Z</time>
</trkpt>
<trkpt lat="42.3498360" lon="1.1702210">
<ele>1675.394165</ele>
<time>2024-06-13T11:07:19.004Z</time>
</trkpt>
<trkpt lat="42.3497680" lon="1.1700850">
<ele>1677.131470</ele>
<time>2024-06-13T11:07:26.003Z</time>
</trkpt>
<trkpt lat="42.3497530" lon="1.1700670">
<ele>1677.405762</ele>
<time>2024-06-13T11:07:26.996Z</time>
</trkpt>
<trkpt lat="42.3497390" lon="1.1700490">
<ele>1677.680176</ele>
<time>2024-06-13T11:07:27.998Z</time>
</trkpt>
<trkpt lat="42.3497270" lon="1.1700310">
<ele>1678.015381</ele>
<time>2024-06-13T11:07:29.001Z</time>
</trkpt>
<trkpt lat="42.3497190" lon="1.1700110">
<ele>1678.320190</ele>
<time>2024-06-13T11:07:30.003Z</time>
</trkpt>
<trkpt lat="42.3497140" lon="1.1699890">
<ele>1678.777344</ele>
<time>2024-06-13T11:07:30.996Z</time>
</trkpt>
<trkpt lat="42.3497050" lon="1.1699700">
<ele>1679.021362</ele>
<time>2024-06-13T11:07:31.999Z</time>
</trkpt>
<trkpt lat="42.3496970" lon="1.1699510">
<ele>1679.265137</ele>
<time>2024-06-13T11:07:33.001Z</time>
</trkpt>
<trkpt lat="42.3495790" lon="1.1696960">
<ele>1682.374146</ele>
<time>2024-06-13T11:07:48.000Z</time>
</trkpt>
<trkpt lat="42.3494720" lon="1.1695380">
<ele>1685.574463</ele>
<time>2024-06-13T11:07:57.996Z</time>
</trkpt>
<trkpt lat="42.3493870" lon="1.1693590">
<ele>1688.592041</ele>
<time>2024-06-13T11:08:08.002Z</time>
</trkpt>
<trkpt lat="42.3492880" lon="1.1691770">
<ele>1691.761841</ele>
<time>2024-06-13T11:08:17.998Z</time>
</trkpt>
<trkpt lat="42.3491250" lon="1.1689700">
<ele>1695.053833</ele>
<time>2024-06-13T11:08:31.001Z</time>
</trkpt>
<trkpt lat="42.3489730" lon="1.1686410">
<ele>1698.071289</ele>
<time>2024-06-13T11:08:43.996Z</time>
</trkpt>
<trkpt lat="42.3490680" lon="1.1682580">
<ele>1700.631592</ele>
<time>2024-06-13T11:09:03.004Z</time>
</trkpt>
<trkpt lat="42.3490910" lon="1.1679430">
<ele>1703.740601</ele>
<time>2024-06-13T11:09:15.998Z</time>
</trkpt>
<trkpt lat="42.3492200" lon="1.1675760">
<ele>1706.300903</ele>
<time>2024-06-13T11:09:34.998Z</time>
</trkpt>
<trkpt lat="42.3494050" lon="1.1672790">
<ele>1708.586914</ele>
<time>2024-06-13T11:09:53.997Z</time>
</trkpt>
<trkpt lat="42.3495270" lon="1.1671630">
<ele>1709.989014</ele>
<time>2024-06-13T11:10:04.002Z</time>
</trkpt>
<trkpt lat="42.3495610" lon="1.1671330">
<ele>1710.171753</ele>
<time>2024-06-13T11:10:04.996Z</time>
</trkpt>
<trkpt lat="42.3495710" lon="1.1671150">
<ele>1710.354736</ele>
<time>2024-06-13T11:10:05.998Z</time>
</trkpt>
<trkpt lat="42.3495770" lon="1.1670970">
<ele>1710.476563</ele>
<time>2024-06-13T11:10:07.000Z</time>
</trkpt>
<trkpt lat="42.3495820" lon="1.1670780">
<ele>1710.629028</ele>
<time>2024-06-13T11:10:08.003Z</time>
</trkpt>
<trkpt lat="42.3495920" lon="1.1670630">
<ele>1710.750977</ele>
<time>2024-06-13T11:10:08.996Z</time>
</trkpt>
<trkpt lat="42.3496020" lon="1.1670490">
<ele>1710.933838</ele>
<time>2024-06-13T11:10:09.998Z</time>
</trkpt>
<trkpt lat="42.3496110" lon="1.1670340">
<ele>1711.147217</ele>
<time>2024-06-13T11:10:11.001Z</time>
</trkpt>
<trkpt lat="42.3496480" lon="1.1669140">
<ele>1712.488281</ele>
<time>2024-06-13T11:10:16.003Z</time>
</trkpt>
<trkpt lat="42.3496590" lon="1.1668830">
<ele>1712.701660</ele>
<time>2024-06-13T11:10:16.997Z</time>
</trkpt>
<trkpt lat="42.3496690" lon="1.1668510">
<ele>1712.915039</ele>
<time>2024-06-13T11:10:17.999Z</time>
</trkpt>
<trkpt lat="42.3497560" lon="1.1666340">
<ele>1715.018188</ele>
<time>2024-06-13T11:10:27.002Z</time>
</trkpt>
<trkpt lat="42.3497890" lon="1.1665290">
<ele>1715.963013</ele>
<time>2024-06-13T11:10:31.996Z</time>
</trkpt>
<trkpt lat="42.3497990" lon="1.1665040">
<ele>1716.084961</ele>
<time>2024-06-13T11:10:32.998Z</time>
</trkpt>
<trkpt lat="42.3498130" lon="1.1664620">
<ele>1716.389771</ele>
<time>2024-06-13T11:10:35.003Z</time>
</trkpt>
<trkpt lat="42.3498230" lon="1.1664400">
<ele>1716.511719</ele>
<time>2024-06-13T11:10:35.996Z</time>
</trkpt>
<trkpt lat="42.3498520" lon="1.1663960">
<ele>1716.633545</ele>
<time>2024-06-13T11:10:38.001Z</time>
</trkpt>
<trkpt lat="42.3498650" lon="1.1663730">
<ele>1716.724976</ele>
<time>2024-06-13T11:10:39.003Z</time>
</trkpt>
<trkpt lat="42.3498750" lon="1.1663470">
<ele>1716.816528</ele>
<time>2024-06-13T11:10:39.996Z</time>
</trkpt>
<trkpt lat="42.3498790" lon="1.1663170">
<ele>1716.907837</ele>
<time>2024-06-13T11:10:40.999Z</time>
</trkpt>
<trkpt lat="42.3498870" lon="1.1662860">
<ele>1716.968872</ele>
<time>2024-06-13T11:10:42.001Z</time>
</trkpt>
<trkpt lat="42.3499200" lon="1.1662600">
<ele>1717.029785</ele>
<time>2024-06-13T11:10:43.003Z</time>
</trkpt>
<trkpt lat="42.3499470" lon="1.1662380">
<ele>1717.090820</ele>
<time>2024-06-13T11:10:43.997Z</time>
</trkpt>
<trkpt lat="42.3499680" lon="1.1662160">
<ele>1717.182129</ele>
<time>2024-06-13T11:10:44.999Z</time>
</trkpt>
<trkpt lat="42.3499830" lon="1.1661930">
<ele>1717.304199</ele>
<time>2024-06-13T11:10:46.001Z</time>
</trkpt>
<trkpt lat="42.3499980" lon="1.1661730">
<ele>1717.426147</ele>
<time>2024-06-13T11:10:47.004Z</time>
</trkpt>
<trkpt lat="42.3500140" lon="1.1661500">
<ele>1717.609009</ele>
<time>2024-06-13T11:10:47.997Z</time>
</trkpt>
<trkpt lat="42.3500900" lon="1.1660220">
<ele>1718.279541</ele>
<time>2024-06-13T11:10:53.000Z</time>
</trkpt>
<trkpt lat="42.3500940" lon="1.1659870">
<ele>1718.370972</ele>
<time>2024-06-13T11:10:54.002Z</time>
</trkpt>
<trkpt lat="42.3501050" lon="1.1659590">
<ele>1718.492920</ele>
<time>2024-06-13T11:10:55.004Z</time>
</trkpt>
<trkpt lat="42.3501170" lon="1.1659320">
<ele>1718.614746</ele>
<time>2024-06-13T11:10:55.998Z</time>
</trkpt>
<trkpt lat="42.3501290" lon="1.1659080">
<ele>1718.736694</ele>
<time>2024-06-13T11:10:57.000Z</time>
</trkpt>
<trkpt lat="42.3501860" lon="1.1658220">
<ele>1719.133057</ele>
<time>2024-06-13T11:11:02.003Z</time>
</trkpt>
<trkpt lat="42.3502100" lon="1.1657460">
<ele>1719.254883</ele>
<time>2024-06-13T11:11:02.996Z</time>
</trkpt>
<trkpt lat="42.3503250" lon="1.1654140">
<ele>1720.291260</ele>
<time>2024-06-13T11:11:15.999Z</time>
</trkpt>
<trkpt lat="42.3504120" lon="1.1650790">
<ele>1720.900757</ele>
<time>2024-06-13T11:11:26.998Z</time>
</trkpt>
<trkpt lat="42.3504890" lon="1.1648210">
<ele>1722.119995</ele>
<time>2024-06-13T11:11:37.003Z</time>
</trkpt>
<trkpt lat="42.3505170" lon="1.1647460">
<ele>1722.760132</ele>
<time>2024-06-13T11:11:41.004Z</time>
</trkpt>
<trkpt lat="42.3505800" lon="1.1646200">
<ele>1723.583008</ele>
<time>2024-06-13T11:11:47.000Z</time>
</trkpt>
<trkpt lat="42.3506010" lon="1.1645420">
<ele>1723.705078</ele>
<time>2024-06-13T11:11:48.002Z</time>
</trkpt>
<trkpt lat="42.3506100" lon="1.1645240">
<ele>1723.948853</ele>
<time>2024-06-13T11:11:49.004Z</time>
</trkpt>
<trkpt lat="42.3506140" lon="1.1645010">
<ele>1724.162231</ele>
<time>2024-06-13T11:11:49.998Z</time>
</trkpt>
<trkpt lat="42.3506180" lon="1.1644750">
<ele>1724.375488</ele>
<time>2024-06-13T11:11:51.000Z</time>
</trkpt>
<trkpt lat="42.3506220" lon="1.1644480">
<ele>1724.497437</ele>
<time>2024-06-13T11:11:52.002Z</time>
</trkpt>
<trkpt lat="42.3506240" lon="1.1644230">
<ele>1724.680298</ele>
<time>2024-06-13T11:11:52.996Z</time>
</trkpt>
<trkpt lat="42.3506290" lon="1.1644000">
<ele>1724.741333</ele>
<time>2024-06-13T11:11:53.998Z</time>
</trkpt>
<trkpt lat="42.3506760" lon="1.1640870">
<ele>1727.667480</ele>
<time>2024-06-13T11:12:05.999Z</time>
</trkpt>
<trkpt lat="42.3506910" lon="1.1640620">
<ele>1728.094116</ele>
<time>2024-06-13T11:12:07.001Z</time>
</trkpt>
<trkpt lat="42.3506980" lon="1.1640150">
<ele>1728.916992</ele>
<time>2024-06-13T11:12:08.997Z</time>
</trkpt>
<trkpt lat="42.3507010" lon="1.1639930">
<ele>1729.221802</ele>
<time>2024-06-13T11:12:09.999Z</time>
</trkpt>
<trkpt lat="42.3507170" lon="1.1638590">
<ele>1730.684937</ele>
<time>2024-06-13T11:12:15.002Z</time>
</trkpt>
<trkpt lat="42.3507310" lon="1.1638320">
<ele>1730.867798</ele>
<time>2024-06-13T11:12:16.004Z</time>
</trkpt>
<trkpt lat="42.3507370" lon="1.1638060">
<ele>1731.142090</ele>
<time>2024-06-13T11:12:16.998Z</time>
</trkpt>
<trkpt lat="42.3507440" lon="1.1637790">
<ele>1731.568848</ele>
<time>2024-06-13T11:12:18.000Z</time>
</trkpt>
<trkpt lat="42.3507510" lon="1.1637550">
<ele>1732.026001</ele>
<time>2024-06-13T11:12:19.002Z</time>
</trkpt>
<trkpt lat="42.3507620" lon="1.1637330">
<ele>1732.513672</ele>
<time>2024-06-13T11:12:19.996Z</time>
</trkpt>
<trkpt lat="42.3507740" lon="1.1637120">
<ele>1732.879395</ele>
<time>2024-06-13T11:12:20.998Z</time>
</trkpt>
<trkpt lat="42.3507900" lon="1.1636900">
<ele>1733.336548</ele>
<time>2024-06-13T11:12:22.000Z</time>
</trkpt>
<trkpt lat="42.3507990" lon="1.1636640">
<ele>1733.702393</ele>
<time>2024-06-13T11:12:23.003Z</time>
</trkpt>
<trkpt lat="42.3508060" lon="1.1636390">
<ele>1734.098633</ele>
<time>2024-06-13T11:12:23.996Z</time>
</trkpt>
<trkpt lat="42.3508090" lon="1.1636130">
<ele>1734.891113</ele>
<time>2024-06-13T11:12:24.998Z</time>
</trkpt>
<trkpt lat="42.3508050" lon="1.1635920">
<ele>1735.195923</ele>
<time>2024-06-13T11:12:26.001Z</time>
</trkpt>
<trkpt lat="42.3508030" lon="1.1635700">
<ele>1735.531250</ele>
<time>2024-06-13T11:12:27.003Z</time>
</trkpt>
<trkpt lat="42.3508000" lon="1.1635460">
<ele>1735.805542</ele>
<time>2024-06-13T11:12:27.996Z</time>
</trkpt>
<trkpt lat="42.3507950" lon="1.1635220">
<ele>1736.079834</ele>
<time>2024-06-13T11:12:28.999Z</time>
</trkpt>
<trkpt lat="42.3508120" lon="1.1634360">
<ele>1737.055176</ele>
<time>2024-06-13T11:12:32.999Z</time>
</trkpt>
<trkpt lat="42.3508030" lon="1.1633120">
<ele>1738.426758</ele>
<time>2024-06-13T11:12:38.002Z</time>
</trkpt>
<trkpt lat="42.3508000" lon="1.1630500">
<ele>1742.175781</ele>
<time>2024-06-13T11:12:49.000Z</time>
</trkpt>
<trkpt lat="42.3507200" lon="1.1628130">
<ele>1745.559082</ele>
<time>2024-06-13T11:12:58.003Z</time>
</trkpt>
<trkpt lat="42.3505960" lon="1.1626080">
<ele>1748.180420</ele>
<time>2024-06-13T11:13:08.000Z</time>
</trkpt>
<trkpt lat="42.3505320" lon="1.1624610">
<ele>1750.252930</ele>
<time>2024-06-13T11:13:14.998Z</time>
</trkpt>
<trkpt lat="42.3505000" lon="1.1623530">
<ele>1751.258911</ele>
<time>2024-06-13T11:13:20.001Z</time>
</trkpt>
<trkpt lat="42.3503850" lon="1.1619820">
<ele>1754.093506</ele>
<time>2024-06-13T11:13:30.999Z</time>
</trkpt>
<trkpt lat="42.3503110" lon="1.1617230">
<ele>1757.233032</ele>
<time>2024-06-13T11:13:40.996Z</time>
</trkpt>
<trkpt lat="42.3503020" lon="1.1616790">
<ele>1757.812134</ele>
<time>2024-06-13T11:13:43.000Z</time>
</trkpt>
<trkpt lat="42.3502940" lon="1.1616560">
<ele>1758.055908</ele>
<time>2024-06-13T11:13:44.003Z</time>
</trkpt>
<trkpt lat="42.3502810" lon="1.1616320">
<ele>1758.299805</ele>
<time>2024-06-13T11:13:44.996Z</time>
</trkpt>
<trkpt lat="42.3502720" lon="1.1616060">
<ele>1758.482544</ele>
<time>2024-06-13T11:13:45.998Z</time>
</trkpt>
<trkpt lat="42.3502640" lon="1.1615750">
<ele>1758.635010</ele>
<time>2024-06-13T11:13:47.001Z</time>
</trkpt>
<trkpt lat="42.3500830" lon="1.1612700">
<ele>1761.378174</ele>
<time>2024-06-13T11:14:00.004Z</time>
</trkpt>
<trkpt lat="42.3499520" lon="1.1610150">
<ele>1764.761475</ele>
<time>2024-06-13T11:14:11.003Z</time>
</trkpt>
<trkpt lat="42.3499140" lon="1.1609290">
<ele>1765.127319</ele>
<time>2024-06-13T11:14:14.001Z</time>
</trkpt>
<trkpt lat="42.3497510" lon="1.1606520">
<ele>1767.809448</ele>
<time>2024-06-13T11:14:26.002Z</time>
</trkpt>
<trkpt lat="42.3496580" lon="1.1605610">
<ele>1768.571533</ele>
<time>2024-06-13T11:14:30.002Z</time>
</trkpt>
<trkpt lat="42.3495050" lon="1.1603040">
<ele>1769.790649</ele>
<time>2024-06-13T11:14:42.003Z</time>
</trkpt>
<trkpt lat="42.3492310" lon="1.1600940">
<ele>1770.979370</ele>
<time>2024-06-13T11:14:51.999Z</time>
</trkpt>
<trkpt lat="42.3488870" lon="1.1599090">
<ele>1771.863403</ele>
<time>2024-06-13T11:15:05.996Z</time>
</trkpt>
<trkpt lat="42.3486560" lon="1.1597060">
<ele>1773.722534</ele>
<time>2024-06-13T11:15:18.999Z</time>
</trkpt>
<trkpt lat="42.3484470" lon="1.1595070">
<ele>1775.277100</ele>
<time>2024-06-13T11:15:29.998Z</time>
</trkpt>
<trkpt lat="42.3482300" lon="1.1593420">
<ele>1777.959473</ele>
<time>2024-06-13T11:15:43.001Z</time>
</trkpt>
<trkpt lat="42.3481710" lon="1.1592870">
<ele>1778.690918</ele>
<time>2024-06-13T11:15:47.002Z</time>
</trkpt>
<trkpt lat="42.3481510" lon="1.1592700">
<ele>1778.873779</ele>
<time>2024-06-13T11:15:48.004Z</time>
</trkpt>
<trkpt lat="42.3481320" lon="1.1592570">
<ele>1779.148071</ele>
<time>2024-06-13T11:15:48.997Z</time>
</trkpt>
<trkpt lat="42.3481100" lon="1.1592420">
<ele>1779.331055</ele>
<time>2024-06-13T11:15:50.000Z</time>
</trkpt>
<trkpt lat="42.3480890" lon="1.1592280">
<ele>1779.544312</ele>
<time>2024-06-13T11:15:51.002Z</time>
</trkpt>
<trkpt lat="42.3480640" lon="1.1592140">
<ele>1779.727173</ele>
<time>2024-06-13T11:15:52.004Z</time>
</trkpt>
<trkpt lat="42.3480410" lon="1.1591970">
<ele>1780.001465</ele>
<time>2024-06-13T11:15:52.998Z</time>
</trkpt>
<trkpt lat="42.3478730" lon="1.1591210">
<ele>1783.049438</ele>
<time>2024-06-13T11:16:03.996Z</time>
</trkpt>
<trkpt lat="42.3478200" lon="1.1591260">
<ele>1784.604004</ele>
<time>2024-06-13T11:16:07.997Z</time>
</trkpt>
<trkpt lat="42.3476690" lon="1.1591610">
<ele>1787.682495</ele>
<time>2024-06-13T11:16:17.000Z</time>
</trkpt>
<trkpt lat="42.3475150" lon="1.1591730">
<ele>1791.035278</ele>
<time>2024-06-13T11:16:26.996Z</time>
</trkpt>
<trkpt lat="42.3474070" lon="1.1591610">
<ele>1794.296631</ele>
<time>2024-06-13T11:16:34.997Z</time>
</trkpt>
<trkpt lat="42.3472610" lon="1.1591730">
<ele>1797.557983</ele>
<time>2024-06-13T11:16:46.004Z</time>
</trkpt>
<trkpt lat="42.3471420" lon="1.1591940">
<ele>1800.697388</ele>
<time>2024-06-13T11:16:56.001Z</time>
</trkpt>
<trkpt lat="42.3469980" lon="1.1592230">
<ele>1803.745361</ele>
<time>2024-06-13T11:17:06.999Z</time>
</trkpt>
<trkpt lat="42.3468900" lon="1.1591070">
<ele>1805.726563</ele>
<time>2024-06-13T11:17:15.000Z</time>
</trkpt>
<trkpt lat="42.3468740" lon="1.1591040">
<ele>1806.061890</ele>
<time>2024-06-13T11:17:16.002Z</time>
</trkpt>
<trkpt lat="42.3468620" lon="1.1591000">
<ele>1806.366699</ele>
<time>2024-06-13T11:17:16.996Z</time>
</trkpt>
<trkpt lat="42.3468470" lon="1.1590990">
<ele>1806.763062</ele>
<time>2024-06-13T11:17:17.998Z</time>
</trkpt>
<trkpt lat="42.3468320" lon="1.1590930">
<ele>1807.585938</ele>
<time>2024-06-13T11:17:19.000Z</time>
</trkpt>
<trkpt lat="42.3466780" lon="1.1590660">
<ele>1810.816772</ele>
<time>2024-06-13T11:17:28.003Z</time>
</trkpt>
<trkpt lat="42.3465650" lon="1.1589930">
<ele>1813.925781</ele>
<time>2024-06-13T11:17:36.004Z</time>
</trkpt>
<trkpt lat="42.3464190" lon="1.1589550">
<ele>1817.065186</ele>
<time>2024-06-13T11:17:46.000Z</time>
</trkpt>
<trkpt lat="42.3462560" lon="1.1589820">
<ele>1819.564575</ele>
<time>2024-06-13T11:17:58.001Z</time>
</trkpt>
<trkpt lat="42.3462050" lon="1.1588850">
<ele>1819.503540</ele>
<time>2024-06-13T11:19:20.997Z</time>
</trkpt>
<trkpt lat="42.3461290" lon="1.1588610">
<ele>1819.168335</ele>
<time>2024-06-13T11:19:55.004Z</time>
</trkpt>
<trkpt lat="42.3461020" lon="1.1587990">
<ele>1819.168335</ele>
<time>2024-06-13T11:19:57.000Z</time>
</trkpt>
<trkpt lat="42.3460900" lon="1.1588000">
<ele>1819.168335</ele>
<time>2024-06-13T11:19:58.002Z</time>
</trkpt>
<trkpt lat="42.3460780" lon="1.1587970">
<ele>1819.168335</ele>
<time>2024-06-13T11:19:58.996Z</time>
</trkpt>
<trkpt lat="42.3460630" lon="1.1587830">
<ele>1819.137817</ele>
<time>2024-06-13T11:19:59.998Z</time>
</trkpt>
<trkpt lat="42.3460460" lon="1.1587740">
<ele>1819.137817</ele>
<time>2024-06-13T11:20:01.000Z</time>
</trkpt>
<trkpt lat="42.3460310" lon="1.1587680">
<ele>1819.137817</ele>
<time>2024-06-13T11:20:02.003Z</time>
</trkpt>
<trkpt lat="42.3460140" lon="1.1587620">
<ele>1819.137817</ele>
<time>2024-06-13T11:20:02.996Z</time>
</trkpt>
<trkpt lat="42.3459960" lon="1.1587530">
<ele>1819.137817</ele>
<time>2024-06-13T11:20:03.998Z</time>
</trkpt>
<trkpt lat="42.3459740" lon="1.1587430">
<ele>1819.137817</ele>
<time>2024-06-13T11:20:05.001Z</time>
</trkpt>
<trkpt lat="42.3457850" lon="1.1587220">
<ele>1820.387451</ele>
<time>2024-06-13T11:20:17.002Z</time>
</trkpt>
<trkpt lat="42.3456820" lon="1.1586840">
<ele>1821.698242</ele>
<time>2024-06-13T11:20:24.000Z</time>
</trkpt>
<trkpt lat="42.3455680" lon="1.1586440">
<ele>1822.886963</ele>
<time>2024-06-13T11:20:32.001Z</time>
</trkpt>
<trkpt lat="42.3454140" lon="1.1586220">
<ele>1826.056763</ele>
<time>2024-06-13T11:20:42.999Z</time>
</trkpt>
<trkpt lat="42.3453410" lon="1.1585880">
<ele>1826.757813</ele>
<time>2024-06-13T11:20:45.997Z</time>
</trkpt>
<trkpt lat="42.3451250" lon="1.1584780">
<ele>1829.897339</ele>
<time>2024-06-13T11:20:56.003Z</time>
</trkpt>
<trkpt lat="42.3449920" lon="1.1584800">
<ele>1832.975830</ele>
<time>2024-06-13T11:21:04.003Z</time>
</trkpt>
<trkpt lat="42.3448720" lon="1.1584090">
<ele>1836.237061</ele>
<time>2024-06-13T11:21:14.000Z</time>
</trkpt>
<trkpt lat="42.3447120" lon="1.1583810">
<ele>1839.529053</ele>
<time>2024-06-13T11:21:23.003Z</time>
</trkpt>
<trkpt lat="42.3445810" lon="1.1585390">
<ele>1844.009521</ele>
<time>2024-06-13T11:21:35.004Z</time>
</trkpt>
<trkpt lat="42.3442920" lon="1.1585710">
<ele>1850.318970</ele>
<time>2024-06-13T11:21:54.996Z</time>
</trkpt>
<trkpt lat="42.3441650" lon="1.1587490">
<ele>1853.122925</ele>
<time>2024-06-13T11:22:05.002Z</time>
</trkpt>
<trkpt lat="42.3440390" lon="1.1587650">
<ele>1856.689209</ele>
<time>2024-06-13T11:22:17.996Z</time>
</trkpt>
<trkpt lat="42.3437970" lon="1.1589260">
<ele>1858.944702</ele>
<time>2024-06-13T11:22:33.004Z</time>
</trkpt>
<trkpt lat="42.3435310" lon="1.1589360">
<ele>1860.560181</ele>
<time>2024-06-13T11:22:47.001Z</time>
</trkpt>
<trkpt lat="42.3432180" lon="1.1588180">
<ele>1863.181396</ele>
<time>2024-06-13T11:23:03.002Z</time>
</trkpt>
<trkpt lat="42.3429960" lon="1.1583460">
<ele>1863.912964</ele>
<time>2024-06-13T11:23:19.003Z</time>
</trkpt>
<trkpt lat="42.3426360" lon="1.1580140">
<ele>1865.101685</ele>
<time>2024-06-13T11:23:35.998Z</time>
</trkpt>
<trkpt lat="42.3426330" lon="1.1576920">
<ele>1865.589478</ele>
<time>2024-06-13T11:23:47.999Z</time>
</trkpt>
<trkpt lat="42.3426400" lon="1.1573970">
<ele>1866.961060</ele>
<time>2024-06-13T11:24:01.002Z</time>
</trkpt>
<trkpt lat="42.3424930" lon="1.1572160">
<ele>1869.155518</ele>
<time>2024-06-13T11:24:12.001Z</time>
</trkpt>
<trkpt lat="42.3424250" lon="1.1571570">
<ele>1870.161377</ele>
<time>2024-06-13T11:24:17.004Z</time>
</trkpt>
<trkpt lat="42.3424110" lon="1.1571500">
<ele>1870.252808</ele>
<time>2024-06-13T11:24:17.997Z</time>
</trkpt>
<trkpt lat="42.3423360" lon="1.1571020">
<ele>1870.892944</ele>
<time>2024-06-13T11:24:24.002Z</time>
</trkpt>
<trkpt lat="42.3423170" lon="1.1570930">
<ele>1870.984253</ele>
<time>2024-06-13T11:24:25.004Z</time>
</trkpt>
<trkpt lat="42.3422770" lon="1.1570750">
<ele>1871.045288</ele>
<time>2024-06-13T11:24:25.998Z</time>
</trkpt>
<trkpt lat="42.3422500" lon="1.1570530">
<ele>1871.075806</ele>
<time>2024-06-13T11:24:27.000Z</time>
</trkpt>
<trkpt lat="42.3422290" lon="1.1570450">
<ele>1871.136719</ele>
<time>2024-06-13T11:24:28.002Z</time>
</trkpt>
<trkpt lat="42.3422020" lon="1.1570330">
<ele>1871.350098</ele>
<time>2024-06-13T11:24:28.996Z</time>
</trkpt>
<trkpt lat="42.3421780" lon="1.1570260">
<ele>1871.472046</ele>
<time>2024-06-13T11:24:29.998Z</time>
</trkpt>
<trkpt lat="42.3421540" lon="1.1570270">
<ele>1871.563354</ele>
<time>2024-06-13T11:24:31.000Z</time>
</trkpt>
<trkpt lat="42.3421330" lon="1.1570280">
<ele>1871.624390</ele>
<time>2024-06-13T11:24:32.003Z</time>
</trkpt>
<trkpt lat="42.3419450" lon="1.1569940">
<ele>1873.514160</ele>
<time>2024-06-13T11:24:41.999Z</time>
</trkpt>
<trkpt lat="42.3416730" lon="1.1568750">
<ele>1875.099121</ele>
<time>2024-06-13T11:24:52.998Z</time>
</trkpt>
<trkpt lat="42.3414580" lon="1.1567940">
<ele>1877.171875</ele>
<time>2024-06-13T11:25:03.003Z</time>
</trkpt>
<trkpt lat="42.3412370" lon="1.1566910">
<ele>1879.031006</ele>
<time>2024-06-13T11:25:14.002Z</time>
</trkpt>
<trkpt lat="42.3411130" lon="1.1566410">
<ele>1879.915039</ele>
<time>2024-06-13T11:25:19.998Z</time>
</trkpt>
<trkpt lat="42.3410890" lon="1.1566200">
<ele>1880.067383</ele>
<time>2024-06-13T11:25:22.002Z</time>
</trkpt>
<trkpt lat="42.3409710" lon="1.1564860">
<ele>1883.115479</ele>
<time>2024-06-13T11:25:30.996Z</time>
</trkpt>
<trkpt lat="42.3408310" lon="1.1564020">
<ele>1885.980469</ele>
<time>2024-06-13T11:25:41.002Z</time>
</trkpt>
<trkpt lat="42.3408130" lon="1.1563830">
<ele>1886.315796</ele>
<time>2024-06-13T11:25:42.004Z</time>
</trkpt>
<trkpt lat="42.3407950" lon="1.1563680">
<ele>1886.681519</ele>
<time>2024-06-13T11:25:42.997Z</time>
</trkpt>
<trkpt lat="42.3407800" lon="1.1563580">
<ele>1886.955811</ele>
<time>2024-06-13T11:25:44.000Z</time>
</trkpt>
<trkpt lat="42.3407650" lon="1.1563470">
<ele>1887.169189</ele>
<time>2024-06-13T11:25:45.002Z</time>
</trkpt>
<trkpt lat="42.3407490" lon="1.1563370">
<ele>1887.352051</ele>
<time>2024-06-13T11:25:46.004Z</time>
</trkpt>
<trkpt lat="42.3407340" lon="1.1563240">
<ele>1887.535034</ele>
<time>2024-06-13T11:25:46.998Z</time>
</trkpt>
<trkpt lat="42.3405680" lon="1.1561650">
<ele>1890.247681</ele>
<time>2024-06-13T11:25:57.003Z</time>
</trkpt>
<trkpt lat="42.3403270" lon="1.1559780">
<ele>1893.021362</ele>
<time>2024-06-13T11:26:09.997Z</time>
</trkpt>
<trkpt lat="42.3400890" lon="1.1557840">
<ele>1895.368286</ele>
<time>2024-06-13T11:26:23.001Z</time>
</trkpt>
<trkpt lat="42.3397980" lon="1.1557610">
<ele>1896.709351</ele>
<time>2024-06-13T11:26:38.000Z</time>
</trkpt>
<trkpt lat="42.3393980" lon="1.1558480">
<ele>1897.593384</ele>
<time>2024-06-13T11:26:56.999Z</time>
</trkpt>
<trkpt lat="42.3390580" lon="1.1558900">
<ele>1898.782104</ele>
<time>2024-06-13T11:27:13.000Z</time>
</trkpt>
<trkpt lat="42.3387800" lon="1.1558550">
<ele>1898.721069</ele>
<time>2024-06-13T11:27:25.001Z</time>
</trkpt>
<trkpt lat="42.3382340" lon="1.1556370">
<ele>1896.465576</ele>
<time>2024-06-13T11:27:41.996Z</time>
</trkpt>
<trkpt lat="42.3380170" lon="1.1555390">
<ele>1895.459839</ele>
<time>2024-06-13T11:27:48.001Z</time>
</trkpt>
<trkpt lat="42.3379760" lon="1.1555250">
<ele>1895.398804</ele>
<time>2024-06-13T11:27:49.003Z</time>
</trkpt>
<trkpt lat="42.3379320" lon="1.1555160">
<ele>1895.368286</ele>
<time>2024-06-13T11:27:49.997Z</time>
</trkpt>
<trkpt lat="42.3377520" lon="1.1554960">
<ele>1894.606323</ele>
<time>2024-06-13T11:27:53.997Z</time>
</trkpt>
<trkpt lat="42.3375870" lon="1.1554400">
<ele>1893.173828</ele>
<time>2024-06-13T11:27:57.997Z</time>
</trkpt>
<trkpt lat="42.3375450" lon="1.1554160">
<ele>1892.807983</ele>
<time>2024-06-13T11:27:59.000Z</time>
</trkpt>
<trkpt lat="42.3374240" lon="1.1553310">
<ele>1891.863037</ele>
<time>2024-06-13T11:28:01.998Z</time>
</trkpt>
<trkpt lat="42.3373850" lon="1.1553080">
<ele>1891.497437</ele>
<time>2024-06-13T11:28:03.000Z</time>
</trkpt>
<trkpt lat="42.3373450" lon="1.1552910">
<ele>1891.253540</ele>
<time>2024-06-13T11:28:04.002Z</time>
</trkpt>
<trkpt lat="42.3367160" lon="1.1551280">
<ele>1887.992188</ele>
<time>2024-06-13T11:28:19.001Z</time>
</trkpt>
<trkpt lat="42.3365380" lon="1.1549390">
<ele>1887.626343</ele>
<time>2024-06-13T11:28:20.997Z</time>
</trkpt>
<trkpt lat="42.3364930" lon="1.1548950">
<ele>1887.473999</ele>
<time>2024-06-13T11:28:21.999Z</time>
</trkpt>
<trkpt lat="42.3362180" lon="1.1546280">
<ele>1884.273560</ele>
<time>2024-06-13T11:28:28.998Z</time>
</trkpt>
<trkpt lat="42.3360000" lon="1.1545160">
<ele>1883.176270</ele>
<time>2024-06-13T11:28:35.003Z</time>
</trkpt>
<trkpt lat="42.3357340" lon="1.1543180">
<ele>1880.341675</ele>
<time>2024-06-13T11:28:42.001Z</time>
</trkpt>
<trkpt lat="42.3356230" lon="1.1543070">
<ele>1879.244385</ele>
<time>2024-06-13T11:28:43.997Z</time>
</trkpt>
<trkpt lat="42.3355160" lon="1.1542370">
<ele>1876.836548</ele>
<time>2024-06-13T11:28:47.004Z</time>
</trkpt>
<trkpt lat="42.3353640" lon="1.1540980">
<ele>1874.885864</ele>
<time>2024-06-13T11:28:51.004Z</time>
</trkpt>
<trkpt lat="42.3349830" lon="1.1538990">
<ele>1871.624390</ele>
<time>2024-06-13T11:28:58.002Z</time>
</trkpt>
<trkpt lat="42.3347570" lon="1.1538240">
<ele>1869.826050</ele>
<time>2024-06-13T11:29:02.003Z</time>
</trkpt>
<trkpt lat="42.3346710" lon="1.1537470">
<ele>1869.003052</ele>
<time>2024-06-13T11:29:03.998Z</time>
</trkpt>
<trkpt lat="42.3346290" lon="1.1537450">
<ele>1868.789795</ele>
<time>2024-06-13T11:29:05.001Z</time>
</trkpt>
<trkpt lat="42.3345860" lon="1.1537500">
<ele>1868.637451</ele>
<time>2024-06-13T11:29:06.003Z</time>
</trkpt>
<trkpt lat="42.3342470" lon="1.1538560">
<ele>1867.357178</ele>
<time>2024-06-13T11:29:18.004Z</time>
</trkpt>
<trkpt lat="42.3342550" lon="1.1538610">
<ele>1866.198975</ele>
<time>2024-06-13T11:29:41.997Z</time>
</trkpt>
<trkpt lat="42.3342410" lon="1.1538740">
<ele>1866.198975</ele>
<time>2024-06-13T11:29:42.999Z</time>
</trkpt>
<trkpt lat="42.3342220" lon="1.1538900">
<ele>1866.198975</ele>
<time>2024-06-13T11:29:44.002Z</time>
</trkpt>
<trkpt lat="42.3341050" lon="1.1539860">
<ele>1865.437012</ele>
<time>2024-06-13T11:29:53.998Z</time>
</trkpt>
<trkpt lat="42.3340550" lon="1.1540340">
<ele>1863.912964</ele>
<time>2024-06-13T11:29:57.998Z</time>
</trkpt>
<trkpt lat="42.3340420" lon="1.1540510">
<ele>1863.760620</ele>
<time>2024-06-13T11:29:59.001Z</time>
</trkpt>
<trkpt lat="42.3340270" lon="1.1540650">
<ele>1863.669067</ele>
<time>2024-06-13T11:30:00.003Z</time>
</trkpt>
<trkpt lat="42.3340130" lon="1.1540750">
<ele>1863.577759</ele>
<time>2024-06-13T11:30:00.996Z</time>
</trkpt>
<trkpt lat="42.3339980" lon="1.1540850">
<ele>1863.516724</ele>
<time>2024-06-13T11:30:01.999Z</time>
</trkpt>
<trkpt lat="42.3337630" lon="1.1542890">
<ele>1860.438232</ele>
<time>2024-06-13T11:30:14.000Z</time>
</trkpt>
<trkpt lat="42.3336060" lon="1.1544260">
<ele>1857.146362</ele>
<time>2024-06-13T11:30:22.000Z</time>
</trkpt>
<trkpt lat="42.3334780" lon="1.1544300">
<ele>1854.128906</ele>
<time>2024-06-13T11:30:27.996Z</time>
</trkpt>
<trkpt lat="42.3333790" lon="1.1545000">
<ele>1852.025879</ele>
<time>2024-06-13T11:30:32.999Z</time>
</trkpt>
<trkpt lat="42.3332060" lon="1.1546470">
<ele>1848.977783</ele>
<time>2024-06-13T11:30:41.000Z</time>
</trkpt>
<trkpt lat="42.3330620" lon="1.1547340">
<ele>1845.198120</ele>
<time>2024-06-13T11:30:46.996Z</time>
</trkpt>
<trkpt lat="42.3328780" lon="1.1548000">
<ele>1841.692993</ele>
<time>2024-06-13T11:30:54.003Z</time>
</trkpt>
<trkpt lat="42.3326950" lon="1.1548750">
<ele>1838.248779</ele>
<time>2024-06-13T11:30:59.999Z</time>
</trkpt>
<trkpt lat="42.3325510" lon="1.1548920">
<ele>1835.078857</ele>
<time>2024-06-13T11:31:05.002Z</time>
</trkpt>
<trkpt lat="42.3324360" lon="1.1548930">
<ele>1831.726074</ele>
<time>2024-06-13T11:31:10.004Z</time>
</trkpt>
<trkpt lat="42.3322930" lon="1.1549350">
<ele>1828.678101</ele>
<time>2024-06-13T11:31:14.998Z</time>
</trkpt>
<trkpt lat="42.3321140" lon="1.1549710">
<ele>1825.569092</ele>
<time>2024-06-13T11:31:21.003Z</time>
</trkpt>
<trkpt lat="42.3318940" lon="1.1549310">
<ele>1822.307861</ele>
<time>2024-06-13T11:31:26.999Z</time>
</trkpt>
<trkpt lat="42.3315870" lon="1.1549720">
<ele>1819.198853</ele>
<time>2024-06-13T11:31:33.004Z</time>
</trkpt>
<trkpt lat="42.3313750" lon="1.1549950">
<ele>1815.906982</ele>
<time>2024-06-13T11:31:37.004Z</time>
</trkpt>
<trkpt lat="42.3311880" lon="1.1550010">
<ele>1812.767456</ele>
<time>2024-06-13T11:31:40.996Z</time>
</trkpt>
<trkpt lat="42.3311430" lon="1.1549880">
<ele>1811.974976</ele>
<time>2024-06-13T11:31:41.998Z</time>
</trkpt>
<trkpt lat="42.3310970" lon="1.1549620">
<ele>1811.243530</ele>
<time>2024-06-13T11:31:43.000Z</time>
</trkpt>
<trkpt lat="42.3310510" lon="1.1549250">
<ele>1810.511963</ele>
<time>2024-06-13T11:31:44.003Z</time>
</trkpt>
<trkpt lat="42.3310050" lon="1.1548840">
<ele>1810.054810</ele>
<time>2024-06-13T11:31:44.996Z</time>
</trkpt>
<trkpt lat="42.3309590" lon="1.1548520">
<ele>1809.506226</ele>
<time>2024-06-13T11:31:45.998Z</time>
</trkpt>
<trkpt lat="42.3309130" lon="1.1548300">
<ele>1809.049072</ele>
<time>2024-06-13T11:31:47.001Z</time>
</trkpt>
<trkpt lat="42.3308680" lon="1.1548180">
<ele>1808.591797</ele>
<time>2024-06-13T11:31:48.003Z</time>
</trkpt>
<trkpt lat="42.3306480" lon="1.1547170">
<ele>1805.513306</ele>
<time>2024-06-13T11:31:53.999Z</time>
</trkpt>
<trkpt lat="42.3305560" lon="1.1546140">
<ele>1804.050171</ele>
<time>2024-06-13T11:31:56.997Z</time>
</trkpt>
<trkpt lat="42.3305170" lon="1.1545890">
<ele>1803.532104</ele>
<time>2024-06-13T11:31:57.999Z</time>
</trkpt>
<trkpt lat="42.3304740" lon="1.1545770">
<ele>1803.074951</ele>
<time>2024-06-13T11:31:59.002Z</time>
</trkpt>
<trkpt lat="42.3304290" lon="1.1545820">
<ele>1801.855713</ele>
<time>2024-06-13T11:32:00.004Z</time>
</trkpt>
<trkpt lat="42.3303850" lon="1.1545970">
<ele>1801.215576</ele>
<time>2024-06-13T11:32:00.997Z</time>
</trkpt>
<trkpt lat="42.3303420" lon="1.1546150">
<ele>1800.758423</ele>
<time>2024-06-13T11:32:02.000Z</time>
</trkpt>
<trkpt lat="42.3300650" lon="1.1547140">
<ele>1797.131348</ele>
<time>2024-06-13T11:32:07.996Z</time>
</trkpt>
<trkpt lat="42.3299260" lon="1.1547790">
<ele>1795.881592</ele>
<time>2024-06-13T11:32:11.003Z</time>
</trkpt>
<trkpt lat="42.3292650" lon="1.1551450">
<ele>1794.266235</ele>
<time>2024-06-13T11:32:29.000Z</time>
</trkpt>
<trkpt lat="42.3289980" lon="1.1552440">
<ele>1793.534546</ele>
<time>2024-06-13T11:32:42.996Z</time>
</trkpt>
<trkpt lat="42.3289620" lon="1.1552300">
<ele>1793.534546</ele>
<time>2024-06-13T11:32:58.004Z</time>
</trkpt>
<trkpt lat="42.3289530" lon="1.1552200">
<ele>1793.534546</ele>
<time>2024-06-13T11:34:11.004Z</time>
</trkpt>
<trkpt lat="42.3289220" lon="1.1552240">
<ele>1793.595581</ele>
<time>2024-06-13T11:34:21.000Z</time>
</trkpt>
<trkpt lat="42.3287780" lon="1.1552920">
<ele>1793.869873</ele>
<time>2024-06-13T11:34:30.996Z</time>
</trkpt>
<trkpt lat="42.3285130" lon="1.1555070">
<ele>1796.796021</ele>
<time>2024-06-13T11:34:48.000Z</time>
</trkpt>
<trkpt lat="42.3283000" lon="1.1556410">
<ele>1800.026855</ele>
<time>2024-06-13T11:35:01.997Z</time>
</trkpt>
<trkpt lat="42.3281190" lon="1.1557350">
<ele>1803.074951</ele>
<time>2024-06-13T11:35:13.004Z</time>
</trkpt>
<trkpt lat="42.3279150" lon="1.1558330">
<ele>1806.214233</ele>
<time>2024-06-13T11:35:24.996Z</time>
</trkpt>
<trkpt lat="42.3277550" lon="1.1558430">
<ele>1809.262329</ele>
<time>2024-06-13T11:35:33.999Z</time>
</trkpt>
<trkpt lat="42.3276510" lon="1.1559640">
<ele>1812.676147</ele>
<time>2024-06-13T11:35:42.000Z</time>
</trkpt>
<trkpt lat="42.3275670" lon="1.1561290">
<ele>1815.693604</ele>
<time>2024-06-13T11:35:51.003Z</time>
</trkpt>
<trkpt lat="42.3273780" lon="1.1561980">
<ele>1818.802612</ele>
<time>2024-06-13T11:36:02.002Z</time>
</trkpt>
<trkpt lat="42.3272060" lon="1.1561870">
<ele>1821.911499</ele>
<time>2024-06-13T11:36:10.996Z</time>
</trkpt>
<trkpt lat="42.3271710" lon="1.1561730">
<ele>1825.294800</ele>
<time>2024-06-13T11:36:18.996Z</time>
</trkpt>
<trkpt lat="42.3271070" lon="1.1561830">
<ele>1828.373291</ele>
<time>2024-06-13T11:36:41.003Z</time>
</trkpt>
<trkpt lat="42.3270200" lon="1.1562340">
<ele>1830.933594</ele>
<time>2024-06-13T11:37:04.002Z</time>
</trkpt>
<trkpt lat="42.3269570" lon="1.1563000">
<ele>1832.548950</ele>
<time>2024-06-13T11:37:20.004Z</time>
</trkpt>
<trkpt lat="42.3269230" lon="1.1563370">
<ele>1833.768188</ele>
<time>2024-06-13T11:37:39.996Z</time>
</trkpt>
<trkpt lat="42.3269150" lon="1.1563520">
<ele>1833.798706</ele>
<time>2024-06-13T11:37:43.997Z</time>
</trkpt>
<trkpt lat="42.3268930" lon="1.1563820">
<ele>1833.798706</ele>
<time>2024-06-13T11:37:46.001Z</time>
</trkpt>
<trkpt lat="42.3268810" lon="1.1563960">
<ele>1833.859741</ele>
<time>2024-06-13T11:37:47.004Z</time>
</trkpt>
<trkpt lat="42.3266170" lon="1.1563950">
<ele>1835.353149</ele>
<time>2024-06-13T11:38:02.003Z</time>
</trkpt>
<trkpt lat="42.3264810" lon="1.1563170">
<ele>1837.578125</ele>
<time>2024-06-13T11:38:09.001Z</time>
</trkpt>
<trkpt lat="42.3264620" lon="1.1563220">
<ele>1837.730591</ele>
<time>2024-06-13T11:38:10.003Z</time>
</trkpt>
<trkpt lat="42.3264450" lon="1.1563380">
<ele>1837.974487</ele>
<time>2024-06-13T11:38:10.997Z</time>
</trkpt>
<trkpt lat="42.3264310" lon="1.1563600">
<ele>1838.401245</ele>
<time>2024-06-13T11:38:11.999Z</time>
</trkpt>
<trkpt lat="42.3264240" lon="1.1563860">
<ele>1838.888916</ele>
<time>2024-06-13T11:38:13.001Z</time>
</trkpt>
<trkpt lat="42.3264260" lon="1.1564160">
<ele>1839.346069</ele>
<time>2024-06-13T11:38:14.004Z</time>
</trkpt>
<trkpt lat="42.3264280" lon="1.1564440">
<ele>1839.833862</ele>
<time>2024-06-13T11:38:14.997Z</time>
</trkpt>
<trkpt lat="42.3264320" lon="1.1564730">
<ele>1840.351929</ele>
<time>2024-06-13T11:38:15.999Z</time>
</trkpt>
<trkpt lat="42.3264370" lon="1.1565020">
<ele>1840.900635</ele>
<time>2024-06-13T11:38:17.002Z</time>
</trkpt>
<trkpt lat="42.3264230" lon="1.1567000">
<ele>1843.918091</ele>
<time>2024-06-13T11:38:24.000Z</time>
</trkpt>
<trkpt lat="42.3263740" lon="1.1569530">
<ele>1847.026978</ele>
<time>2024-06-13T11:38:33.003Z</time>
</trkpt>
<trkpt lat="42.3263040" lon="1.1572270">
<ele>1850.227417</ele>
<time>2024-06-13T11:38:42.999Z</time>
</trkpt>
<trkpt lat="42.3261800" lon="1.1575160">
<ele>1853.488770</ele>
<time>2024-06-13T11:38:55.000Z</time>
</trkpt>
<trkpt lat="42.3260890" lon="1.1577150">
<ele>1856.719727</ele>
<time>2024-06-13T11:39:03.001Z</time>
</trkpt>
<trkpt lat="42.3260030" lon="1.1578980">
<ele>1859.767700</ele>
<time>2024-06-13T11:39:11.002Z</time>
</trkpt>
<trkpt lat="42.3259460" lon="1.1580960">
<ele>1862.968140</ele>
<time>2024-06-13T11:39:19.002Z</time>
</trkpt>
<trkpt lat="42.3258990" lon="1.1583270">
<ele>1864.431030</ele>
<time>2024-06-13T11:39:27.996Z</time>
</trkpt>
<trkpt lat="42.3259030" lon="1.1583640">
<ele>1864.461548</ele>
<time>2024-06-13T11:39:28.999Z</time>
</trkpt>
<trkpt lat="42.3259050" lon="1.1584040">
<ele>1864.583496</ele>
<time>2024-06-13T11:39:30.001Z</time>
</trkpt>
<trkpt lat="42.3259000" lon="1.1584400">
<ele>1864.644531</ele>
<time>2024-06-13T11:39:31.003Z</time>
</trkpt>
<trkpt lat="42.3258920" lon="1.1584740">
<ele>1864.705322</ele>
<time>2024-06-13T11:39:31.997Z</time>
</trkpt>
<trkpt lat="42.3258800" lon="1.1585010">
<ele>1864.857788</ele>
<time>2024-06-13T11:39:32.999Z</time>
</trkpt>
<trkpt lat="42.3258690" lon="1.1585260">
<ele>1865.040649</ele>
<time>2024-06-13T11:39:34.001Z</time>
</trkpt>
<trkpt lat="42.3258570" lon="1.1585470">
<ele>1865.254150</ele>
<time>2024-06-13T11:39:35.004Z</time>
</trkpt>
<trkpt lat="42.3257740" lon="1.1586850">
<ele>1868.302124</ele>
<time>2024-06-13T11:39:43.004Z</time>
</trkpt>
<trkpt lat="42.3257690" lon="1.1587070">
<ele>1868.302124</ele>
<time>2024-06-13T11:39:43.998Z</time>
</trkpt>
<trkpt lat="42.3257090" lon="1.1588240">
<ele>1872.416870</ele>
<time>2024-06-13T11:40:52.997Z</time>
</trkpt>
<trkpt lat="42.3257440" lon="1.1590860">
<ele>1872.721680</ele>
<time>2024-06-13T11:41:54.004Z</time>
</trkpt>
<trkpt lat="42.3258470" lon="1.1593870">
<ele>1875.922119</ele>
<time>2024-06-13T11:42:06.998Z</time>
</trkpt>
<trkpt lat="42.3257720" lon="1.1597570">
<ele>1878.299438</ele>
<time>2024-06-13T11:42:24.002Z</time>
</trkpt>
<trkpt lat="42.3255780" lon="1.1604130">
<ele>1879.092041</ele>
<time>2024-06-13T11:42:48.004Z</time>
</trkpt>
<trkpt lat="42.3253720" lon="1.1607610">
<ele>1881.347534</ele>
<time>2024-06-13T11:43:03.003Z</time>
</trkpt>
<trkpt lat="42.3252500" lon="1.1612650">
<ele>1884.364990</ele>
<time>2024-06-13T11:43:19.998Z</time>
</trkpt>
<trkpt lat="42.3251300" lon="1.1619730">
<ele>1885.645142</ele>
<time>2024-06-13T11:43:39.999Z</time>
</trkpt>
<trkpt lat="42.3250960" lon="1.1625860">
<ele>1888.754272</ele>
<time>2024-06-13T11:43:57.996Z</time>
</trkpt>
<trkpt lat="42.3250930" lon="1.1629490">
<ele>1891.741211</ele>
<time>2024-06-13T11:44:08.002Z</time>
</trkpt>
<trkpt lat="42.3250570" lon="1.1633770">
<ele>1894.850220</ele>
<time>2024-06-13T11:44:20.003Z</time>
</trkpt>
<trkpt lat="42.3250690" lon="1.1636970">
<ele>1898.050659</ele>
<time>2024-06-13T11:44:31.001Z</time>
</trkpt>
<trkpt lat="42.3250640" lon="1.1637510">
<ele>1900.885254</ele>
<time>2024-06-13T11:46:08.996Z</time>
</trkpt>
<trkpt lat="42.3249740" lon="1.1642390">
<ele>1903.232178</ele>
<time>2024-06-13T11:46:27.002Z</time>
</trkpt>
<trkpt lat="42.3248620" lon="1.1645770">
<ele>1906.249756</ele>
<time>2024-06-13T11:46:39.996Z</time>
</trkpt>
<trkpt lat="42.3246180" lon="1.1650350">
<ele>1908.109009</ele>
<time>2024-06-13T11:46:58.002Z</time>
</trkpt>
<trkpt lat="42.3244750" lon="1.1654980">
<ele>1911.400757</ele>
<time>2024-06-13T11:47:14.004Z</time>
</trkpt>
<trkpt lat="42.3243040" lon="1.1658460">
<ele>1914.570679</ele>
<time>2024-06-13T11:47:28.000Z</time>
</trkpt>
<trkpt lat="42.3241400" lon="1.1662210">
<ele>1917.649170</ele>
<time>2024-06-13T11:47:44.002Z</time>
</trkpt>
<trkpt lat="42.3238230" lon="1.1665970">
<ele>1917.923462</ele>
<time>2024-06-13T11:48:04.003Z</time>
</trkpt>
<trkpt lat="42.3235870" lon="1.1666130">
<ele>1917.496826</ele>
<time>2024-06-13T11:48:20.998Z</time>
</trkpt>
<trkpt lat="42.3233690" lon="1.1669130">
<ele>1916.338623</ele>
<time>2024-06-13T11:48:34.001Z</time>
</trkpt>
<trkpt lat="42.3231960" lon="1.1675050">
<ele>1913.930542</ele>
<time>2024-06-13T11:48:50.996Z</time>
</trkpt>
<trkpt lat="42.3230470" lon="1.1680950">
<ele>1910.913086</ele>
<time>2024-06-13T11:49:05.002Z</time>
</trkpt>
<trkpt lat="42.3229290" lon="1.1685810">
<ele>1909.145264</ele>
<time>2024-06-13T11:49:18.998Z</time>
</trkpt>
<trkpt lat="42.3229300" lon="1.1686200">
<ele>1908.992920</ele>
<time>2024-06-13T11:49:24.001Z</time>
</trkpt>
<trkpt lat="42.3229170" lon="1.1687540">
<ele>1909.693848</ele>
<time>2024-06-13T11:52:56.001Z</time>
</trkpt>
<trkpt lat="42.3229080" lon="1.1687700">
<ele>1909.693848</ele>
<time>2024-06-13T11:52:57.003Z</time>
</trkpt>
<trkpt lat="42.3229020" lon="1.1687880">
<ele>1909.724365</ele>
<time>2024-06-13T11:52:57.996Z</time>
</trkpt>
<trkpt lat="42.3228950" lon="1.1688070">
<ele>1909.724365</ele>
<time>2024-06-13T11:52:58.999Z</time>
</trkpt>
<trkpt lat="42.3227590" lon="1.1692820">
<ele>1913.138184</ele>
<time>2024-06-13T11:53:20.996Z</time>
</trkpt>
<trkpt lat="42.3227070" lon="1.1696400">
<ele>1916.643433</ele>
<time>2024-06-13T11:53:36.004Z</time>
</trkpt>
<trkpt lat="42.3226620" lon="1.1699360">
<ele>1919.874146</ele>
<time>2024-06-13T11:53:47.996Z</time>
</trkpt>
<trkpt lat="42.3226060" lon="1.1701100">
<ele>1921.672607</ele>
<time>2024-06-13T11:54:03.004Z</time>
</trkpt>
<trkpt lat="42.3226130" lon="1.1701090">
<ele>1923.928101</ele>
<time>2024-06-13T11:57:05.999Z</time>
</trkpt>
<trkpt lat="42.3226060" lon="1.1701240">
<ele>1923.653809</ele>
<time>2024-06-13T11:58:09.002Z</time>
</trkpt>
<trkpt lat="42.3225020" lon="1.1703640">
<ele>1923.653809</ele>
<time>2024-06-13T11:58:25.003Z</time>
</trkpt>
<trkpt lat="42.3223260" lon="1.1707640">
<ele>1920.636230</ele>
<time>2024-06-13T11:58:40.996Z</time>
</trkpt>
<trkpt lat="42.3222930" lon="1.1708200">
<ele>1919.965698</ele>
<time>2024-06-13T11:58:43.000Z</time>
</trkpt>
<trkpt lat="42.3220520" lon="1.1710860">
<ele>1916.917725</ele>
<time>2024-06-13T11:58:55.001Z</time>
</trkpt>
<trkpt lat="42.3218200" lon="1.1714470">
<ele>1913.839233</ele>
<time>2024-06-13T11:59:07.002Z</time>
</trkpt>
<trkpt lat="42.3216840" lon="1.1717560">
<ele>1910.730225</ele>
<time>2024-06-13T11:59:15.996Z</time>
</trkpt>
<trkpt lat="42.3214780" lon="1.1723260">
<ele>1914.113525</ele>
<time>2024-06-13T11:59:39.998Z</time>
</trkpt>
<trkpt lat="42.3214240" lon="1.1725710">
<ele>1917.283325</ele>
<time>2024-06-13T11:59:50.004Z</time>
</trkpt>
<trkpt lat="42.3213700" lon="1.1729590">
<ele>1920.544800</ele>
<time>2024-06-13T12:00:05.996Z</time>
</trkpt>
<trkpt lat="42.3212920" lon="1.1732850">
<ele>1923.653809</ele>
<time>2024-06-13T12:00:21.004Z</time>
</trkpt>
<trkpt lat="42.3212990" lon="1.1735160">
<ele>1927.341797</ele>
<time>2024-06-13T12:00:31.000Z</time>
</trkpt>
<trkpt lat="42.3213010" lon="1.1735400">
<ele>1927.585693</ele>
<time>2024-06-13T12:00:32.003Z</time>
</trkpt>
<trkpt lat="42.3213300" lon="1.1738210">
<ele>1930.786133</ele>
<time>2024-06-13T12:00:44.004Z</time>
</trkpt>
<trkpt lat="42.3213490" lon="1.1740990">
<ele>1933.864624</ele>
<time>2024-06-13T12:00:56.998Z</time>
</trkpt>
<trkpt lat="42.3213140" lon="1.1743800">
<ele>1936.942993</ele>
<time>2024-06-13T12:01:10.001Z</time>
</trkpt>
<trkpt lat="42.3213050" lon="1.1746700">
<ele>1940.234863</ele>
<time>2024-06-13T12:01:22.996Z</time>
</trkpt>
<trkpt lat="42.3213080" lon="1.1749080">
<ele>1943.587769</ele>
<time>2024-06-13T12:01:33.001Z</time>
</trkpt>
<trkpt lat="42.3213270" lon="1.1751070">
<ele>1946.727051</ele>
<time>2024-06-13T12:01:41.002Z</time>
</trkpt>
<trkpt lat="42.3212920" lon="1.1753960">
<ele>1949.836060</ele>
<time>2024-06-13T12:01:53.003Z</time>
</trkpt>
<trkpt lat="42.3211950" lon="1.1755910">
<ele>1952.975464</ele>
<time>2024-06-13T12:02:02.999Z</time>
</trkpt>
<trkpt lat="42.3210820" lon="1.1757700">
<ele>1956.053955</ele>
<time>2024-06-13T12:02:11.000Z</time>
</trkpt>
<trkpt lat="42.3211300" lon="1.1757910">
<ele>1958.370483</ele>
<time>2024-06-13T12:15:05.999Z</time>
</trkpt>
<trkpt lat="42.3212290" lon="1.1756800">
<ele>1958.401001</ele>
<time>2024-06-13T12:15:23.996Z</time>
</trkpt>
<trkpt lat="42.3212450" lon="1.1756900">
<ele>1957.852295</ele>
<time>2024-06-13T12:15:39.997Z</time>
</trkpt>
<trkpt lat="42.3212800" lon="1.1759790">
<ele>1956.877075</ele>
<time>2024-06-13T12:15:54.996Z</time>
</trkpt>
<trkpt lat="42.3211850" lon="1.1764820">
<ele>1955.261475</ele>
<time>2024-06-13T12:16:13.996Z</time>
</trkpt>
<trkpt lat="42.3211360" lon="1.1768320">
<ele>1954.865356</ele>
<time>2024-06-13T12:16:32.002Z</time>
</trkpt>
<trkpt lat="42.3211860" lon="1.1771890">
<ele>1953.493652</ele>
<time>2024-06-13T12:16:48.003Z</time>
</trkpt>
<trkpt lat="42.3212150" lon="1.1774900">
<ele>1950.354126</ele>
<time>2024-06-13T12:16:59.002Z</time>
</trkpt>
<trkpt lat="42.3211890" lon="1.1776060">
<ele>1947.489136</ele>
<time>2024-06-13T12:17:11.996Z</time>
</trkpt>
<trkpt lat="42.3211860" lon="1.1776190">
<ele>1946.452759</ele>
<time>2024-06-13T12:17:30.002Z</time>
</trkpt>
<trkpt lat="42.3211200" lon="1.1778250">
<ele>1946.696533</ele>
<time>2024-06-13T12:18:05.003Z</time>
</trkpt>
<trkpt lat="42.3209370" lon="1.1780600">
<ele>1946.178467</ele>
<time>2024-06-13T12:18:21.004Z</time>
</trkpt>
<trkpt lat="42.3207310" lon="1.1779590">
<ele>1949.378906</ele>
<time>2024-06-13T12:18:36.996Z</time>
</trkpt>
<trkpt lat="42.3207180" lon="1.1779580">
<ele>1949.744629</ele>
<time>2024-06-13T12:18:37.999Z</time>
</trkpt>
<trkpt lat="42.3207040" lon="1.1779620">
<ele>1949.988525</ele>
<time>2024-06-13T12:18:39.001Z</time>
</trkpt>
<trkpt lat="42.3206900" lon="1.1779720">
<ele>1950.171387</ele>
<time>2024-06-13T12:18:40.003Z</time>
</trkpt>
<trkpt lat="42.3206770" lon="1.1779810">
<ele>1950.293335</ele>
<time>2024-06-13T12:18:40.997Z</time>
</trkpt>
<trkpt lat="42.3206690" lon="1.1779880">
<ele>1950.781006</ele>
<time>2024-06-13T12:18:56.998Z</time>
</trkpt>
<trkpt lat="42.3206700" lon="1.1779850">
<ele>1951.451538</ele>
<time>2024-06-13T12:19:57.003Z</time>
</trkpt>
<trkpt lat="42.3206470" lon="1.1780190">
<ele>1951.847778</ele>
<time>2024-06-13T12:20:39.002Z</time>
</trkpt>
<trkpt lat="42.3206540" lon="1.1780260">
<ele>1950.201782</ele>
<time>2024-06-13T12:21:07.004Z</time>
</trkpt>
<trkpt lat="42.3206450" lon="1.1780110">
<ele>1952.152588</ele>
<time>2024-06-13T12:24:50.003Z</time>
</trkpt>
<trkpt lat="42.3205550" lon="1.1781060">
<ele>1952.701172</ele>
<time>2024-06-13T12:25:17.996Z</time>
</trkpt>
<trkpt lat="42.3203810" lon="1.1783810">
<ele>1949.348389</ele>
<time>2024-06-13T12:25:33.997Z</time>
</trkpt>
<trkpt lat="42.3202860" lon="1.1785310">
<ele>1946.117432</ele>
<time>2024-06-13T12:25:43.000Z</time>
</trkpt>
<trkpt lat="42.3202300" lon="1.1786180">
<ele>1942.917114</ele>
<time>2024-06-13T12:25:48.003Z</time>
</trkpt>
<trkpt lat="42.3201250" lon="1.1787330">
<ele>1939.594849</ele>
<time>2024-06-13T12:25:56.004Z</time>
</trkpt>
<trkpt lat="42.3200250" lon="1.1788640">
<ele>1936.302979</ele>
<time>2024-06-13T12:26:04.004Z</time>
</trkpt>
<trkpt lat="42.3199720" lon="1.1789930">
<ele>1933.072144</ele>
<time>2024-06-13T12:26:10.000Z</time>
</trkpt>
<trkpt lat="42.3199130" lon="1.1791290">
<ele>1929.475342</ele>
<time>2024-06-13T12:26:15.996Z</time>
</trkpt>
<trkpt lat="42.3198120" lon="1.1792940">
<ele>1926.366455</ele>
<time>2024-06-13T12:26:22.001Z</time>
</trkpt>
<trkpt lat="42.3196790" lon="1.1794640">
<ele>1922.800293</ele>
<time>2024-06-13T12:26:27.997Z</time>
</trkpt>
<trkpt lat="42.3195820" lon="1.1796020">
<ele>1919.508545</ele>
<time>2024-06-13T12:26:31.998Z</time>
</trkpt>
<trkpt lat="42.3194420" lon="1.1798190">
<ele>1914.997437</ele>
<time>2024-06-13T12:26:37.000Z</time>
</trkpt>
<trkpt lat="42.3192870" lon="1.1800110">
<ele>1911.766602</ele>
<time>2024-06-13T12:26:41.001Z</time>
</trkpt>
<trkpt lat="42.3190540" lon="1.1802130">
<ele>1908.688110</ele>
<time>2024-06-13T12:26:46.003Z</time>
</trkpt>
<trkpt lat="42.3188700" lon="1.1804030">
<ele>1905.365845</ele>
<time>2024-06-13T12:26:50.997Z</time>
</trkpt>
<trkpt lat="42.3186780" lon="1.1805790">
<ele>1904.420898</ele>
<time>2024-06-13T12:26:56.000Z</time>
</trkpt>
<trkpt lat="42.3185210" lon="1.1808100">
<ele>1902.256836</ele>
<time>2024-06-13T12:27:01.996Z</time>
</trkpt>
<trkpt lat="42.3182010" lon="1.1813610">
<ele>1898.934570</ele>
<time>2024-06-13T12:27:17.997Z</time>
</trkpt>
<trkpt lat="42.3181640" lon="1.1814320">
<ele>1898.203003</ele>
<time>2024-06-13T12:27:20.002Z</time>
</trkpt>
<trkpt lat="42.3180720" lon="1.1816850">
<ele>1895.855957</ele>
<time>2024-06-13T12:27:25.998Z</time>
</trkpt>
<trkpt lat="42.3179840" lon="1.1819880">
<ele>1892.746948</ele>
<time>2024-06-13T12:27:32.996Z</time>
</trkpt>
<trkpt lat="42.3179650" lon="1.1822200">
<ele>1890.308594</ele>
<time>2024-06-13T12:27:37.999Z</time>
</trkpt>
<trkpt lat="42.3179310" lon="1.1825570">
<ele>1886.986328</ele>
<time>2024-06-13T12:27:45.999Z</time>
</trkpt>
<trkpt lat="42.3179000" lon="1.1827190">
<ele>1885.126953</ele>
<time>2024-06-13T12:27:50.000Z</time>
</trkpt>
<trkpt lat="42.3178340" lon="1.1829790">
<ele>1882.140015</ele>
<time>2024-06-13T12:27:56.998Z</time>
</trkpt>
<trkpt lat="42.3177590" lon="1.1831700">
<ele>1878.878540</ele>
<time>2024-06-13T12:28:03.003Z</time>
</trkpt>
<trkpt lat="42.3176770" lon="1.1834380">
<ele>1875.708740</ele>
<time>2024-06-13T12:28:11.004Z</time>
</trkpt>
<trkpt lat="42.3176650" lon="1.1835520">
<ele>1874.215210</ele>
<time>2024-06-13T12:28:14.002Z</time>
</trkpt>
<trkpt lat="42.3176660" lon="1.1838260">
<ele>1871.136719</ele>
<time>2024-06-13T12:28:19.998Z</time>
</trkpt>
<trkpt lat="42.3176510" lon="1.1841410">
<ele>1867.540161</ele>
<time>2024-06-13T12:28:26.996Z</time>
</trkpt>
<trkpt lat="42.3175910" lon="1.1842910">
<ele>1864.309204</ele>
<time>2024-06-13T12:28:30.996Z</time>
</trkpt>
<trkpt lat="42.3174680" lon="1.1844690">
<ele>1861.078247</ele>
<time>2024-06-13T12:28:37.001Z</time>
</trkpt>
<trkpt lat="42.3171420" lon="1.1851000">
<ele>1859.554321</ele>
<time>2024-06-13T12:28:54.998Z</time>
</trkpt>
<trkpt lat="42.3169350" lon="1.1855260">
<ele>1859.249512</ele>
<time>2024-06-13T12:29:11.000Z</time>
</trkpt>
<trkpt lat="42.3168260" lon="1.1858550">
<ele>1859.462891</ele>
<time>2024-06-13T12:29:32.997Z</time>
</trkpt>
<trkpt lat="42.3169670" lon="1.1863640">
<ele>1860.499146</ele>
<time>2024-06-13T12:29:51.003Z</time>
</trkpt>
<trkpt lat="42.3171570" lon="1.1870630">
<ele>1862.084229</ele>
<time>2024-06-13T12:30:10.996Z</time>
</trkpt>
<trkpt lat="42.3174200" lon="1.1878600">
<ele>1863.486206</ele>
<time>2024-06-13T12:30:32.000Z</time>
</trkpt>
<trkpt lat="42.3177910" lon="1.1886430">
<ele>1864.766357</ele>
<time>2024-06-13T12:30:53.004Z</time>
</trkpt>
<trkpt lat="42.3181180" lon="1.1894510">
<ele>1867.296143</ele>
<time>2024-06-13T12:31:15.001Z</time>
</trkpt>
<trkpt lat="42.3182240" lon="1.1902870">
<ele>1867.723022</ele>
<time>2024-06-13T12:31:35.996Z</time>
</trkpt>
<trkpt lat="42.3180430" lon="1.1908260">
<ele>1866.290405</ele>
<time>2024-06-13T12:31:51.004Z</time>
</trkpt>
<trkpt lat="42.3176650" lon="1.1913660">
<ele>1866.107544</ele>
<time>2024-06-13T12:32:09.001Z</time>
</trkpt>
<trkpt lat="42.3172320" lon="1.1920940">
<ele>1865.254150</ele>
<time>2024-06-13T12:32:29.003Z</time>
</trkpt>
<trkpt lat="42.3171400" lon="1.1930380">
<ele>1864.583496</ele>
<time>2024-06-13T12:32:48.002Z</time>
</trkpt>
<trkpt lat="42.3171580" lon="1.1937870">
<ele>1866.351440</ele>
<time>2024-06-13T12:33:04.003Z</time>
</trkpt>
<trkpt lat="42.3170890" lon="1.1946410">
<ele>1868.576416</ele>
<time>2024-06-13T12:33:23.003Z</time>
</trkpt>
<trkpt lat="42.3169130" lon="1.1955460">
<ele>1869.033569</ele>
<time>2024-06-13T12:33:42.002Z</time>
</trkpt>
<trkpt lat="42.3167450" lon="1.1962590">
<ele>1870.283325</ele>
<time>2024-06-13T12:33:58.003Z</time>
</trkpt>
<trkpt lat="42.3167380" lon="1.1971970">
<ele>1873.392212</ele>
<time>2024-06-13T12:34:18.998Z</time>
</trkpt>
<trkpt lat="42.3167060" lon="1.1979420">
<ele>1876.348755</ele>
<time>2024-06-13T12:34:37.998Z</time>
</trkpt>
<trkpt lat="42.3165720" lon="1.1986090">
<ele>1876.958374</ele>
<time>2024-06-13T12:34:56.997Z</time>
</trkpt>
<trkpt lat="42.3163760" lon="1.1992160">
<ele>1879.000610</ele>
<time>2024-06-13T12:35:15.003Z</time>
</trkpt>
<trkpt lat="42.3161150" lon="1.2001190">
<ele>1880.981812</ele>
<time>2024-06-13T12:35:37.000Z</time>
</trkpt>
<trkpt lat="42.3158620" lon="1.2009810">
<ele>1881.804688</ele>
<time>2024-06-13T12:35:58.998Z</time>
</trkpt>
<trkpt lat="42.3154690" lon="1.2016990">
<ele>1883.785889</ele>
<time>2024-06-13T12:36:21.004Z</time>
</trkpt>
<trkpt lat="42.3150920" lon="1.2023050">
<ele>1884.273560</ele>
<time>2024-06-13T12:36:40.003Z</time>
</trkpt>
<trkpt lat="42.3147030" lon="1.2029580">
<ele>1885.066162</ele>
<time>2024-06-13T12:36:58.000Z</time>
</trkpt>
<trkpt lat="42.3143330" lon="1.2034450">
<ele>1884.304077</ele>
<time>2024-06-13T12:37:12.999Z</time>
</trkpt>
<trkpt lat="42.3138400" lon="1.2041240">
<ele>1882.140015</ele>
<time>2024-06-13T12:37:30.996Z</time>
</trkpt>
<trkpt lat="42.3135050" lon="1.2046820">
<ele>1881.164551</ele>
<time>2024-06-13T12:37:42.997Z</time>
</trkpt>
<trkpt lat="42.3134830" lon="1.2047460">
<ele>1880.859741</ele>
<time>2024-06-13T12:37:44.000Z</time>
</trkpt>
<trkpt lat="42.3134660" lon="1.2048130">
<ele>1880.646484</ele>
<time>2024-06-13T12:37:45.002Z</time>
</trkpt>
<trkpt lat="42.3134560" lon="1.2048820">
<ele>1880.402588</ele>
<time>2024-06-13T12:37:46.004Z</time>
</trkpt>
<trkpt lat="42.3134530" lon="1.2049530">
<ele>1880.250122</ele>
<time>2024-06-13T12:37:46.998Z</time>
</trkpt>
<trkpt lat="42.3134550" lon="1.2050220">
<ele>1880.036865</ele>
<time>2024-06-13T12:37:48.000Z</time>
</trkpt>
<trkpt lat="42.3134600" lon="1.2050800">
<ele>1879.884521</ele>
<time>2024-06-13T12:37:49.002Z</time>
</trkpt>
<trkpt lat="42.3134680" lon="1.2051290">
<ele>1879.457764</ele>
<time>2024-06-13T12:37:49.996Z</time>
</trkpt>
<trkpt lat="42.3134770" lon="1.2051720">
<ele>1879.122559</ele>
<time>2024-06-13T12:37:50.998Z</time>
</trkpt>
<trkpt lat="42.3135870" lon="1.2055570">
<ele>1877.781372</ele>
<time>2024-06-13T12:38:05.997Z</time>
</trkpt>
<trkpt lat="42.3136860" lon="1.2060570">
<ele>1875.434448</ele>
<time>2024-06-13T12:38:24.996Z</time>
</trkpt>
<trkpt lat="42.3136570" lon="1.2066980">
<ele>1872.813110</ele>
<time>2024-06-13T12:38:42.000Z</time>
</trkpt>
<trkpt lat="42.3135410" lon="1.2071010">
<ele>1869.826050</ele>
<time>2024-06-13T12:38:55.997Z</time>
</trkpt>
<trkpt lat="42.3131380" lon="1.2076020">
<ele>1866.747559</ele>
<time>2024-06-13T12:39:13.000Z</time>
</trkpt>
<trkpt lat="42.3127370" lon="1.2083210">
<ele>1864.552979</ele>
<time>2024-06-13T12:39:30.997Z</time>
</trkpt>
<trkpt lat="42.3126060" lon="1.2088950">
<ele>1863.059448</ele>
<time>2024-06-13T12:39:45.996Z</time>
</trkpt>
<trkpt lat="42.3125510" lon="1.2092650">
<ele>1862.084229</ele>
<time>2024-06-13T12:39:59.000Z</time>
</trkpt>
<trkpt lat="42.3124360" lon="1.2100970">
<ele>1858.944702</ele>
<time>2024-06-13T12:40:12.996Z</time>
</trkpt>
<trkpt lat="42.3124870" lon="1.2109340">
<ele>1855.927246</ele>
<time>2024-06-13T12:40:26.000Z</time>
</trkpt>
<trkpt lat="42.3125710" lon="1.2110880">
<ele>1855.591919</ele>
<time>2024-06-13T12:40:28.998Z</time>
</trkpt>
<trkpt lat="42.3125950" lon="1.2111540">
<ele>1855.500488</ele>
<time>2024-06-13T12:40:30.000Z</time>
</trkpt>
<trkpt lat="42.3131160" lon="1.2120060">
<ele>1853.183960</ele>
<time>2024-06-13T12:40:44.999Z</time>
</trkpt>
<trkpt lat="42.3136700" lon="1.2128320">
<ele>1850.410278</ele>
<time>2024-06-13T12:41:01.000Z</time>
</trkpt>
<trkpt lat="42.3137630" lon="1.2131810">
<ele>1848.185303</ele>
<time>2024-06-13T12:41:06.003Z</time>
</trkpt>
<trkpt lat="42.3137720" lon="1.2132510">
<ele>1847.849976</ele>
<time>2024-06-13T12:41:06.996Z</time>
</trkpt>
<trkpt lat="42.3137900" lon="1.2134600">
<ele>1847.209839</ele>
<time>2024-06-13T12:41:10.003Z</time>
</trkpt>
<trkpt lat="42.3137870" lon="1.2135330">
<ele>1846.935547</ele>
<time>2024-06-13T12:41:10.997Z</time>
</trkpt>
<trkpt lat="42.3137220" lon="1.2141100">
<ele>1843.887573</ele>
<time>2024-06-13T12:41:21.002Z</time>
</trkpt>
<trkpt lat="42.3135880" lon="1.2145510">
<ele>1840.870117</ele>
<time>2024-06-13T12:41:29.996Z</time>
</trkpt>
<trkpt lat="42.3134610" lon="1.2147300">
<ele>1837.669678</ele>
<time>2024-06-13T12:41:41.004Z</time>
</trkpt>
<trkpt lat="42.3134560" lon="1.2147330">
<ele>1835.536133</ele>
<time>2024-06-13T12:42:04.997Z</time>
</trkpt>
<trkpt lat="42.3134490" lon="1.2147510">
<ele>1835.505615</ele>
<time>2024-06-13T12:42:05.999Z</time>
</trkpt>
<trkpt lat="42.3134410" lon="1.2147700">
<ele>1835.475098</ele>
<time>2024-06-13T12:42:07.001Z</time>
</trkpt>
<trkpt lat="42.3134290" lon="1.2147860">
<ele>1835.475098</ele>
<time>2024-06-13T12:42:08.004Z</time>
</trkpt>
<trkpt lat="42.3134160" lon="1.2147990">
<ele>1835.444580</ele>
<time>2024-06-13T12:42:08.997Z</time>
</trkpt>
<trkpt lat="42.3134070" lon="1.2148060">
<ele>1835.414185</ele>
<time>2024-06-13T12:42:09.999Z</time>
</trkpt>
<trkpt lat="42.3132620" lon="1.2149180">
<ele>1834.530151</ele>
<time>2024-06-13T12:42:45.000Z</time>
</trkpt>
<trkpt lat="42.3130200" lon="1.2151230">
<ele>1831.451782</ele>
<time>2024-06-13T12:42:58.003Z</time>
</trkpt>
<trkpt lat="42.3127370" lon="1.2153390">
<ele>1828.373291</ele>
<time>2024-06-13T12:43:10.004Z</time>
</trkpt>
<trkpt lat="42.3124270" lon="1.2155340">
<ele>1824.989990</ele>
<time>2024-06-13T12:43:20.001Z</time>
</trkpt>
<trkpt lat="42.3123580" lon="1.2155700">
<ele>1823.770752</ele>
<time>2024-06-13T12:43:21.996Z</time>
</trkpt>
<trkpt lat="42.3121530" lon="1.2157010">
<ele>1820.600952</ele>
<time>2024-06-13T12:43:30.999Z</time>
</trkpt>
<trkpt lat="42.3117570" lon="1.2161110">
<ele>1817.369995</ele>
<time>2024-06-13T12:43:43.000Z</time>
</trkpt>
<trkpt lat="42.3114630" lon="1.2165060">
<ele>1814.139038</ele>
<time>2024-06-13T12:43:52.003Z</time>
</trkpt>
<trkpt lat="42.3113000" lon="1.2168930">
<ele>1810.755737</ele>
<time>2024-06-13T12:44:00.997Z</time>
</trkpt>
<trkpt lat="42.3112910" lon="1.2172760">
<ele>1807.707764</ele>
<time>2024-06-13T12:44:08.998Z</time>
</trkpt>
<trkpt lat="42.3113260" lon="1.2174370">
<ele>1806.275269</ele>
<time>2024-06-13T12:44:11.996Z</time>
</trkpt>
<trkpt lat="42.3113830" lon="1.2177050">
<ele>1804.416016</ele>
<time>2024-06-13T12:44:16.999Z</time>
</trkpt>
<trkpt lat="42.3113640" lon="1.2181480">
<ele>1801.246094</ele>
<time>2024-06-13T12:44:24.999Z</time>
</trkpt>
<trkpt lat="42.3113360" lon="1.2183140">
<ele>1800.392578</ele>
<time>2024-06-13T12:44:27.997Z</time>
</trkpt>
<trkpt lat="42.3113210" lon="1.2183640">
<ele>1800.118286</ele>
<time>2024-06-13T12:44:29.000Z</time>
</trkpt>
<trkpt lat="42.3113030" lon="1.2184110">
<ele>1799.996460</ele>
<time>2024-06-13T12:44:30.002Z</time>
</trkpt>
<trkpt lat="42.3112800" lon="1.2184520">
<ele>1799.752563</ele>
<time>2024-06-13T12:44:31.004Z</time>
</trkpt>
<trkpt lat="42.3112530" lon="1.2184880">
<ele>1799.478149</ele>
<time>2024-06-13T12:44:31.998Z</time>
</trkpt>
<trkpt lat="42.3112230" lon="1.2185200">
<ele>1799.264893</ele>
<time>2024-06-13T12:44:33.000Z</time>
</trkpt>
<trkpt lat="42.3111920" lon="1.2185490">
<ele>1799.143066</ele>
<time>2024-06-13T12:44:34.002Z</time>
</trkpt>
<trkpt lat="42.3111600" lon="1.2185750">
<ele>1798.838257</ele>
<time>2024-06-13T12:44:34.996Z</time>
</trkpt>
<trkpt lat="42.3111260" lon="1.2186010">
<ele>1798.289551</ele>
<time>2024-06-13T12:44:35.998Z</time>
</trkpt>
<trkpt lat="42.3109000" lon="1.2187820">
<ele>1795.180664</ele>
<time>2024-06-13T12:44:42.996Z</time>
</trkpt>
<trkpt lat="42.3106930" lon="1.2189440">
<ele>1791.949707</ele>
<time>2024-06-13T12:44:49.001Z</time>
</trkpt>
<trkpt lat="42.3104800" lon="1.2191860">
<ele>1788.779785</ele>
<time>2024-06-13T12:44:57.002Z</time>
</trkpt>
<trkpt lat="42.3103630" lon="1.2192680">
<ele>1786.768066</ele>
<time>2024-06-13T12:45:01.002Z</time>
</trkpt>
<trkpt lat="42.3102360" lon="1.2193990">
<ele>1783.445801</ele>
<time>2024-06-13T12:45:09.996Z</time>
</trkpt>
<trkpt lat="42.3100910" lon="1.2194680">
<ele>1782.622803</ele>
<time>2024-06-13T12:47:02.999Z</time>
</trkpt>
<trkpt lat="42.3100210" lon="1.2198120">
<ele>1782.714233</ele>
<time>2024-06-13T12:47:17.998Z</time>
</trkpt>
<trkpt lat="42.3099610" lon="1.2201220">
<ele>1784.268677</ele>
<time>2024-06-13T12:47:32.997Z</time>
</trkpt>
<trkpt lat="42.3098640" lon="1.2204190">
<ele>1787.530151</ele>
<time>2024-06-13T12:47:47.996Z</time>
</trkpt>
<trkpt lat="42.3098190" lon="1.2206260">
<ele>1790.608643</ele>
<time>2024-06-13T12:47:56.999Z</time>
</trkpt>
<trkpt lat="42.3097780" lon="1.2208290">
<ele>1793.930908</ele>
<time>2024-06-13T12:48:06.002Z</time>
</trkpt>
<trkpt lat="42.3098020" lon="1.2210270">
<ele>1797.557983</ele>
<time>2024-06-13T12:48:14.996Z</time>
</trkpt>
<trkpt lat="42.3098620" lon="1.2212530">
<ele>1800.697388</ele>
<time>2024-06-13T12:48:26.004Z</time>
</trkpt>
<trkpt lat="42.3099400" lon="1.2215230">
<ele>1803.745361</ele>
<time>2024-06-13T12:48:38.998Z</time>
</trkpt>
<trkpt lat="42.3099640" lon="1.2219340">
<ele>1806.915405</ele>
<time>2024-06-13T12:48:57.004Z</time>
</trkpt>
<trkpt lat="42.3098880" lon="1.2222900">
<ele>1809.963379</ele>
<time>2024-06-13T12:49:12.003Z</time>
</trkpt>
<trkpt lat="42.3099630" lon="1.2228530">
<ele>1812.950439</ele>
<time>2024-06-13T12:49:35.003Z</time>
</trkpt>
<trkpt lat="42.3101180" lon="1.2232070">
<ele>1816.059448</ele>
<time>2024-06-13T12:49:54.002Z</time>
</trkpt>
<trkpt lat="42.3102130" lon="1.2233250">
<ele>1816.760376</ele>
<time>2024-06-13T12:50:06.003Z</time>
</trkpt>
<trkpt lat="42.3103360" lon="1.2236740">
<ele>1816.729858</ele>
<time>2024-06-13T12:50:21.002Z</time>
</trkpt>
<trkpt lat="42.3103760" lon="1.2241840">
<ele>1815.053467</ele>
<time>2024-06-13T12:50:40.001Z</time>
</trkpt>
<trkpt lat="42.3104920" lon="1.2244160">
<ele>1811.914063</ele>
<time>2024-06-13T12:50:53.998Z</time>
</trkpt>
<trkpt lat="42.3104760" lon="1.2246140">
<ele>1810.969238</ele>
<time>2024-06-13T12:51:05.999Z</time>
</trkpt>
<trkpt lat="42.3100980" lon="1.2250930">
<ele>1808.317383</ele>
<time>2024-06-13T12:51:20.998Z</time>
</trkpt>
<trkpt lat="42.3096150" lon="1.2254560">
<ele>1807.646851</ele>
<time>2024-06-13T12:51:36.999Z</time>
</trkpt>
<trkpt lat="42.3091820" lon="1.2256880">
<ele>1805.879028</ele>
<time>2024-06-13T12:51:50.996Z</time>
</trkpt>
<trkpt lat="42.3087820" lon="1.2261430">
<ele>1805.299927</ele>
<time>2024-06-13T12:52:06.004Z</time>
</trkpt>
<trkpt lat="42.3083520" lon="1.2268170">
<ele>1804.111206</ele>
<time>2024-06-13T12:52:24.001Z</time>
</trkpt>
<trkpt lat="42.3078980" lon="1.2274330">
<ele>1805.177979</ele>
<time>2024-06-13T12:52:41.998Z</time>
</trkpt>
<trkpt lat="42.3073090" lon="1.2280100">
<ele>1804.354980</ele>
<time>2024-06-13T12:53:02.000Z</time>
</trkpt>
<trkpt lat="42.3069340" lon="1.2286000">
<ele>1803.410278</ele>
<time>2024-06-13T12:53:19.003Z</time>
</trkpt>
<trkpt lat="42.3068970" lon="1.2286430">
<ele>1803.349243</ele>
<time>2024-06-13T12:53:20.999Z</time>
</trkpt>
<trkpt lat="42.3068930" lon="1.2287700">
<ele>1803.135742</ele>
<time>2024-06-13T12:53:24.999Z</time>
</trkpt>
<trkpt lat="42.3068670" lon="1.2292600">
<ele>1800.057373</ele>
<time>2024-06-13T12:53:39.998Z</time>
</trkpt>
<trkpt lat="42.3068640" lon="1.2292940">
<ele>1798.045654</ele>
<time>2024-06-13T12:54:43.001Z</time>
</trkpt>
<trkpt lat="42.3066690" lon="1.2297170">
<ele>1796.796021</ele>
<time>2024-06-13T12:54:56.998Z</time>
</trkpt>
<trkpt lat="42.3064710" lon="1.2300030">
<ele>1793.351807</ele>
<time>2024-06-13T12:55:07.003Z</time>
</trkpt>
<trkpt lat="42.3064150" lon="1.2302560">
<ele>1790.242798</ele>
<time>2024-06-13T12:55:14.002Z</time>
</trkpt>
<trkpt lat="42.3063750" lon="1.2306750">
<ele>1787.225342</ele>
<time>2024-06-13T12:55:22.996Z</time>
</trkpt>
<trkpt lat="42.3064030" lon="1.2311520">
<ele>1783.872559</ele>
<time>2024-06-13T12:55:33.001Z</time>
</trkpt>
<trkpt lat="42.3064710" lon="1.2317150">
<ele>1780.489258</ele>
<time>2024-06-13T12:55:45.002Z</time>
</trkpt>
<trkpt lat="42.3065300" lon="1.2321020">
<ele>1777.045044</ele>
<time>2024-06-13T12:55:53.996Z</time>
</trkpt>
<trkpt lat="42.3066450" lon="1.2323910">
<ele>1773.722534</ele>
<time>2024-06-13T12:56:01.003Z</time>
</trkpt>
<trkpt lat="42.3066660" lon="1.2327270">
<ele>1770.522217</ele>
<time>2024-06-13T12:56:09.004Z</time>
</trkpt>
<trkpt lat="42.3066050" lon="1.2330620">
<ele>1767.474121</ele>
<time>2024-06-13T12:56:16.002Z</time>
</trkpt>
<trkpt lat="42.3065750" lon="1.2332060">
<ele>1766.255005</ele>
<time>2024-06-13T12:56:19.000Z</time>
</trkpt>
<trkpt lat="42.3065500" lon="1.2333360">
<ele>1764.761475</ele>
<time>2024-06-13T12:56:21.998Z</time>
</trkpt>
<trkpt lat="42.3064790" lon="1.2336020">
<ele>1761.896362</ele>
<time>2024-06-13T12:56:28.003Z</time>
</trkpt>
<trkpt lat="42.3063960" lon="1.2339600">
<ele>1758.787354</ele>
<time>2024-06-13T12:56:36.004Z</time>
</trkpt>
<trkpt lat="42.3063410" lon="1.2342830">
<ele>1755.434570</ele>
<time>2024-06-13T12:56:43.996Z</time>
</trkpt>
<trkpt lat="42.3062720" lon="1.2345690">
<ele>1752.386597</ele>
<time>2024-06-13T12:56:51.996Z</time>
</trkpt>
<trkpt lat="42.3062080" lon="1.2348750">
<ele>1749.369141</ele>
<time>2024-06-13T12:57:00.999Z</time>
</trkpt>
<trkpt lat="42.3061880" lon="1.2350840">
<ele>1746.107788</ele>
<time>2024-06-13T12:57:07.998Z</time>
</trkpt>
<trkpt lat="42.3061640" lon="1.2352770">
<ele>1744.522827</ele>
<time>2024-06-13T12:57:11.998Z</time>
</trkpt>
<trkpt lat="42.3062400" lon="1.2355130">
<ele>1741.474854</ele>
<time>2024-06-13T12:57:22.997Z</time>
</trkpt>
<trkpt lat="42.3062440" lon="1.2357290">
<ele>1738.335449</ele>
<time>2024-06-13T12:57:32.000Z</time>
</trkpt>
<trkpt lat="42.3061780" lon="1.2358220">
<ele>1735.104492</ele>
<time>2024-06-13T12:57:37.002Z</time>
</trkpt>
<trkpt lat="42.3061570" lon="1.2358350">
<ele>1734.555786</ele>
<time>2024-06-13T12:57:37.996Z</time>
</trkpt>
<trkpt lat="42.3061410" lon="1.2358500">
<ele>1733.976685</ele>
<time>2024-06-13T12:57:38.998Z</time>
</trkpt>
<trkpt lat="42.3061280" lon="1.2358590">
<ele>1733.489014</ele>
<time>2024-06-13T12:57:40.000Z</time>
</trkpt>
<trkpt lat="42.3061170" lon="1.2358680">
<ele>1733.001465</ele>
<time>2024-06-13T12:57:41.003Z</time>
</trkpt>
<trkpt lat="42.3060400" lon="1.2359580">
<ele>1729.922852</ele>
<time>2024-06-13T12:57:48.001Z</time>
</trkpt>
<trkpt lat="42.3059320" lon="1.2360900">
<ele>1726.661499</ele>
<time>2024-06-13T12:57:57.004Z</time>
</trkpt>
<trkpt lat="42.3058470" lon="1.2361600">
<ele>1723.644043</ele>
<time>2024-06-13T12:58:01.998Z</time>
</trkpt>
<trkpt lat="42.3057170" lon="1.2362580">
<ele>1720.230225</ele>
<time>2024-06-13T12:58:09.998Z</time>
</trkpt>
<trkpt lat="42.3056100" lon="1.2363660">
<ele>1716.847046</ele>
<time>2024-06-13T12:58:16.997Z</time>
</trkpt>
<trkpt lat="42.3054640" lon="1.2365340">
<ele>1713.006470</ele>
<time>2024-06-13T12:58:24.997Z</time>
</trkpt>
<trkpt lat="42.3053540" lon="1.2366600">
<ele>1709.470825</ele>
<time>2024-06-13T12:58:31.002Z</time>
</trkpt>
<trkpt lat="42.3052640" lon="1.2367840">
<ele>1706.361816</ele>
<time>2024-06-13T12:58:36.998Z</time>
</trkpt>
<trkpt lat="42.3051430" lon="1.2368890">
<ele>1703.130981</ele>
<time>2024-06-13T12:58:43.997Z</time>
</trkpt>
<trkpt lat="42.3050820" lon="1.2370280">
<ele>1699.960938</ele>
<time>2024-06-13T12:58:50.002Z</time>
</trkpt>
<trkpt lat="42.3049850" lon="1.2372770">
<ele>1696.760620</ele>
<time>2024-06-13T12:58:58.002Z</time>
</trkpt>
<trkpt lat="42.3048920" lon="1.2375660">
<ele>1693.468750</ele>
<time>2024-06-13T12:59:06.003Z</time>
</trkpt>
<trkpt lat="42.3047820" lon="1.2377670">
<ele>1689.750122</ele>
<time>2024-06-13T12:59:13.001Z</time>
</trkpt>
<trkpt lat="42.3047730" lon="1.2377890">
<ele>1689.171143</ele>
<time>2024-06-13T12:59:14.004Z</time>
</trkpt>
<trkpt lat="42.3047600" lon="1.2378130">
<ele>1688.683350</ele>
<time>2024-06-13T12:59:14.997Z</time>
</trkpt>
<trkpt lat="42.3047480" lon="1.2378360">
<ele>1688.317749</ele>
<time>2024-06-13T12:59:15.999Z</time>
</trkpt>
<trkpt lat="42.3047370" lon="1.2378630">
<ele>1687.860474</ele>
<time>2024-06-13T12:59:17.002Z</time>
</trkpt>
<trkpt lat="42.3047280" lon="1.2378930">
<ele>1687.342285</ele>
<time>2024-06-13T12:59:18.004Z</time>
</trkpt>
<trkpt lat="42.3047220" lon="1.2379280">
<ele>1686.824219</ele>
<time>2024-06-13T12:59:18.997Z</time>
</trkpt>
<trkpt lat="42.3047180" lon="1.2379640">
<ele>1686.397339</ele>
<time>2024-06-13T12:59:20.000Z</time>
</trkpt>
<trkpt lat="42.3047140" lon="1.2380020">
<ele>1686.153564</ele>
<time>2024-06-13T12:59:21.002Z</time>
</trkpt>
<trkpt lat="42.3046820" lon="1.2385820">
<ele>1683.044556</ele>
<time>2024-06-13T12:59:33.996Z</time>
</trkpt>
<trkpt lat="42.3047210" lon="1.2390000">
<ele>1679.874634</ele>
<time>2024-06-13T12:59:44.002Z</time>
</trkpt>
<trkpt lat="42.3047410" lon="1.2392040">
<ele>1676.796143</ele>
<time>2024-06-13T12:59:55.000Z</time>
</trkpt>
<trkpt lat="42.3049280" lon="1.2393170">
<ele>1675.394165</ele>
<time>2024-06-13T13:00:50.003Z</time>
</trkpt>
<trkpt lat="42.3053440" lon="1.2391740">
<ele>1674.571167</ele>
<time>2024-06-13T13:01:03.999Z</time>
</trkpt>
<trkpt lat="42.3056890" lon="1.2387990">
<ele>1672.224121</ele>
<time>2024-06-13T13:01:17.003Z</time>
</trkpt>
<trkpt lat="42.3058440" lon="1.2385820">
<ele>1669.084839</ele>
<time>2024-06-13T13:01:25.003Z</time>
</trkpt>
<trkpt lat="42.3058400" lon="1.2386780">
<ele>1668.200928</ele>
<time>2024-06-13T13:01:26.999Z</time>
</trkpt>
<trkpt lat="42.3058240" lon="1.2387530">
<ele>1667.073120</ele>
<time>2024-06-13T13:01:29.997Z</time>
</trkpt>
<trkpt lat="42.3058400" lon="1.2391020">
<ele>1664.573853</ele>
<time>2024-06-13T13:01:37.998Z</time>
</trkpt>
<trkpt lat="42.3058360" lon="1.2394720">
<ele>1660.916260</ele>
<time>2024-06-13T13:01:44.003Z</time>
</trkpt>
<trkpt lat="42.3058200" lon="1.2396550">
<ele>1660.397949</ele>
<time>2024-06-13T13:01:45.998Z</time>
</trkpt>
<trkpt lat="42.3058090" lon="1.2398370">
<ele>1659.635986</ele>
<time>2024-06-13T13:01:48.996Z</time>
</trkpt>
<trkpt lat="42.3058050" lon="1.2399930">
<ele>1658.447266</ele>
<time>2024-06-13T13:01:52.003Z</time>
</trkpt>
<trkpt lat="42.3057950" lon="1.2401180">
<ele>1657.563477</ele>
<time>2024-06-13T13:01:53.999Z</time>
</trkpt>
<trkpt lat="42.3058000" lon="1.2403410">
<ele>1654.667847</ele>
<time>2024-06-13T13:01:57.999Z</time>
</trkpt>
<trkpt lat="42.3058090" lon="1.2406950">
<ele>1653.479004</ele>
<time>2024-06-13T13:02:03.002Z</time>
</trkpt>
<trkpt lat="42.3058240" lon="1.2408130">
<ele>1652.747437</ele>
<time>2024-06-13T13:02:04.998Z</time>
</trkpt>
<trkpt lat="42.3058300" lon="1.2410870">
<ele>1650.644409</ele>
<time>2024-06-13T13:02:08.998Z</time>
</trkpt>
<trkpt lat="42.3058780" lon="1.2414200">
<ele>1647.505005</ele>
<time>2024-06-13T13:02:15.996Z</time>
</trkpt>
<trkpt lat="42.3058980" lon="1.2415860">
<ele>1646.499146</ele>
<time>2024-06-13T13:02:18.001Z</time>
</trkpt>
<trkpt lat="42.3057860" lon="1.2419460">
<ele>1643.359741</ele>
<time>2024-06-13T13:02:24.999Z</time>
</trkpt>
<trkpt lat="42.3057220" lon="1.2420790">
<ele>1641.896606</ele>
<time>2024-06-13T13:02:27.004Z</time>
</trkpt>
<trkpt lat="42.3054840" lon="1.2423690">
<ele>1638.330566</ele>
<time>2024-06-13T13:02:37.000Z</time>
</trkpt>
<trkpt lat="42.3053180" lon="1.2425120">
<ele>1635.160645</ele>
<time>2024-06-13T13:02:46.997Z</time>
</trkpt>
<trkpt lat="42.3050620" lon="1.2427010">
<ele>1632.844116</ele>
<time>2024-06-13T13:03:01.002Z</time>
</trkpt>
<trkpt lat="42.3047670" lon="1.2430820">
<ele>1629.521851</ele>
<time>2024-06-13T13:03:13.997Z</time>
</trkpt>
<trkpt lat="42.3046230" lon="1.2433370">
<ele>1626.656616</ele>
<time>2024-06-13T13:03:20.002Z</time>
</trkpt>
<trkpt lat="42.3043780" lon="1.2436600">
<ele>1622.938110</ele>
<time>2024-06-13T13:03:28.002Z</time>
</trkpt>
<trkpt lat="42.3041640" lon="1.2440590">
<ele>1619.676636</ele>
<time>2024-06-13T13:03:37.999Z</time>
</trkpt>
<trkpt lat="42.3041440" lon="1.2442680">
<ele>1618.762329</ele>
<time>2024-06-13T13:03:40.003Z</time>
</trkpt>
<trkpt lat="42.3041790" lon="1.2443350">
<ele>1618.305054</ele>
<time>2024-06-13T13:03:40.997Z</time>
</trkpt>
<trkpt lat="42.3041840" lon="1.2444500">
<ele>1617.025024</ele>
<time>2024-06-13T13:03:43.001Z</time>
</trkpt>
<trkpt lat="42.3042270" lon="1.2446130">
<ele>1615.592407</ele>
<time>2024-06-13T13:03:45.999Z</time>
</trkpt>
<trkpt lat="42.3042520" lon="1.2446750">
<ele>1615.013306</ele>
<time>2024-06-13T13:03:47.002Z</time>
</trkpt>
<trkpt lat="42.3042760" lon="1.2447320">
<ele>1614.403687</ele>
<time>2024-06-13T13:03:48.004Z</time>
</trkpt>
<trkpt lat="42.3043030" lon="1.2447820">
<ele>1613.946533</ele>
<time>2024-06-13T13:03:48.997Z</time>
</trkpt>
<trkpt lat="42.3042830" lon="1.2449490">
<ele>1613.641724</ele>
<time>2024-06-13T13:03:50.000Z</time>
</trkpt>
<trkpt lat="42.3043470" lon="1.2451800">
<ele>1610.197388</ele>
<time>2024-06-13T13:03:55.996Z</time>
</trkpt>
<trkpt lat="42.3043920" lon="1.2452940">
<ele>1606.936157</ele>
<time>2024-06-13T13:04:30.996Z</time>
</trkpt>
<trkpt lat="42.3044630" lon="1.2456060">
<ele>1606.814209</ele>
<time>2024-06-13T13:04:39.999Z</time>
</trkpt>
<trkpt lat="42.3046120" lon="1.2460890">
<ele>1604.985474</ele>
<time>2024-06-13T13:04:53.003Z</time>
</trkpt>
<trkpt lat="42.3046360" lon="1.2464740">
<ele>1601.967773</ele>
<time>2024-06-13T13:05:01.003Z</time>
</trkpt>
<trkpt lat="42.3047260" lon="1.2466520">
<ele>1599.681763</ele>
<time>2024-06-13T13:05:09.997Z</time>
</trkpt>
<trkpt lat="42.3047790" lon="1.2467200">
<ele>1598.737061</ele>
<time>2024-06-13T13:05:21.998Z</time>
</trkpt>
<trkpt lat="42.3048240" lon="1.2467150">
<ele>1598.706543</ele>
<time>2024-06-13T13:05:33.999Z</time>
</trkpt>
<trkpt lat="42.3048360" lon="1.2467210">
<ele>1598.676025</ele>
<time>2024-06-13T13:05:35.002Z</time>
</trkpt>
<trkpt lat="42.3048470" lon="1.2467300">
<ele>1598.676025</ele>
<time>2024-06-13T13:05:36.004Z</time>
</trkpt>
<trkpt lat="42.3048590" lon="1.2467390">
<ele>1598.645508</ele>
<time>2024-06-13T13:05:36.997Z</time>
</trkpt>
<trkpt lat="42.3048660" lon="1.2467490">
<ele>1598.614990</ele>
<time>2024-06-13T13:05:38.000Z</time>
</trkpt>
<trkpt lat="42.3050310" lon="1.2469550">
<ele>1598.493042</ele>
<time>2024-06-13T13:05:55.003Z</time>
</trkpt>
<trkpt lat="42.3052480" lon="1.2474160">
<ele>1599.559937</ele>
<time>2024-06-13T13:06:10.002Z</time>
</trkpt>
<trkpt lat="42.3054320" lon="1.2477330">
<ele>1602.699463</ele>
<time>2024-06-13T13:06:19.999Z</time>
</trkpt>
<trkpt lat="42.3055680" lon="1.2480380">
<ele>1605.747437</ele>
<time>2024-06-13T13:06:29.002Z</time>
</trkpt>
<trkpt lat="42.3055920" lon="1.2483990">
<ele>1608.582031</ele>
<time>2024-06-13T13:06:40.000Z</time>
</trkpt>
<trkpt lat="42.3056120" lon="1.2486600">
<ele>1611.599487</ele>
<time>2024-06-13T13:06:46.999Z</time>
</trkpt>
<trkpt lat="42.3056670" lon="1.2490900">
<ele>1614.464600</ele>
<time>2024-06-13T13:06:57.004Z</time>
</trkpt>
<trkpt lat="42.3056720" lon="1.2494040">
<ele>1615.104736</ele>
<time>2024-06-13T13:07:03.000Z</time>
</trkpt>
<trkpt lat="42.3055340" lon="1.2499420">
<ele>1615.165649</ele>
<time>2024-06-13T13:07:13.999Z</time>
</trkpt>
<trkpt lat="42.3054140" lon="1.2503320">
<ele>1615.500977</ele>
<time>2024-06-13T13:07:23.002Z</time>
</trkpt>
<trkpt lat="42.3052500" lon="1.2508660">
<ele>1618.396606</ele>
<time>2024-06-13T13:07:34.000Z</time>
</trkpt>
<trkpt lat="42.3053490" lon="1.2512690">
<ele>1620.103394</ele>
<time>2024-06-13T13:07:47.004Z</time>
</trkpt>
<trkpt lat="42.3056160" lon="1.2514080">
<ele>1621.749390</ele>
<time>2024-06-13T13:07:58.996Z</time>
</trkpt>
<trkpt lat="42.3058390" lon="1.2514700">
<ele>1622.968628</ele>
<time>2024-06-13T13:08:10.003Z</time>
</trkpt>
<trkpt lat="42.3060880" lon="1.2514450">
<ele>1623.578247</ele>
<time>2024-06-13T13:08:21.002Z</time>
</trkpt>
<trkpt lat="42.3064210" lon="1.2514480">
<ele>1624.736450</ele>
<time>2024-06-13T13:08:33.996Z</time>
</trkpt>
<trkpt lat="42.3065890" lon="1.2514780">
<ele>1624.675415</ele>
<time>2024-06-13T13:08:38.999Z</time>
</trkpt>
<trkpt lat="42.3067820" lon="1.2514390">
<ele>1624.248657</ele>
<time>2024-06-13T13:08:42.999Z</time>
</trkpt>
<trkpt lat="42.3070080" lon="1.2513440">
<ele>1623.395264</ele>
<time>2024-06-13T13:08:48.002Z</time>
</trkpt>
<trkpt lat="42.3073410" lon="1.2512200">
<ele>1622.602783</ele>
<time>2024-06-13T13:08:57.998Z</time>
</trkpt>
<trkpt lat="42.3074440" lon="1.2510160">
<ele>1622.602783</ele>
<time>2024-06-13T13:09:01.999Z</time>
</trkpt>
<trkpt lat="42.3075980" lon="1.2506540">
<ele>1622.419922</ele>
<time>2024-06-13T13:09:08.997Z</time>
</trkpt>
<trkpt lat="42.3077390" lon="1.2500620">
<ele>1619.006226</ele>
<time>2024-06-13T13:09:16.998Z</time>
</trkpt>
<trkpt lat="42.3078510" lon="1.2495690">
<ele>1615.257080</ele>
<time>2024-06-13T13:09:23.003Z</time>
</trkpt>
<trkpt lat="42.3078920" lon="1.2493270">
<ele>1612.087158</ele>
<time>2024-06-13T13:09:26.001Z</time>
</trkpt>
<trkpt lat="42.3079330" lon="1.2490050">
<ele>1611.325195</ele>
<time>2024-06-13T13:09:27.996Z</time>
</trkpt>
<trkpt lat="42.3081970" lon="1.2488560">
<ele>1610.288940</ele>
<time>2024-06-13T13:09:38.002Z</time>
</trkpt>
<trkpt lat="42.3083280" lon="1.2489500">
<ele>1610.197388</ele>
<time>2024-06-13T13:09:42.002Z</time>
</trkpt>
<trkpt lat="42.3084520" lon="1.2490860">
<ele>1610.288940</ele>
<time>2024-06-13T13:09:46.002Z</time>
</trkpt>
<trkpt lat="42.3085610" lon="1.2493000">
<ele>1610.258423</ele>
<time>2024-06-13T13:09:50.003Z</time>
</trkpt>
<trkpt lat="42.3086070" lon="1.2494370">
<ele>1610.166992</ele>
<time>2024-06-13T13:09:51.998Z</time>
</trkpt>
<trkpt lat="42.3087830" lon="1.2498420">
<ele>1607.119019</ele>
<time>2024-06-13T13:09:59.999Z</time>
</trkpt>
<trkpt lat="42.3092070" lon="1.2500710">
<ele>1606.936157</ele>
<time>2024-06-13T13:10:12.000Z</time>
</trkpt>
<trkpt lat="42.3097650" lon="1.2502590">
<ele>1608.643066</ele>
<time>2024-06-13T13:10:25.997Z</time>
</trkpt>
<trkpt lat="42.3102150" lon="1.2505210">
<ele>1609.039185</ele>
<time>2024-06-13T13:10:39.000Z</time>
</trkpt>
<trkpt lat="42.3105740" lon="1.2508360">
<ele>1609.465942</ele>
<time>2024-06-13T13:10:48.996Z</time>
</trkpt>
<trkpt lat="42.3108460" lon="1.2512610">
<ele>1608.947876</ele>
<time>2024-06-13T13:10:56.997Z</time>
</trkpt>
<trkpt lat="42.3110240" lon="1.2516930">
<ele>1605.930176</ele>
<time>2024-06-13T13:11:03.002Z</time>
</trkpt>
<trkpt lat="42.3110950" lon="1.2518770">
<ele>1604.863403</ele>
<time>2024-06-13T13:11:06.000Z</time>
</trkpt>
<trkpt lat="42.3112590" lon="1.2521660">
<ele>1603.065063</ele>
<time>2024-06-13T13:11:11.003Z</time>
</trkpt>
<trkpt lat="42.3118230" lon="1.2527550">
<ele>1602.120239</ele>
<time>2024-06-13T13:11:23.997Z</time>
</trkpt>
<trkpt lat="42.3119620" lon="1.2528370">
<ele>1601.937378</ele>
<time>2024-06-13T13:11:27.004Z</time>
</trkpt>
<trkpt lat="42.3123930" lon="1.2530820">
<ele>1601.449707</ele>
<time>2024-06-13T13:11:35.998Z</time>
</trkpt>
<trkpt lat="42.3124840" lon="1.2531350">
<ele>1601.175415</ele>
<time>2024-06-13T13:11:38.003Z</time>
</trkpt>
<trkpt lat="42.3128220" lon="1.2533500">
<ele>1598.523560</ele>
<time>2024-06-13T13:11:49.001Z</time>
</trkpt>
<trkpt lat="42.3128300" lon="1.2535110">
<ele>1597.151978</ele>
<time>2024-06-13T13:11:53.002Z</time>
</trkpt>
<trkpt lat="42.3126220" lon="1.2540040">
<ele>1596.847168</ele>
<time>2024-06-13T13:12:05.003Z</time>
</trkpt>
<trkpt lat="42.3124360" lon="1.2541790">
<ele>1597.487305</ele>
<time>2024-06-13T13:12:09.996Z</time>
</trkpt>
<trkpt lat="42.3122170" lon="1.2543830">
<ele>1597.822632</ele>
<time>2024-06-13T13:12:14.999Z</time>
</trkpt>
<trkpt lat="42.3118690" lon="1.2547070">
<ele>1597.578735</ele>
<time>2024-06-13T13:12:25.998Z</time>
</trkpt>
<trkpt lat="42.3117080" lon="1.2546850">
<ele>1597.517822</ele>
<time>2024-06-13T13:12:29.998Z</time>
</trkpt>
<trkpt lat="42.3115720" lon="1.2546400">
<ele>1597.487305</ele>
<time>2024-06-13T13:12:32.996Z</time>
</trkpt>
<trkpt lat="42.3112660" lon="1.2547020">
<ele>1596.755859</ele>
<time>2024-06-13T13:12:39.001Z</time>
</trkpt>
<trkpt lat="42.3110260" lon="1.2547820">
<ele>1595.201294</ele>
<time>2024-06-13T13:12:44.004Z</time>
</trkpt>
<trkpt lat="42.3106260" lon="1.2548060">
<ele>1592.305664</ele>
<time>2024-06-13T13:12:52.004Z</time>
</trkpt>
<trkpt lat="42.3104300" lon="1.2550240">
<ele>1590.842529</ele>
<time>2024-06-13T13:12:58.000Z</time>
</trkpt>
<trkpt lat="42.3104100" lon="1.2552200">
<ele>1589.227173</ele>
<time>2024-06-13T13:13:02.001Z</time>
</trkpt>
<trkpt lat="42.3104050" lon="1.2552760">
<ele>1588.221436</ele>
<time>2024-06-13T13:13:03.996Z</time>
</trkpt>
<trkpt lat="42.3103900" lon="1.2558960">
<ele>1590.111084</ele>
<time>2024-06-13T13:13:19.004Z</time>
</trkpt>
<trkpt lat="42.3103490" lon="1.2563590">
<ele>1593.006714</ele>
<time>2024-06-13T13:13:30.003Z</time>
</trkpt>
<trkpt lat="42.3103010" lon="1.2568960">
<ele>1596.115723</ele>
<time>2024-06-13T13:13:42.004Z</time>
</trkpt>
<trkpt lat="42.3102980" lon="1.2573130">
<ele>1598.554077</ele>
<time>2024-06-13T13:13:50.998Z</time>
</trkpt>
<trkpt lat="42.3103430" lon="1.2578420">
<ele>1600.321899</ele>
<time>2024-06-13T13:14:02.999Z</time>
</trkpt>
<trkpt lat="42.3103550" lon="1.2583130">
<ele>1601.266846</ele>
<time>2024-06-13T13:14:13.004Z</time>
</trkpt>
<trkpt lat="42.3102140" lon="1.2589430">
<ele>1600.962036</ele>
<time>2024-06-13T13:14:27.001Z</time>
</trkpt>
<trkpt lat="42.3102140" lon="1.2589560">
<ele>1599.285645</ele>
<time>2024-06-13T13:14:46.000Z</time>
</trkpt>
<trkpt lat="42.3100630" lon="1.2592390">
<ele>1599.529419</ele>
<time>2024-06-13T13:14:58.001Z</time>
</trkpt>
<trkpt lat="42.3098240" lon="1.2594980">
<ele>1597.944458</ele>
<time>2024-06-13T13:15:07.004Z</time>
</trkpt>
<trkpt lat="42.3095480" lon="1.2596830">
<ele>1594.713623</ele>
<time>2024-06-13T13:15:14.996Z</time>
</trkpt>
<trkpt lat="42.3095080" lon="1.2596900">
<ele>1594.256348</ele>
<time>2024-06-13T13:15:15.998Z</time>
</trkpt>
<trkpt lat="42.3093780" lon="1.2596480">
<ele>1593.128540</ele>
<time>2024-06-13T13:15:18.996Z</time>
</trkpt>
<trkpt lat="42.3092890" lon="1.2596000">
<ele>1592.305664</ele>
<time>2024-06-13T13:15:21.001Z</time>
</trkpt>
<trkpt lat="42.3091530" lon="1.2595680">
<ele>1591.452148</ele>
<time>2024-06-13T13:15:23.999Z</time>
</trkpt>
<trkpt lat="42.3089620" lon="1.2595520">
<ele>1590.202637</ele>
<time>2024-06-13T13:15:27.999Z</time>
</trkpt>
<trkpt lat="42.3087020" lon="1.2595680">
<ele>1589.196655</ele>
<time>2024-06-13T13:15:33.002Z</time>
</trkpt>
<trkpt lat="42.3082960" lon="1.2594650">
<ele>1585.203735</ele>
<time>2024-06-13T13:15:41.003Z</time>
</trkpt>
<trkpt lat="42.3081500" lon="1.2594160">
<ele>1583.649414</ele>
<time>2024-06-13T13:15:44.001Z</time>
</trkpt>
<trkpt lat="42.3079460" lon="1.2595240">
<ele>1582.369141</ele>
<time>2024-06-13T13:15:46.999Z</time>
</trkpt>
<trkpt lat="42.3079740" lon="1.2598190">
<ele>1579.138306</ele>
<time>2024-06-13T13:15:53.997Z</time>
</trkpt>
<trkpt lat="42.3079980" lon="1.2598880">
<ele>1578.711548</ele>
<time>2024-06-13T13:15:54.999Z</time>
</trkpt>
<trkpt lat="42.3080500" lon="1.2600170">
<ele>1577.583740</ele>
<time>2024-06-13T13:15:57.004Z</time>
</trkpt>
<trkpt lat="42.3080410" lon="1.2603350">
<ele>1573.621338</ele>
<time>2024-06-13T13:16:01.998Z</time>
</trkpt>
<trkpt lat="42.3079950" lon="1.2605600">
<ele>1571.487793</ele>
<time>2024-06-13T13:16:04.996Z</time>
</trkpt>
<trkpt lat="42.3078770" lon="1.2607680">
<ele>1569.293335</ele>
<time>2024-06-13T13:16:08.996Z</time>
</trkpt>
<trkpt lat="42.3077940" lon="1.2608560">
<ele>1568.378906</ele>
<time>2024-06-13T13:16:11.001Z</time>
</trkpt>
<trkpt lat="42.3076830" lon="1.2609990">
<ele>1566.976807</ele>
<time>2024-06-13T13:16:15.001Z</time>
</trkpt>
<trkpt lat="42.3074810" lon="1.2613200">
<ele>1563.471558</ele>
<time>2024-06-13T13:16:28.004Z</time>
</trkpt>
<trkpt lat="42.3072030" lon="1.2617210">
<ele>1561.673340</ele>
<time>2024-06-13T13:16:40.999Z</time>
</trkpt>
<trkpt lat="42.3069860" lon="1.2620710">
<ele>1558.625366</ele>
<time>2024-06-13T13:16:51.004Z</time>
</trkpt>
<trkpt lat="42.3068690" lon="1.2624120">
<ele>1556.156372</ele>
<time>2024-06-13T13:16:58.002Z</time>
</trkpt>
<trkpt lat="42.3070460" lon="1.2628930">
<ele>1552.041626</ele>
<time>2024-06-13T13:17:06.996Z</time>
</trkpt>
<trkpt lat="42.3070740" lon="1.2629400">
<ele>1551.797852</ele>
<time>2024-06-13T13:17:07.999Z</time>
</trkpt>
<trkpt lat="42.3070980" lon="1.2629870">
<ele>1551.370972</ele>
<time>2024-06-13T13:17:09.001Z</time>
</trkpt>
<trkpt lat="42.3071730" lon="1.2634230">
<ele>1547.591431</ele>
<time>2024-06-13T13:17:17.002Z</time>
</trkpt>
<trkpt lat="42.3071800" lon="1.2634830">
<ele>1547.103760</ele>
<time>2024-06-13T13:17:18.004Z</time>
</trkpt>
<trkpt lat="42.3071650" lon="1.2636190">
<ele>1546.311401</ele>
<time>2024-06-13T13:17:20.000Z</time>
</trkpt>
<trkpt lat="42.3071000" lon="1.2639280">
<ele>1544.573975</ele>
<time>2024-06-13T13:17:25.002Z</time>
</trkpt>
<trkpt lat="42.3069530" lon="1.2643300">
<ele>1540.946899</ele>
<time>2024-06-13T13:17:33.003Z</time>
</trkpt>
<trkpt lat="42.3068430" lon="1.2644580">
<ele>1539.910645</ele>
<time>2024-06-13T13:17:36.001Z</time>
</trkpt>
<trkpt lat="42.3064880" lon="1.2646700">
<ele>1537.350220</ele>
<time>2024-06-13T13:17:45.004Z</time>
</trkpt>
<trkpt lat="42.3063300" lon="1.2648050">
<ele>1536.466309</ele>
<time>2024-06-13T13:17:49.004Z</time>
</trkpt>
<trkpt lat="42.3062700" lon="1.2649100">
<ele>1536.222534</ele>
<time>2024-06-13T13:17:51.000Z</time>
</trkpt>
<trkpt lat="42.3060290" lon="1.2652770">
<ele>1532.656250</ele>
<time>2024-06-13T13:17:57.998Z</time>
</trkpt>
<trkpt lat="42.3059550" lon="1.2653270">
<ele>1531.528564</ele>
<time>2024-06-13T13:18:00.003Z</time>
</trkpt>
<trkpt lat="42.3058460" lon="1.2654900">
<ele>1528.602539</ele>
<time>2024-06-13T13:18:05.999Z</time>
</trkpt>
<trkpt lat="42.3058660" lon="1.2657710">
<ele>1527.596558</ele>
<time>2024-06-13T13:18:08.004Z</time>
</trkpt>
<trkpt lat="42.3058330" lon="1.2660330">
<ele>1525.859253</ele>
<time>2024-06-13T13:18:12.004Z</time>
</trkpt>
<trkpt lat="42.3057520" lon="1.2661750">
<ele>1524.548584</ele>
<time>2024-06-13T13:18:15.002Z</time>
</trkpt>
<trkpt lat="42.3056920" lon="1.2662930">
<ele>1523.024536</ele>
<time>2024-06-13T13:18:18.000Z</time>
</trkpt>
<trkpt lat="42.3058030" lon="1.2663960">
<ele>1518.696533</ele>
<time>2024-06-13T13:18:24.998Z</time>
</trkpt>
<trkpt lat="42.3058770" lon="1.2663350">
<ele>1518.300171</ele>
<time>2024-06-13T13:18:26.001Z</time>
</trkpt>
<trkpt lat="42.3059270" lon="1.2662760">
<ele>1517.446777</ele>
<time>2024-06-13T13:18:27.996Z</time>
</trkpt>
<trkpt lat="42.3060250" lon="1.2661790">
<ele>1516.014160</ele>
<time>2024-06-13T13:18:31.003Z</time>
</trkpt>
<trkpt lat="42.3061440" lon="1.2658330">
<ele>1512.539551</ele>
<time>2024-06-13T13:18:39.997Z</time>
</trkpt>
<trkpt lat="42.3063100" lon="1.2657970">
<ele>1511.655640</ele>
<time>2024-06-13T13:18:42.002Z</time>
</trkpt>
<trkpt lat="42.3065400" lon="1.2653770">
<ele>1507.449463</ele>
<time>2024-06-13T13:18:50.003Z</time>
</trkpt>
<trkpt lat="42.3066440" lon="1.2654520">
<ele>1505.102417</ele>
<time>2024-06-13T13:18:57.001Z</time>
</trkpt>
<trkpt lat="42.3065850" lon="1.2656360">
<ele>1503.883179</ele>
<time>2024-06-13T13:19:01.001Z</time>
</trkpt>
<trkpt lat="42.3064740" lon="1.2659270">
<ele>1501.871460</ele>
<time>2024-06-13T13:19:06.997Z</time>
</trkpt>
<trkpt lat="42.3064780" lon="1.2661710">
<ele>1500.530396</ele>
<time>2024-06-13T13:19:10.998Z</time>
</trkpt>
<trkpt lat="42.3065100" lon="1.2662850">
<ele>1499.768433</ele>
<time>2024-06-13T13:19:13.002Z</time>
</trkpt>
<trkpt lat="42.3064370" lon="1.2665880">
<ele>1496.720459</ele>
<time>2024-06-13T13:19:17.996Z</time>
</trkpt>
<trkpt lat="42.3062660" lon="1.2669750">
<ele>1493.062744</ele>
<time>2024-06-13T13:19:25.003Z</time>
</trkpt>
<trkpt lat="42.3061740" lon="1.2672680">
<ele>1490.014771</ele>
<time>2024-06-13T13:19:29.997Z</time>
</trkpt>
<trkpt lat="42.3061430" lon="1.2673750">
<ele>1489.009033</ele>
<time>2024-06-13T13:19:32.002Z</time>
</trkpt>
<trkpt lat="42.3060130" lon="1.2675990">
<ele>1485.961060</ele>
<time>2024-06-13T13:19:37.004Z</time>
</trkpt>
<trkpt lat="42.3056050" lon="1.2678520">
<ele>1482.760620</ele>
<time>2024-06-13T13:19:47.001Z</time>
</trkpt>
<trkpt lat="42.3055090" lon="1.2678900">
<ele>1482.120483</ele>
<time>2024-06-13T13:19:48.996Z</time>
</trkpt>
<trkpt lat="42.3053050" lon="1.2681310">
<ele>1480.809814</ele>
<time>2024-06-13T13:19:53.999Z</time>
</trkpt>
<trkpt lat="42.3052240" lon="1.2683100">
<ele>1479.712646</ele>
<time>2024-06-13T13:19:56.997Z</time>
</trkpt>
<trkpt lat="42.3051180" lon="1.2685670">
<ele>1477.883789</ele>
<time>2024-06-13T13:20:00.997Z</time>
</trkpt>
<trkpt lat="42.3050270" lon="1.2687310">
<ele>1476.207397</ele>
<time>2024-06-13T13:20:04.004Z</time>
</trkpt>
<trkpt lat="42.3047540" lon="1.2690690">
<ele>1472.763062</ele>
<time>2024-06-13T13:20:11.003Z</time>
</trkpt>
<trkpt lat="42.3046130" lon="1.2692670">
<ele>1470.903809</ele>
<time>2024-06-13T13:20:15.003Z</time>
</trkpt>
<trkpt lat="42.3044680" lon="1.2696130">
<ele>1467.429077</ele>
<time>2024-06-13T13:20:20.999Z</time>
</trkpt>
<trkpt lat="42.3043650" lon="1.2699890">
<ele>1463.893433</ele>
<time>2024-06-13T13:20:27.997Z</time>
</trkpt>
<trkpt lat="42.3043270" lon="1.2701080">
<ele>1462.948608</ele>
<time>2024-06-13T13:20:30.002Z</time>
</trkpt>
<trkpt lat="42.3042170" lon="1.2703990">
<ele>1460.479736</ele>
<time>2024-06-13T13:20:34.996Z</time>
</trkpt>
<trkpt lat="42.3042080" lon="1.2704620">
<ele>1460.022461</ele>
<time>2024-06-13T13:20:35.998Z</time>
</trkpt>
<trkpt lat="42.3041490" lon="1.2705860">
<ele>1459.504272</ele>
<time>2024-06-13T13:20:37.000Z</time>
</trkpt>
<trkpt lat="42.3041900" lon="1.2706930">
<ele>1459.077637</ele>
<time>2024-06-13T13:20:38.003Z</time>
</trkpt>
<trkpt lat="42.3042320" lon="1.2709350">
<ele>1457.279297</ele>
<time>2024-06-13T13:20:42.003Z</time>
</trkpt>
<trkpt lat="42.3042840" lon="1.2711550">
<ele>1454.292236</ele>
<time>2024-06-13T13:20:46.997Z</time>
</trkpt>
<trkpt lat="42.3042840" lon="1.2713260">
<ele>1453.652222</ele>
<time>2024-06-13T13:20:49.001Z</time>
</trkpt>
<trkpt lat="42.3042760" lon="1.2714600">
<ele>1453.012085</ele>
<time>2024-06-13T13:20:51.999Z</time>
</trkpt>
<trkpt lat="42.3042850" lon="1.2716370">
<ele>1451.945313</ele>
<time>2024-06-13T13:20:54.997Z</time>
</trkpt>
<trkpt lat="42.3042140" lon="1.2722860">
<ele>1447.220947</ele>
<time>2024-06-13T13:21:04.000Z</time>
</trkpt>
<trkpt lat="42.3040890" lon="1.2727850">
<ele>1441.582153</ele>
<time>2024-06-13T13:21:12.001Z</time>
</trkpt>
<trkpt lat="42.3040380" lon="1.2729460">
<ele>1440.362915</ele>
<time>2024-06-13T13:21:14.999Z</time>
</trkpt>
<trkpt lat="42.3039660" lon="1.2732410">
<ele>1438.717041</ele>
<time>2024-06-13T13:21:18.999Z</time>
</trkpt>
<trkpt lat="42.3039230" lon="1.2736010">
<ele>1435.425049</ele>
<time>2024-06-13T13:21:25.998Z</time>
</trkpt>
<trkpt lat="42.3039700" lon="1.2737240">
<ele>1434.114502</ele>
<time>2024-06-13T13:21:28.996Z</time>
</trkpt>
<trkpt lat="42.3039500" lon="1.2739010">
<ele>1433.291504</ele>
<time>2024-06-13T13:21:32.996Z</time>
</trkpt>
<trkpt lat="42.3038160" lon="1.2742930">
<ele>1430.426392</ele>
<time>2024-06-13T13:21:40.003Z</time>
</trkpt>
<trkpt lat="42.3037800" lon="1.2746150">
<ele>1429.450928</ele>
<time>2024-06-13T13:21:43.001Z</time>
</trkpt>
<trkpt lat="42.3037720" lon="1.2749200">
<ele>1427.805054</ele>
<time>2024-06-13T13:21:45.999Z</time>
</trkpt>
<trkpt lat="42.3037480" lon="1.2751300">
<ele>1426.982178</ele>
<time>2024-06-13T13:21:48.004Z</time>
</trkpt>
<trkpt lat="42.3037560" lon="1.2752690">
<ele>1425.823853</ele>
<time>2024-06-13T13:21:50.000Z</time>
</trkpt>
<trkpt lat="42.3037400" lon="1.2755100">
<ele>1424.879028</ele>
<time>2024-06-13T13:21:52.004Z</time>
</trkpt>
<trkpt lat="42.3037680" lon="1.2758270">
<ele>1422.074951</ele>
<time>2024-06-13T13:21:56.998Z</time>
</trkpt>
<trkpt lat="42.3037800" lon="1.2759880">
<ele>1421.587158</ele>
<time>2024-06-13T13:21:58.000Z</time>
</trkpt>
<trkpt lat="42.3037920" lon="1.2760790">
<ele>1420.307007</ele>
<time>2024-06-13T13:21:59.996Z</time>
</trkpt>
<trkpt lat="42.3037680" lon="1.2761380">
<ele>1419.880249</ele>
<time>2024-06-13T13:22:00.998Z</time>
</trkpt>
<trkpt lat="42.3037590" lon="1.2762010">
<ele>1419.544922</ele>
<time>2024-06-13T13:22:02.001Z</time>
</trkpt>
<trkpt lat="42.3037210" lon="1.2762420">
<ele>1419.057373</ele>
<time>2024-06-13T13:22:03.003Z</time>
</trkpt>
<trkpt lat="42.3036830" lon="1.2762780">
<ele>1418.630615</ele>
<time>2024-06-13T13:22:03.996Z</time>
</trkpt>
<trkpt lat="42.3034670" lon="1.2764400">
<ele>1417.502930</ele>
<time>2024-06-13T13:22:08.999Z</time>
</trkpt>
<trkpt lat="42.3033810" lon="1.2765300">
<ele>1417.137085</ele>
<time>2024-06-13T13:22:11.004Z</time>
</trkpt>
<trkpt lat="42.3032560" lon="1.2766900">
<ele>1416.710449</ele>
<time>2024-06-13T13:22:14.002Z</time>
</trkpt>
<trkpt lat="42.3031890" lon="1.2768070">
<ele>1416.222656</ele>
<time>2024-06-13T13:22:15.997Z</time>
</trkpt>
<trkpt lat="42.3031620" lon="1.2768690">
<ele>1415.887329</ele>
<time>2024-06-13T13:22:17.000Z</time>
</trkpt>
<trkpt lat="42.3030750" lon="1.2770410">
<ele>1414.759766</ele>
<time>2024-06-13T13:22:19.998Z</time>
</trkpt>
<trkpt lat="42.3030370" lon="1.2770900">
<ele>1414.302490</ele>
<time>2024-06-13T13:22:21.000Z</time>
</trkpt>
<trkpt lat="42.3030010" lon="1.2771360">
<ele>1413.906128</ele>
<time>2024-06-13T13:22:22.002Z</time>
</trkpt>
<trkpt lat="42.3029760" lon="1.2771880">
<ele>1413.540527</ele>
<time>2024-06-13T13:22:22.996Z</time>
</trkpt>
<trkpt lat="42.3029610" lon="1.2772470">
<ele>1412.961426</ele>
<time>2024-06-13T13:22:23.998Z</time>
</trkpt>
<trkpt lat="42.3029540" lon="1.2773070">
<ele>1412.626099</ele>
<time>2024-06-13T13:22:25.000Z</time>
</trkpt>
<trkpt lat="42.3029540" lon="1.2773720">
<ele>1412.382202</ele>
<time>2024-06-13T13:22:26.003Z</time>
</trkpt>
<trkpt lat="42.3029650" lon="1.2774430">
<ele>1412.199463</ele>
<time>2024-06-13T13:22:26.996Z</time>
</trkpt>
<trkpt lat="42.3029840" lon="1.2775070">
<ele>1411.803101</ele>
<time>2024-06-13T13:22:27.998Z</time>
</trkpt>
<trkpt lat="42.3030010" lon="1.2775690">
<ele>1411.589844</ele>
<time>2024-06-13T13:22:29.001Z</time>
</trkpt>
<trkpt lat="42.3030130" lon="1.2776310">
<ele>1411.467773</ele>
<time>2024-06-13T13:22:30.003Z</time>
</trkpt>
<trkpt lat="42.3030340" lon="1.2776950">
<ele>1411.376343</ele>
<time>2024-06-13T13:22:30.996Z</time>
</trkpt>
<trkpt lat="42.3030580" lon="1.2777530">
<ele>1411.285034</ele>
<time>2024-06-13T13:22:31.999Z</time>
</trkpt>
<trkpt lat="42.3030870" lon="1.2778110">
<ele>1411.162964</ele>
<time>2024-06-13T13:22:33.001Z</time>
</trkpt>
<trkpt lat="42.3031190" lon="1.2778670">
<ele>1411.041138</ele>
<time>2024-06-13T13:22:34.003Z</time>
</trkpt>
<trkpt lat="42.3031540" lon="1.2779230">
<ele>1410.919189</ele>
<time>2024-06-13T13:22:34.997Z</time>
</trkpt>
<trkpt lat="42.3033900" lon="1.2782700">
<ele>1409.517090</ele>
<time>2024-06-13T13:22:41.002Z</time>
</trkpt>
<trkpt lat="42.3034400" lon="1.2782970">
<ele>1409.181763</ele>
<time>2024-06-13T13:22:42.004Z</time>
</trkpt>
<trkpt lat="42.3034840" lon="1.2783060">
<ele>1408.816162</ele>
<time>2024-06-13T13:22:42.997Z</time>
</trkpt>
<trkpt lat="42.3035290" lon="1.2782990">
<ele>1408.297852</ele>
<time>2024-06-13T13:22:44.000Z</time>
</trkpt>
<trkpt lat="42.3035730" lon="1.2782850">
<ele>1407.901733</ele>
<time>2024-06-13T13:22:45.002Z</time>
</trkpt>
<trkpt lat="42.3036190" lon="1.2782640">
<ele>1407.566406</ele>
<time>2024-06-13T13:22:46.004Z</time>
</trkpt>
<trkpt lat="42.3037110" lon="1.2782190">
<ele>1406.713013</ele>
<time>2024-06-13T13:22:48.000Z</time>
</trkpt>
<trkpt lat="42.3037550" lon="1.2782110">
<ele>1405.981323</ele>
<time>2024-06-13T13:22:49.002Z</time>
</trkpt>
<trkpt lat="42.3038080" lon="1.2781940">
<ele>1405.615723</ele>
<time>2024-06-13T13:22:49.996Z</time>
</trkpt>
<trkpt lat="42.3038630" lon="1.2781750">
<ele>1405.402344</ele>
<time>2024-06-13T13:22:50.998Z</time>
</trkpt>
<trkpt lat="42.3039140" lon="1.2781570">
<ele>1405.158569</ele>
<time>2024-06-13T13:22:52.000Z</time>
</trkpt>
<trkpt lat="42.3041790" lon="1.2780690">
<ele>1403.604004</ele>
<time>2024-06-13T13:22:57.996Z</time>
</trkpt>
<trkpt lat="42.3042140" lon="1.2780310">
<ele>1403.238159</ele>
<time>2024-06-13T13:22:58.999Z</time>
</trkpt>
<trkpt lat="42.3043690" lon="1.2778590">
<ele>1402.506714</ele>
<time>2024-06-13T13:23:02.999Z</time>
</trkpt>
<trkpt lat="42.3044210" lon="1.2778090">
<ele>1402.293457</ele>
<time>2024-06-13T13:23:04.001Z</time>
</trkpt>
<trkpt lat="42.3044790" lon="1.2777620">
<ele>1401.988647</ele>
<time>2024-06-13T13:23:05.004Z</time>
</trkpt>
<trkpt lat="42.3048770" lon="1.2775060">
<ele>1399.885376</ele>
<time>2024-06-13T13:23:13.004Z</time>
</trkpt>
<trkpt lat="42.3049270" lon="1.2774530">
<ele>1399.428223</ele>
<time>2024-06-13T13:23:13.998Z</time>
</trkpt>
<trkpt lat="42.3049750" lon="1.2773870">
<ele>1398.970947</ele>
<time>2024-06-13T13:23:15.000Z</time>
</trkpt>
<trkpt lat="42.3050830" lon="1.2771960">
<ele>1397.751831</ele>
<time>2024-06-13T13:23:17.998Z</time>
</trkpt>
<trkpt lat="42.3051000" lon="1.2771280">
<ele>1397.416626</ele>
<time>2024-06-13T13:23:19.000Z</time>
</trkpt>
<trkpt lat="42.3051090" lon="1.2770550">
<ele>1397.081299</ele>
<time>2024-06-13T13:23:20.003Z</time>
</trkpt>
<trkpt lat="42.3051130" lon="1.2769870">
<ele>1396.715454</ele>
<time>2024-06-13T13:23:20.996Z</time>
</trkpt>
<trkpt lat="42.3051190" lon="1.2769260">
<ele>1396.349854</ele>
<time>2024-06-13T13:23:21.998Z</time>
</trkpt>
<trkpt lat="42.3051190" lon="1.2768600">
<ele>1395.984009</ele>
<time>2024-06-13T13:23:23.001Z</time>
</trkpt>
<trkpt lat="42.3051220" lon="1.2767910">
<ele>1395.496338</ele>
<time>2024-06-13T13:23:24.003Z</time>
</trkpt>
<trkpt lat="42.3051550" lon="1.2763030">
<ele>1392.814087</ele>
<time>2024-06-13T13:23:31.001Z</time>
</trkpt>
<trkpt lat="42.3051600" lon="1.2762340">
<ele>1392.539795</ele>
<time>2024-06-13T13:23:32.004Z</time>
</trkpt>
<trkpt lat="42.3051580" lon="1.2761100">
<ele>1391.991089</ele>
<time>2024-06-13T13:23:33.999Z</time>
</trkpt>
<trkpt lat="42.3051590" lon="1.2760470">
<ele>1391.625366</ele>
<time>2024-06-13T13:23:35.002Z</time>
</trkpt>
<trkpt lat="42.3051500" lon="1.2759810">
<ele>1391.015869</ele>
<time>2024-06-13T13:23:36.004Z</time>
</trkpt>
<trkpt lat="42.3051490" lon="1.2759220">
<ele>1390.162231</ele>
<time>2024-06-13T13:23:36.997Z</time>
</trkpt>
<trkpt lat="42.3051440" lon="1.2758590">
<ele>1389.705078</ele>
<time>2024-06-13T13:23:38.000Z</time>
</trkpt>
<trkpt lat="42.3051290" lon="1.2757860">
<ele>1389.308960</ele>
<time>2024-06-13T13:23:39.002Z</time>
</trkpt>
<trkpt lat="42.3051240" lon="1.2757120">
<ele>1388.851685</ele>
<time>2024-06-13T13:23:40.004Z</time>
</trkpt>
<trkpt lat="42.3051180" lon="1.2756380">
<ele>1388.425049</ele>
<time>2024-06-13T13:23:40.998Z</time>
</trkpt>
<trkpt lat="42.3051360" lon="1.2754250">
<ele>1386.931396</ele>
<time>2024-06-13T13:23:43.996Z</time>
</trkpt>
<trkpt lat="42.3051500" lon="1.2753600">
<ele>1386.321777</ele>
<time>2024-06-13T13:23:44.998Z</time>
</trkpt>
<trkpt lat="42.3051560" lon="1.2752960">
<ele>1385.681763</ele>
<time>2024-06-13T13:23:46.000Z</time>
</trkpt>
<trkpt lat="42.3051700" lon="1.2752360">
<ele>1385.102539</ele>
<time>2024-06-13T13:23:47.003Z</time>
</trkpt>
<trkpt lat="42.3051980" lon="1.2751810">
<ele>1384.736938</ele>
<time>2024-06-13T13:23:47.996Z</time>
</trkpt>
<trkpt lat="42.3052270" lon="1.2751210">
<ele>1384.432129</ele>
<time>2024-06-13T13:23:48.998Z</time>
</trkpt>
<trkpt lat="42.3053310" lon="1.2748810">
<ele>1382.755737</ele>
<time>2024-06-13T13:23:52.999Z</time>
</trkpt>
<trkpt lat="42.3053520" lon="1.2748190">
<ele>1382.481445</ele>
<time>2024-06-13T13:23:54.001Z</time>
</trkpt>
<trkpt lat="42.3054110" lon="1.2747440">
<ele>1382.328979</ele>
<time>2024-06-13T13:23:55.003Z</time>
</trkpt>
<trkpt lat="42.3054550" lon="1.2746860">
<ele>1382.115601</ele>
<time>2024-06-13T13:23:55.997Z</time>
</trkpt>
<trkpt lat="42.3054910" lon="1.2746270">
<ele>1381.780273</ele>
<time>2024-06-13T13:23:56.999Z</time>
</trkpt>
<trkpt lat="42.3055190" lon="1.2745720">
<ele>1381.536499</ele>
<time>2024-06-13T13:23:58.001Z</time>
</trkpt>
<trkpt lat="42.3055160" lon="1.2745160">
<ele>1381.201172</ele>
<time>2024-06-13T13:23:59.004Z</time>
</trkpt>
<trkpt lat="42.3055210" lon="1.2744500">
<ele>1380.926880</ele>
<time>2024-06-13T13:23:59.997Z</time>
</trkpt>
<trkpt lat="42.3055280" lon="1.2743870">
<ele>1380.256348</ele>
<time>2024-06-13T13:24:00.999Z</time>
</trkpt>
<trkpt lat="42.3055240" lon="1.2743180">
<ele>1379.951538</ele>
<time>2024-06-13T13:24:02.002Z</time>
</trkpt>
<trkpt lat="42.3055180" lon="1.2742440">
<ele>1379.524780</ele>
<time>2024-06-13T13:24:03.004Z</time>
</trkpt>
<trkpt lat="42.3055010" lon="1.2741710">
<ele>1379.128662</ele>
<time>2024-06-13T13:24:03.997Z</time>
</trkpt>
<trkpt lat="42.3054830" lon="1.2741030">
<ele>1378.701782</ele>
<time>2024-06-13T13:24:05.000Z</time>
</trkpt>
<trkpt lat="42.3054470" lon="1.2739620">
<ele>1378.183716</ele>
<time>2024-06-13T13:24:07.004Z</time>
</trkpt>
<trkpt lat="42.3054470" lon="1.2738950">
<ele>1377.939819</ele>
<time>2024-06-13T13:24:07.998Z</time>
</trkpt>
<trkpt lat="42.3054550" lon="1.2738350">
<ele>1377.421753</ele>
<time>2024-06-13T13:24:09.000Z</time>
</trkpt>
<trkpt lat="42.3054750" lon="1.2737720">
<ele>1377.025391</ele>
<time>2024-06-13T13:24:10.002Z</time>
</trkpt>
<trkpt lat="42.3055030" lon="1.2737190">
<ele>1376.537842</ele>
<time>2024-06-13T13:24:10.996Z</time>
</trkpt>
<trkpt lat="42.3055360" lon="1.2736700">
<ele>1376.080566</ele>
<time>2024-06-13T13:24:11.998Z</time>
</trkpt>
<trkpt lat="42.3055740" lon="1.2736280">
<ele>1375.653809</ele>
<time>2024-06-13T13:24:13.000Z</time>
</trkpt>
<trkpt lat="42.3056090" lon="1.2735900">
<ele>1375.166260</ele>
<time>2024-06-13T13:24:14.003Z</time>
</trkpt>
<trkpt lat="42.3056900" lon="1.2735250">
<ele>1374.404175</ele>
<time>2024-06-13T13:24:15.998Z</time>
</trkpt>
<trkpt lat="42.3057310" lon="1.2735080">
<ele>1373.733643</ele>
<time>2024-06-13T13:24:17.001Z</time>
</trkpt>
<trkpt lat="42.3057810" lon="1.2734960">
<ele>1373.032593</ele>
<time>2024-06-13T13:24:18.003Z</time>
</trkpt>
<trkpt lat="42.3060060" lon="1.2734460">
<ele>1370.990356</ele>
<time>2024-06-13T13:24:22.003Z</time>
</trkpt>
<trkpt lat="42.3061740" lon="1.2733820">
<ele>1369.252930</ele>
<time>2024-06-13T13:24:25.001Z</time>
</trkpt>
<trkpt lat="42.3062280" lon="1.2733710">
<ele>1368.856812</ele>
<time>2024-06-13T13:24:26.004Z</time>
</trkpt>
<trkpt lat="42.3062860" lon="1.2733710">
<ele>1368.277710</ele>
<time>2024-06-13T13:24:26.997Z</time>
</trkpt>
<trkpt lat="42.3063470" lon="1.2733810">
<ele>1367.637573</ele>
<time>2024-06-13T13:24:27.999Z</time>
</trkpt>
<trkpt lat="42.3064040" lon="1.2733890">
<ele>1367.027954</ele>
<time>2024-06-13T13:24:29.002Z</time>
</trkpt>
<trkpt lat="42.3064580" lon="1.2733890">
<ele>1366.479370</ele>
<time>2024-06-13T13:24:30.004Z</time>
</trkpt>
<trkpt lat="42.3065100" lon="1.2733760">
<ele>1365.961182</ele>
<time>2024-06-13T13:24:30.997Z</time>
</trkpt>
<trkpt lat="42.3065590" lon="1.2733500">
<ele>1365.534546</ele>
<time>2024-06-13T13:24:32.000Z</time>
</trkpt>
<trkpt lat="42.3067040" lon="1.2732590">
<ele>1363.979980</ele>
<time>2024-06-13T13:24:34.998Z</time>
</trkpt>
<trkpt lat="42.3067440" lon="1.2732170">
<ele>1363.187500</ele>
<time>2024-06-13T13:24:36.000Z</time>
</trkpt>
<trkpt lat="42.3067850" lon="1.2731690">
<ele>1362.608398</ele>
<time>2024-06-13T13:24:37.002Z</time>
</trkpt>
<trkpt lat="42.3068060" lon="1.2731130">
<ele>1362.181763</ele>
<time>2024-06-13T13:24:37.996Z</time>
</trkpt>
<trkpt lat="42.3068250" lon="1.2730540">
<ele>1361.785400</ele>
<time>2024-06-13T13:24:38.998Z</time>
</trkpt>
<trkpt lat="42.3068480" lon="1.2729950">
<ele>1361.450195</ele>
<time>2024-06-13T13:24:40.000Z</time>
</trkpt>
<trkpt lat="42.3068860" lon="1.2729450">
<ele>1361.145386</ele>
<time>2024-06-13T13:24:41.003Z</time>
</trkpt>
<trkpt lat="42.3069250" lon="1.2729000">
<ele>1360.810059</ele>
<time>2024-06-13T13:24:41.996Z</time>
</trkpt>
<trkpt lat="42.3071800" lon="1.2726030">
<ele>1356.908569</ele>
<time>2024-06-13T13:24:49.003Z</time>
</trkpt>
<trkpt lat="42.3072140" lon="1.2725510">
<ele>1356.908569</ele>
<time>2024-06-13T13:24:49.997Z</time>
</trkpt>
<trkpt lat="42.3072450" lon="1.2724910">
<ele>1355.963867</ele>
<time>2024-06-13T13:24:50.999Z</time>
</trkpt>
<trkpt lat="42.3073890" lon="1.2721130">
<ele>1353.159546</ele>
<time>2024-06-13T13:24:57.004Z</time>
</trkpt>
<trkpt lat="42.3075920" lon="1.2716640">
<ele>1350.172607</ele>
<time>2024-06-13T13:25:04.002Z</time>
</trkpt>
<trkpt lat="42.3076610" lon="1.2714740">
<ele>1348.282837</ele>
<time>2024-06-13T13:25:07.000Z</time>
</trkpt>
<trkpt lat="42.3076690" lon="1.2714200">
<ele>1347.764526</ele>
<time>2024-06-13T13:25:08.003Z</time>
</trkpt>
<trkpt lat="42.3076730" lon="1.2713710">
<ele>1347.490234</ele>
<time>2024-06-13T13:25:08.996Z</time>
</trkpt>
<trkpt lat="42.3076810" lon="1.2712200">
<ele>1346.027344</ele>
<time>2024-06-13T13:25:12.003Z</time>
</trkpt>
<trkpt lat="42.3076940" lon="1.2711650">
<ele>1345.204346</ele>
<time>2024-06-13T13:25:12.996Z</time>
</trkpt>
<trkpt lat="42.3077570" lon="1.2709240">
<ele>1343.588867</ele>
<time>2024-06-13T13:25:16.997Z</time>
</trkpt>
<trkpt lat="42.3077830" lon="1.2708650">
<ele>1343.253540</ele>
<time>2024-06-13T13:25:17.999Z</time>
</trkpt>
<trkpt lat="42.3078790" lon="1.2707030">
<ele>1342.217285</ele>
<time>2024-06-13T13:25:20.997Z</time>
</trkpt>
<trkpt lat="42.3081190" lon="1.2703740">
<ele>1338.986450</ele>
<time>2024-06-13T13:25:28.004Z</time>
</trkpt>
<trkpt lat="42.3083610" lon="1.2700450">
<ele>1336.883301</ele>
<time>2024-06-13T13:25:34.000Z</time>
</trkpt>
<trkpt lat="42.3083880" lon="1.2699740">
<ele>1336.426147</ele>
<time>2024-06-13T13:25:35.003Z</time>
</trkpt>
<trkpt lat="42.3084710" lon="1.2697570">
<ele>1335.145874</ele>
<time>2024-06-13T13:25:38.001Z</time>
</trkpt>
<trkpt lat="42.3085200" lon="1.2696190">
<ele>1333.743774</ele>
<time>2024-06-13T13:25:39.996Z</time>
</trkpt>
<trkpt lat="42.3085330" lon="1.2695490">
<ele>1333.438965</ele>
<time>2024-06-13T13:25:40.999Z</time>
</trkpt>
<trkpt lat="42.3085420" lon="1.2694780">
<ele>1333.103760</ele>
<time>2024-06-13T13:25:42.001Z</time>
</trkpt>
<trkpt lat="42.3085550" lon="1.2693500">
<ele>1332.372192</ele>
<time>2024-06-13T13:25:43.997Z</time>
</trkpt>
<trkpt lat="42.3085660" lon="1.2692970">
<ele>1331.945435</ele>
<time>2024-06-13T13:25:44.999Z</time>
</trkpt>
<trkpt lat="42.3085860" lon="1.2692550">
<ele>1331.640747</ele>
<time>2024-06-13T13:25:46.001Z</time>
</trkpt>
<trkpt lat="42.3086130" lon="1.2692300">
<ele>1331.427368</ele>
<time>2024-06-13T13:25:47.004Z</time>
</trkpt>
<trkpt lat="42.3086480" lon="1.2692260">
<ele>1331.213989</ele>
<time>2024-06-13T13:25:47.997Z</time>
</trkpt>
<trkpt lat="42.3086850" lon="1.2692430">
<ele>1330.970215</ele>
<time>2024-06-13T13:25:48.999Z</time>
</trkpt>
<trkpt lat="42.3087160" lon="1.2692790">
<ele>1330.665405</ele>
<time>2024-06-13T13:25:50.002Z</time>
</trkpt>
<trkpt lat="42.3087370" lon="1.2693340">
<ele>1330.330078</ele>
<time>2024-06-13T13:25:51.004Z</time>
</trkpt>
<trkpt lat="42.3087480" lon="1.2694000">
<ele>1329.933838</ele>
<time>2024-06-13T13:25:51.997Z</time>
</trkpt>
<trkpt lat="42.3087440" lon="1.2694860">
<ele>1329.476563</ele>
<time>2024-06-13T13:25:53.000Z</time>
</trkpt>
<trkpt lat="42.3088040" lon="1.2696150">
<ele>1328.714600</ele>
<time>2024-06-13T13:25:55.004Z</time>
</trkpt>
<trkpt lat="42.3089150" lon="1.2698190">
<ele>1326.916260</ele>
<time>2024-06-13T13:25:58.996Z</time>
</trkpt>
<trkpt lat="42.3089980" lon="1.2700980">
<ele>1323.776855</ele>
<time>2024-06-13T13:26:03.998Z</time>
</trkpt>
<trkpt lat="42.3090010" lon="1.2705070">
<ele>1320.424072</ele>
<time>2024-06-13T13:26:13.001Z</time>
</trkpt>
<trkpt lat="42.3089670" lon="1.2707030">
<ele>1318.930664</ele>
<time>2024-06-13T13:26:15.999Z</time>
</trkpt>
<trkpt lat="42.3089470" lon="1.2707700">
<ele>1318.473389</ele>
<time>2024-06-13T13:26:17.002Z</time>
</trkpt>
<trkpt lat="42.3089240" lon="1.2708360">
<ele>1318.168579</ele>
<time>2024-06-13T13:26:18.004Z</time>
</trkpt>
<trkpt lat="42.3088350" lon="1.2710980">
<ele>1316.644653</ele>
<time>2024-06-13T13:26:22.004Z</time>
</trkpt>
<trkpt lat="42.3087870" lon="1.2712150">
<ele>1315.486328</ele>
<time>2024-06-13T13:26:24.000Z</time>
</trkpt>
<trkpt lat="42.3087750" lon="1.2712790">
<ele>1314.541382</ele>
<time>2024-06-13T13:26:25.002Z</time>
</trkpt>
<trkpt lat="42.3087800" lon="1.2713480">
<ele>1314.541382</ele>
<time>2024-06-13T13:26:25.996Z</time>
</trkpt>
<trkpt lat="42.3088020" lon="1.2714130">
<ele>1314.206177</ele>
<time>2024-06-13T13:26:26.998Z</time>
</trkpt>
<trkpt lat="42.3088320" lon="1.2714710">
<ele>1313.749023</ele>
<time>2024-06-13T13:26:28.000Z</time>
</trkpt>
<trkpt lat="42.3088640" lon="1.2715260">
<ele>1312.834595</ele>
<time>2024-06-13T13:26:29.003Z</time>
</trkpt>
<trkpt lat="42.3088880" lon="1.2715840">
<ele>1312.468750</ele>
<time>2024-06-13T13:26:29.996Z</time>
</trkpt>
<trkpt lat="42.3089030" lon="1.2716490">
<ele>1312.255371</ele>
<time>2024-06-13T13:26:30.998Z</time>
</trkpt>
<trkpt lat="42.3089090" lon="1.2717180">
<ele>1311.920166</ele>
<time>2024-06-13T13:26:32.001Z</time>
</trkpt>
<trkpt lat="42.3089040" lon="1.2717870">
<ele>1311.463013</ele>
<time>2024-06-13T13:26:33.003Z</time>
</trkpt>
<trkpt lat="42.3088920" lon="1.2718580">
<ele>1310.670532</ele>
<time>2024-06-13T13:26:33.996Z</time>
</trkpt>
<trkpt lat="42.3088640" lon="1.2719950">
<ele>1309.481812</ele>
<time>2024-06-13T13:26:36.001Z</time>
</trkpt>
<trkpt lat="42.3088410" lon="1.2720530">
<ele>1309.115967</ele>
<time>2024-06-13T13:26:37.003Z</time>
</trkpt>
<trkpt lat="42.3087640" lon="1.2722240">
<ele>1307.653076</ele>
<time>2024-06-13T13:26:40.001Z</time>
</trkpt>
<trkpt lat="42.3087480" lon="1.2722930">
<ele>1307.226196</ele>
<time>2024-06-13T13:26:41.004Z</time>
</trkpt>
<trkpt lat="42.3087430" lon="1.2723660">
<ele>1306.860474</ele>
<time>2024-06-13T13:26:41.997Z</time>
</trkpt>
<trkpt lat="42.3087400" lon="1.2726510">
<ele>1305.214600</ele>
<time>2024-06-13T13:26:45.997Z</time>
</trkpt>
<trkpt lat="42.3087520" lon="1.2727130">
<ele>1304.787720</ele>
<time>2024-06-13T13:26:47.000Z</time>
</trkpt>
<trkpt lat="42.3087730" lon="1.2727710">
<ele>1304.300171</ele>
<time>2024-06-13T13:26:48.002Z</time>
</trkpt>
<trkpt lat="42.3088020" lon="1.2728260">
<ele>1303.751465</ele>
<time>2024-06-13T13:26:49.004Z</time>
</trkpt>
<trkpt lat="42.3088340" lon="1.2728770">
<ele>1303.324829</ele>
<time>2024-06-13T13:26:49.998Z</time>
</trkpt>
<trkpt lat="42.3088570" lon="1.2729300">
<ele>1302.745728</ele>
<time>2024-06-13T13:26:51.000Z</time>
</trkpt>
<trkpt lat="42.3088670" lon="1.2729810">
<ele>1302.258057</ele>
<time>2024-06-13T13:26:52.002Z</time>
</trkpt>
<trkpt lat="42.3088630" lon="1.2730310">
<ele>1301.953247</ele>
<time>2024-06-13T13:26:52.996Z</time>
</trkpt>
<trkpt lat="42.3088490" lon="1.2730810">
<ele>1301.008301</ele>
<time>2024-06-13T13:26:53.998Z</time>
</trkpt>
<trkpt lat="42.3088260" lon="1.2731300">
<ele>1300.520630</ele>
<time>2024-06-13T13:26:55.000Z</time>
</trkpt>
<trkpt lat="42.3088010" lon="1.2731830">
<ele>1300.063354</ele>
<time>2024-06-13T13:26:56.003Z</time>
</trkpt>
<trkpt lat="42.3087750" lon="1.2732350">
<ele>1299.667236</ele>
<time>2024-06-13T13:26:56.996Z</time>
</trkpt>
<trkpt lat="42.3087510" lon="1.2732890">
<ele>1299.301392</ele>
<time>2024-06-13T13:26:57.998Z</time>
</trkpt>
<trkpt lat="42.3087270" lon="1.2733450">
<ele>1298.996582</ele>
<time>2024-06-13T13:26:59.001Z</time>
</trkpt>
<trkpt lat="42.3086600" lon="1.2735060">
<ele>1298.143188</ele>
<time>2024-06-13T13:27:01.999Z</time>
</trkpt>
<trkpt lat="42.3086470" lon="1.2735710">
<ele>1297.899414</ele>
<time>2024-06-13T13:27:03.001Z</time>
</trkpt>
<trkpt lat="42.3086410" lon="1.2736340">
<ele>1297.747070</ele>
<time>2024-06-13T13:27:04.003Z</time>
</trkpt>
<trkpt lat="42.3086300" lon="1.2737640">
<ele>1297.228760</ele>
<time>2024-06-13T13:27:05.999Z</time>
</trkpt>
<trkpt lat="42.3086390" lon="1.2739020">
<ele>1296.558228</ele>
<time>2024-06-13T13:27:08.004Z</time>
</trkpt>
<trkpt lat="42.3086660" lon="1.2740260">
<ele>1295.735352</ele>
<time>2024-06-13T13:27:09.999Z</time>
</trkpt>
<trkpt lat="42.3086850" lon="1.2740880">
<ele>1295.247559</ele>
<time>2024-06-13T13:27:11.002Z</time>
</trkpt>
<trkpt lat="42.3088040" lon="1.2743290">
<ele>1293.235840</ele>
<time>2024-06-13T13:27:15.002Z</time>
</trkpt>
<trkpt lat="42.3088260" lon="1.2743890">
<ele>1292.809204</ele>
<time>2024-06-13T13:27:16.004Z</time>
</trkpt>
<trkpt lat="42.3088340" lon="1.2744500">
<ele>1292.321533</ele>
<time>2024-06-13T13:27:16.998Z</time>
</trkpt>
<trkpt lat="42.3088360" lon="1.2745000">
<ele>1291.468140</ele>
<time>2024-06-13T13:27:18.000Z</time>
</trkpt>
<trkpt lat="42.3088360" lon="1.2745370">
<ele>1291.041382</ele>
<time>2024-06-13T13:27:19.002Z</time>
</trkpt>
<trkpt lat="42.3088360" lon="1.2745740">
<ele>1290.584229</ele>
<time>2024-06-13T13:27:19.996Z</time>
</trkpt>
<trkpt lat="42.3088320" lon="1.2746130">
<ele>1290.248901</ele>
<time>2024-06-13T13:27:20.998Z</time>
</trkpt>
<trkpt lat="42.3088260" lon="1.2746550">
<ele>1289.974609</ele>
<time>2024-06-13T13:27:22.000Z</time>
</trkpt>
<trkpt lat="42.3088150" lon="1.2746940">
<ele>1289.578247</ele>
<time>2024-06-13T13:27:23.003Z</time>
</trkpt>
<trkpt lat="42.3088060" lon="1.2747290">
<ele>1289.334473</ele>
<time>2024-06-13T13:27:23.996Z</time>
</trkpt>
<trkpt lat="42.3087980" lon="1.2747630">
<ele>1288.907837</ele>
<time>2024-06-13T13:27:24.998Z</time>
</trkpt>
<trkpt lat="42.3087270" lon="1.2749190">
<ele>1287.566528</ele>
<time>2024-06-13T13:27:28.999Z</time>
</trkpt>
<trkpt lat="42.3087100" lon="1.2749770">
<ele>1287.444702</ele>
<time>2024-06-13T13:27:30.001Z</time>
</trkpt>
<trkpt lat="42.3087150" lon="1.2750320">
<ele>1287.139893</ele>
<time>2024-06-13T13:27:31.003Z</time>
</trkpt>
<trkpt lat="42.3087360" lon="1.2750850">
<ele>1286.987549</ele>
<time>2024-06-13T13:27:31.997Z</time>
</trkpt>
<trkpt lat="42.3087620" lon="1.2751310">
<ele>1286.835083</ele>
<time>2024-06-13T13:27:32.999Z</time>
</trkpt>
<trkpt lat="42.3087930" lon="1.2751780">
<ele>1286.652222</ele>
<time>2024-06-13T13:27:34.001Z</time>
</trkpt>
<trkpt lat="42.3088250" lon="1.2752170">
<ele>1286.469360</ele>
<time>2024-06-13T13:27:35.004Z</time>
</trkpt>
<trkpt lat="42.3089270" lon="1.2754200">
<ele>1284.853882</ele>
<time>2024-06-13T13:27:39.004Z</time>
</trkpt>
<trkpt lat="42.3089330" lon="1.2754800">
<ele>1284.305298</ele>
<time>2024-06-13T13:27:39.997Z</time>
</trkpt>
<trkpt lat="42.3089280" lon="1.2755390">
<ele>1283.908936</ele>
<time>2024-06-13T13:27:41.000Z</time>
</trkpt>
<trkpt lat="42.3089110" lon="1.2755910">
<ele>1283.299438</ele>
<time>2024-06-13T13:27:42.002Z</time>
</trkpt>
<trkpt lat="42.3088830" lon="1.2756370">
<ele>1283.025146</ele>
<time>2024-06-13T13:27:43.004Z</time>
</trkpt>
<trkpt lat="42.3088490" lon="1.2756780">
<ele>1282.628906</ele>
<time>2024-06-13T13:27:43.998Z</time>
</trkpt>
<trkpt lat="42.3088130" lon="1.2757150">
<ele>1282.263062</ele>
<time>2024-06-13T13:27:45.000Z</time>
</trkpt>
<trkpt lat="42.3087830" lon="1.2757630">
<ele>1281.836426</ele>
<time>2024-06-13T13:27:46.002Z</time>
</trkpt>
<trkpt lat="42.3087660" lon="1.2758250">
<ele>1281.409668</ele>
<time>2024-06-13T13:27:46.996Z</time>
</trkpt>
<trkpt lat="42.3087600" lon="1.2758980">
<ele>1280.921997</ele>
<time>2024-06-13T13:27:47.998Z</time>
</trkpt>
<trkpt lat="42.3087620" lon="1.2759720">
<ele>1280.647705</ele>
<time>2024-06-13T13:27:49.000Z</time>
</trkpt>
<trkpt lat="42.3087660" lon="1.2760460">
<ele>1280.342896</ele>
<time>2024-06-13T13:27:50.003Z</time>
</trkpt>
<trkpt lat="42.3087910" lon="1.2763400">
<ele>1278.635986</ele>
<time>2024-06-13T13:27:54.003Z</time>
</trkpt>
<trkpt lat="42.3088040" lon="1.2764040">
<ele>1278.209351</ele>
<time>2024-06-13T13:27:54.996Z</time>
</trkpt>
<trkpt lat="42.3089150" lon="1.2767530">
<ele>1275.039429</ele>
<time>2024-06-13T13:28:02.997Z</time>
</trkpt>
<trkpt lat="42.3089230" lon="1.2767940">
<ele>1272.296265</ele>
<time>2024-06-13T13:28:13.002Z</time>
</trkpt>
<trkpt lat="42.3089230" lon="1.2767980">
<ele>1271.412231</ele>
<time>2024-06-13T13:28:37.004Z</time>
</trkpt>
<trkpt lat="42.3089260" lon="1.2769550">
<ele>1271.107422</ele>
<time>2024-06-13T13:28:51.001Z</time>
</trkpt>
<trkpt lat="42.3088720" lon="1.2775620">
<ele>1269.674927</ele>
<time>2024-06-13T13:29:00.004Z</time>
</trkpt>
<trkpt lat="42.3088510" lon="1.2777880">
<ele>1268.425171</ele>
<time>2024-06-13T13:29:03.002Z</time>
</trkpt>
<trkpt lat="42.3088330" lon="1.2778600">
<ele>1267.785034</ele>
<time>2024-06-13T13:29:04.004Z</time>
</trkpt>
<trkpt lat="42.3088070" lon="1.2779290">
<ele>1267.266968</ele>
<time>2024-06-13T13:29:04.998Z</time>
</trkpt>
<trkpt lat="42.3087400" lon="1.2781250">
<ele>1265.468628</ele>
<time>2024-06-13T13:29:07.996Z</time>
</trkpt>
<trkpt lat="42.3087200" lon="1.2781880">
<ele>1264.889526</ele>
<time>2024-06-13T13:29:08.998Z</time>
</trkpt>
<trkpt lat="42.3086950" lon="1.2784320">
<ele>1263.334961</ele>
<time>2024-06-13T13:29:12.998Z</time>
</trkpt>
<trkpt lat="42.3086790" lon="1.2784890">
<ele>1263.030151</ele>
<time>2024-06-13T13:29:14.001Z</time>
</trkpt>
<trkpt lat="42.3086500" lon="1.2785420">
<ele>1262.664551</ele>
<time>2024-06-13T13:29:15.003Z</time>
</trkpt>
<trkpt lat="42.3086280" lon="1.2785900">
<ele>1262.268188</ele>
<time>2024-06-13T13:29:15.996Z</time>
</trkpt>
<trkpt lat="42.3086160" lon="1.2786360">
<ele>1262.024414</ele>
<time>2024-06-13T13:29:16.999Z</time>
</trkpt>
<trkpt lat="42.3086170" lon="1.2786790">
<ele>1261.689087</ele>
<time>2024-06-13T13:29:18.001Z</time>
</trkpt>
<trkpt lat="42.3086360" lon="1.2787180">
<ele>1260.866211</ele>
<time>2024-06-13T13:29:19.003Z</time>
</trkpt>
<trkpt lat="42.3086620" lon="1.2787360">
<ele>1260.866211</ele>
<time>2024-06-13T13:29:19.997Z</time>
</trkpt>
<trkpt lat="42.3086820" lon="1.2787230">
<ele>1260.226074</ele>
<time>2024-06-13T13:29:20.999Z</time>
</trkpt>
<trkpt lat="42.3088270" lon="1.2784820">
<ele>1256.964722</ele>
<time>2024-06-13T13:29:29.000Z</time>
</trkpt>
<trkpt lat="42.3089150" lon="1.2783050">
<ele>1255.867432</ele>
<time>2024-06-13T13:29:33.000Z</time>
</trkpt>
<trkpt lat="42.3089760" lon="1.2781920">
<ele>1255.471191</ele>
<time>2024-06-13T13:29:34.996Z</time>
</trkpt>
<trkpt lat="42.3090330" lon="1.2780770">
<ele>1254.739746</ele>
<time>2024-06-13T13:29:37.000Z</time>
</trkpt>
<trkpt lat="42.3091960" lon="1.2777560">
<ele>1251.447754</ele>
<time>2024-06-13T13:29:42.996Z</time>
</trkpt>
<trkpt lat="42.3092290" lon="1.2777000">
<ele>1251.447754</ele>
<time>2024-06-13T13:29:43.999Z</time>
</trkpt>
<trkpt lat="42.3093070" lon="1.2775940">
<ele>1250.320068</ele>
<time>2024-06-13T13:29:46.003Z</time>
</trkpt>
<trkpt lat="42.3093530" lon="1.2775500">
<ele>1249.649536</ele>
<time>2024-06-13T13:29:46.997Z</time>
</trkpt>
<trkpt lat="42.3094030" lon="1.2775150">
<ele>1249.100952</ele>
<time>2024-06-13T13:29:47.999Z</time>
</trkpt>
<trkpt lat="42.3097550" lon="1.2772710">
<ele>1246.022461</ele>
<time>2024-06-13T13:29:54.997Z</time>
</trkpt>
<trkpt lat="42.3098840" lon="1.2771330">
<ele>1243.919312</ele>
<time>2024-06-13T13:29:58.998Z</time>
</trkpt>
<trkpt lat="42.3099170" lon="1.2771270">
<ele>1243.370605</ele>
<time>2024-06-13T13:30:00.000Z</time>
</trkpt>
<trkpt lat="42.3099470" lon="1.2771290">
<ele>1242.943848</ele>
<time>2024-06-13T13:30:01.002Z</time>
</trkpt>
<trkpt lat="42.3099730" lon="1.2771430">
<ele>1242.547729</ele>
<time>2024-06-13T13:30:01.996Z</time>
</trkpt>
<trkpt lat="42.3099910" lon="1.2771720">
<ele>1242.181885</ele>
<time>2024-06-13T13:30:02.998Z</time>
</trkpt>
<trkpt lat="42.3099980" lon="1.2772090">
<ele>1241.846680</ele>
<time>2024-06-13T13:30:04.000Z</time>
</trkpt>
<trkpt lat="42.3099950" lon="1.2772460">
<ele>1241.541870</ele>
<time>2024-06-13T13:30:05.003Z</time>
</trkpt>
<trkpt lat="42.3099880" lon="1.2772810">
<ele>1241.328491</ele>
<time>2024-06-13T13:30:05.996Z</time>
</trkpt>
<trkpt lat="42.3099710" lon="1.2773130">
<ele>1240.962646</ele>
<time>2024-06-13T13:30:06.998Z</time>
</trkpt>
<trkpt lat="42.3099440" lon="1.2773430">
<ele>1240.962646</ele>
<time>2024-06-13T13:30:08.001Z</time>
</trkpt>
<trkpt lat="42.3099100" lon="1.2773730">
<ele>1240.322632</ele>
<time>2024-06-13T13:30:09.003Z</time>
</trkpt>
<trkpt lat="42.3097970" lon="1.2774920">
<ele>1239.103516</ele>
<time>2024-06-13T13:30:12.001Z</time>
</trkpt>
<trkpt lat="42.3097630" lon="1.2775450">
<ele>1238.798706</ele>
<time>2024-06-13T13:30:13.003Z</time>
</trkpt>
<trkpt lat="42.3096720" lon="1.2777210">
<ele>1238.006104</ele>
<time>2024-06-13T13:30:16.001Z</time>
</trkpt>
<trkpt lat="42.3096560" lon="1.2777930">
<ele>1237.609863</ele>
<time>2024-06-13T13:30:17.004Z</time>
</trkpt>
<trkpt lat="42.3096540" lon="1.2778700">
<ele>1237.274658</ele>
<time>2024-06-13T13:30:17.997Z</time>
</trkpt>
<trkpt lat="42.3096660" lon="1.2779470">
<ele>1236.786987</ele>
<time>2024-06-13T13:30:18.999Z</time>
</trkpt>
<trkpt lat="42.3096880" lon="1.2780210">
<ele>1236.207886</ele>
<time>2024-06-13T13:30:20.002Z</time>
</trkpt>
<trkpt lat="42.3097150" lon="1.2780970">
<ele>1235.720093</ele>
<time>2024-06-13T13:30:21.004Z</time>
</trkpt>
<trkpt lat="42.3099160" lon="1.2785250">
<ele>1232.458740</ele>
<time>2024-06-13T13:30:27.000Z</time>
</trkpt>
<trkpt lat="42.3099770" lon="1.2786570">
<ele>1231.818726</ele>
<time>2024-06-13T13:30:28.996Z</time>
</trkpt>
<trkpt lat="42.3099980" lon="1.2787290">
<ele>1231.331055</ele>
<time>2024-06-13T13:30:29.998Z</time>
</trkpt>
<trkpt lat="42.3100090" lon="1.2788070">
<ele>1230.904297</ele>
<time>2024-06-13T13:30:31.000Z</time>
</trkpt>
<trkpt lat="42.3100220" lon="1.2789800">
<ele>1229.654663</ele>
<time>2024-06-13T13:30:32.996Z</time>
</trkpt>
<trkpt lat="42.3100430" lon="1.2790650">
<ele>1229.105957</ele>
<time>2024-06-13T13:30:33.998Z</time>
</trkpt>
<trkpt lat="42.3100730" lon="1.2791460">
<ele>1228.831665</ele>
<time>2024-06-13T13:30:35.001Z</time>
</trkpt>
<trkpt lat="42.3101560" lon="1.2793670">
<ele>1227.246704</ele>
<time>2024-06-13T13:30:37.999Z</time>
</trkpt>
<trkpt lat="42.3101680" lon="1.2794380">
<ele>1226.880981</ele>
<time>2024-06-13T13:30:39.001Z</time>
</trkpt>
<trkpt lat="42.3101720" lon="1.2795090">
<ele>1226.454224</ele>
<time>2024-06-13T13:30:40.003Z</time>
</trkpt>
<trkpt lat="42.3101690" lon="1.2795770">
<ele>1225.661743</ele>
<time>2024-06-13T13:30:40.997Z</time>
</trkpt>
<trkpt lat="42.3101600" lon="1.2796400">
<ele>1225.143555</ele>
<time>2024-06-13T13:30:41.999Z</time>
</trkpt>
<trkpt lat="42.3101430" lon="1.2796990">
<ele>1224.686401</ele>
<time>2024-06-13T13:30:43.001Z</time>
</trkpt>
<trkpt lat="42.3101160" lon="1.2797490">
<ele>1224.290161</ele>
<time>2024-06-13T13:30:44.004Z</time>
</trkpt>
<trkpt lat="42.3100820" lon="1.2797930">
<ele>1223.985352</ele>
<time>2024-06-13T13:30:44.997Z</time>
</trkpt>
<trkpt lat="42.3100420" lon="1.2798310">
<ele>1223.436646</ele>
<time>2024-06-13T13:30:45.999Z</time>
</trkpt>
<trkpt lat="42.3099980" lon="1.2798680">
<ele>1223.162354</ele>
<time>2024-06-13T13:30:47.002Z</time>
</trkpt>
<trkpt lat="42.3098630" lon="1.2799800">
<ele>1222.339478</ele>
<time>2024-06-13T13:30:50.000Z</time>
</trkpt>
<trkpt lat="42.3098240" lon="1.2800230">
<ele>1221.973755</ele>
<time>2024-06-13T13:30:51.002Z</time>
</trkpt>
<trkpt lat="42.3097890" lon="1.2800680">
<ele>1221.668945</ele>
<time>2024-06-13T13:30:52.004Z</time>
</trkpt>
<trkpt lat="42.3097570" lon="1.2801150">
<ele>1221.181152</ele>
<time>2024-06-13T13:30:52.998Z</time>
</trkpt>
<trkpt lat="42.3097260" lon="1.2801640">
<ele>1220.663086</ele>
<time>2024-06-13T13:30:54.000Z</time>
</trkpt>
<trkpt lat="42.3096930" lon="1.2802130">
<ele>1219.809570</ele>
<time>2024-06-13T13:30:55.002Z</time>
</trkpt>
<trkpt lat="42.3096560" lon="1.2802580">
<ele>1219.809570</ele>
<time>2024-06-13T13:30:55.996Z</time>
</trkpt>
<trkpt lat="42.3094830" lon="1.2804710">
<ele>1216.670166</ele>
<time>2024-06-13T13:31:02.001Z</time>
</trkpt>
<trkpt lat="42.3094640" lon="1.2805110">
<ele>1213.500244</ele>
<time>2024-06-13T13:31:10.001Z</time>
</trkpt>
<trkpt lat="42.3094560" lon="1.2805240">
<ele>1212.128662</ele>
<time>2024-06-13T13:31:26.996Z</time>
</trkpt>
<trkpt lat="42.3094490" lon="1.2805480">
<ele>1212.098145</ele>
<time>2024-06-13T13:31:27.998Z</time>
</trkpt>
<trkpt lat="42.3094410" lon="1.2805820">
<ele>1212.098145</ele>
<time>2024-06-13T13:31:29.001Z</time>
</trkpt>
<trkpt lat="42.3094290" lon="1.2806250">
<ele>1212.037231</ele>
<time>2024-06-13T13:31:30.003Z</time>
</trkpt>
<trkpt lat="42.3094120" lon="1.2806740">
<ele>1212.037231</ele>
<time>2024-06-13T13:31:30.996Z</time>
</trkpt>
<trkpt lat="42.3091180" lon="1.2814880">
<ele>1208.592896</ele>
<time>2024-06-13T13:31:44.000Z</time>
</trkpt>
<trkpt lat="42.3090080" lon="1.2818080">
<ele>1205.026855</ele>
<time>2024-06-13T13:31:49.002Z</time>
</trkpt>
<trkpt lat="42.3089600" lon="1.2819070">
<ele>1204.234253</ele>
<time>2024-06-13T13:31:50.998Z</time>
</trkpt>
<trkpt lat="42.3089380" lon="1.2819470">
<ele>1203.868530</ele>
<time>2024-06-13T13:31:52.000Z</time>
</trkpt>
<trkpt lat="42.3089220" lon="1.2819840">
<ele>1203.380859</ele>
<time>2024-06-13T13:31:53.003Z</time>
</trkpt>
<trkpt lat="42.3089120" lon="1.2820180">
<ele>1202.923706</ele>
<time>2024-06-13T13:31:53.996Z</time>
</trkpt>
<trkpt lat="42.3089060" lon="1.2820460">
<ele>1202.436035</ele>
<time>2024-06-13T13:31:54.998Z</time>
</trkpt>
<trkpt lat="42.3089400" lon="1.2820700">
<ele>1197.376343</ele>
<time>2024-06-13T13:33:22.997Z</time>
</trkpt>
<trkpt lat="42.3089590" lon="1.2820660">
<ele>1197.559204</ele>
<time>2024-06-13T13:33:37.996Z</time>
</trkpt>
<trkpt lat="42.3090150" lon="1.2820380">
<ele>1197.589722</ele>
<time>2024-06-13T13:33:41.003Z</time>
</trkpt>
<trkpt lat="42.3094510" lon="1.2813940">
<ele>1195.608521</ele>
<time>2024-06-13T13:33:57.997Z</time>
</trkpt>
<trkpt lat="42.3095660" lon="1.2812600">
<ele>1194.968384</ele>
<time>2024-06-13T13:34:01.004Z</time>
</trkpt>
<trkpt lat="42.3096090" lon="1.2812270">
<ele>1194.633057</ele>
<time>2024-06-13T13:34:01.998Z</time>
</trkpt>
<trkpt lat="42.3096550" lon="1.2812050">
<ele>1194.450195</ele>
<time>2024-06-13T13:34:03.000Z</time>
</trkpt>
<trkpt lat="42.3097030" lon="1.2811970">
<ele>1194.328247</ele>
<time>2024-06-13T13:34:04.002Z</time>
</trkpt>
<trkpt lat="42.3097520" lon="1.2812020">
<ele>1194.084473</ele>
<time>2024-06-13T13:34:04.996Z</time>
</trkpt>
<trkpt lat="42.3098010" lon="1.2812210">
<ele>1193.749146</ele>
<time>2024-06-13T13:34:05.998Z</time>
</trkpt>
<trkpt lat="42.3098480" lon="1.2812530">
<ele>1193.535889</ele>
<time>2024-06-13T13:34:07.000Z</time>
</trkpt>
<trkpt lat="42.3098910" lon="1.2812980">
<ele>1193.322510</ele>
<time>2024-06-13T13:34:08.003Z</time>
</trkpt>
<trkpt lat="42.3099320" lon="1.2813510">
<ele>1193.109131</ele>
<time>2024-06-13T13:34:08.996Z</time>
</trkpt>
<trkpt lat="42.3099710" lon="1.2814070">
<ele>1192.926270</ele>
<time>2024-06-13T13:34:09.998Z</time>
</trkpt>
<trkpt lat="42.3101290" lon="1.2816220">
<ele>1191.676514</ele>
<time>2024-06-13T13:34:13.999Z</time>
</trkpt>
<trkpt lat="42.3101760" lon="1.2816580">
<ele>1191.341309</ele>
<time>2024-06-13T13:34:15.001Z</time>
</trkpt>
<trkpt lat="42.3102260" lon="1.2816740">
<ele>1190.945068</ele>
<time>2024-06-13T13:34:16.003Z</time>
</trkpt>
<trkpt lat="42.3102800" lon="1.2816720">
<ele>1190.670654</ele>
<time>2024-06-13T13:34:16.997Z</time>
</trkpt>
<trkpt lat="42.3103360" lon="1.2816570">
<ele>1190.244019</ele>
<time>2024-06-13T13:34:17.999Z</time>
</trkpt>
<trkpt lat="42.3103920" lon="1.2816370">
<ele>1189.786743</ele>
<time>2024-06-13T13:34:19.001Z</time>
</trkpt>
<trkpt lat="42.3106910" lon="1.2815810">
<ele>1188.140869</ele>
<time>2024-06-13T13:34:24.004Z</time>
</trkpt>
<trkpt lat="42.3107550" lon="1.2815880">
<ele>1187.866577</ele>
<time>2024-06-13T13:34:24.997Z</time>
</trkpt>
<trkpt lat="42.3112210" lon="1.2816560">
<ele>1184.970947</ele>
<time>2024-06-13T13:34:31.996Z</time>
</trkpt>
<trkpt lat="42.3112830" lon="1.2816370">
<ele>1184.544312</ele>
<time>2024-06-13T13:34:32.998Z</time>
</trkpt>
<trkpt lat="42.3113400" lon="1.2815990">
<ele>1184.087036</ele>
<time>2024-06-13T13:34:34.000Z</time>
</trkpt>
<trkpt lat="42.3113950" lon="1.2815440">
<ele>1183.721313</ele>
<time>2024-06-13T13:34:35.003Z</time>
</trkpt>
<trkpt lat="42.3114450" lon="1.2814780">
<ele>1183.477417</ele>
<time>2024-06-13T13:34:35.996Z</time>
</trkpt>
<trkpt lat="42.3114920" lon="1.2814060">
<ele>1182.471558</ele>
<time>2024-06-13T13:34:36.998Z</time>
</trkpt>
<trkpt lat="42.3116140" lon="1.2811840">
<ele>1181.313354</ele>
<time>2024-06-13T13:34:39.996Z</time>
</trkpt>
<trkpt lat="42.3116410" lon="1.2811010">
<ele>1180.978149</ele>
<time>2024-06-13T13:34:40.999Z</time>
</trkpt>
<trkpt lat="42.3116570" lon="1.2810090">
<ele>1180.734253</ele>
<time>2024-06-13T13:34:42.001Z</time>
</trkpt>
<trkpt lat="42.3116650" lon="1.2809130">
<ele>1180.490356</ele>
<time>2024-06-13T13:34:43.003Z</time>
</trkpt>
<trkpt lat="42.3116670" lon="1.2808140">
<ele>1180.063721</ele>
<time>2024-06-13T13:34:43.997Z</time>
</trkpt>
<trkpt lat="42.3116980" lon="1.2804240">
<ele>1177.808105</ele>
<time>2024-06-13T13:34:47.997Z</time>
</trkpt>
<trkpt lat="42.3117210" lon="1.2803340">
<ele>1177.350952</ele>
<time>2024-06-13T13:34:48.999Z</time>
</trkpt>
<trkpt lat="42.3117510" lon="1.2802470">
<ele>1176.893799</ele>
<time>2024-06-13T13:34:50.002Z</time>
</trkpt>
<trkpt lat="42.3117860" lon="1.2801640">
<ele>1176.345093</ele>
<time>2024-06-13T13:34:51.004Z</time>
</trkpt>
<trkpt lat="42.3118260" lon="1.2800840">
<ele>1175.705078</ele>
<time>2024-06-13T13:34:51.997Z</time>
</trkpt>
<trkpt lat="42.3119110" lon="1.2799250">
<ele>1174.638306</ele>
<time>2024-06-13T13:34:54.002Z</time>
</trkpt>
<trkpt lat="42.3120160" lon="1.2796510">
<ele>1172.931396</ele>
<time>2024-06-13T13:34:57.000Z</time>
</trkpt>
<trkpt lat="42.3120390" lon="1.2795460">
<ele>1172.657104</ele>
<time>2024-06-13T13:34:58.002Z</time>
</trkpt>
<trkpt lat="42.3120970" lon="1.2790990">
<ele>1170.523438</ele>
<time>2024-06-13T13:35:02.003Z</time>
</trkpt>
<trkpt lat="42.3121690" lon="1.2784290">
<ele>1167.262085</ele>
<time>2024-06-13T13:35:07.999Z</time>
</trkpt>
<trkpt lat="42.3122920" lon="1.2778010">
<ele>1164.122681</ele>
<time>2024-06-13T13:35:14.004Z</time>
</trkpt>
<trkpt lat="42.3124090" lon="1.2772860">
<ele>1162.781494</ele>
<time>2024-06-13T13:35:20.000Z</time>
</trkpt>
<trkpt lat="42.3124310" lon="1.2772270">
<ele>1162.720581</ele>
<time>2024-06-13T13:35:21.002Z</time>
</trkpt>
<trkpt lat="42.3124680" lon="1.2771880">
<ele>1162.629150</ele>
<time>2024-06-13T13:35:22.004Z</time>
</trkpt>
<trkpt lat="42.3125110" lon="1.2771660">
<ele>1162.537720</ele>
<time>2024-06-13T13:35:22.998Z</time>
</trkpt>
<trkpt lat="42.3125530" lon="1.2771620">
<ele>1162.415771</ele>
<time>2024-06-13T13:35:24.000Z</time>
</trkpt>
<trkpt lat="42.3125880" lon="1.2771720">
<ele>1162.293823</ele>
<time>2024-06-13T13:35:25.002Z</time>
</trkpt>
<trkpt lat="42.3126180" lon="1.2771940">
<ele>1162.263306</ele>
<time>2024-06-13T13:35:25.996Z</time>
</trkpt>
<trkpt lat="42.3126410" lon="1.2772280">
<ele>1162.232910</ele>
<time>2024-06-13T13:35:26.998Z</time>
</trkpt>
<trkpt lat="42.3126520" lon="1.2772740">
<ele>1162.202393</ele>
<time>2024-06-13T13:35:28.000Z</time>
</trkpt>
<trkpt lat="42.3126510" lon="1.2773250">
<ele>1162.141479</ele>
<time>2024-06-13T13:35:29.003Z</time>
</trkpt>
<trkpt lat="42.3126410" lon="1.2773790">
<ele>1162.110962</ele>
<time>2024-06-13T13:35:29.996Z</time>
</trkpt>
<trkpt lat="42.3126210" lon="1.2774320">
<ele>1162.080566</ele>
<time>2024-06-13T13:35:30.998Z</time>
</trkpt>
<trkpt lat="42.3125950" lon="1.2774850">
<ele>1161.867065</ele>
<time>2024-06-13T13:35:32.001Z</time>
</trkpt>
<trkpt lat="42.3125660" lon="1.2775390">
<ele>1161.714722</ele>
<time>2024-06-13T13:35:33.003Z</time>
</trkpt>
<trkpt lat="42.3125430" lon="1.2775990">
<ele>1161.470947</ele>
<time>2024-06-13T13:35:33.996Z</time>
</trkpt>
<trkpt lat="42.3125260" lon="1.2776670">
<ele>1161.105103</ele>
<time>2024-06-13T13:35:34.999Z</time>
</trkpt>
<trkpt lat="42.3125190" lon="1.2777400">
<ele>1160.708862</ele>
<time>2024-06-13T13:35:36.001Z</time>
</trkpt>
<trkpt lat="42.3125160" lon="1.2778160">
<ele>1160.312622</ele>
<time>2024-06-13T13:35:37.003Z</time>
</trkpt>
<trkpt lat="42.3125180" lon="1.2778870">
<ele>1159.916382</ele>
<time>2024-06-13T13:35:37.997Z</time>
</trkpt>
<trkpt lat="42.3125210" lon="1.2780840">
<ele>1157.295044</ele>
<time>2024-06-13T13:35:45.997Z</time>
</trkpt>
<trkpt lat="42.3125320" lon="1.2781070">
<ele>1156.319702</ele>
<time>2024-06-13T13:35:56.003Z</time>
</trkpt>
<trkpt lat="42.3125080" lon="1.2785790">
<ele>1156.289307</ele>
<time>2024-06-13T13:36:05.999Z</time>
</trkpt>
<trkpt lat="42.3124460" lon="1.2795180">
<ele>1152.997437</ele>
<time>2024-06-13T13:36:16.998Z</time>
</trkpt>
<trkpt lat="42.3124550" lon="1.2796910">
<ele>1152.235474</ele>
<time>2024-06-13T13:36:19.002Z</time>
</trkpt>
<trkpt lat="42.3124760" lon="1.2797690">
<ele>1151.808716</ele>
<time>2024-06-13T13:36:19.996Z</time>
</trkpt>
<trkpt lat="42.3125090" lon="1.2798450">
<ele>1151.351440</ele>
<time>2024-06-13T13:36:20.998Z</time>
</trkpt>
<trkpt lat="42.3125480" lon="1.2799190">
<ele>1150.924805</ele>
<time>2024-06-13T13:36:22.000Z</time>
</trkpt>
<trkpt lat="42.3125880" lon="1.2799920">
<ele>1150.528564</ele>
<time>2024-06-13T13:36:23.003Z</time>
</trkpt>
<trkpt lat="42.3126600" lon="1.2801350">
<ele>1149.827515</ele>
<time>2024-06-13T13:36:24.998Z</time>
</trkpt>
<trkpt lat="42.3126800" lon="1.2802180">
<ele>1149.461792</ele>
<time>2024-06-13T13:36:26.001Z</time>
</trkpt>
<trkpt lat="42.3126940" lon="1.2803090">
<ele>1149.004517</ele>
<time>2024-06-13T13:36:27.003Z</time>
</trkpt>
<trkpt lat="42.3127000" lon="1.2804030">
<ele>1148.760742</ele>
<time>2024-06-13T13:36:27.996Z</time>
</trkpt>
<trkpt lat="42.3127020" lon="1.2804940">
<ele>1148.394897</ele>
<time>2024-06-13T13:36:28.999Z</time>
</trkpt>
<trkpt lat="42.3126890" lon="1.2805900">
<ele>1147.937744</ele>
<time>2024-06-13T13:36:30.001Z</time>
</trkpt>
<trkpt lat="42.3126680" lon="1.2806840">
<ele>1147.572021</ele>
<time>2024-06-13T13:36:31.003Z</time>
</trkpt>
<trkpt lat="42.3126380" lon="1.2807770">
<ele>1147.145264</ele>
<time>2024-06-13T13:36:31.997Z</time>
</trkpt>
<trkpt lat="42.3125960" lon="1.2808660">
<ele>1146.810059</ele>
<time>2024-06-13T13:36:32.999Z</time>
</trkpt>
<trkpt lat="42.3125450" lon="1.2809540">
<ele>1146.627075</ele>
<time>2024-06-13T13:36:34.001Z</time>
</trkpt>
<trkpt lat="42.3124930" lon="1.2810450">
<ele>1146.352783</ele>
<time>2024-06-13T13:36:35.004Z</time>
</trkpt>
<trkpt lat="42.3124510" lon="1.2811400">
<ele>1145.987061</ele>
<time>2024-06-13T13:36:35.997Z</time>
</trkpt>
<trkpt lat="42.3123440" lon="1.2814390">
<ele>1144.249756</ele>
<time>2024-06-13T13:36:39.004Z</time>
</trkpt>
<trkpt lat="42.3123270" lon="1.2815450">
<ele>1143.822998</ele>
<time>2024-06-13T13:36:39.997Z</time>
</trkpt>
<trkpt lat="42.3122370" lon="1.2820330">
<ele>1140.835938</ele>
<time>2024-06-13T13:36:45.000Z</time>
</trkpt>
<trkpt lat="42.3122110" lon="1.2821070">
<ele>1140.439697</ele>
<time>2024-06-13T13:36:46.002Z</time>
</trkpt>
<trkpt lat="42.3121700" lon="1.2821730">
<ele>1139.952026</ele>
<time>2024-06-13T13:36:46.996Z</time>
</trkpt>
<trkpt lat="42.3121170" lon="1.2822300">
<ele>1139.403320</ele>
<time>2024-06-13T13:36:47.998Z</time>
</trkpt>
<trkpt lat="42.3120550" lon="1.2822780">
<ele>1138.854736</ele>
<time>2024-06-13T13:36:49.000Z</time>
</trkpt>
<trkpt lat="42.3119870" lon="1.2823180">
<ele>1138.306152</ele>
<time>2024-06-13T13:36:50.003Z</time>
</trkpt>
<trkpt lat="42.3119170" lon="1.2823560">
<ele>1137.848877</ele>
<time>2024-06-13T13:36:50.996Z</time>
</trkpt>
<trkpt lat="42.3114480" lon="1.2827240">
<ele>1134.739868</ele>
<time>2024-06-13T13:36:58.003Z</time>
</trkpt>
<trkpt lat="42.3112050" lon="1.2829890">
<ele>1133.246460</ele>
<time>2024-06-13T13:37:02.004Z</time>
</trkpt>
<trkpt lat="42.3111540" lon="1.2830710">
<ele>1133.033081</ele>
<time>2024-06-13T13:37:02.997Z</time>
</trkpt>
<trkpt lat="42.3111150" lon="1.2831630">
<ele>1132.667358</ele>
<time>2024-06-13T13:37:03.999Z</time>
</trkpt>
<trkpt lat="42.3110860" lon="1.2832590">
<ele>1131.569946</ele>
<time>2024-06-13T13:37:05.002Z</time>
</trkpt>
<trkpt lat="42.3110620" lon="1.2833550">
<ele>1130.960449</ele>
<time>2024-06-13T13:37:06.004Z</time>
</trkpt>
<trkpt lat="42.3110100" lon="1.2835390">
<ele>1129.893555</ele>
<time>2024-06-13T13:37:08.000Z</time>
</trkpt>
<trkpt lat="42.3109710" lon="1.2836210">
<ele>1129.314453</ele>
<time>2024-06-13T13:37:09.002Z</time>
</trkpt>
<trkpt lat="42.3109210" lon="1.2836950">
<ele>1128.887695</ele>
<time>2024-06-13T13:37:10.004Z</time>
</trkpt>
<trkpt lat="42.3108620" lon="1.2837590">
<ele>1128.369629</ele>
<time>2024-06-13T13:37:10.998Z</time>
</trkpt>
<trkpt lat="42.3107970" lon="1.2838130">
<ele>1127.851440</ele>
<time>2024-06-13T13:37:12.000Z</time>
</trkpt>
<trkpt lat="42.3107260" lon="1.2838610">
<ele>1127.302856</ele>
<time>2024-06-13T13:37:13.002Z</time>
</trkpt>
<trkpt lat="42.3106520" lon="1.2839080">
<ele>1126.815063</ele>
<time>2024-06-13T13:37:13.996Z</time>
</trkpt>
<trkpt lat="42.3102090" lon="1.2841760">
<ele>1124.712036</ele>
<time>2024-06-13T13:37:20.001Z</time>
</trkpt>
<trkpt lat="42.3101310" lon="1.2842050">
<ele>1124.437744</ele>
<time>2024-06-13T13:37:21.003Z</time>
</trkpt>
<trkpt lat="42.3100510" lon="1.2842240">
<ele>1124.010986</ele>
<time>2024-06-13T13:37:21.996Z</time>
</trkpt>
<trkpt lat="42.3095880" lon="1.2842970">
<ele>1121.084961</ele>
<time>2024-06-13T13:37:28.001Z</time>
</trkpt>
<trkpt lat="42.3095160" lon="1.2842880">
<ele>1120.170532</ele>
<time>2024-06-13T13:37:29.004Z</time>
</trkpt>
<trkpt lat="42.3093880" lon="1.2842770">
<ele>1119.347534</ele>
<time>2024-06-13T13:37:30.999Z</time>
</trkpt>
<trkpt lat="42.3093310" lon="1.2842980">
<ele>1118.981689</ele>
<time>2024-06-13T13:37:32.002Z</time>
</trkpt>
<trkpt lat="42.3092770" lon="1.2843370">
<ele>1118.615967</ele>
<time>2024-06-13T13:37:33.004Z</time>
</trkpt>
<trkpt lat="42.3092280" lon="1.2843870">
<ele>1118.219727</ele>
<time>2024-06-13T13:37:33.997Z</time>
</trkpt>
<trkpt lat="42.3091800" lon="1.2844460">
<ele>1117.762573</ele>
<time>2024-06-13T13:37:35.000Z</time>
</trkpt>
<trkpt lat="42.3086280" lon="1.2851690">
<ele>1114.744995</ele>
<time>2024-06-13T13:37:44.996Z</time>
</trkpt>
<trkpt lat="42.3082850" lon="1.2856420">
<ele>1111.636108</ele>
<time>2024-06-13T13:37:51.001Z</time>
</trkpt>
<trkpt lat="42.3080240" lon="1.2859420">
<ele>1108.161377</ele>
<time>2024-06-13T13:37:56.004Z</time>
</trkpt>
<trkpt lat="42.3079980" lon="1.2859980">
<ele>1107.490845</ele>
<time>2024-06-13T13:37:56.997Z</time>
</trkpt>
<trkpt lat="42.3079930" lon="1.2860570">
<ele>1107.033569</ele>
<time>2024-06-13T13:37:57.999Z</time>
</trkpt>
<trkpt lat="42.3080060" lon="1.2861140">
<ele>1106.545898</ele>
<time>2024-06-13T13:37:59.002Z</time>
</trkpt>
<trkpt lat="42.3080340" lon="1.2861560">
<ele>1106.149658</ele>
<time>2024-06-13T13:38:00.004Z</time>
</trkpt>
<trkpt lat="42.3080770" lon="1.2861800">
<ele>1105.814453</ele>
<time>2024-06-13T13:38:00.997Z</time>
</trkpt>
<trkpt lat="42.3081270" lon="1.2861790">
<ele>1105.540161</ele>
<time>2024-06-13T13:38:02.000Z</time>
</trkpt>
<trkpt lat="42.3081770" lon="1.2861490">
<ele>1105.296265</ele>
<time>2024-06-13T13:38:03.002Z</time>
</trkpt>
<trkpt lat="42.3082240" lon="1.2861010">
<ele>1105.113403</ele>
<time>2024-06-13T13:38:04.004Z</time>
</trkpt>
<trkpt lat="42.3082670" lon="1.2860390">
<ele>1104.900024</ele>
<time>2024-06-13T13:38:04.998Z</time>
</trkpt>
<trkpt lat="42.3083090" lon="1.2859730">
<ele>1104.778076</ele>
<time>2024-06-13T13:38:06.000Z</time>
</trkpt>
<trkpt lat="42.3084910" lon="1.2856970">
<ele>1103.955078</ele>
<time>2024-06-13T13:38:10.000Z</time>
</trkpt>
<trkpt lat="42.3085470" lon="1.2856360">
<ele>1103.375977</ele>
<time>2024-06-13T13:38:11.003Z</time>
</trkpt>
<trkpt lat="42.3089870" lon="1.2852000">
<ele>1099.809814</ele>
<time>2024-06-13T13:38:18.001Z</time>
</trkpt>
<trkpt lat="42.3094560" lon="1.2847430">
<ele>1096.670410</ele>
<time>2024-06-13T13:38:26.002Z</time>
</trkpt>
<trkpt lat="42.3095100" lon="1.2847100">
<ele>1096.121704</ele>
<time>2024-06-13T13:38:27.004Z</time>
</trkpt>
<trkpt lat="42.3095680" lon="1.2846960">
<ele>1095.664551</ele>
<time>2024-06-13T13:38:27.997Z</time>
</trkpt>
<trkpt lat="42.3096290" lon="1.2847010">
<ele>1095.268311</ele>
<time>2024-06-13T13:38:29.000Z</time>
</trkpt>
<trkpt lat="42.3096910" lon="1.2847210">
<ele>1094.902588</ele>
<time>2024-06-13T13:38:30.002Z</time>
</trkpt>
<trkpt lat="42.3097570" lon="1.2847460">
<ele>1094.567261</ele>
<time>2024-06-13T13:38:31.004Z</time>
</trkpt>
<trkpt lat="42.3101430" lon="1.2848550">
<ele>1093.927246</ele>
<time>2024-06-13T13:38:35.998Z</time>
</trkpt>
<trkpt lat="42.3102210" lon="1.2848540">
<ele>1093.805298</ele>
<time>2024-06-13T13:38:37.000Z</time>
</trkpt>
<trkpt lat="42.3102980" lon="1.2848400">
<ele>1093.622437</ele>
<time>2024-06-13T13:38:38.003Z</time>
</trkpt>
<trkpt lat="42.3103710" lon="1.2848130">
<ele>1093.195679</ele>
<time>2024-06-13T13:38:38.996Z</time>
</trkpt>
<trkpt lat="42.3104430" lon="1.2847820">
<ele>1092.738525</ele>
<time>2024-06-13T13:38:39.998Z</time>
</trkpt>
<trkpt lat="42.3105190" lon="1.2847600">
<ele>1092.128906</ele>
<time>2024-06-13T13:38:41.001Z</time>
</trkpt>
<trkpt lat="42.3105950" lon="1.2847560">
<ele>1090.787720</ele>
<time>2024-06-13T13:38:42.003Z</time>
</trkpt>
<trkpt lat="42.3106710" lon="1.2847670">
<ele>1090.147705</ele>
<time>2024-06-13T13:38:42.996Z</time>
</trkpt>
<trkpt lat="42.3107450" lon="1.2847800">
<ele>1089.477051</ele>
<time>2024-06-13T13:38:43.999Z</time>
</trkpt>
<trkpt lat="42.3108190" lon="1.2847830">
<ele>1088.776123</ele>
<time>2024-06-13T13:38:45.001Z</time>
</trkpt>
<trkpt lat="42.3108930" lon="1.2847730">
<ele>1088.257935</ele>
<time>2024-06-13T13:38:46.003Z</time>
</trkpt>
<trkpt lat="42.3109680" lon="1.2847550">
<ele>1087.617798</ele>
<time>2024-06-13T13:38:46.997Z</time>
</trkpt>
<trkpt lat="42.3111180" lon="1.2847410">
<ele>1086.398682</ele>
<time>2024-06-13T13:38:49.001Z</time>
</trkpt>
<trkpt lat="42.3111930" lon="1.2847500">
<ele>1085.819458</ele>
<time>2024-06-13T13:38:50.004Z</time>
</trkpt>
<trkpt lat="42.3112640" lon="1.2847720">
<ele>1085.301392</ele>
<time>2024-06-13T13:38:50.997Z</time>
</trkpt>
<trkpt lat="42.3114090" lon="1.2848090">
<ele>1084.356567</ele>
<time>2024-06-13T13:38:53.002Z</time>
</trkpt>
<trkpt lat="42.3114830" lon="1.2848100">
<ele>1083.899292</ele>
<time>2024-06-13T13:38:54.004Z</time>
</trkpt>
<trkpt lat="42.3115530" lon="1.2847970">
<ele>1083.350708</ele>
<time>2024-06-13T13:38:54.997Z</time>
</trkpt>
<trkpt lat="42.3116210" lon="1.2847730">
<ele>1082.771484</ele>
<time>2024-06-13T13:38:56.000Z</time>
</trkpt>
<trkpt lat="42.3116920" lon="1.2847420">
<ele>1082.222900</ele>
<time>2024-06-13T13:38:57.002Z</time>
</trkpt>
<trkpt lat="42.3117610" lon="1.2847060">
<ele>1081.735229</ele>
<time>2024-06-13T13:38:58.004Z</time>
</trkpt>
<trkpt lat="42.3118310" lon="1.2846570">
<ele>1081.247437</ele>
<time>2024-06-13T13:38:58.998Z</time>
</trkpt>
<trkpt lat="42.3118970" lon="1.2845980">
<ele>1080.759888</ele>
<time>2024-06-13T13:39:00.000Z</time>
</trkpt>
<trkpt lat="42.3121420" lon="1.2843450">
<ele>1079.327271</ele>
<time>2024-06-13T13:39:04.000Z</time>
</trkpt>
<trkpt lat="42.3121900" lon="1.2842680">
<ele>1078.931030</ele>
<time>2024-06-13T13:39:05.003Z</time>
</trkpt>
<trkpt lat="42.3122300" lon="1.2841810">
<ele>1078.504272</ele>
<time>2024-06-13T13:39:05.996Z</time>
</trkpt>
<trkpt lat="42.3122650" lon="1.2840870">
<ele>1077.315552</ele>
<time>2024-06-13T13:39:06.998Z</time>
</trkpt>
<trkpt lat="42.3122970" lon="1.2839890">
<ele>1076.675537</ele>
<time>2024-06-13T13:39:08.001Z</time>
</trkpt>
<trkpt lat="42.3123310" lon="1.2838950">
<ele>1076.065918</ele>
<time>2024-06-13T13:39:09.003Z</time>
</trkpt>
<trkpt lat="42.3123720" lon="1.2838110">
<ele>1075.364868</ele>
<time>2024-06-13T13:39:09.996Z</time>
</trkpt>
<trkpt lat="42.3124230" lon="1.2837420">
<ele>1074.877197</ele>
<time>2024-06-13T13:39:10.999Z</time>
</trkpt>
<trkpt lat="42.3124840" lon="1.2836870">
<ele>1074.450562</ele>
<time>2024-06-13T13:39:12.001Z</time>
</trkpt>
<trkpt lat="42.3125490" lon="1.2836420">
<ele>1074.023804</ele>
<time>2024-06-13T13:39:13.003Z</time>
</trkpt>
<trkpt lat="42.3126180" lon="1.2836050">
<ele>1073.657959</ele>
<time>2024-06-13T13:39:13.997Z</time>
</trkpt>
<trkpt lat="42.3127580" lon="1.2835220">
<ele>1073.292236</ele>
<time>2024-06-13T13:39:16.001Z</time>
</trkpt>
<trkpt lat="42.3128260" lon="1.2834680">
<ele>1072.895996</ele>
<time>2024-06-13T13:39:17.004Z</time>
</trkpt>
<trkpt lat="42.3133170" lon="1.2830590">
<ele>1069.848022</ele>
<time>2024-06-13T13:39:24.002Z</time>
</trkpt>
<trkpt lat="42.3137410" lon="1.2826870">
<ele>1066.525757</ele>
<time>2024-06-13T13:39:29.998Z</time>
</trkpt>
<trkpt lat="42.3137990" lon="1.2825990">
<ele>1065.428345</ele>
<time>2024-06-13T13:39:31.000Z</time>
</trkpt>
<trkpt lat="42.3141610" lon="1.2820390">
<ele>1062.136597</ele>
<time>2024-06-13T13:39:36.996Z</time>
</trkpt>
<trkpt lat="42.3142410" lon="1.2819440">
<ele>1061.526978</ele>
<time>2024-06-13T13:39:37.999Z</time>
</trkpt>
<trkpt lat="42.3143010" lon="1.2818520">
<ele>1060.825928</ele>
<time>2024-06-13T13:39:39.001Z</time>
</trkpt>
<trkpt lat="42.3144230" lon="1.2816700">
<ele>1059.210449</ele>
<time>2024-06-13T13:39:40.997Z</time>
</trkpt>
<trkpt lat="42.3146730" lon="1.2812310">
<ele>1055.796631</ele>
<time>2024-06-13T13:39:45.999Z</time>
</trkpt>
<trkpt lat="42.3147080" lon="1.2811480">
<ele>1055.583374</ele>
<time>2024-06-13T13:39:47.002Z</time>
</trkpt>
<trkpt lat="42.3147350" lon="1.2810640">
<ele>1055.309082</ele>
<time>2024-06-13T13:39:48.004Z</time>
</trkpt>
<trkpt lat="42.3147530" lon="1.2809770">
<ele>1055.034668</ele>
<time>2024-06-13T13:39:48.997Z</time>
</trkpt>
<trkpt lat="42.3147560" lon="1.2808960">
<ele>1054.516602</ele>
<time>2024-06-13T13:39:50.000Z</time>
</trkpt>
<trkpt lat="42.3147610" lon="1.2808170">
<ele>1053.876465</ele>
<time>2024-06-13T13:39:51.002Z</time>
</trkpt>
<trkpt lat="42.3147640" lon="1.2807520">
<ele>1053.236450</ele>
<time>2024-06-13T13:39:52.004Z</time>
</trkpt>
<trkpt lat="42.3147740" lon="1.2807010">
<ele>1052.657349</ele>
<time>2024-06-13T13:39:52.998Z</time>
</trkpt>
<trkpt lat="42.3147930" lon="1.2806650">
<ele>1052.108643</ele>
<time>2024-06-13T13:39:54.000Z</time>
</trkpt>
<trkpt lat="42.3148230" lon="1.2806440">
<ele>1051.163696</ele>
<time>2024-06-13T13:39:55.002Z</time>
</trkpt>
<trkpt lat="42.3148600" lon="1.2806420">
<ele>1050.889404</ele>
<time>2024-06-13T13:39:55.996Z</time>
</trkpt>
<trkpt lat="42.3148910" lon="1.2806620">
<ele>1050.401733</ele>
<time>2024-06-13T13:39:56.998Z</time>
</trkpt>
<trkpt lat="42.3149110" lon="1.2807020">
<ele>1050.005493</ele>
<time>2024-06-13T13:39:58.000Z</time>
</trkpt>
<trkpt lat="42.3149140" lon="1.2807510">
<ele>1049.609253</ele>
<time>2024-06-13T13:39:59.003Z</time>
</trkpt>
<trkpt lat="42.3149060" lon="1.2808020">
<ele>1049.213013</ele>
<time>2024-06-13T13:39:59.996Z</time>
</trkpt>
<trkpt lat="42.3148910" lon="1.2808520">
<ele>1048.816772</ele>
<time>2024-06-13T13:40:00.998Z</time>
</trkpt>
<trkpt lat="42.3148750" lon="1.2809060">
<ele>1048.511963</ele>
<time>2024-06-13T13:40:02.001Z</time>
</trkpt>
<trkpt lat="42.3148570" lon="1.2809630">
<ele>1048.268188</ele>
<time>2024-06-13T13:40:03.003Z</time>
</trkpt>
<trkpt lat="42.3148390" lon="1.2810240">
<ele>1048.054810</ele>
<time>2024-06-13T13:40:03.996Z</time>
</trkpt>
<trkpt lat="42.3148200" lon="1.2810870">
<ele>1047.810913</ele>
<time>2024-06-13T13:40:04.999Z</time>
</trkpt>
<trkpt lat="42.3148030" lon="1.2811570">
<ele>1047.506104</ele>
<time>2024-06-13T13:40:06.001Z</time>
</trkpt>
<trkpt lat="42.3147850" lon="1.2812280">
<ele>1047.262329</ele>
<time>2024-06-13T13:40:07.003Z</time>
</trkpt>
<trkpt lat="42.3146880" lon="1.2815240">
<ele>1046.866089</ele>
<time>2024-06-13T13:40:11.004Z</time>
</trkpt>
<trkpt lat="42.3146700" lon="1.2816030">
<ele>1046.713745</ele>
<time>2024-06-13T13:40:11.997Z</time>
</trkpt>
<trkpt lat="42.3145050" lon="1.2822100">
<ele>1045.677368</ele>
<time>2024-06-13T13:40:19.004Z</time>
</trkpt>
<trkpt lat="42.3144670" lon="1.2822980">
<ele>1045.403076</ele>
<time>2024-06-13T13:40:19.998Z</time>
</trkpt>
<trkpt lat="42.3141790" lon="1.2827700">
<ele>1042.934204</ele>
<time>2024-06-13T13:40:26.996Z</time>
</trkpt>
<trkpt lat="42.3141550" lon="1.2828190">
<ele>1042.476929</ele>
<time>2024-06-13T13:40:27.998Z</time>
</trkpt>
<trkpt lat="42.3141450" lon="1.2828770">
<ele>1042.202637</ele>
<time>2024-06-13T13:40:29.001Z</time>
</trkpt>
<trkpt lat="42.3141590" lon="1.2829360">
<ele>1041.775879</ele>
<time>2024-06-13T13:40:30.003Z</time>
</trkpt>
<trkpt lat="42.3141890" lon="1.2829790">
<ele>1041.166260</ele>
<time>2024-06-13T13:40:30.996Z</time>
</trkpt>
<trkpt lat="42.3142320" lon="1.2829980">
<ele>1040.709106</ele>
<time>2024-06-13T13:40:31.999Z</time>
</trkpt>
<trkpt lat="42.3142830" lon="1.2829840">
<ele>1040.312866</ele>
<time>2024-06-13T13:40:33.001Z</time>
</trkpt>
<trkpt lat="42.3143240" lon="1.2829380">
<ele>1040.008057</ele>
<time>2024-06-13T13:40:34.003Z</time>
</trkpt>
<trkpt lat="42.3143550" lon="1.2828680">
<ele>1039.733765</ele>
<time>2024-06-13T13:40:34.997Z</time>
</trkpt>
<trkpt lat="42.3143810" lon="1.2827880">
<ele>1039.428955</ele>
<time>2024-06-13T13:40:35.999Z</time>
</trkpt>
<trkpt lat="42.3144080" lon="1.2827110">
<ele>1039.185059</ele>
<time>2024-06-13T13:40:37.001Z</time>
</trkpt>
<trkpt lat="42.3144390" lon="1.2826380">
<ele>1039.063232</ele>
<time>2024-06-13T13:40:38.004Z</time>
</trkpt>
<trkpt lat="42.3144730" lon="1.2825690">
<ele>1038.910767</ele>
<time>2024-06-13T13:40:38.997Z</time>
</trkpt>
<trkpt lat="42.3145120" lon="1.2825060">
<ele>1038.788940</ele>
<time>2024-06-13T13:40:39.999Z</time>
</trkpt>
<trkpt lat="42.3145570" lon="1.2824490">
<ele>1038.453613</ele>
<time>2024-06-13T13:40:41.002Z</time>
</trkpt>
<trkpt lat="42.3146040" lon="1.2824030">
<ele>1037.904907</ele>
<time>2024-06-13T13:40:42.004Z</time>
</trkpt>
<trkpt lat="42.3146530" lon="1.2823690">
<ele>1036.441895</ele>
<time>2024-06-13T13:40:42.997Z</time>
</trkpt>
<trkpt lat="42.3147010" lon="1.2823310">
<ele>1036.441895</ele>
<time>2024-06-13T13:40:44.000Z</time>
</trkpt>
<trkpt lat="42.3147460" lon="1.2822850">
<ele>1035.679932</ele>
<time>2024-06-13T13:40:45.002Z</time>
</trkpt>
<trkpt lat="42.3147880" lon="1.2822300">
<ele>1035.405640</ele>
<time>2024-06-13T13:40:46.004Z</time>
</trkpt>
<trkpt lat="42.3148270" lon="1.2821680">
<ele>1035.161743</ele>
<time>2024-06-13T13:40:46.998Z</time>
</trkpt>
<trkpt lat="42.3149020" lon="1.2820210">
<ele>1034.796021</ele>
<time>2024-06-13T13:40:49.002Z</time>
</trkpt>
<trkpt lat="42.3152850" lon="1.2809670">
<ele>1031.260254</ele>
<time>2024-06-13T13:41:01.003Z</time>
</trkpt>
<trkpt lat="42.3152930" lon="1.2808820">
<ele>1030.681152</ele>
<time>2024-06-13T13:41:01.997Z</time>
</trkpt>
<trkpt lat="42.3152980" lon="1.2808010">
<ele>1030.254517</ele>
<time>2024-06-13T13:41:02.999Z</time>
</trkpt>
<trkpt lat="42.3152990" lon="1.2807300">
<ele>1029.858276</ele>
<time>2024-06-13T13:41:04.001Z</time>
</trkpt>
<trkpt lat="42.3153070" lon="1.2806680">
<ele>1029.492554</ele>
<time>2024-06-13T13:41:05.004Z</time>
</trkpt>
<trkpt lat="42.3153280" lon="1.2806180">
<ele>1029.126709</ele>
<time>2024-06-13T13:41:05.997Z</time>
</trkpt>
<trkpt lat="42.3153600" lon="1.2805840">
<ele>1028.059937</ele>
<time>2024-06-13T13:41:06.999Z</time>
</trkpt>
<trkpt lat="42.3153960" lon="1.2805730">
<ele>1027.724609</ele>
<time>2024-06-13T13:41:08.002Z</time>
</trkpt>
<trkpt lat="42.3154300" lon="1.2805870">
<ele>1027.480835</ele>
<time>2024-06-13T13:41:09.004Z</time>
</trkpt>
<trkpt lat="42.3154500" lon="1.2806300">
<ele>1027.297852</ele>
<time>2024-06-13T13:41:09.997Z</time>
</trkpt>
<trkpt lat="42.3154510" lon="1.2806910">
<ele>1027.054077</ele>
<time>2024-06-13T13:41:11.000Z</time>
</trkpt>
<trkpt lat="42.3154380" lon="1.2807590">
<ele>1026.718750</ele>
<time>2024-06-13T13:41:12.002Z</time>
</trkpt>
<trkpt lat="42.3154220" lon="1.2808350">
<ele>1026.474976</ele>
<time>2024-06-13T13:41:13.004Z</time>
</trkpt>
<trkpt lat="42.3153730" lon="1.2812020">
<ele>1026.048218</ele>
<time>2024-06-13T13:41:16.996Z</time>
</trkpt>
<trkpt lat="42.3153650" lon="1.2813010">
<ele>1025.773926</ele>
<time>2024-06-13T13:41:17.998Z</time>
</trkpt>
<trkpt lat="42.3153360" lon="1.2817120">
<ele>1024.615723</ele>
<time>2024-06-13T13:41:21.998Z</time>
</trkpt>
<trkpt lat="42.3153170" lon="1.2818160">
<ele>1024.249878</ele>
<time>2024-06-13T13:41:23.001Z</time>
</trkpt>
<trkpt lat="42.3152950" lon="1.2819170">
<ele>1023.823181</ele>
<time>2024-06-13T13:41:24.003Z</time>
</trkpt>
<trkpt lat="42.3152660" lon="1.2820170">
<ele>1023.487915</ele>
<time>2024-06-13T13:41:24.996Z</time>
</trkpt>
<trkpt lat="42.3152340" lon="1.2821110">
<ele>1022.969727</ele>
<time>2024-06-13T13:41:25.999Z</time>
</trkpt>
<trkpt lat="42.3151280" lon="1.2823680">
<ele>1021.750549</ele>
<time>2024-06-13T13:41:28.997Z</time>
</trkpt>
<trkpt lat="42.3150810" lon="1.2824440">
<ele>1021.415283</ele>
<time>2024-06-13T13:41:29.999Z</time>
</trkpt>
<trkpt lat="42.3150240" lon="1.2825110">
<ele>1020.805725</ele>
<time>2024-06-13T13:41:31.001Z</time>
</trkpt>
<trkpt lat="42.3149630" lon="1.2825640">
<ele>1020.805725</ele>
<time>2024-06-13T13:41:32.004Z</time>
</trkpt>
<trkpt lat="42.3148950" lon="1.2826020">
<ele>1020.013184</ele>
<time>2024-06-13T13:41:32.997Z</time>
</trkpt>
<trkpt lat="42.3148270" lon="1.2826420">
<ele>1019.677917</ele>
<time>2024-06-13T13:41:33.999Z</time>
</trkpt>
<trkpt lat="42.3147640" lon="1.2826950">
<ele>1019.434082</ele>
<time>2024-06-13T13:41:35.002Z</time>
</trkpt>
<trkpt lat="42.3147280" lon="1.2827820">
<ele>1019.220703</ele>
<time>2024-06-13T13:41:36.004Z</time>
</trkpt>
<trkpt lat="42.3147040" lon="1.2828860">
<ele>1019.007324</ele>
<time>2024-06-13T13:41:36.997Z</time>
</trkpt>
<trkpt lat="42.3146890" lon="1.2830020">
<ele>1018.702515</ele>
<time>2024-06-13T13:41:38.000Z</time>
</trkpt>
<trkpt lat="42.3146840" lon="1.2831180">
<ele>1018.367310</ele>
<time>2024-06-13T13:41:39.002Z</time>
</trkpt>
<trkpt lat="42.3146750" lon="1.2832250">
<ele>1018.092957</ele>
<time>2024-06-13T13:41:40.004Z</time>
</trkpt>
<trkpt lat="42.3146480" lon="1.2833180">
<ele>1017.788147</ele>
<time>2024-06-13T13:41:40.998Z</time>
</trkpt>
<trkpt lat="42.3146170" lon="1.2834000">
<ele>1017.483337</ele>
<time>2024-06-13T13:41:42.000Z</time>
</trkpt>
<trkpt lat="42.3145560" lon="1.2834830">
<ele>1017.148132</ele>
<time>2024-06-13T13:41:43.002Z</time>
</trkpt>
<trkpt lat="42.3144990" lon="1.2835450">
<ele>1016.660400</ele>
<time>2024-06-13T13:41:43.996Z</time>
</trkpt>
<trkpt lat="42.3144480" lon="1.2836010">
<ele>1016.081299</ele>
<time>2024-06-13T13:41:44.998Z</time>
</trkpt>
<trkpt lat="42.3138650" lon="1.2841300">
<ele>1012.819885</ele>
<time>2024-06-13T13:41:55.003Z</time>
</trkpt>
<trkpt lat="42.3137520" lon="1.2841950">
<ele>1011.753113</ele>
<time>2024-06-13T13:41:56.999Z</time>
</trkpt>
<trkpt lat="42.3137280" lon="1.2842920">
<ele>1011.509338</ele>
<time>2024-06-13T13:41:58.001Z</time>
</trkpt>
<trkpt lat="42.3137320" lon="1.2843940">
<ele>1011.052124</ele>
<time>2024-06-13T13:41:59.004Z</time>
</trkpt>
<trkpt lat="42.3137320" lon="1.2845170">
<ele>1010.594910</ele>
<time>2024-06-13T13:41:59.997Z</time>
</trkpt>
<trkpt lat="42.3137910" lon="1.2848280">
<ele>1009.832886</ele>
<time>2024-06-13T13:42:03.004Z</time>
</trkpt>
<trkpt lat="42.3138270" lon="1.2849250">
<ele>1009.619507</ele>
<time>2024-06-13T13:42:03.997Z</time>
</trkpt>
<trkpt lat="42.3137840" lon="1.2851130">
<ele>1008.766113</ele>
<time>2024-06-13T13:42:06.002Z</time>
</trkpt>
<trkpt lat="42.3137480" lon="1.2852090">
<ele>1008.461304</ele>
<time>2024-06-13T13:42:07.004Z</time>
</trkpt>
<trkpt lat="42.3136610" lon="1.2854450">
<ele>1007.699280</ele>
<time>2024-06-13T13:42:09.000Z</time>
</trkpt>
<trkpt lat="42.3135180" lon="1.2859340">
<ele>1005.413330</ele>
<time>2024-06-13T13:42:14.003Z</time>
</trkpt>
<trkpt lat="42.3134320" lon="1.2867270">
<ele>1002.974915</ele>
<time>2024-06-13T13:42:22.003Z</time>
</trkpt>
<trkpt lat="42.3134410" lon="1.2868240">
<ele>1002.395752</ele>
<time>2024-06-13T13:42:22.997Z</time>
</trkpt>
<trkpt lat="42.3134650" lon="1.2869170">
<ele>1001.908081</ele>
<time>2024-06-13T13:42:23.999Z</time>
</trkpt>
<trkpt lat="42.3135020" lon="1.2870060">
<ele>1001.389893</ele>
<time>2024-06-13T13:42:25.001Z</time>
</trkpt>
<trkpt lat="42.3135460" lon="1.2870860">
<ele>1000.963196</ele>
<time>2024-06-13T13:42:26.004Z</time>
</trkpt>
<trkpt lat="42.3135970" lon="1.2871570">
<ele>1000.566956</ele>
<time>2024-06-13T13:42:26.997Z</time>
</trkpt>
<trkpt lat="42.3136510" lon="1.2872290">
<ele>1000.292664</ele>
<time>2024-06-13T13:42:27.999Z</time>
</trkpt>
<trkpt lat="42.3137020" lon="1.2872940">
<ele>1000.048828</ele>
<time>2024-06-13T13:42:29.002Z</time>
</trkpt>
<trkpt lat="42.3138390" lon="1.2874480">
<ele>999.225830</ele>
<time>2024-06-13T13:42:32.000Z</time>
</trkpt>
<trkpt lat="42.3138820" lon="1.2874770">
<ele>998.951477</ele>
<time>2024-06-13T13:42:33.002Z</time>
</trkpt>
<trkpt lat="42.3139290" lon="1.2874920">
<ele>998.646667</ele>
<time>2024-06-13T13:42:34.004Z</time>
</trkpt>
<trkpt lat="42.3139780" lon="1.2874910">
<ele>998.219971</ele>
<time>2024-06-13T13:42:34.998Z</time>
</trkpt>
<trkpt lat="42.3140330" lon="1.2874760">
<ele>997.640930</ele>
<time>2024-06-13T13:42:36.000Z</time>
</trkpt>
<trkpt lat="42.3140860" lon="1.2874500">
<ele>997.183716</ele>
<time>2024-06-13T13:42:37.002Z</time>
</trkpt>
<trkpt lat="42.3141360" lon="1.2874140">
<ele>996.787476</ele>
<time>2024-06-13T13:42:37.996Z</time>
</trkpt>
<trkpt lat="42.3141780" lon="1.2873720">
<ele>996.574097</ele>
<time>2024-06-13T13:42:38.998Z</time>
</trkpt>
<trkpt lat="42.3142160" lon="1.2873220">
<ele>996.421692</ele>
<time>2024-06-13T13:42:40.000Z</time>
</trkpt>
<trkpt lat="42.3142420" lon="1.2872620">
<ele>996.330261</ele>
<time>2024-06-13T13:42:41.003Z</time>
</trkpt>
<trkpt lat="42.3142510" lon="1.2871910">
<ele>996.238770</ele>
<time>2024-06-13T13:42:41.996Z</time>
</trkpt>
<trkpt lat="42.3142460" lon="1.2871170">
<ele>996.208313</ele>
<time>2024-06-13T13:42:42.998Z</time>
</trkpt>
<trkpt lat="42.3142320" lon="1.2870420">
<ele>996.116882</ele>
<time>2024-06-13T13:42:44.001Z</time>
</trkpt>
<trkpt lat="42.3142140" lon="1.2869650">
<ele>995.994934</ele>
<time>2024-06-13T13:42:45.003Z</time>
</trkpt>
<trkpt lat="42.3141800" lon="1.2868020">
<ele>994.562378</ele>
<time>2024-06-13T13:42:46.999Z</time>
</trkpt>
<trkpt lat="42.3141680" lon="1.2867120">
<ele>994.227112</ele>
<time>2024-06-13T13:42:48.001Z</time>
</trkpt>
<trkpt lat="42.3141420" lon="1.2863590">
<ele>992.916504</ele>
<time>2024-06-13T13:42:52.001Z</time>
</trkpt>
<trkpt lat="42.3141230" lon="1.2862800">
<ele>992.459290</ele>
<time>2024-06-13T13:42:53.004Z</time>
</trkpt>
<trkpt lat="42.3140960" lon="1.2862070">
<ele>992.124023</ele>
<time>2024-06-13T13:42:53.997Z</time>
</trkpt>
<trkpt lat="42.3140660" lon="1.2861380">
<ele>991.880127</ele>
<time>2024-06-13T13:42:54.999Z</time>
</trkpt>
<trkpt lat="42.3140460" lon="1.2860670">
<ele>991.544922</ele>
<time>2024-06-13T13:42:56.002Z</time>
</trkpt>
<trkpt lat="42.3140380" lon="1.2859900">
<ele>991.179077</ele>
<time>2024-06-13T13:42:57.004Z</time>
</trkpt>
<trkpt lat="42.3140450" lon="1.2859120">
<ele>990.630493</ele>
<time>2024-06-13T13:42:57.997Z</time>
</trkpt>
<trkpt lat="42.3140660" lon="1.2858350">
<ele>990.051331</ele>
<time>2024-06-13T13:42:59.000Z</time>
</trkpt>
<trkpt lat="42.3140970" lon="1.2857620">
<ele>989.594116</ele>
<time>2024-06-13T13:43:00.002Z</time>
</trkpt>
<trkpt lat="42.3141340" lon="1.2856890">
<ele>989.106506</ele>
<time>2024-06-13T13:43:01.004Z</time>
</trkpt>
<trkpt lat="42.3143440" lon="1.2851620">
<ele>985.936523</ele>
<time>2024-06-13T13:43:07.000Z</time>
</trkpt>
<trkpt lat="42.3143860" lon="1.2849860">
<ele>985.144104</ele>
<time>2024-06-13T13:43:08.996Z</time>
</trkpt>
<trkpt lat="42.3143920" lon="1.2848960">
<ele>984.595459</ele>
<time>2024-06-13T13:43:09.998Z</time>
</trkpt>
<trkpt lat="42.3143880" lon="1.2848110">
<ele>983.559082</ele>
<time>2024-06-13T13:43:11.001Z</time>
</trkpt>
<trkpt lat="42.3143740" lon="1.2847320">
<ele>982.919067</ele>
<time>2024-06-13T13:43:12.003Z</time>
</trkpt>
<trkpt lat="42.3143640" lon="1.2846620">
<ele>982.309448</ele>
<time>2024-06-13T13:43:12.996Z</time>
</trkpt>
<trkpt lat="42.3143660" lon="1.2846020">
<ele>981.730286</ele>
<time>2024-06-13T13:43:13.999Z</time>
</trkpt>
<trkpt lat="42.3143830" lon="1.2845470">
<ele>981.151184</ele>
<time>2024-06-13T13:43:15.001Z</time>
</trkpt>
<trkpt lat="42.3144180" lon="1.2845040">
<ele>980.511108</ele>
<time>2024-06-13T13:43:16.003Z</time>
</trkpt>
<trkpt lat="42.3144670" lon="1.2844670">
<ele>979.901489</ele>
<time>2024-06-13T13:43:16.997Z</time>
</trkpt>
<trkpt lat="42.3145270" lon="1.2844340">
<ele>979.413879</ele>
<time>2024-06-13T13:43:17.999Z</time>
</trkpt>
<trkpt lat="42.3145940" lon="1.2843990">
<ele>979.017578</ele>
<time>2024-06-13T13:43:19.001Z</time>
</trkpt>
<trkpt lat="42.3149180" lon="1.2842500">
<ele>977.402161</ele>
<time>2024-06-13T13:43:24.004Z</time>
</trkpt>
<trkpt lat="42.3149800" lon="1.2841930">
<ele>977.158264</ele>
<time>2024-06-13T13:43:24.997Z</time>
</trkpt>
<trkpt lat="42.3150420" lon="1.2841140">
<ele>976.792542</ele>
<time>2024-06-13T13:43:26.000Z</time>
</trkpt>
<trkpt lat="42.3153120" lon="1.2837770">
<ele>974.171326</ele>
<time>2024-06-13T13:43:30.000Z</time>
</trkpt>
<trkpt lat="42.3153650" lon="1.2836920">
<ele>973.287354</ele>
<time>2024-06-13T13:43:31.002Z</time>
</trkpt>
<trkpt lat="42.3155030" lon="1.2834670">
<ele>971.153748</ele>
<time>2024-06-13T13:43:34.000Z</time>
</trkpt>
<trkpt lat="42.3155440" lon="1.2834170">
<ele>970.239319</ele>
<time>2024-06-13T13:43:35.003Z</time>
</trkpt>
<trkpt lat="42.3155940" lon="1.2833830">
<ele>968.471497</ele>
<time>2024-06-13T13:43:35.996Z</time>
</trkpt>
<trkpt lat="42.3156600" lon="1.2833670">
<ele>967.618103</ele>
<time>2024-06-13T13:43:36.998Z</time>
</trkpt>
<trkpt lat="42.3157310" lon="1.2833610">
<ele>966.673218</ele>
<time>2024-06-13T13:43:38.001Z</time>
</trkpt>
<trkpt lat="42.3157870" lon="1.2833610">
<ele>965.758789</ele>
<time>2024-06-13T13:43:39.003Z</time>
</trkpt>
<trkpt lat="42.3158410" lon="1.2833540">
<ele>964.905334</ele>
<time>2024-06-13T13:43:39.996Z</time>
</trkpt>
<trkpt lat="42.3158900" lon="1.2833330">
<ele>964.234802</ele>
<time>2024-06-13T13:43:40.999Z</time>
</trkpt>
<trkpt lat="42.3159100" lon="1.2833040">
<ele>963.747070</ele>
<time>2024-06-13T13:43:42.001Z</time>
</trkpt>
<trkpt lat="42.3160840" lon="1.2831830">
<ele>961.583069</ele>
<time>2024-06-13T13:43:46.001Z</time>
</trkpt>
<trkpt lat="42.3161350" lon="1.2831620">
<ele>961.034424</ele>
<time>2024-06-13T13:43:47.004Z</time>
</trkpt>
<trkpt lat="42.3161820" lon="1.2831580">
<ele>960.516235</ele>
<time>2024-06-13T13:43:47.997Z</time>
</trkpt>
<trkpt lat="42.3162250" lon="1.2831750">
<ele>959.906677</ele>
<time>2024-06-13T13:43:48.999Z</time>
</trkpt>
<trkpt lat="42.3162590" lon="1.2832100">
<ele>959.236084</ele>
<time>2024-06-13T13:43:50.002Z</time>
</trkpt>
<trkpt lat="42.3162820" lon="1.2832590">
<ele>958.565491</ele>
<time>2024-06-13T13:43:51.004Z</time>
</trkpt>
<trkpt lat="42.3162920" lon="1.2833250">
<ele>957.894958</ele>
<time>2024-06-13T13:43:51.997Z</time>
</trkpt>
<trkpt lat="42.3162680" lon="1.2834000">
<ele>957.315857</ele>
<time>2024-06-13T13:43:53.000Z</time>
</trkpt>
<trkpt lat="42.3162310" lon="1.2834720">
<ele>956.736694</ele>
<time>2024-06-13T13:43:54.002Z</time>
</trkpt>
<trkpt lat="42.3161810" lon="1.2835360">
<ele>956.309998</ele>
<time>2024-06-13T13:43:55.004Z</time>
</trkpt>
<trkpt lat="42.3161240" lon="1.2835990">
<ele>955.974670</ele>
<time>2024-06-13T13:43:55.998Z</time>
</trkpt>
<trkpt lat="42.3160740" lon="1.2836600">
<ele>955.547974</ele>
<time>2024-06-13T13:43:57.000Z</time>
</trkpt>
<trkpt lat="42.3157880" lon="1.2839990">
<ele>952.469482</ele>
<time>2024-06-13T13:44:02.003Z</time>
</trkpt>
<trkpt lat="42.3157130" lon="1.2840660">
<ele>951.890381</ele>
<time>2024-06-13T13:44:02.996Z</time>
</trkpt>
<trkpt lat="42.3156380" lon="1.2841210">
<ele>951.280823</ele>
<time>2024-06-13T13:44:03.998Z</time>
</trkpt>
<trkpt lat="42.3152620" lon="1.2843580">
<ele>948.811890</ele>
<time>2024-06-13T13:44:09.001Z</time>
</trkpt>
<trkpt lat="42.3152040" lon="1.2844310">
<ele>948.171875</ele>
<time>2024-06-13T13:44:10.003Z</time>
</trkpt>
<trkpt lat="42.3151570" lon="1.2845070">
<ele>947.531738</ele>
<time>2024-06-13T13:44:10.997Z</time>
</trkpt>
<trkpt lat="42.3149710" lon="1.2848120">
<ele>945.184814</ele>
<time>2024-06-13T13:44:14.997Z</time>
</trkpt>
<trkpt lat="42.3148960" lon="1.2849840">
<ele>944.575195</ele>
<time>2024-06-13T13:44:15.999Z</time>
</trkpt>
<trkpt lat="42.3148880" lon="1.2851020">
<ele>944.057068</ele>
<time>2024-06-13T13:44:17.002Z</time>
</trkpt>
<trkpt lat="42.3148440" lon="1.2852630">
<ele>943.447449</ele>
<time>2024-06-13T13:44:18.004Z</time>
</trkpt>
<trkpt lat="42.3148120" lon="1.2854450">
<ele>942.715881</ele>
<time>2024-06-13T13:44:18.997Z</time>
</trkpt>
<trkpt lat="42.3147770" lon="1.2859760">
<ele>939.454529</ele>
<time>2024-06-13T13:44:22.998Z</time>
</trkpt>
<trkpt lat="42.3147850" lon="1.2864970">
<ele>935.979858</ele>
<time>2024-06-13T13:44:26.998Z</time>
</trkpt>
<trkpt lat="42.3148360" lon="1.2867380">
<ele>935.004517</ele>
<time>2024-06-13T13:44:29.003Z</time>
</trkpt>
<trkpt lat="42.3148760" lon="1.2868940">
<ele>934.516785</ele>
<time>2024-06-13T13:44:29.996Z</time>
</trkpt>
<trkpt lat="42.3150150" lon="1.2871460">
<ele>933.419495</ele>
<time>2024-06-13T13:44:32.001Z</time>
</trkpt>
<trkpt lat="42.3152500" lon="1.2876290">
<ele>930.127686</ele>
<time>2024-06-13T13:44:40.001Z</time>
</trkpt>
<trkpt lat="42.3152540" lon="1.2877790">
<ele>929.365723</ele>
<time>2024-06-13T13:44:41.997Z</time>
</trkpt>
<trkpt lat="42.3152340" lon="1.2878700">
<ele>929.030396</ele>
<time>2024-06-13T13:44:42.999Z</time>
</trkpt>
<trkpt lat="42.3151900" lon="1.2879340">
<ele>928.725586</ele>
<time>2024-06-13T13:44:44.002Z</time>
</trkpt>
<trkpt lat="42.3151060" lon="1.2880480">
<ele>927.902649</ele>
<time>2024-06-13T13:44:45.997Z</time>
</trkpt>
<trkpt lat="42.3150300" lon="1.2880650">
<ele>927.628296</ele>
<time>2024-06-13T13:44:47.000Z</time>
</trkpt>
<trkpt lat="42.3149600" lon="1.2880780">
<ele>927.414917</ele>
<time>2024-06-13T13:44:48.002Z</time>
</trkpt>
<trkpt lat="42.3146110" lon="1.2881900">
<ele>926.652954</ele>
<time>2024-06-13T13:44:52.996Z</time>
</trkpt>
<trkpt lat="42.3145620" lon="1.2882270">
<ele>926.591980</ele>
<time>2024-06-13T13:44:53.998Z</time>
</trkpt>
<trkpt lat="42.3145160" lon="1.2882700">
<ele>926.470093</ele>
<time>2024-06-13T13:44:55.000Z</time>
</trkpt>
<trkpt lat="42.3144740" lon="1.2883220">
<ele>926.409119</ele>
<time>2024-06-13T13:44:56.003Z</time>
</trkpt>
<trkpt lat="42.3144330" lon="1.2883790">
<ele>926.256714</ele>
<time>2024-06-13T13:44:56.996Z</time>
</trkpt>
<trkpt lat="42.3143910" lon="1.2884400">
<ele>926.165283</ele>
<time>2024-06-13T13:44:57.998Z</time>
</trkpt>
<trkpt lat="42.3142520" lon="1.2886280">
<ele>925.951904</ele>
<time>2024-06-13T13:45:00.996Z</time>
</trkpt>
<trkpt lat="42.3141370" lon="1.2886770">
<ele>925.738525</ele>
<time>2024-06-13T13:45:01.999Z</time>
</trkpt>
<trkpt lat="42.3140560" lon="1.2887320">
<ele>925.555725</ele>
<time>2024-06-13T13:45:03.001Z</time>
</trkpt>
<trkpt lat="42.3139710" lon="1.2887750">
<ele>925.372803</ele>
<time>2024-06-13T13:45:04.003Z</time>
</trkpt>
<trkpt lat="42.3138890" lon="1.2888090">
<ele>925.098511</ele>
<time>2024-06-13T13:45:04.997Z</time>
</trkpt>
<trkpt lat="42.3138040" lon="1.2888380">
<ele>924.915588</ele>
<time>2024-06-13T13:45:05.999Z</time>
</trkpt>
<trkpt lat="42.3137180" lon="1.2888590">
<ele>924.824158</ele>
<time>2024-06-13T13:45:07.001Z</time>
</trkpt>
<trkpt lat="42.3128020" lon="1.2888280">
<ele>921.715210</ele>
<time>2024-06-13T13:45:16.998Z</time>
</trkpt>
<trkpt lat="42.3122600" lon="1.2887050">
<ele>919.063477</ele>
<time>2024-06-13T13:45:23.003Z</time>
</trkpt>
<trkpt lat="42.3121740" lon="1.2887150">
<ele>918.362427</ele>
<time>2024-06-13T13:45:23.996Z</time>
</trkpt>
<trkpt lat="42.3120930" lon="1.2887480">
<ele>917.752808</ele>
<time>2024-06-13T13:45:24.998Z</time>
</trkpt>
<trkpt lat="42.3120090" lon="1.2888040">
<ele>917.143188</ele>
<time>2024-06-13T13:45:26.001Z</time>
</trkpt>
<trkpt lat="42.3119330" lon="1.2888760">
<ele>916.503113</ele>
<time>2024-06-13T13:45:27.003Z</time>
</trkpt>
<trkpt lat="42.3118690" lon="1.2889530">
<ele>915.863037</ele>
<time>2024-06-13T13:45:27.996Z</time>
</trkpt>
<trkpt lat="42.3118100" lon="1.2890350">
<ele>915.375366</ele>
<time>2024-06-13T13:45:28.999Z</time>
</trkpt>
<trkpt lat="42.3116890" lon="1.2893260">
<ele>913.363708</ele>
<time>2024-06-13T13:45:32.999Z</time>
</trkpt>
<trkpt lat="42.3116190" lon="1.2893930">
<ele>912.632141</ele>
<time>2024-06-13T13:45:34.001Z</time>
</trkpt>
<trkpt lat="42.3115370" lon="1.2894410">
<ele>912.022522</ele>
<time>2024-06-13T13:45:35.004Z</time>
</trkpt>
<trkpt lat="42.3114590" lon="1.2894590">
<ele>911.321472</ele>
<time>2024-06-13T13:45:35.997Z</time>
</trkpt>
<trkpt lat="42.3113660" lon="1.2894570">
<ele>910.041321</ele>
<time>2024-06-13T13:45:36.999Z</time>
</trkpt>
<trkpt lat="42.3112740" lon="1.2894370">
<ele>909.645081</ele>
<time>2024-06-13T13:45:38.002Z</time>
</trkpt>
<trkpt lat="42.3111880" lon="1.2894060">
<ele>909.218384</ele>
<time>2024-06-13T13:45:39.004Z</time>
</trkpt>
<trkpt lat="42.3111040" lon="1.2893680">
<ele>908.761230</ele>
<time>2024-06-13T13:45:39.997Z</time>
</trkpt>
<trkpt lat="42.3106130" lon="1.2891540">
<ele>907.450562</ele>
<time>2024-06-13T13:45:46.002Z</time>
</trkpt>
<trkpt lat="42.3105320" lon="1.2891420">
<ele>907.359070</ele>
<time>2024-06-13T13:45:46.996Z</time>
</trkpt>
<trkpt lat="42.3104550" lon="1.2891540">
<ele>907.145752</ele>
<time>2024-06-13T13:45:47.998Z</time>
</trkpt>
<trkpt lat="42.3103850" lon="1.2891900">
<ele>906.810486</ele>
<time>2024-06-13T13:45:49.000Z</time>
</trkpt>
<trkpt lat="42.3103190" lon="1.2892420">
<ele>906.353333</ele>
<time>2024-06-13T13:45:50.003Z</time>
</trkpt>
<trkpt lat="42.3102560" lon="1.2893030">
<ele>905.804626</ele>
<time>2024-06-13T13:45:50.996Z</time>
</trkpt>
<trkpt lat="42.3101950" lon="1.2893660">
<ele>905.316956</ele>
<time>2024-06-13T13:45:51.998Z</time>
</trkpt>
<trkpt lat="42.3098610" lon="1.2897720">
<ele>902.208008</ele>
<time>2024-06-13T13:45:58.003Z</time>
</trkpt>
<trkpt lat="42.3098260" lon="1.2898000">
<ele>901.659363</ele>
<time>2024-06-13T13:45:58.997Z</time>
</trkpt>
<trkpt lat="42.3097890" lon="1.2898040">
<ele>901.171692</ele>
<time>2024-06-13T13:45:59.999Z</time>
</trkpt>
<trkpt lat="42.3097360" lon="1.2897960">
<ele>900.348694</ele>
<time>2024-06-13T13:46:01.001Z</time>
</trkpt>
<trkpt lat="42.3096920" lon="1.2897700">
<ele>900.348694</ele>
<time>2024-06-13T13:46:02.004Z</time>
</trkpt>
<trkpt lat="42.3096480" lon="1.2897390">
<ele>899.038086</ele>
<time>2024-06-13T13:46:02.997Z</time>
</trkpt>
<trkpt lat="42.3092640" lon="1.2896070">
<ele>895.959595</ele>
<time>2024-06-13T13:46:10.004Z</time>
</trkpt>
<trkpt lat="42.3087410" lon="1.2893710">
<ele>893.490662</ele>
<time>2024-06-13T13:46:17.996Z</time>
</trkpt>
<trkpt lat="42.3086640" lon="1.2893090">
<ele>893.368774</ele>
<time>2024-06-13T13:46:18.998Z</time>
</trkpt>
<trkpt lat="42.3085690" lon="1.2892550">
<ele>893.185913</ele>
<time>2024-06-13T13:46:20.001Z</time>
</trkpt>
<trkpt lat="42.3077490" lon="1.2885460">
<ele>890.503723</ele>
<time>2024-06-13T13:46:32.002Z</time>
</trkpt>
<trkpt lat="42.3073580" lon="1.2884660">
<ele>889.101624</ele>
<time>2024-06-13T13:46:36.002Z</time>
</trkpt>
<trkpt lat="42.3072030" lon="1.2885310">
<ele>888.735840</ele>
<time>2024-06-13T13:46:37.004Z</time>
</trkpt>
<trkpt lat="42.3070320" lon="1.2887980">
<ele>887.821472</ele>
<time>2024-06-13T13:46:40.996Z</time>
</trkpt>
<trkpt lat="42.3068580" lon="1.2891250">
<ele>886.693726</ele>
<time>2024-06-13T13:46:44.003Z</time>
</trkpt>
<trkpt lat="42.3067110" lon="1.2893400">
<ele>886.084106</ele>
<time>2024-06-13T13:46:47.001Z</time>
</trkpt>
<trkpt lat="42.3065800" lon="1.2895060">
<ele>885.474487</ele>
<time>2024-06-13T13:46:48.996Z</time>
</trkpt>
<trkpt lat="42.3062930" lon="1.2896560">
<ele>883.889465</ele>
<time>2024-06-13T13:46:52.997Z</time>
</trkpt>
<trkpt lat="42.3061700" lon="1.2896620">
<ele>883.615173</ele>
<time>2024-06-13T13:46:53.999Z</time>
</trkpt>
<trkpt lat="42.3060350" lon="1.2897110">
<ele>883.310425</ele>
<time>2024-06-13T13:46:55.001Z</time>
</trkpt>
<trkpt lat="42.3059440" lon="1.2897620">
<ele>883.158020</ele>
<time>2024-06-13T13:46:56.004Z</time>
</trkpt>
<trkpt lat="42.3058490" lon="1.2898060">
<ele>882.944641</ele>
<time>2024-06-13T13:46:56.997Z</time>
</trkpt>
<trkpt lat="42.3057520" lon="1.2898440">
<ele>882.761719</ele>
<time>2024-06-13T13:46:57.999Z</time>
</trkpt>
<trkpt lat="42.3056490" lon="1.2898720">
<ele>882.700806</ele>
<time>2024-06-13T13:46:59.002Z</time>
</trkpt>
<trkpt lat="42.3055390" lon="1.2898910">
<ele>882.487427</ele>
<time>2024-06-13T13:47:00.004Z</time>
</trkpt>
<trkpt lat="42.3048040" lon="1.2901120">
<ele>879.073730</ele>
<time>2024-06-13T13:47:07.996Z</time>
</trkpt>
<trkpt lat="42.3045980" lon="1.2903110">
<ele>876.665771</ele>
<time>2024-06-13T13:47:11.003Z</time>
</trkpt>
<trkpt lat="42.3043360" lon="1.2906600">
<ele>873.495850</ele>
<time>2024-06-13T13:47:15.003Z</time>
</trkpt>
<trkpt lat="42.3040260" lon="1.2909650">
<ele>868.923828</ele>
<time>2024-06-13T13:47:23.004Z</time>
</trkpt>
<trkpt lat="42.3037640" lon="1.2912440">
<ele>869.655334</ele>
<time>2024-06-13T13:47:34.996Z</time>
</trkpt>
<trkpt lat="42.3037250" lon="1.2913460">
<ele>870.021118</ele>
<time>2024-06-13T13:47:35.998Z</time>
</trkpt>
<trkpt lat="42.3035920" lon="1.2914620">
<ele>871.270813</ele>
<time>2024-06-13T13:47:38.996Z</time>
</trkpt>
<trkpt lat="42.3035510" lon="1.2915160">
<ele>871.819458</ele>
<time>2024-06-13T13:47:39.998Z</time>
</trkpt>
<trkpt lat="42.3035150" lon="1.2915620">
<ele>872.276672</ele>
<time>2024-06-13T13:47:41.001Z</time>
</trkpt>
<trkpt lat="42.3030730" lon="1.2920150">
<ele>875.446533</ele>
<time>2024-06-13T13:47:51.999Z</time>
</trkpt>
<trkpt lat="42.3028910" lon="1.2921340">
<ele>876.513367</ele>
<time>2024-06-13T13:47:56.000Z</time>
</trkpt>
<trkpt lat="42.3028400" lon="1.2921460">
<ele>876.665771</ele>
<time>2024-06-13T13:47:57.002Z</time>
</trkpt>
<trkpt lat="42.3027880" lon="1.2921430">
<ele>876.757202</ele>
<time>2024-06-13T13:47:58.004Z</time>
</trkpt>
<trkpt lat="42.3027340" lon="1.2921280">
<ele>876.879089</ele>
<time>2024-06-13T13:47:58.998Z</time>
</trkpt>
<trkpt lat="42.3026850" lon="1.2921080">
<ele>876.909607</ele>
<time>2024-06-13T13:48:00.000Z</time>
</trkpt>
<trkpt lat="42.3026360" lon="1.2920970">
<ele>877.001038</ele>
<time>2024-06-13T13:48:01.002Z</time>
</trkpt>
<trkpt lat="42.3025900" lon="1.2920980">
<ele>877.062012</ele>
<time>2024-06-13T13:48:01.996Z</time>
</trkpt>
<trkpt lat="42.3025440" lon="1.2921100">
<ele>877.092529</ele>
<time>2024-06-13T13:48:02.998Z</time>
</trkpt>
<trkpt lat="42.3023720" lon="1.2921890">
<ele>877.183899</ele>
<time>2024-06-13T13:48:06.998Z</time>
</trkpt>
<trkpt lat="42.3019970" lon="1.2925350">
<ele>877.153442</ele>
<time>2024-06-13T13:48:16.001Z</time>
</trkpt>
<trkpt lat="42.3019630" lon="1.2925850">
<ele>877.153442</ele>
<time>2024-06-13T13:48:17.004Z</time>
</trkpt>
<trkpt lat="42.3019300" lon="1.2926390">
<ele>877.122925</ele>
<time>2024-06-13T13:48:17.997Z</time>
</trkpt>
<trkpt lat="42.3019010" lon="1.2926950">
<ele>877.092529</ele>
<time>2024-06-13T13:48:18.999Z</time>
</trkpt>
<trkpt lat="42.3018710" lon="1.2927490">
<ele>877.092529</ele>
<time>2024-06-13T13:48:20.002Z</time>
</trkpt>
<trkpt lat="42.3014840" lon="1.2936190">
<ele>875.964661</ele>
<time>2024-06-13T13:48:35.001Z</time>
</trkpt>
<trkpt lat="42.3014510" lon="1.2936650">
<ele>875.751343</ele>
<time>2024-06-13T13:48:36.003Z</time>
</trkpt>
<trkpt lat="42.3014130" lon="1.2937030">
<ele>875.385620</ele>
<time>2024-06-13T13:48:36.996Z</time>
</trkpt>
<trkpt lat="42.3013750" lon="1.2937380">
<ele>875.080811</ele>
<time>2024-06-13T13:48:37.999Z</time>
</trkpt>
<trkpt lat="42.3013360" lon="1.2937720">
<ele>874.928406</ele>
<time>2024-06-13T13:48:39.001Z</time>
</trkpt>
<trkpt lat="42.3012950" lon="1.2938080">
<ele>874.836975</ele>
<time>2024-06-13T13:48:40.003Z</time>
</trkpt>
<trkpt lat="42.3007040" lon="1.2944520">
<ele>874.501709</ele>
<time>2024-06-13T13:48:54.000Z</time>
</trkpt>
<trkpt lat="42.3005740" lon="1.2946020">
<ele>874.349304</ele>
<time>2024-06-13T13:48:56.998Z</time>
</trkpt>
<trkpt lat="42.3005430" lon="1.2946710">
<ele>874.257874</ele>
<time>2024-06-13T13:48:58.000Z</time>
</trkpt>
<trkpt lat="42.3005200" lon="1.2947480">
<ele>874.166382</ele>
<time>2024-06-13T13:48:59.003Z</time>
</trkpt>
<trkpt lat="42.3004990" lon="1.2948340">
<ele>874.074951</ele>
<time>2024-06-13T13:48:59.996Z</time>
</trkpt>
<trkpt lat="42.3004890" lon="1.2949260">
<ele>873.678711</ele>
<time>2024-06-13T13:49:00.998Z</time>
</trkpt>
<trkpt lat="42.3004840" lon="1.2950160">
<ele>873.404419</ele>
<time>2024-06-13T13:49:02.001Z</time>
</trkpt>
<trkpt lat="42.3004810" lon="1.2951030">
<ele>873.130127</ele>
<time>2024-06-13T13:49:03.003Z</time>
</trkpt>
<trkpt lat="42.3004690" lon="1.2952720">
<ele>872.642395</ele>
<time>2024-06-13T13:49:04.999Z</time>
</trkpt>
<trkpt lat="42.3004520" lon="1.2953520">
<ele>872.185181</ele>
<time>2024-06-13T13:49:06.001Z</time>
</trkpt>
<trkpt lat="42.3004190" lon="1.2954260">
<ele>871.575623</ele>
<time>2024-06-13T13:49:07.003Z</time>
</trkpt>
<trkpt lat="42.3003750" lon="1.2954890">
<ele>870.905029</ele>
<time>2024-06-13T13:49:07.997Z</time>
</trkpt>
<trkpt lat="42.3003310" lon="1.2955490">
<ele>869.990662</ele>
<time>2024-06-13T13:49:08.999Z</time>
</trkpt>
<trkpt lat="42.3002040" lon="1.2957360">
<ele>867.643738</ele>
<time>2024-06-13T13:49:11.997Z</time>
</trkpt>
<trkpt lat="42.3001440" lon="1.2957860">
<ele>867.034119</ele>
<time>2024-06-13T13:49:12.999Z</time>
</trkpt>
<trkpt lat="42.3000800" lon="1.2958240">
<ele>866.393982</ele>
<time>2024-06-13T13:49:14.002Z</time>
</trkpt>
<trkpt lat="42.2995320" lon="1.2962080">
<ele>863.864136</ele>
<time>2024-06-13T13:49:22.996Z</time>
</trkpt>
<trkpt lat="42.2994680" lon="1.2962490">
<ele>863.559326</ele>
<time>2024-06-13T13:49:23.998Z</time>
</trkpt>
<trkpt lat="42.2993990" lon="1.2962820">
<ele>863.285034</ele>
<time>2024-06-13T13:49:25.000Z</time>
</trkpt>
<trkpt lat="42.2993310" lon="1.2963060">
<ele>862.827881</ele>
<time>2024-06-13T13:49:26.003Z</time>
</trkpt>
<trkpt lat="42.2992620" lon="1.2963230">
<ele>862.462097</ele>
<time>2024-06-13T13:49:26.996Z</time>
</trkpt>
<trkpt lat="42.2990770" lon="1.2963080">
<ele>860.907593</ele>
<time>2024-06-13T13:49:30.003Z</time>
</trkpt>
<trkpt lat="42.2987910" lon="1.2963830">
<ele>859.414124</ele>
<time>2024-06-13T13:49:34.003Z</time>
</trkpt>
<trkpt lat="42.2985340" lon="1.2965400">
<ele>857.768127</ele>
<time>2024-06-13T13:49:38.004Z</time>
</trkpt>
<trkpt lat="42.2983240" lon="1.2964960">
<ele>854.537292</ele>
<time>2024-06-13T13:49:44.000Z</time>
</trkpt>
<trkpt lat="42.2982210" lon="1.2965070">
<ele>850.209106</ele>
<time>2024-06-13T13:50:42.000Z</time>
</trkpt>
<trkpt lat="42.2981210" lon="1.2965310">
<ele>849.142273</ele>
<time>2024-06-13T13:51:07.004Z</time>
</trkpt>
<trkpt lat="42.2981060" lon="1.2967430">
<ele>848.867981</ele>
<time>2024-06-13T13:51:17.001Z</time>
</trkpt>
<trkpt lat="42.2982570" lon="1.2972150">
<ele>848.685120</ele>
<time>2024-06-13T13:51:26.004Z</time>
</trkpt>
<trkpt lat="42.2983250" lon="1.2974620">
<ele>848.563171</ele>
<time>2024-06-13T13:51:30.004Z</time>
</trkpt>
<trkpt lat="42.2985550" lon="1.2976490">
<ele>848.532715</ele>
<time>2024-06-13T13:51:34.004Z</time>
</trkpt>
<trkpt lat="42.2987250" lon="1.2979230">
<ele>848.227905</ele>
<time>2024-06-13T13:51:41.003Z</time>
</trkpt>
<trkpt lat="42.2988320" lon="1.2984490">
<ele>847.069702</ele>
<time>2024-06-13T13:51:49.003Z</time>
</trkpt>
<trkpt lat="42.2989590" lon="1.2985400">
<ele>846.795349</ele>
<time>2024-06-13T13:51:50.999Z</time>
</trkpt>
<trkpt lat="42.2990070" lon="1.2987490">
<ele>846.551514</ele>
<time>2024-06-13T13:51:53.997Z</time>
</trkpt>
<trkpt lat="42.2991380" lon="1.2991250">
<ele>845.911438</ele>
<time>2024-06-13T13:52:00.002Z</time>
</trkpt>
<trkpt lat="42.2991530" lon="1.2992590">
<ele>845.850525</ele>
<time>2024-06-13T13:52:01.004Z</time>
</trkpt>
<trkpt lat="42.2991380" lon="1.3000260">
<ele>842.467224</ele>
<time>2024-06-13T13:52:11.001Z</time>
</trkpt>
<trkpt lat="42.2990940" lon="1.3003910">
<ele>839.449707</ele>
<time>2024-06-13T13:52:15.001Z</time>
</trkpt>
<trkpt lat="42.2991060" lon="1.3005350">
<ele>838.718140</ele>
<time>2024-06-13T13:52:16.003Z</time>
</trkpt>
<trkpt lat="42.2990780" lon="1.3007710">
<ele>836.523621</ele>
<time>2024-06-13T13:52:19.001Z</time>
</trkpt>
<trkpt lat="42.2989990" lon="1.3009860">
<ele>833.780396</ele>
<time>2024-06-13T13:52:23.002Z</time>
</trkpt>
<trkpt lat="42.2988880" lon="1.3010990">
<ele>832.652649</ele>
<time>2024-06-13T13:52:24.997Z</time>
</trkpt>
<trkpt lat="42.2987840" lon="1.3012970">
<ele>831.067688</ele>
<time>2024-06-13T13:52:27.002Z</time>
</trkpt>
<trkpt lat="42.2986060" lon="1.3015650">
<ele>827.714905</ele>
<time>2024-06-13T13:52:31.002Z</time>
</trkpt>
<trkpt lat="42.2985580" lon="1.3016940">
<ele>827.714905</ele>
<time>2024-06-13T13:52:31.996Z</time>
</trkpt>
<trkpt lat="42.2984590" lon="1.3018390">
<ele>825.855591</ele>
<time>2024-06-13T13:52:34.000Z</time>
</trkpt>
<trkpt lat="42.2984050" lon="1.3020210">
<ele>824.301086</ele>
<time>2024-06-13T13:52:36.998Z</time>
</trkpt>
<trkpt lat="42.2984500" lon="1.3021320">
<ele>823.813477</ele>
<time>2024-06-13T13:52:38.001Z</time>
</trkpt>
<trkpt lat="42.2984620" lon="1.3022210">
<ele>823.234314</ele>
<time>2024-06-13T13:52:39.003Z</time>
</trkpt>
<trkpt lat="42.2984860" lon="1.3023160">
<ele>822.655212</ele>
<time>2024-06-13T13:52:39.996Z</time>
</trkpt>
<trkpt lat="42.2985180" lon="1.3024110">
<ele>822.319885</ele>
<time>2024-06-13T13:52:40.999Z</time>
</trkpt>
<trkpt lat="42.2985140" lon="1.3025150">
<ele>822.106567</ele>
<time>2024-06-13T13:52:42.001Z</time>
</trkpt>
<trkpt lat="42.2985340" lon="1.3026060">
<ele>821.954163</ele>
<time>2024-06-13T13:52:43.003Z</time>
</trkpt>
<trkpt lat="42.2985260" lon="1.3026970">
<ele>821.649353</ele>
<time>2024-06-13T13:52:43.997Z</time>
</trkpt>
<trkpt lat="42.2985220" lon="1.3028100">
<ele>821.405518</ele>
<time>2024-06-13T13:52:44.999Z</time>
</trkpt>
<trkpt lat="42.2984570" lon="1.3030840">
<ele>820.094910</ele>
<time>2024-06-13T13:52:47.997Z</time>
</trkpt>
<trkpt lat="42.2984370" lon="1.3033630">
<ele>819.332886</ele>
<time>2024-06-13T13:52:48.999Z</time>
</trkpt>
<trkpt lat="42.2984010" lon="1.3036680">
<ele>815.553345</ele>
<time>2024-06-13T13:52:53.000Z</time>
</trkpt>
<trkpt lat="42.2983420" lon="1.3038240">
<ele>813.815979</ele>
<time>2024-06-13T13:52:55.004Z</time>
</trkpt>
<trkpt lat="42.2983340" lon="1.3039030">
<ele>812.962524</ele>
<time>2024-06-13T13:52:55.998Z</time>
</trkpt>
<trkpt lat="42.2982550" lon="1.3040750">
<ele>810.889893</ele>
<time>2024-06-13T13:52:58.002Z</time>
</trkpt>
<trkpt lat="42.2982270" lon="1.3041700">
<ele>810.341309</ele>
<time>2024-06-13T13:52:58.996Z</time>
</trkpt>
<trkpt lat="42.2982070" lon="1.3042740">
<ele>809.945068</ele>
<time>2024-06-13T13:52:59.998Z</time>
</trkpt>
<trkpt lat="42.2981980" lon="1.3043820">
<ele>809.548828</ele>
<time>2024-06-13T13:53:01.000Z</time>
</trkpt>
<trkpt lat="42.2982020" lon="1.3044920">
<ele>809.000122</ele>
<time>2024-06-13T13:53:02.003Z</time>
</trkpt>
<trkpt lat="42.2982120" lon="1.3045960">
<ele>808.299072</ele>
<time>2024-06-13T13:53:02.996Z</time>
</trkpt>
<trkpt lat="42.2982360" lon="1.3052050">
<ele>805.251099</ele>
<time>2024-06-13T13:53:09.001Z</time>
</trkpt>
<trkpt lat="42.2982280" lon="1.3052870">
<ele>804.550110</ele>
<time>2024-06-13T13:53:10.003Z</time>
</trkpt>
<trkpt lat="42.2982130" lon="1.3053670">
<ele>803.849060</ele>
<time>2024-06-13T13:53:10.997Z</time>
</trkpt>
<trkpt lat="42.2981860" lon="1.3054330">
<ele>803.026123</ele>
<time>2024-06-13T13:53:11.999Z</time>
</trkpt>
<trkpt lat="42.2981360" lon="1.3054990">
<ele>801.989746</ele>
<time>2024-06-13T13:53:13.001Z</time>
</trkpt>
<trkpt lat="42.2980660" lon="1.3055530">
<ele>800.892517</ele>
<time>2024-06-13T13:53:14.004Z</time>
</trkpt>
<trkpt lat="42.2979930" lon="1.3056040">
<ele>799.673340</ele>
<time>2024-06-13T13:53:14.997Z</time>
</trkpt>
<trkpt lat="42.2978590" lon="1.3057210">
<ele>797.844482</ele>
<time>2024-06-13T13:53:17.002Z</time>
</trkpt>
<trkpt lat="42.2978070" lon="1.3057960">
<ele>797.143433</ele>
<time>2024-06-13T13:53:18.004Z</time>
</trkpt>
<trkpt lat="42.2977690" lon="1.3058760">
<ele>796.442383</ele>
<time>2024-06-13T13:53:18.997Z</time>
</trkpt>
<trkpt lat="42.2977440" lon="1.3059600">
<ele>795.802307</ele>
<time>2024-06-13T13:53:20.000Z</time>
</trkpt>
<trkpt lat="42.2977360" lon="1.3060430">
<ele>795.070801</ele>
<time>2024-06-13T13:53:21.002Z</time>
</trkpt>
<trkpt lat="42.2977420" lon="1.3061180">
<ele>794.461182</ele>
<time>2024-06-13T13:53:22.004Z</time>
</trkpt>
<trkpt lat="42.2977620" lon="1.3061910">
<ele>793.242004</ele>
<time>2024-06-13T13:53:22.998Z</time>
</trkpt>
<trkpt lat="42.2977870" lon="1.3062640">
<ele>792.479980</ele>
<time>2024-06-13T13:53:24.000Z</time>
</trkpt>
<trkpt lat="42.2978180" lon="1.3063380">
<ele>791.626526</ele>
<time>2024-06-13T13:53:25.002Z</time>
</trkpt>
<trkpt lat="42.2978480" lon="1.3064100">
<ele>790.834106</ele>
<time>2024-06-13T13:53:25.996Z</time>
</trkpt>
<trkpt lat="42.2978820" lon="1.3066180">
<ele>789.005310</ele>
<time>2024-06-13T13:53:29.003Z</time>
</trkpt>
<trkpt lat="42.2978520" lon="1.3066820">
<ele>788.334717</ele>
<time>2024-06-13T13:53:29.996Z</time>
</trkpt>
<trkpt lat="42.2978080" lon="1.3067340">
<ele>787.664124</ele>
<time>2024-06-13T13:53:30.998Z</time>
</trkpt>
<trkpt lat="42.2977540" lon="1.3067680">
<ele>786.963074</ele>
<time>2024-06-13T13:53:32.001Z</time>
</trkpt>
<trkpt lat="42.2977370" lon="1.3067730">
<ele>786.292542</ele>
<time>2024-06-13T13:53:33.003Z</time>
</trkpt>
<trkpt lat="42.2976880" lon="1.3067790">
<ele>785.347717</ele>
<time>2024-06-13T13:53:33.996Z</time>
</trkpt>
<trkpt lat="42.2974060" lon="1.3068680">
<ele>782.878784</ele>
<time>2024-06-13T13:53:37.997Z</time>
</trkpt>
<trkpt lat="42.2973470" lon="1.3069170">
<ele>782.573975</ele>
<time>2024-06-13T13:53:38.999Z</time>
</trkpt>
<trkpt lat="42.2973080" lon="1.3069710">
<ele>782.330139</ele>
<time>2024-06-13T13:53:40.001Z</time>
</trkpt>
<trkpt lat="42.2972730" lon="1.3070400">
<ele>781.964417</ele>
<time>2024-06-13T13:53:41.004Z</time>
</trkpt>
<trkpt lat="42.2972480" lon="1.3071230">
<ele>781.568115</ele>
<time>2024-06-13T13:53:41.997Z</time>
</trkpt>
<trkpt lat="42.2972280" lon="1.3072130">
<ele>781.232910</ele>
<time>2024-06-13T13:53:42.999Z</time>
</trkpt>
<trkpt lat="42.2971750" lon="1.3073890">
<ele>780.928101</ele>
<time>2024-06-13T13:53:45.004Z</time>
</trkpt>
<trkpt lat="42.2969800" lon="1.3079360">
<ele>779.983215</ele>
<time>2024-06-13T13:53:52.002Z</time>
</trkpt>
<trkpt lat="42.2969650" lon="1.3080260">
<ele>779.556519</ele>
<time>2024-06-13T13:53:52.996Z</time>
</trkpt>
<trkpt lat="42.2969670" lon="1.3081190">
<ele>779.221191</ele>
<time>2024-06-13T13:53:53.998Z</time>
</trkpt>
<trkpt lat="42.2969720" lon="1.3082150">
<ele>778.885864</ele>
<time>2024-06-13T13:53:55.000Z</time>
</trkpt>
<trkpt lat="42.2969850" lon="1.3083100">
<ele>778.733521</ele>
<time>2024-06-13T13:53:56.003Z</time>
</trkpt>
<trkpt lat="42.2970080" lon="1.3084020">
<ele>778.520142</ele>
<time>2024-06-13T13:53:56.996Z</time>
</trkpt>
<trkpt lat="42.2970230" lon="1.3085710">
<ele>778.245850</ele>
<time>2024-06-13T13:53:57.998Z</time>
</trkpt>
<trkpt lat="42.2970430" lon="1.3090540">
<ele>776.447510</ele>
<time>2024-06-13T13:54:04.003Z</time>
</trkpt>
<trkpt lat="42.2970630" lon="1.3092900">
<ele>775.655029</ele>
<time>2024-06-13T13:54:07.001Z</time>
</trkpt>
<trkpt lat="42.2970190" lon="1.3095580">
<ele>775.167358</ele>
<time>2024-06-13T13:54:11.002Z</time>
</trkpt>
<trkpt lat="42.2969130" lon="1.3104060">
<ele>774.374939</ele>
<time>2024-06-13T13:54:23.996Z</time>
</trkpt>
<trkpt lat="42.2968620" lon="1.3106640">
<ele>774.374939</ele>
<time>2024-06-13T13:54:27.996Z</time>
</trkpt>
<trkpt lat="42.2968370" lon="1.3107270">
<ele>774.374939</ele>
<time>2024-06-13T13:54:28.999Z</time>
</trkpt>
<trkpt lat="42.2968170" lon="1.3107790">
<ele>774.405334</ele>
<time>2024-06-13T13:54:30.001Z</time>
</trkpt>
<trkpt lat="42.2967980" lon="1.3108260">
<ele>774.405334</ele>
<time>2024-06-13T13:54:31.003Z</time>
</trkpt>
<trkpt lat="42.2967740" lon="1.3108710">
<ele>774.405334</ele>
<time>2024-06-13T13:54:31.997Z</time>
</trkpt>
<trkpt lat="42.2967400" lon="1.3109160">
<ele>774.405334</ele>
<time>2024-06-13T13:54:32.999Z</time>
</trkpt>
<trkpt lat="42.2967020" lon="1.3109650">
<ele>774.405334</ele>
<time>2024-06-13T13:54:34.001Z</time>
</trkpt>
<trkpt lat="42.2966660" lon="1.3110170">
<ele>774.435852</ele>
<time>2024-06-13T13:54:35.004Z</time>
</trkpt>
<trkpt lat="42.2966320" lon="1.3110710">
<ele>774.466309</ele>
<time>2024-06-13T13:54:35.997Z</time>
</trkpt>
<trkpt lat="42.2963830" lon="1.3115110">
<ele>774.649170</ele>
<time>2024-06-13T13:54:43.998Z</time>
</trkpt>
<trkpt lat="42.2963620" lon="1.3115760">
<ele>774.679688</ele>
<time>2024-06-13T13:54:45.000Z</time>
</trkpt>
<trkpt lat="42.2963260" lon="1.3117090">
<ele>774.679688</ele>
<time>2024-06-13T13:54:46.996Z</time>
</trkpt>
<trkpt lat="42.2963170" lon="1.3117750">
<ele>774.679688</ele>
<time>2024-06-13T13:54:47.998Z</time>
</trkpt>
<trkpt lat="42.2963180" lon="1.3118360">
<ele>774.679688</ele>
<time>2024-06-13T13:54:49.000Z</time>
</trkpt>
<trkpt lat="42.2963260" lon="1.3119020">
<ele>774.679688</ele>
<time>2024-06-13T13:54:50.003Z</time>
</trkpt>
<trkpt lat="42.2963410" lon="1.3119680">
<ele>774.679688</ele>
<time>2024-06-13T13:54:50.996Z</time>
</trkpt>
<trkpt lat="42.2963620" lon="1.3120330">
<ele>774.679688</ele>
<time>2024-06-13T13:54:51.998Z</time>
</trkpt>
<trkpt lat="42.2964680" lon="1.3122620">
<ele>774.496826</ele>
<time>2024-06-13T13:54:55.999Z</time>
</trkpt>
<trkpt lat="42.2964470" lon="1.3124120">
<ele>774.161499</ele>
<time>2024-06-13T13:54:58.997Z</time>
</trkpt>
<trkpt lat="42.2964040" lon="1.3125140">
<ele>773.826233</ele>
<time>2024-06-13T13:55:02.997Z</time>
</trkpt>
<trkpt lat="42.2963800" lon="1.3126210">
<ele>773.704285</ele>
<time>2024-06-13T13:55:05.002Z</time>
</trkpt>
<trkpt lat="42.2962740" lon="1.3126500">
<ele>773.551880</ele>
<time>2024-06-13T13:55:06.997Z</time>
</trkpt>
<trkpt lat="42.2955930" lon="1.3124880">
<ele>773.125183</ele>
<time>2024-06-13T13:55:17.996Z</time>
</trkpt>
<trkpt lat="42.2955360" lon="1.3124970">
<ele>773.125183</ele>
<time>2024-06-13T13:55:18.998Z</time>
</trkpt>
<trkpt lat="42.2954820" lon="1.3125250">
<ele>773.125183</ele>
<time>2024-06-13T13:55:20.001Z</time>
</trkpt>
<trkpt lat="42.2954310" lon="1.3125700">
<ele>773.155701</ele>
<time>2024-06-13T13:55:21.003Z</time>
</trkpt>
<trkpt lat="42.2953820" lon="1.3126320">
<ele>773.155701</ele>
<time>2024-06-13T13:55:21.996Z</time>
</trkpt>
<trkpt lat="42.2953380" lon="1.3127020">
<ele>773.216675</ele>
<time>2024-06-13T13:55:22.999Z</time>
</trkpt>
<trkpt lat="42.2951440" lon="1.3130290">
<ele>773.277588</ele>
<time>2024-06-13T13:55:24.001Z</time>
</trkpt>
<trkpt lat="42.2948260" lon="1.3138390">
<ele>773.734802</ele>
<time>2024-06-13T13:55:37.004Z</time>
</trkpt>
<trkpt lat="42.2945980" lon="1.3143970">
<ele>773.490967</ele>
<time>2024-06-13T13:55:45.998Z</time>
</trkpt>
<trkpt lat="42.2945660" lon="1.3145530">
<ele>773.429993</ele>
<time>2024-06-13T13:55:47.001Z</time>
</trkpt>
<trkpt lat="42.2945580" lon="1.3146810">
<ele>773.338562</ele>
<time>2024-06-13T13:55:48.003Z</time>
</trkpt>
<trkpt lat="42.2945300" lon="1.3148910">
<ele>773.247070</ele>
<time>2024-06-13T13:55:49.999Z</time>
</trkpt>
<trkpt lat="42.2945420" lon="1.3152930">
<ele>773.064270</ele>
<time>2024-06-13T13:55:56.004Z</time>
</trkpt>
<trkpt lat="42.2944950" lon="1.3155770">
<ele>772.942261</ele>
<time>2024-06-13T13:56:00.004Z</time>
</trkpt>
<trkpt lat="42.2944470" lon="1.3157220">
<ele>772.881348</ele>
<time>2024-06-13T13:56:03.002Z</time>
</trkpt>
<trkpt lat="42.2943520" lon="1.3158990">
<ele>772.850891</ele>
<time>2024-06-13T13:56:04.004Z</time>
</trkpt>
<trkpt lat="42.2938780" lon="1.3165640">
<ele>770.778259</ele>
<time>2024-06-13T13:56:18.001Z</time>
</trkpt>
<trkpt lat="42.2937710" lon="1.3167150">
<ele>770.412537</ele>
<time>2024-06-13T13:56:19.003Z</time>
</trkpt>
<trkpt lat="42.2937700" lon="1.3168720">
<ele>770.046692</ele>
<time>2024-06-13T13:56:19.997Z</time>
</trkpt>
<trkpt lat="42.2937690" lon="1.3169570">
<ele>769.741882</ele>
<time>2024-06-13T13:56:20.999Z</time>
</trkpt>
<trkpt lat="42.2937820" lon="1.3170440">
<ele>769.376160</ele>
<time>2024-06-13T13:56:22.001Z</time>
</trkpt>
<trkpt lat="42.2938070" lon="1.3171300">
<ele>769.040894</ele>
<time>2024-06-13T13:56:23.004Z</time>
</trkpt>
<trkpt lat="42.2938390" lon="1.3172130">
<ele>768.675110</ele>
<time>2024-06-13T13:56:23.997Z</time>
</trkpt>
<trkpt lat="42.2939190" lon="1.3174530">
<ele>767.577881</ele>
<time>2024-06-13T13:56:27.004Z</time>
</trkpt>
<trkpt lat="42.2939310" lon="1.3175360">
<ele>767.303467</ele>
<time>2024-06-13T13:56:27.997Z</time>
</trkpt>
<trkpt lat="42.2939330" lon="1.3176220">
<ele>766.907288</ele>
<time>2024-06-13T13:56:29.000Z</time>
</trkpt>
<trkpt lat="42.2939270" lon="1.3177050">
<ele>766.450134</ele>
<time>2024-06-13T13:56:30.002Z</time>
</trkpt>
<trkpt lat="42.2939200" lon="1.3177880">
<ele>765.992920</ele>
<time>2024-06-13T13:56:31.004Z</time>
</trkpt>
<trkpt lat="42.2939190" lon="1.3178690">
<ele>765.474670</ele>
<time>2024-06-13T13:56:31.998Z</time>
</trkpt>
<trkpt lat="42.2939250" lon="1.3179480">
<ele>764.834656</ele>
<time>2024-06-13T13:56:33.000Z</time>
</trkpt>
<trkpt lat="42.2939380" lon="1.3180250">
<ele>764.286011</ele>
<time>2024-06-13T13:56:34.002Z</time>
</trkpt>
<trkpt lat="42.2939590" lon="1.3181010">
<ele>763.889771</ele>
<time>2024-06-13T13:56:34.996Z</time>
</trkpt>
<trkpt lat="42.2939850" lon="1.3181760">
<ele>763.463074</ele>
<time>2024-06-13T13:56:35.998Z</time>
</trkpt>
<trkpt lat="42.2940150" lon="1.3182500">
<ele>762.670532</ele>
<time>2024-06-13T13:56:37.000Z</time>
</trkpt>
<trkpt lat="42.2940650" lon="1.3184010">
<ele>761.756165</ele>
<time>2024-06-13T13:56:38.996Z</time>
</trkpt>
<trkpt lat="42.2940760" lon="1.3184810">
<ele>761.268494</ele>
<time>2024-06-13T13:56:39.998Z</time>
</trkpt>
<trkpt lat="42.2940720" lon="1.3185640">
<ele>760.841736</ele>
<time>2024-06-13T13:56:41.001Z</time>
</trkpt>
<trkpt lat="42.2940540" lon="1.3186470">
<ele>760.415039</ele>
<time>2024-06-13T13:56:42.003Z</time>
</trkpt>
<trkpt lat="42.2940200" lon="1.3187280">
<ele>759.957825</ele>
<time>2024-06-13T13:56:42.996Z</time>
</trkpt>
<trkpt lat="42.2939750" lon="1.3188060">
<ele>759.409180</ele>
<time>2024-06-13T13:56:43.999Z</time>
</trkpt>
<trkpt lat="42.2939240" lon="1.3188850">
<ele>758.891052</ele>
<time>2024-06-13T13:56:45.001Z</time>
</trkpt>
<trkpt lat="42.2936080" lon="1.3193700">
<ele>755.782104</ele>
<time>2024-06-13T13:56:50.997Z</time>
</trkpt>
<trkpt lat="42.2933200" lon="1.3197260">
<ele>752.246399</ele>
<time>2024-06-13T13:56:56.000Z</time>
</trkpt>
<trkpt lat="42.2932640" lon="1.3198030">
<ele>751.514893</ele>
<time>2024-06-13T13:56:57.002Z</time>
</trkpt>
<trkpt lat="42.2932100" lon="1.3198900">
<ele>750.844299</ele>
<time>2024-06-13T13:56:58.004Z</time>
</trkpt>
<trkpt lat="42.2931610" lon="1.3199850">
<ele>750.204285</ele>
<time>2024-06-13T13:56:58.998Z</time>
</trkpt>
<trkpt lat="42.2930130" lon="1.3202860">
<ele>748.101074</ele>
<time>2024-06-13T13:57:01.996Z</time>
</trkpt>
<trkpt lat="42.2928450" lon="1.3208760">
<ele>744.626404</ele>
<time>2024-06-13T13:57:06.998Z</time>
</trkpt>
<trkpt lat="42.2927650" lon="1.3214840">
<ele>740.907837</ele>
<time>2024-06-13T13:57:12.001Z</time>
</trkpt>
<trkpt lat="42.2927170" lon="1.3216930">
<ele>739.658142</ele>
<time>2024-06-13T13:57:13.997Z</time>
</trkpt>
<trkpt lat="42.2926770" lon="1.3217830">
<ele>739.048523</ele>
<time>2024-06-13T13:57:14.999Z</time>
</trkpt>
<trkpt lat="42.2926280" lon="1.3218610">
<ele>738.377991</ele>
<time>2024-06-13T13:57:16.001Z</time>
</trkpt>
<trkpt lat="42.2925740" lon="1.3219190">
<ele>737.676941</ele>
<time>2024-06-13T13:57:17.004Z</time>
</trkpt>
<trkpt lat="42.2925050" lon="1.3219610">
<ele>736.975891</ele>
<time>2024-06-13T13:57:17.997Z</time>
</trkpt>
<trkpt lat="42.2924320" lon="1.3219820">
<ele>736.152954</ele>
<time>2024-06-13T13:57:18.999Z</time>
</trkpt>
<trkpt lat="42.2923550" lon="1.3219840">
<ele>735.269043</ele>
<time>2024-06-13T13:57:20.002Z</time>
</trkpt>
<trkpt lat="42.2922740" lon="1.3219710">
<ele>734.598511</ele>
<time>2024-06-13T13:57:21.004Z</time>
</trkpt>
<trkpt lat="42.2921990" lon="1.3219510">
<ele>733.866943</ele>
<time>2024-06-13T13:57:21.997Z</time>
</trkpt>
<trkpt lat="42.2921280" lon="1.3219370">
<ele>733.287842</ele>
<time>2024-06-13T13:57:23.000Z</time>
</trkpt>
<trkpt lat="42.2920570" lon="1.3219470">
<ele>732.708679</ele>
<time>2024-06-13T13:57:24.002Z</time>
</trkpt>
<trkpt lat="42.2919860" lon="1.3219810">
<ele>731.489502</ele>
<time>2024-06-13T13:57:25.004Z</time>
</trkpt>
<trkpt lat="42.2919190" lon="1.3220410">
<ele>731.489502</ele>
<time>2024-06-13T13:57:25.998Z</time>
</trkpt>
<trkpt lat="42.2918680" lon="1.3221180">
<ele>730.300781</ele>
<time>2024-06-13T13:57:27.000Z</time>
</trkpt>
<trkpt lat="42.2918110" lon="1.3222010">
<ele>729.538818</ele>
<time>2024-06-13T13:57:28.002Z</time>
</trkpt>
<trkpt lat="42.2917010" lon="1.3223850">
<ele>728.380554</ele>
<time>2024-06-13T13:57:29.998Z</time>
</trkpt>
<trkpt lat="42.2916540" lon="1.3224870">
<ele>727.862427</ele>
<time>2024-06-13T13:57:31.000Z</time>
</trkpt>
<trkpt lat="42.2915010" lon="1.3228580">
<ele>726.064087</ele>
<time>2024-06-13T13:57:35.001Z</time>
</trkpt>
<trkpt lat="42.2914940" lon="1.3229530">
<ele>725.424011</ele>
<time>2024-06-13T13:57:36.003Z</time>
</trkpt>
<trkpt lat="42.2915010" lon="1.3230560">
<ele>724.783875</ele>
<time>2024-06-13T13:57:36.996Z</time>
</trkpt>
<trkpt lat="42.2915190" lon="1.3231640">
<ele>724.326660</ele>
<time>2024-06-13T13:57:37.999Z</time>
</trkpt>
<trkpt lat="42.2915400" lon="1.3232730">
<ele>723.747620</ele>
<time>2024-06-13T13:57:39.001Z</time>
</trkpt>
<trkpt lat="42.2916180" lon="1.3235950">
<ele>721.492126</ele>
<time>2024-06-13T13:57:41.999Z</time>
</trkpt>
<trkpt lat="42.2916540" lon="1.3236940">
<ele>721.004395</ele>
<time>2024-06-13T13:57:43.001Z</time>
</trkpt>
<trkpt lat="42.2916960" lon="1.3237880">
<ele>720.547180</ele>
<time>2024-06-13T13:57:44.004Z</time>
</trkpt>
<trkpt lat="42.2917400" lon="1.3238760">
<ele>720.120483</ele>
<time>2024-06-13T13:57:44.997Z</time>
</trkpt>
<trkpt lat="42.2917880" lon="1.3239570">
<ele>719.602295</ele>
<time>2024-06-13T13:57:45.999Z</time>
</trkpt>
<trkpt lat="42.2918230" lon="1.3240370">
<ele>718.931763</ele>
<time>2024-06-13T13:57:47.002Z</time>
</trkpt>
<trkpt lat="42.2918430" lon="1.3241160">
<ele>718.169739</ele>
<time>2024-06-13T13:57:48.004Z</time>
</trkpt>
<trkpt lat="42.2918380" lon="1.3242000">
<ele>717.163879</ele>
<time>2024-06-13T13:57:48.997Z</time>
</trkpt>
<trkpt lat="42.2918320" lon="1.3242850">
<ele>717.163879</ele>
<time>2024-06-13T13:57:50.000Z</time>
</trkpt>
<trkpt lat="42.2918120" lon="1.3243640">
<ele>716.523865</ele>
<time>2024-06-13T13:57:51.002Z</time>
</trkpt>
<trkpt lat="42.2917840" lon="1.3244400">
<ele>716.340942</ele>
<time>2024-06-13T13:57:52.004Z</time>
</trkpt>
<trkpt lat="42.2917740" lon="1.3245220">
<ele>716.097107</ele>
<time>2024-06-13T13:57:52.998Z</time>
</trkpt>
<trkpt lat="42.2917740" lon="1.3246080">
<ele>715.731323</ele>
<time>2024-06-13T13:57:54.000Z</time>
</trkpt>
<trkpt lat="42.2917910" lon="1.3246950">
<ele>715.457031</ele>
<time>2024-06-13T13:57:55.002Z</time>
</trkpt>
<trkpt lat="42.2918200" lon="1.3247820">
<ele>715.182678</ele>
<time>2024-06-13T13:57:55.996Z</time>
</trkpt>
<trkpt lat="42.2918580" lon="1.3248690">
<ele>714.816956</ele>
<time>2024-06-13T13:57:56.998Z</time>
</trkpt>
<trkpt lat="42.2919010" lon="1.3249570">
<ele>714.390259</ele>
<time>2024-06-13T13:57:58.000Z</time>
</trkpt>
<trkpt lat="42.2919330" lon="1.3250490">
<ele>714.024536</ele>
<time>2024-06-13T13:57:59.003Z</time>
</trkpt>
<trkpt lat="42.2919620" lon="1.3251460">
<ele>713.780640</ele>
<time>2024-06-13T13:57:59.996Z</time>
</trkpt>
<trkpt lat="42.2921440" lon="1.3257680">
<ele>712.317627</ele>
<time>2024-06-13T13:58:06.001Z</time>
</trkpt>
<trkpt lat="42.2921840" lon="1.3258610">
<ele>712.012817</ele>
<time>2024-06-13T13:58:07.003Z</time>
</trkpt>
<trkpt lat="42.2922320" lon="1.3259450">
<ele>711.586121</ele>
<time>2024-06-13T13:58:07.997Z</time>
</trkpt>
<trkpt lat="42.2923950" lon="1.3261940">
<ele>709.970642</ele>
<time>2024-06-13T13:58:11.004Z</time>
</trkpt>
<trkpt lat="42.2924300" lon="1.3262920">
<ele>709.147705</ele>
<time>2024-06-13T13:58:11.997Z</time>
</trkpt>
<trkpt lat="42.2924550" lon="1.3264040">
<ele>707.745605</ele>
<time>2024-06-13T13:58:12.999Z</time>
</trkpt>
<trkpt lat="42.2924690" lon="1.3265280">
<ele>707.745605</ele>
<time>2024-06-13T13:58:14.002Z</time>
</trkpt>
<trkpt lat="42.2924770" lon="1.3266610">
<ele>706.404480</ele>
<time>2024-06-13T13:58:15.004Z</time>
</trkpt>
<trkpt lat="42.2924750" lon="1.3267950">
<ele>705.672974</ele>
<time>2024-06-13T13:58:15.997Z</time>
</trkpt>
<trkpt lat="42.2924710" lon="1.3269300">
<ele>704.849976</ele>
<time>2024-06-13T13:58:17.000Z</time>
</trkpt>
<trkpt lat="42.2923790" lon="1.3276200">
<ele>701.131470</ele>
<time>2024-06-13T13:58:22.002Z</time>
</trkpt>
<trkpt lat="42.2923590" lon="1.3281190">
<ele>697.534790</ele>
<time>2024-06-13T13:58:26.003Z</time>
</trkpt>
<trkpt lat="42.2922560" lon="1.3285480">
<ele>694.517334</ele>
<time>2024-06-13T13:58:30.003Z</time>
</trkpt>
<trkpt lat="42.2921410" lon="1.3287680">
<ele>693.816284</ele>
<time>2024-06-13T13:58:30.996Z</time>
</trkpt>
<trkpt lat="42.2918390" lon="1.3292400">
<ele>690.250122</ele>
<time>2024-06-13T13:58:37.001Z</time>
</trkpt>
<trkpt lat="42.2916920" lon="1.3293850">
<ele>688.604126</ele>
<time>2024-06-13T13:58:39.999Z</time>
</trkpt>
<trkpt lat="42.2916130" lon="1.3294760">
<ele>688.177429</ele>
<time>2024-06-13T13:58:41.002Z</time>
</trkpt>
<trkpt lat="42.2914770" lon="1.3295730">
<ele>687.689758</ele>
<time>2024-06-13T13:58:42.997Z</time>
</trkpt>
<trkpt lat="42.2914120" lon="1.3296170">
<ele>687.323975</ele>
<time>2024-06-13T13:58:44.000Z</time>
</trkpt>
<trkpt lat="42.2913570" lon="1.3296790">
<ele>686.927734</ele>
<time>2024-06-13T13:58:45.002Z</time>
</trkpt>
<trkpt lat="42.2913010" lon="1.3297500">
<ele>686.653442</ele>
<time>2024-06-13T13:58:46.004Z</time>
</trkpt>
<trkpt lat="42.2910310" lon="1.3301150">
<ele>685.830505</ele>
<time>2024-06-13T13:58:52.000Z</time>
</trkpt>
<trkpt lat="42.2909940" lon="1.3303560">
<ele>685.739075</ele>
<time>2024-06-13T13:58:53.003Z</time>
</trkpt>
<trkpt lat="42.2909830" lon="1.3305010">
<ele>685.678101</ele>
<time>2024-06-13T13:58:53.996Z</time>
</trkpt>
<trkpt lat="42.2909320" lon="1.3307690">
<ele>685.403748</ele>
<time>2024-06-13T13:58:54.998Z</time>
</trkpt>
<trkpt lat="42.2909270" lon="1.3312360">
<ele>682.416687</ele>
<time>2024-06-13T13:59:00.001Z</time>
</trkpt>
<trkpt lat="42.2909910" lon="1.3313750">
<ele>680.770813</ele>
<time>2024-06-13T13:59:01.003Z</time>
</trkpt>
<trkpt lat="42.2910510" lon="1.3315150">
<ele>680.770813</ele>
<time>2024-06-13T13:59:01.997Z</time>
</trkpt>
<trkpt lat="42.2911860" lon="1.3319330">
<ele>676.686523</ele>
<time>2024-06-13T13:59:05.004Z</time>
</trkpt>
<trkpt lat="42.2913560" lon="1.3324110">
<ele>673.577515</ele>
<time>2024-06-13T13:59:09.004Z</time>
</trkpt>
<trkpt lat="42.2914000" lon="1.3327430">
<ele>670.316162</ele>
<time>2024-06-13T13:59:12.002Z</time>
</trkpt>
<trkpt lat="42.2914000" lon="1.3328830">
<ele>669.218933</ele>
<time>2024-06-13T13:59:13.004Z</time>
</trkpt>
<trkpt lat="42.2914000" lon="1.3330010">
<ele>668.213074</ele>
<time>2024-06-13T13:59:13.998Z</time>
</trkpt>
<trkpt lat="42.2913520" lon="1.3338060">
<ele>664.463989</ele>
<time>2024-06-13T13:59:20.003Z</time>
</trkpt>
<trkpt lat="42.2916340" lon="1.3347920">
<ele>661.995117</ele>
<time>2024-06-13T13:59:29.999Z</time>
</trkpt>
<trkpt lat="42.2918730" lon="1.3363710">
<ele>659.160522</ele>
<time>2024-06-13T13:59:43.996Z</time>
</trkpt>
<trkpt lat="42.2919060" lon="1.3365880">
<ele>658.977600</ele>
<time>2024-06-13T13:59:46.000Z</time>
</trkpt>
<trkpt lat="42.2920490" lon="1.3371890">
<ele>658.611877</ele>
<time>2024-06-13T13:59:51.996Z</time>
</trkpt>
<trkpt lat="42.2920550" lon="1.3372940">
<ele>658.550903</ele>
<time>2024-06-13T13:59:52.999Z</time>
</trkpt>
<trkpt lat="42.2921000" lon="1.3380740">
<ele>658.276550</ele>
<time>2024-06-13T14:00:00.999Z</time>
</trkpt>
<trkpt lat="42.2921180" lon="1.3381610">
<ele>658.276550</ele>
<time>2024-06-13T14:00:02.002Z</time>
</trkpt>
<trkpt lat="42.2921400" lon="1.3382470">
<ele>658.276550</ele>
<time>2024-06-13T14:00:03.004Z</time>
</trkpt>
<trkpt lat="42.2921670" lon="1.3383320">
<ele>658.276550</ele>
<time>2024-06-13T14:00:03.997Z</time>
</trkpt>
<trkpt lat="42.2921920" lon="1.3384170">
<ele>658.276550</ele>
<time>2024-06-13T14:00:05.000Z</time>
</trkpt>
<trkpt lat="42.2924610" lon="1.3393420">
<ele>658.093689</ele>
<time>2024-06-13T14:00:15.998Z</time>
</trkpt>
<trkpt lat="42.2924730" lon="1.3394290">
<ele>658.063171</ele>
<time>2024-06-13T14:00:17.001Z</time>
</trkpt>
<trkpt lat="42.2924800" lon="1.3395210">
<ele>658.032715</ele>
<time>2024-06-13T14:00:18.003Z</time>
</trkpt>
<trkpt lat="42.2924770" lon="1.3396140">
<ele>658.032715</ele>
<time>2024-06-13T14:00:18.996Z</time>
</trkpt>
<trkpt lat="42.2924710" lon="1.3397060">
<ele>657.971741</ele>
<time>2024-06-13T14:00:19.999Z</time>
</trkpt>
<trkpt lat="42.2924560" lon="1.3397980">
<ele>657.941284</ele>
<time>2024-06-13T14:00:21.001Z</time>
</trkpt>
<trkpt lat="42.2924400" lon="1.3398840">
<ele>657.880310</ele>
<time>2024-06-13T14:00:22.003Z</time>
</trkpt>
<trkpt lat="42.2921610" lon="1.3409640">
<ele>656.996399</ele>
<time>2024-06-13T14:00:34.998Z</time>
</trkpt>
<trkpt lat="42.2921540" lon="1.3410540">
<ele>656.965881</ele>
<time>2024-06-13T14:00:36.000Z</time>
</trkpt>
<trkpt lat="42.2921520" lon="1.3411450">
<ele>656.904968</ele>
<time>2024-06-13T14:00:37.002Z</time>
</trkpt>
<trkpt lat="42.2921970" lon="1.3415250">
<ele>656.600159</ele>
<time>2024-06-13T14:00:41.003Z</time>
</trkpt>
<trkpt lat="42.2922330" lon="1.3416130">
<ele>656.417297</ele>
<time>2024-06-13T14:00:41.996Z</time>
</trkpt>
<trkpt lat="42.2922820" lon="1.3416920">
<ele>656.234375</ele>
<time>2024-06-13T14:00:42.998Z</time>
</trkpt>
<trkpt lat="42.2923400" lon="1.3417630">
<ele>656.142944</ele>
<time>2024-06-13T14:00:44.001Z</time>
</trkpt>
<trkpt lat="42.2924010" lon="1.3418330">
<ele>655.868652</ele>
<time>2024-06-13T14:00:45.003Z</time>
</trkpt>
<trkpt lat="42.2925740" lon="1.3420690">
<ele>654.893311</ele>
<time>2024-06-13T14:00:48.001Z</time>
</trkpt>
<trkpt lat="42.2926220" lon="1.3421570">
<ele>654.497070</ele>
<time>2024-06-13T14:00:49.003Z</time>
</trkpt>
<trkpt lat="42.2929770" lon="1.3428830">
<ele>651.113770</ele>
<time>2024-06-13T14:00:57.004Z</time>
</trkpt>
<trkpt lat="42.2930780" lon="1.3431340">
<ele>649.803101</ele>
<time>2024-06-13T14:01:00.002Z</time>
</trkpt>
<trkpt lat="42.2930990" lon="1.3432230">
<ele>649.437317</ele>
<time>2024-06-13T14:01:01.004Z</time>
</trkpt>
<trkpt lat="42.2931150" lon="1.3433170">
<ele>649.163025</ele>
<time>2024-06-13T14:01:01.998Z</time>
</trkpt>
<trkpt lat="42.2930970" lon="1.3437570">
<ele>647.364685</ele>
<time>2024-06-13T14:01:07.000Z</time>
</trkpt>
<trkpt lat="42.2931090" lon="1.3444110">
<ele>645.718811</ele>
<time>2024-06-13T14:01:16.003Z</time>
</trkpt>
<trkpt lat="42.2931330" lon="1.3445830">
<ele>645.505432</ele>
<time>2024-06-13T14:01:16.997Z</time>
</trkpt>
<trkpt lat="42.2931600" lon="1.3451140">
<ele>644.591064</ele>
<time>2024-06-13T14:01:28.004Z</time>
</trkpt>
<trkpt lat="42.2932040" lon="1.3451030">
<ele>645.749329</ele>
<time>2024-06-13T14:01:39.003Z</time>
</trkpt>
<trkpt lat="42.2932120" lon="1.3450010">
<ele>645.810242</ele>
<time>2024-06-13T14:01:44.999Z</time>
</trkpt>
<trkpt lat="42.2932270" lon="1.3448720">
<ele>645.810242</ele>
<time>2024-06-13T14:01:46.001Z</time>
</trkpt>
<trkpt lat="42.2933780" lon="1.3448500">
<ele>645.901733</ele>
<time>2024-06-13T14:01:57.000Z</time>
</trkpt>
<trkpt lat="42.2936110" lon="1.3448720">
<ele>646.724670</ele>
<time>2024-06-13T14:02:02.996Z</time>
</trkpt>
<trkpt lat="42.2936550" lon="1.3448720">
<ele>646.937988</ele>
<time>2024-06-13T14:02:03.998Z</time>
</trkpt>
<trkpt lat="42.2936970" lon="1.3448600">
<ele>647.486633</ele>
<time>2024-06-13T14:02:05.001Z</time>
</trkpt>
<trkpt lat="42.2937390" lon="1.3448390">
<ele>647.882935</ele>
<time>2024-06-13T14:02:06.003Z</time>
</trkpt>
<trkpt lat="42.2939430" lon="1.3445560">
<ele>650.016479</ele>
<time>2024-06-13T14:02:13.001Z</time>
</trkpt>
<trkpt lat="42.2941420" lon="1.3442230">
<ele>653.155884</ele>
<time>2024-06-13T14:02:24.000Z</time>
</trkpt>
<trkpt lat="42.2944910" lon="1.3437990">
<ele>656.325867</ele>
<time>2024-06-13T14:02:38.999Z</time>
</trkpt>
<trkpt lat="42.2946960" lon="1.3435370">
<ele>659.343323</ele>
<time>2024-06-13T14:02:52.002Z</time>
</trkpt>
<trkpt lat="42.2946800" lon="1.3435220">
<ele>659.465332</ele>
<time>2024-06-13T14:02:52.996Z</time>
</trkpt>
<trkpt lat="42.2946590" lon="1.3435190">
<ele>659.648132</ele>
<time>2024-06-13T14:02:53.998Z</time>
</trkpt>
<trkpt lat="42.2946380" lon="1.3435260">
<ele>659.831055</ele>
<time>2024-06-13T14:02:55.000Z</time>
</trkpt>
<trkpt lat="42.2946240" lon="1.3435360">
<ele>660.135864</ele>
<time>2024-06-13T14:02:56.003Z</time>
</trkpt>
<trkpt lat="42.2946120" lon="1.3435500">
<ele>660.349182</ele>
<time>2024-06-13T14:02:56.996Z</time>
</trkpt>
<trkpt lat="42.2945930" lon="1.3435990">
<ele>661.537903</ele>
<time>2024-06-13T14:03:00.003Z</time>
</trkpt>
<trkpt lat="42.2945630" lon="1.3436460">
<ele>662.909485</ele>
<time>2024-06-13T14:03:18.000Z</time>
</trkpt>
<trkpt lat="42.2945640" lon="1.3436440">
<ele>638.373108</ele>
<time>2024-06-13T14:03:23.996Z</time>
</trkpt>
</trkseg>
</trk>
</gpx>
